# Wetter Temperatur Luftdruck Luftfeuchtigkeit Sichtweite Windgeschwindigkeit Windrichtung Zeit
1 Clouds 1 1009 94 10000 3.6 250 21:54 28.01.2020
2 Rain 1 1010 86 10000 4.1 260 21:36 28.01.2020
3 Rain 1 1010 86 10000 4.1 260 21:18 28.01.2020
4 Rain 1 1010 86 4500 5.1 250 20:45 28.01.2020
5 Rain 1 1009 96 10000 6.7 250 20:25 28.01.2020
6 Rain 1 1009 96 6000 3.6 250 19:55 28.01.2020
7 Rain 0 1005 96 8000 10.3 280 19:37 28.01.2020
8 Rain 1 1005 96 8000 10.3 280 19:19 28.01.2020
9 Rain 1 1005 96 8000 10.3 280 19:19 28.01.2020
10 Rain 1 1005 96 8000 10.3 280 19:19 28.01.2020
11 Rain 1 1008 100 6000 12.9 290 18:41 28.01.2020
12 Snow 1 1003 80 2000 3.6 10 18:23 28.01.2020
13 Snow 2 1004 96 8000 9.8 270 17:59 28.01.2020
14 Clouds 2 1006 96 10000 5.7 220 17:39 28.01.2020
15 Clouds 2 1006 95 10000 5.7 220 17:21 28.01.2020
16 Snow 2 1004 95 5000 9.8 280 16:57 28.01.2020
17 Clouds 2 1006 95 10000 5.7 220 16:39 28.01.2020
18 Snow 3 1003 64 10000 11.3 260 16:21 28.01.2020
19 Clouds 3 1006 95 10000 5.7 220 15:45 28.01.2020
20 Clouds 3 1005 52 10000 6.7 220 15:19 28.01.2020
21 Clouds 3 1005 52 10000 8.2 220 14:57 28.01.2020
22 Clouds 4 1005 52 10000 8.2 220 14:38 28.01.2020
23 Clouds 4 1005 52 10000 8.2 220 14:38 28.01.2020
24 Clouds 3 1002 74 10000 16.5 260 14:18 28.01.2020
25 Clouds 3 1006 56 10000 8.7 230 13:40 28.01.2020
26 Rain 3 1006 75 10000 10.3 220 13:22 28.01.2020
27 Rain 2 1002 86 2000 15.9 270 12:43 28.01.2020
28 Rain 2 1002 86 2000 15.9 270 12:24 28.01.2020
29 Rain 2 1002 97 7000 17 280 11:56 28.01.2020
30 Rain 3 1002 86 10000 8.7 240 11:37 28.01.2020
31 Rain 3 1004 86 2500 10.3 260 11:19 28.01.2020
32 Rain 4 1003 87 10000 1.5 0 10:41 28.01.2020
33 Rain 4 1003 87 10000 1.5 0 10:22 28.01.2020
34 Clouds 4 1003 81 10000 2.1 300 09:56 28.01.2020
35 Rain 4 1001 80 10000 12.9 230 09:37 28.01.2020
36 Rain 4 1004 81 10000 3.6 240 09:19 28.01.2020
37 Rain 4 1002 86 7000 10.3 250 08:42 28.01.2020
38 Rain 4 1002 86 9000 7.2 250 08:20 28.01.2020
39 Rain 4 1002 93 10000 6.2 230 07:38 28.01.2020
40 Rain 4 1004 87 10000 2.1 190 06:51 28.01.2020
41 Rain 4 1004 75 10000 1.5 0 06:29 28.01.2020
42 Rain 4 1004 75 10000 1.5 0 06:29 28.01.2020
43 Rain 4 1003 86 9000 6.2 230 05:55 28.01.2020
44 Clouds 4 1005 93 10000 4.6 100 05:33 28.01.2020
45 Rain 4 1006 93 10000 1 0 04:38 28.01.2020
46 Rain 4 1006 100 10000 4.1 280 03:36 28.01.2020
47 Rain 4 1006 87 10000 1 0 02:25 28.01.2020
48 Clouds 4 1005 86 10000 6.2 210 01:58 28.01.2020
49 Clouds 4 1006 75 10000 2.6 20 01:40 28.01.2020
50 Clouds 4 1007 75 10000 4.6 90 00:51 28.01.2020
51 Clouds 4 1008 81 10000 3.6 110 00:29 28.01.2020
52 Clouds 4 1008 86 10000 1.5 0 23:52 27.01.2020
53 Clouds 4 1008 81 10000 1.5 0 23:30 27.01.2020
54 Clouds 4 1009 86 10000 0.5 0 22:59 27.01.2020
55 Clouds 4 1009 86 10000 0.5 0 22:41 27.01.2020
56 Clouds 4 1009 93 10000 1 0 22:20 27.01.2020
57 Clouds 4 1009 93 10000 0.5 0 21:55 27.01.2020
58 Clouds 4 1008 75 10000 4.1 180 21:37 27.01.2020
59 Clouds 4 1009 87 10000 2.6 120 21:18 27.01.2020
60 Clouds 4 1010 100 9000 2.6 270 20:43 27.01.2020
61 Clouds 4 1010 100 9000 2.6 270 20:22 27.01.2020
62 Clouds 5 1010 87 10000 1.5 80 19:59 27.01.2020
63 Clouds 5 1010 87 10000 1.5 80 19:41 27.01.2020
64 Clouds 5 1011 100 9000 2.1 120 19:22 27.01.2020
65 Clouds 5 1011 100 9000 2.1 120 18:56 27.01.2020
66 Clouds 5 1010 75 10000 3.1 190 18:38 27.01.2020
67 Clouds 5 1011 100 8000 1 0 18:19 27.01.2020
68 Clouds 5 1011 100 8000 1 0 17:39 27.01.2020
69 Clouds 6 1012 93 10000 1.5 280 17:21 27.01.2020
70 Clouds 6 1012 93 10000 1.5 280 16:59 27.01.2020
71 Clouds 7 1012 93 10000 1.5 280 16:40 27.01.2020
72 Clouds 7 1012 93 10000 1.5 280 16:22 27.01.2020
73 Clouds 7 1012 87 10000 1 0 15:55 27.01.2020
74 Clouds 8 1012 87 10000 1 0 15:36 27.01.2020
75 Clouds 8 1012 87 10000 1 0 15:18 27.01.2020
76 Clouds 8 1013 87 10000 1.5 310 14:41 27.01.2020
77 Clouds 8 1013 87 10000 1.5 310 14:22 27.01.2020
78 Clouds 8 1014 87 10000 1.5 0 13:57 27.01.2020
79 Clouds 8 1013 65 10000 5.1 230 13:37 27.01.2020
80 Clouds 8 1015 87 10000 3.1 290 13:18 27.01.2020
81 Clouds 8 1015 87 10000 3.1 290 12:44 27.01.2020
82 Clouds 8 1016 87 10000 1 0 12:23 27.01.2020
83 Clouds 7 1016 87 10000 1 0 11:58 27.01.2020
84 Clouds 7 1016 87 10000 1 0 11:40 27.01.2020
85 Clouds 6 1017 100 10000 2.6 260 11:19 27.01.2020
86 Clouds 5 1017 100 10000 2.6 260 10:42 27.01.2020
87 Clouds 4 1017 100 8000 2.6 110 10:24 27.01.2020
88 Clouds 3 1017 100 8000 2.6 110 09:40 27.01.2020
89 Clouds 3 1018 100 10000 1 0 09:19 27.01.2020
90 Clouds 3 1018 100 10000 1 0 09:19 27.01.2020
91 Clouds 2 1018 100 10000 1 0 08:59 27.01.2020
92 Clouds 2 1018 100 10000 1 0 08:40 27.01.2020
93 Clouds 2 1018 100 10000 1.5 110 08:19 27.01.2020
94 Clouds 2 1018 100 10000 1.5 110 07:52 27.01.2020
95 Mist 2 1018 100 2900 0.5 0 07:33 27.01.2020
96 Mist 2 1018 100 2900 0.5 0 06:49 27.01.2020
97 Rain 2 1019 100 2900 1.5 110 05:59 27.01.2020
98 Mist 2 1019 100 3600 1 0 05:18 27.01.2020
99 Rain 2 1019 100 4500 1.5 280 03:37 27.01.2020
100 Mist 2 1019 100 3300 2.6 90 02:27 27.01.2020
101 Rain 2 1020 100 3600 1 0 01:29 27.01.2020
102 Clouds 2 1020 100 2900 1 220 00:42 27.01.2020
103 Drizzle 2 1020 93 2600 0.5 0 00:22 27.01.2020
104 Mist 2 1019 100 2700 1.5 260 23:59 26.01.2020
105 Mist 1 1019 100 2700 1.5 260 23:40 26.01.2020
106 Mist 1 1019 100 1500 1 0 23:18 26.01.2020
107 Fog 2 1020 100 1100 1 90 22:39 26.01.2020
108 Fog 1 1020 100 300 1 0 22:20 26.01.2020
109 Fog 1 1020 100 550 2.6 110 21:59 26.01.2020
110 Fog 1 1020 100 550 2.6 110 21:40 26.01.2020
111 Fog 1 1020 93 350 1.5 130 21:22 26.01.2020
112 Fog 1 1020 93 350 1.5 130 21:22 26.01.2020
113 Fog 1 1020 100 150 1.5 0 20:58 26.01.2020
114 Fog 1 1019 100 200 1 0 20:40 26.01.2020
115 Fog 1 1019 100 200 1 0 20:20 26.01.2020
116 Fog 1 1019 100 200 1 0 19:59 26.01.2020
117 Fog 1 1019 93 200 2.1 300 19:39 26.01.2020
118 Fog 1 1019 93 200 2.1 300 19:39 26.01.2020
119 Fog 2 1019 93 200 2.1 300 19:21 26.01.2020
120 Fog 2 1019 93 150 1 0 18:58 26.01.2020
121 Fog 2 1019 93 150 1 0 18:39 26.01.2020
122 Fog 2 1019 93 150 1 0 18:39 26.01.2020
123 Fog 2 1019 100 150 1 0 18:21 26.01.2020
124 Fog 2 1018 93 150 1 0 17:57 26.01.2020
125 Fog 2 1018 93 150 1 0 17:38 26.01.2020
126 Fog 4 1019 100 800 1 0 17:18 26.01.2020
127 Fog 5 1019 100 800 1 0 16:57 26.01.2020
128 Fog 5 1019 100 800 1 0 16:39 26.01.2020
129 Fog 5 1019 100 800 1 0 16:19 26.01.2020
130 Fog 5 1019 100 800 1 0 16:19 26.01.2020
131 Clouds 5 1019 30 0 1.34 207 15:43 26.01.2020
132 Clouds 5 1018 62 0 0.45 157 15:22 26.01.2020
133 Clouds 6 1019 62 0 0.89 153 14:58 26.01.2020
134 Clouds 6 1019 62 0 0.89 153 14:58 26.01.2020
135 Clouds 6 1019 63 0 0.45 153 14:38 26.01.2020
136 Clouds 6 1019 63 0 0.89 163 14:19 26.01.2020
137 Clouds 6 1017 55 0 0.45 122 13:40 26.01.2020
138 Clouds 6 1019 66 0 0.56 325 13:19 26.01.2020
139 Clouds 7 1019 66 0 0.45 241 12:56 26.01.2020
140 Clouds 7 1019 67 0 0.75 313 12:37 26.01.2020
141 Clouds 6 1019 69 0 0.75 313 12:19 26.01.2020
142 Clouds 5 1020 71 0 0.75 313 11:57 26.01.2020
143 Clouds 5 1020 72 0 0.75 313 11:36 26.01.2020
144 Fog 3 1020 100 200 0.5 0 11:18 26.01.2020
145 Fog 3 1020 100 200 0.5 0 10:55 26.01.2020
146 Fog 3 1020 100 200 0.5 0 10:37 26.01.2020
147 Fog 2 1020 100 200 0.5 0 10:18 26.01.2020
148 Fog 2 1020 69 300 0.5 0 09:41 26.01.2020
149 Fog 1 1020 69 900 0.5 60 09:23 26.01.2020
150 Fog 1 1020 69 150 2.1 90 08:57 26.01.2020
151 Fog 0 1020 69 150 2.1 90 08:39 26.01.2020
152 Fog 0 1020 67 100 2.6 100 08:21 26.01.2020
153 Fog 0 1020 66 150 2.1 90 07:47 26.01.2020
154 Fog 0 1020 100 150 2.1 90 07:22 26.01.2020
155 Fog 0 1020 66 200 1.5 100 06:34 26.01.2020
156 Fog 0 1020 66 200 2.1 90 05:52 26.01.2020
157 Fog 0 1020 66 200 2.1 100 05:22 26.01.2020
158 Fog 0 1020 100 100 1 0 03:23 26.01.2020
159 Fog 1 1020 100 200 1 0 02:23 26.01.2020
160 Fog 0 1020 93 300 1 140 01:40 26.01.2020
161 Fog 0 1021 100 600 0.5 100 01:20 26.01.2020
162 Fog 0 1021 100 800 0.5 180 00:40 26.01.2020
163 Fog 0 1021 100 800 0.5 180 00:20 26.01.2020
164 Clouds 0 1021 89 0 1.87 180 23:38 25.01.2020
165 Clouds 1 1021 89 0 1.7 182 23:20 25.01.2020
166 Clouds 1 1019 85 0 0.45 246 22:43 25.01.2020
167 Clouds 1 1021 88 0 1.7 182 22:20 25.01.2020
168 Clouds 1 1021 89 0 0.45 161 21:59 25.01.2020
169 Clouds 1 1019 87 0 0.45 179 21:41 25.01.2020
170 Clouds 1 1021 88 0 1.7 182 21:22 25.01.2020
171 Clouds 1 1021 87 0 1.7 182 20:54 25.01.2020
172 Clouds 1 1021 87 0 0.45 172 20:36 25.01.2020
173 Clouds 1 1022 86 0 1.57 172 20:18 25.01.2020
174 Clouds 2 1019 79 0 1.58 172 19:41 25.01.2020
175 Clouds 2 1023 95 0 0.89 261 19:19 25.01.2020
176 Clouds 2 1022 84 0 1.58 172 18:56 25.01.2020
177 Clouds 2 1022 59 0 0.89 236 18:37 25.01.2020
178 Clouds 2 1022 57 0 1.58 172 18:19 25.01.2020
179 Clouds 3 1021 55 0 1.57 172 17:39 25.01.2020
180 Clouds 4 1021 78 0 0.48 4 17:19 25.01.2020
181 Clouds 4 1021 78 0 0.48 4 17:19 25.01.2020
182 Clouds 4 1021 76 0 0.48 4 16:56 25.01.2020
183 Clouds 5 1021 75 0 0.48 4 16:38 25.01.2020
184 Clouds 5 1021 74 0 0.48 4 16:19 25.01.2020
185 Clouds 6 1019 66 0 0.48 4 15:46 25.01.2020
186 Clouds 6 1021 71 0 0.45 300 15:25 25.01.2020
187 Clouds 6 1021 71 0 0.48 4 14:57 25.01.2020
188 Clouds 6 1021 72 0 0.48 4 14:39 25.01.2020
189 Clouds 6 1022 71 0 0.45 163 14:18 25.01.2020
190 Clouds 5 1019 64 0 0.45 91 13:40 25.01.2020
191 Clouds 5 1022 75 0 0.5 321 13:22 25.01.2020
192 Fog 5 1023 54 450 1.5 120 12:43 25.01.2020
193 Fog 5 1023 54 450 1.5 120 12:43 25.01.2020
194 Fog 5 1023 54 450 1.5 120 12:22 25.01.2020
195 Fog 4 1023 54 450 1.5 120 11:45 25.01.2020
196 Fog 4 1023 54 450 1.5 120 11:45 25.01.2020
197 Fog 3 1023 54 450 1.5 120 11:21 25.01.2020
198 Fog 2 1023 54 300 1 0 10:58 25.01.2020
199 Fog 2 1023 54 300 1 0 10:40 25.01.2020
200 Fog 1 1023 54 250 1 0 10:20 25.01.2020
201 Fog 1 1023 54 250 1 0 10:20 25.01.2020
202 Fog 1 1023 54 200 1 0 09:41 25.01.2020
203 Fog 0 1023 54 200 0.5 0 09:22 25.01.2020
204 Fog 0 1023 54 250 1 0 08:44 25.01.2020
205 Fog 0 1023 54 450 1 110 08:22 25.01.2020
206 Fog 0 1023 53 450 1 110 07:43 25.01.2020
207 Fog 0 1022 53 350 0.5 0 06:51 25.01.2020
208 Fog 0 1022 53 250 0.5 0 06:27 25.01.2020
209 Fog 0 1022 53 150 0.5 0 05:45 25.01.2020
210 Fog 0 1022 53 150 0.5 0 04:42 25.01.2020
211 Fog 0 1022 53 550 1.5 140 03:51 25.01.2020
212 Fog -1 1023 53 2400 1.5 170 02:54 25.01.2020
213 Fog -1 1023 52 500 1 220 01:59 25.01.2020
214 Fog -1 1023 52 500 1 220 01:59 25.01.2020
215 Mist -1 1023 52 2300 1 230 01:37 25.01.2020
216 Mist -1 1023 53 2600 1 230 00:43 25.01.2020
217 Mist -1 1023 53 2800 1 0 00:24 25.01.2020
218 Fog -1 1023 53 2100 1 220 23:57 24.01.2020
219 Fog -1 1023 53 2100 1 220 23:38 24.01.2020
220 Fog -1 1023 53 2100 1 220 23:38 24.01.2020
221 Fog -1 1023 52 1300 1 230 23:20 24.01.2020
222 Fog 0 1023 52 800 1.5 220 22:42 24.01.2020
223 Fog 0 1023 52 250 1.5 270 22:24 24.01.2020
224 Fog 0 1023 100 150 0.5 0 21:42 24.01.2020
225 Fog 0 1023 100 250 1 280 21:20 24.01.2020
226 Fog 0 1023 52 200 0.5 0 20:56 24.01.2020
227 Clouds 0 1022 52 10000 0.5 190 20:37 24.01.2020
228 Fog 0 1023 64 250 1.5 0 20:18 24.01.2020
229 Fog 0 1023 64 150 1.5 100 19:55 24.01.2020
230 Fog 1 1023 64 150 1.5 100 19:37 24.01.2020
231 Fog 1 1023 64 150 1.5 100 19:19 24.01.2020
232 Fog 1 1023 64 250 0.5 0 18:42 24.01.2020
233 Fog 1 1023 64 250 0.5 0 18:42 24.01.2020
234 Fog 1 1023 64 500 1 0 18:22 24.01.2020
235 Fog 1 1023 64 500 1 0 18:22 24.01.2020
236 Fog 2 1023 64 500 1 0 17:45 24.01.2020
237 Fog 2 1023 64 500 1 0 17:45 24.01.2020
238 Mist 3 1023 64 1500 1.5 0 17:22 24.01.2020
239 Mist 4 1023 73 1500 1.5 330 16:58 24.01.2020
240 Mist 5 1023 73 2500 1 0 16:38 24.01.2020
241 Mist 5 1023 73 2500 1 0 16:19 24.01.2020
242 Mist 5 1023 73 3500 0.5 0 15:42 24.01.2020
243 Mist 5 1023 73 3500 1.5 0 15:21 24.01.2020
244 Mist 5 1024 73 3500 1 0 14:55 24.01.2020
245 Mist 5 1024 73 3500 1 0 14:55 24.01.2020
246 Mist 5 1024 73 3000 1 0 14:36 24.01.2020
247 Mist 5 1024 50 3000 1 0 14:18 24.01.2020
248 Mist 6 1025 50 3500 1 0 13:41 24.01.2020
249 Clear 6 1024 51 10000 2.1 250 13:21 24.01.2020
250 Clear 7 1023 60 10000 1.5 210 12:43 24.01.2020
251 Mist 5 1026 100 2500 1.5 300 12:20 24.01.2020
252 Mist 4 1026 100 3000 1.5 100 11:44 24.01.2020
253 Mist 1 1026 100 3000 1.5 100 11:19 24.01.2020
254 Mist 1 1026 100 2800 2.6 100 10:56 24.01.2020
255 Mist 0 1026 100 2800 2.6 100 10:38 24.01.2020
256 Mist -1 1026 100 2800 2.6 100 10:18 24.01.2020
257 Mist -1 1026 92 3800 1.5 70 09:41 24.01.2020
258 Mist -2 1026 100 3800 1.5 90 09:23 24.01.2020
259 Mist -1 1026 92 4000 1 60 08:41 24.01.2020
260 Mist -4 1026 92 4000 1 60 08:20 24.01.2020
261 Mist -4 1026 92 5000 2.1 90 07:53 24.01.2020
262 Clouds -4 1026 92 5000 2.1 90 07:35 24.01.2020
263 Clouds -3 1025 92 6000 2.6 120 06:48 24.01.2020
264 Clouds -3 1026 100 5000 3.1 100 06:29 24.01.2020
265 Clouds -3 1026 100 5000 1.5 110 05:59 24.01.2020
266 Clouds -4 1026 100 6000 0.5 0 04:58 24.01.2020
267 Clouds -4 1027 92 7000 1.5 100 02:53 24.01.2020
268 Clouds -4 1027 100 7000 0.5 0 02:26 24.01.2020
269 Clouds -4 1027 100 7000 0.5 0 02:26 24.01.2020
270 Clouds -4 1027 92 8000 1 0 01:46 24.01.2020
271 Clouds -3 1027 100 8000 0.5 0 01:28 24.01.2020
272 Clouds -3 1027 92 8000 1.5 0 00:25 24.01.2020
273 Clouds -3 1027 86 9000 2.1 190 23:49 23.01.2020
274 Clouds -3 1027 100 10000 0.5 0 23:31 23.01.2020
275 Clouds -3 1027 92 10000 1.5 190 22:59 23.01.2020
276 Clouds -3 1027 92 10000 1.5 0 22:38 23.01.2020
277 Clouds -3 1027 92 10000 1.5 0 22:19 23.01.2020
278 Clouds -3 1027 100 10000 0.5 0 21:57 23.01.2020
279 Clouds -3 1027 100 10000 0.5 0 21:39 23.01.2020
280 Clouds -3 1027 92 10000 1 0 21:20 23.01.2020
281 Clouds -3 1027 92 10000 1 0 20:58 23.01.2020
282 Clouds -3 1027 92 10000 1 0 20:38 23.01.2020
283 Clouds -3 1026 92 10000 1.5 210 20:19 23.01.2020
284 Clouds -3 1026 92 10000 1.5 210 19:54 23.01.2020
285 Clouds -3 1026 86 10000 1.5 200 19:36 23.01.2020
286 Clouds -3 1026 86 10000 1.5 200 19:18 23.01.2020
287 Clouds -3 1026 86 10000 1.5 200 18:42 23.01.2020
288 Clouds -2 1026 86 8000 2.1 210 18:20 23.01.2020
289 Clouds -2 1026 86 8000 2.1 210 17:58 23.01.2020
290 Clouds -2 1026 86 8000 2.1 210 17:40 23.01.2020
291 Fog -2 1024 100 300 1.5 90 17:19 23.01.2020
292 Clouds -2 1026 86 10000 2.1 210 16:55 23.01.2020
293 Clouds -1 1027 86 10000 1 0 16:36 23.01.2020
294 Clouds -1 1027 86 10000 1 0 16:18 23.01.2020
295 Clouds -1 1027 86 10000 1 0 15:54 23.01.2020
296 Clouds -1 1027 86 10000 1 0 15:36 23.01.2020
297 Clouds -1 1027 86 10000 1 0 15:18 23.01.2020
298 Clouds -1 1028 92 8000 0.5 0 14:54 23.01.2020
299 Clouds -1 1028 92 8000 0.5 0 14:36 23.01.2020
300 Clouds 0 1028 92 8000 0.5 0 14:18 23.01.2020
301 Clouds -1 1027 100 6000 3.1 90 13:38 23.01.2020
302 Clouds -1 1029 86 8000 1 0 13:19 23.01.2020
303 Fog 0 1027 100 2000 1.5 90 12:47 23.01.2020
304 Clouds 0 1030 86 8000 1 0 12:25 23.01.2020
305 Clouds 0 1030 86 8000 1 0 12:25 23.01.2020
306 Clouds 0 1030 86 10000 1.5 20 11:58 23.01.2020
307 Clouds 0 1029 100 5000 3.6 50 11:38 23.01.2020
308 Clouds -3 1030 86 10000 1.5 20 11:19 23.01.2020
309 Clouds -3 1030 92 6000 1.5 80 10:44 23.01.2020
310 Clouds -3 1030 92 6000 1.5 80 10:22 23.01.2020
311 Clouds -4 1031 92 5000 1.5 90 09:59 23.01.2020
312 Clouds -3 1030 92 6000 2.1 80 09:37 23.01.2020
313 Clouds -4 1030 92 6000 2.1 80 09:19 23.01.2020
314 Clouds -4 1030 92 5000 2.1 90 08:41 23.01.2020
315 Clouds -4 1030 92 5000 2.1 90 08:22 23.01.2020
316 Mist -4 1031 92 4400 1 0 07:45 23.01.2020
317 Mist -4 1031 92 4400 1 0 07:26 23.01.2020
318 Mist -4 1031 100 4400 1.5 130 06:53 23.01.2020
319 Mist -4 1031 100 4400 1.5 130 06:23 23.01.2020
320 Mist -4 1031 100 3900 2.1 150 05:57 23.01.2020
321 Clouds -4 1032 100 6000 2.1 90 04:24 23.01.2020
322 Mist -3 1033 100 3300 0.5 0 02:34 23.01.2020
323 Mist -3 1034 100 3300 2.1 70 01:33 23.01.2020
324 Mist -3 1034 92 3700 1 0 00:27 23.01.2020
325 Mist -3 1034 92 3500 1 0 23:48 22.01.2020
326 Mist -3 1034 100 3800 0.5 0 23:30 22.01.2020
327 Mist -3 1034 100 3800 0.5 0 22:59 22.01.2020
328 Mist -3 1034 100 3800 0.5 0 22:40 22.01.2020
329 Mist -3 1034 100 4400 0.5 0 22:22 22.01.2020
330 Mist -3 1034 100 3800 0.5 0 21:40 22.01.2020
331 Mist -3 1033 92 4000 1.5 0 21:22 22.01.2020
332 Mist -3 1033 92 4000 1.5 0 20:57 22.01.2020
333 Mist -3 1033 92 4000 1.5 0 20:38 22.01.2020
334 Mist -3 1033 92 4000 1.5 0 20:38 22.01.2020
335 Mist -2 1033 100 3500 1 0 20:20 22.01.2020
336 Mist -2 1033 100 3500 1 0 19:56 22.01.2020
337 Fog -2 1032 100 700 2.1 100 19:38 22.01.2020
338 Fog -2 1032 100 700 2.1 100 19:38 22.01.2020
339 Mist -2 1033 100 4000 0.5 0 19:18 22.01.2020
340 Mist -2 1033 100 4000 0.5 0 18:56 22.01.2020
341 Fog -2 1032 100 900 3.1 90 18:38 22.01.2020
342 Mist -2 1033 100 3300 1.5 290 18:19 22.01.2020
343 Mist -2 1033 100 3300 1.5 110 17:54 22.01.2020
344 Mist -2 1033 100 3300 1.5 110 17:54 22.01.2020
345 Mist -1 1032 100 3500 1 0 17:36 22.01.2020
346 Mist 0 1032 100 3500 1 0 17:18 22.01.2020
347 Fog 0 1030 92 200 4.1 50 16:42 22.01.2020
348 Mist 1 1032 100 3600 1.5 0 16:22 22.01.2020
349 Mist 2 1032 100 3800 1 0 15:58 22.01.2020
350 Mist 2 1032 100 3800 1 0 15:38 22.01.2020
351 Mist 2 1033 100 3500 2.1 320 15:20 22.01.2020
352 Mist 2 1033 100 3500 0.5 0 14:40 22.01.2020
353 Mist 1 1033 100 3500 0.5 0 14:21 22.01.2020
354 Mist 1 1033 100 3500 0.5 0 13:59 22.01.2020
355 Mist 1 1034 92 3900 1 0 13:38 22.01.2020
356 Mist 1 1034 92 3900 1 0 13:20 22.01.2020
357 Mist 0 1034 92 3900 1.5 0 12:57 22.01.2020
358 Mist 2 1034 92 3900 1.5 0 12:39 22.01.2020
359 Mist 1 1035 92 3000 1.5 0 12:20 22.01.2020
360 Mist 2 1035 92 3000 1.5 0 11:58 22.01.2020
361 Mist 1 1035 92 3000 1.5 0 11:40 22.01.2020
362 Fog -2 1032 85 4000 1.5 250 11:19 22.01.2020
363 Fog -2 1032 85 4000 1.5 250 11:19 22.01.2020
364 Fog -3 1032 92 1500 1 320 10:54 22.01.2020
365 Mist -3 1034 92 3500 0.5 0 10:36 22.01.2020
366 Mist -3 1034 92 3500 0.5 0 10:18 22.01.2020
367 Fog -4 1033 92 300 2.6 90 09:41 22.01.2020
368 Mist -4 1034 100 3800 1.5 90 09:23 22.01.2020
369 Mist -4 1033 100 3800 2.1 130 08:57 22.01.2020
370 Mist -3 1033 100 3800 2.1 130 08:38 22.01.2020
371 Mist -5 1033 92 4600 1 0 08:20 22.01.2020
372 Mist -5 1033 92 4600 1 0 07:46 22.01.2020
373 Clouds -5 1034 92 6000 1.5 240 07:27 22.01.2020
374 Clouds -5 1034 92 6000 1.5 240 06:38 22.01.2020
375 Clouds -5 1034 92 5000 2.6 190 06:20 22.01.2020
376 Clouds -5 1034 92 5000 2.6 190 06:20 22.01.2020
377 Mist -5 1034 92 4900 2.1 190 05:19 22.01.2020
378 Clouds -5 1035 92 5000 0.5 0 03:29 22.01.2020
379 Clouds -4 1035 92 5000 0.5 0 02:49 22.01.2020
380 Clouds -4 1036 92 5000 1.5 0 01:35 22.01.2020
381 Clouds -4 1036 92 5000 1 0 00:42 22.01.2020
382 Clouds -4 1036 92 6000 1.5 0 00:23 22.01.2020
383 Clouds -4 1035 100 1600 2.1 80 23:38 21.01.2020
384 Clouds -4 1036 92 6000 2.6 250 23:20 21.01.2020
385 Clouds -4 1036 92 7000 2.6 260 22:42 21.01.2020
386 Clouds -4 1036 46 7000 2.6 260 22:24 21.01.2020
387 Clouds -4 1036 46 8000 2.6 250 21:59 21.01.2020
388 Clouds -4 1036 46 8000 2.6 250 21:59 21.01.2020
389 Clouds -4 1036 46 8000 2.6 250 21:40 21.01.2020
390 Clouds -4 1036 92 8000 1.5 240 21:21 21.01.2020
391 Clouds -3 1036 92 8000 1.5 240 20:59 21.01.2020
392 Clouds -3 1036 92 8000 1.5 240 20:39 21.01.2020
393 Clear -3 1036 92 8000 1 0 20:20 21.01.2020
394 Clear -3 1036 92 8000 1 0 19:58 21.01.2020
395 Clear -3 1036 92 8000 1 0 19:39 21.01.2020
396 Clear -3 1037 92 9000 1 200 19:21 21.01.2020
397 Clear -3 1037 92 9000 1 200 18:57 21.01.2020
398 Clear -3 1037 92 9000 1 200 18:39 21.01.2020
399 Clear -3 1037 92 9000 1 200 18:39 21.01.2020
400 Clouds -2 1037 86 7000 0.5 0 18:20 21.01.2020
401 Clouds -2 1037 86 7000 0.5 0 17:56 21.01.2020
402 Clear -2 1036 92 7000 2.6 30 17:37 21.01.2020
403 Clear -1 1037 64 8000 1.5 230 17:18 21.01.2020
404 Clear 1 1036 86 9000 4.1 20 16:37 21.01.2020
405 Clear 1 1038 80 8000 2.6 290 16:19 21.01.2020
406 Clear 1 1038 80 8000 2.6 290 15:57 21.01.2020
407 Clear 2 1037 86 10000 3.6 10 15:37 21.01.2020
408 Clear 2 1038 64 8000 2.1 280 15:19 21.01.2020
409 Clouds 3 1038 64 10000 2.6 280 14:39 21.01.2020
410 Clouds 3 1039 44 10000 2.1 310 14:20 21.01.2020
411 Clouds 3 1039 44 10000 2.1 280 13:43 21.01.2020
412 Clouds 3 1039 44 10000 2.1 280 13:43 21.01.2020
413 Clouds 2 1040 44 10000 1.5 0 13:20 21.01.2020
414 Clouds 2 1040 44 10000 2.1 350 12:57 21.01.2020
415 Clouds 1 1040 44 10000 2.1 350 12:39 21.01.2020
416 Clouds 1 1040 44 10000 2.6 280 12:20 21.01.2020
417 Clouds 0 1040 44 10000 2.6 280 11:41 21.01.2020
418 Clouds -1 1040 86 10000 1 70 11:22 21.01.2020
419 Clouds -2 1040 86 10000 1 70 10:59 21.01.2020
420 Clouds -2 1040 86 10000 1 70 10:40 21.01.2020
421 Clouds -2 1040 92 10000 1 110 10:21 21.01.2020
422 Clouds -3 1040 92 10000 1.5 110 09:42 21.01.2020
423 Clouds -4 1040 92 10000 0.5 0 09:23 21.01.2020
424 Fog -5 1038 100 600 0.5 0 08:55 21.01.2020
425 Clear -5 1040 92 10000 0.5 0 08:36 21.01.2020
426 Clear -5 1040 92 10000 0.5 0 08:36 21.01.2020
427 Clear -6 1040 92 10000 0.5 0 08:18 21.01.2020
428 Mist -5 1038 92 1700 1 240 07:41 21.01.2020
429 Clear -5 1040 92 10000 1 0 07:22 21.01.2020
430 Clear -5 1040 92 10000 1 0 06:49 21.01.2020
431 Clouds -5 1040 92 10000 1.5 0 06:30 21.01.2020
432 Mist -5 1038 100 2000 1.5 100 05:43 21.01.2020
433 Clear -5 1040 92 10000 1 110 04:41 21.01.2020
434 Clear -4 1040 92 10000 1 110 02:57 21.01.2020
435 Clear -5 1040 92 10000 1 120 01:56 21.01.2020
436 Clear -4 1040 86 10000 1 0 01:26 21.01.2020
437 Clear -4 1040 86 10000 1 0 00:37 21.01.2020
438 Clear -4 1040 86 10000 3.1 90 23:59 20.01.2020
439 Clear -4 1040 86 10000 3.1 90 23:41 20.01.2020
440 Clear -4 1040 74 10000 2.1 130 23:19 20.01.2020
441 Clear -4 1040 79 10000 4.1 80 22:56 20.01.2020
442 Clouds -4 1040 86 10000 4.1 60 22:38 20.01.2020
443 Clouds -4 1040 86 10000 4.1 60 22:38 20.01.2020
444 Clear -3 1040 79 10000 4.6 90 22:20 20.01.2020
445 Clear -3 1040 79 10000 3.6 100 21:57 20.01.2020
446 Clear -3 1040 86 10000 3.6 100 21:37 20.01.2020
447 Clear -3 1040 86 10000 3.6 100 21:19 20.01.2020
448 Clear -3 1040 80 10000 3.6 100 20:56 20.01.2020
449 Clear -3 1040 80 10000 3.6 100 20:56 20.01.2020
450 Clouds -3 1040 86 10000 4.1 70 20:38 20.01.2020
451 Clear -3 1041 80 10000 2.1 100 20:18 20.01.2020
452 Clear -2 1040 86 10000 1.5 90 19:56 20.01.2020
453 Clear -2 1040 86 10000 1.5 90 19:56 20.01.2020
454 Clear -2 1040 86 10000 1.5 90 19:37 20.01.2020
455 Clear -2 1040 86 10000 1.5 90 19:18 20.01.2020
456 Clear -2 1040 59 10000 1 0 18:43 20.01.2020
457 Clear -2 1040 80 10000 1 0 18:22 20.01.2020
458 Clear -1 1040 69 10000 1.5 220 17:41 20.01.2020
459 Clear -1 1040 69 10000 1.5 220 17:20 20.01.2020
460 Clear -1 1040 69 10000 1.5 220 17:20 20.01.2020
461 Clouds 0 1040 59 10000 1 0 16:59 20.01.2020
462 Clouds 0 1040 59 10000 1 0 16:37 20.01.2020
463 Clouds 0 1040 59 10000 1 0 16:18 20.01.2020
464 Clear 0 1040 55 10000 1.5 100 15:54 20.01.2020
465 Clouds 1 1041 55 10000 2.1 120 15:36 20.01.2020
466 Clouds 1 1041 55 10000 2.1 120 15:18 20.01.2020
467 Clouds 1 1041 51 10000 2.6 100 14:41 20.01.2020
468 Clouds 1 1041 51 10000 2.6 100 14:41 20.01.2020
469 Clouds 1 1041 51 10000 2.6 100 14:22 20.01.2020
470 Clouds 1 1042 64 10000 3.1 80 13:58 20.01.2020
471 Clouds 1 1042 64 10000 3.1 80 13:40 20.01.2020
472 Clouds 0 1042 64 10000 3.1 80 13:21 20.01.2020
473 Clouds 0 1042 69 10000 3.6 80 12:46 20.01.2020
474 Clouds 0 1042 69 10000 4.1 90 12:27 20.01.2020
475 Clear 0 1043 52 10000 4.1 80 11:57 20.01.2020
476 Clouds -1 1043 92 10000 3.6 60 11:38 20.01.2020
477 Clouds -2 1042 92 6000 2.1 70 11:19 20.01.2020
478 Clear -2 1043 86 10000 3.6 90 10:47 20.01.2020
479 Clear -3 1043 79 10000 2.6 110 10:21 20.01.2020
480 Clear -3 1043 79 10000 2.6 110 10:21 20.01.2020
481 Fog -4 1042 85 2000 0.5 280 09:42 20.01.2020
482 Fog -4 1042 92 500 0.5 290 09:24 20.01.2020
483 Clear -5 1043 92 10000 2.6 110 08:59 20.01.2020
484 Clear -5 1043 92 10000 2.6 110 08:39 20.01.2020
485 Fog -5 1042 92 100 1 280 08:20 20.01.2020
486 Clear -5 1042 92 10000 2.6 90 07:42 20.01.2020
487 Clear -5 1042 92 10000 2.6 90 07:42 20.01.2020
488 Clear -5 1042 92 10000 2.6 90 07:22 20.01.2020
489 Clear -5 1041 92 10000 1.5 0 06:44 20.01.2020
490 Clear -5 1041 92 10000 2.1 80 06:24 20.01.2020
491 Clear -4 1041 92 10000 2.6 90 05:41 20.01.2020
492 Clear -5 1041 92 10000 2.6 100 05:20 20.01.2020
493 Clear -4 1041 86 10000 3.1 80 04:33 20.01.2020
494 Clear -4 1041 92 10000 1 190 02:33 20.01.2020
495 Clouds -4 1041 92 10000 2.1 180 01:40 20.01.2020
496 Clouds -4 1041 92 10000 0.5 0 01:20 20.01.2020
497 Clouds -3 1041 92 10000 1 0 00:43 20.01.2020
498 Clouds -3 1040 92 10000 1 180 00:21 20.01.2020
499 Clouds -3 1040 92 10000 0.5 0 23:38 19.01.2020
500 Snow -3 1040 86 10000 1 0 23:19 19.01.2020
501 Snow -3 1040 94 10000 1 0 22:56 19.01.2020
502 Fog -3 1039 92 0 1.05 117 22:37 19.01.2020
503 Clouds -3 1039 94 10000 1 0 22:19 19.01.2020
504 Snow -3 1039 86 10000 1.5 0 21:56 19.01.2020
505 Mist -2 1038 92 1200 1 30 21:38 19.01.2020
506 Mist -2 1038 92 1200 1 30 21:38 19.01.2020
507 Clouds -2 1039 80 10000 1 0 21:19 19.01.2020
508 Clouds -2 1038 80 10000 1 0 20:57 19.01.2020
509 Clouds -2 1038 100 5000 1 0 20:38 19.01.2020
510 Clouds -2 1038 80 10000 1 0 20:20 19.01.2020
511 Clouds -2 1038 95 10000 1 0 19:56 19.01.2020
512 Clouds -1 1038 95 10000 1 0 19:37 19.01.2020
513 Clouds -1 1038 95 10000 1 0 19:19 19.01.2020
514 Clouds -1 1038 95 10000 1 0 19:19 19.01.2020
515 Clouds -1 1038 95 10000 1 0 19:19 19.01.2020
516 Clouds -1 1037 80 10000 3.1 360 18:55 19.01.2020
517 Clouds -1 1037 80 10000 3.1 360 18:37 19.01.2020
518 Clouds -1 1037 80 10000 3.1 360 18:19 19.01.2020
519 Clouds -1 1036 95 10000 3.1 340 17:57 19.01.2020
520 Clouds -1 1036 95 10000 3.1 340 17:39 19.01.2020
521 Clouds 0 1036 89 10000 3.1 340 17:20 19.01.2020
522 Clouds 0 1035 89 10000 1.5 310 16:57 19.01.2020
523 Rain 0 1035 89 10000 2.1 290 16:37 19.01.2020
524 Rain 1 1035 89 10000 2.1 290 16:19 19.01.2020
525 Rain 1 1035 89 10000 2.1 290 15:56 19.01.2020
526 Clouds 1 1034 89 7000 2.1 330 15:37 19.01.2020
527 Clouds 1 1034 89 7000 2.1 330 15:18 19.01.2020
528 Clouds 1 1034 74 10000 2.6 290 14:56 19.01.2020
529 Clouds 1 1034 74 10000 2.6 290 14:56 19.01.2020
530 Clouds 2 1034 74 10000 2.6 290 14:37 19.01.2020
531 Clouds 1 1034 74 10000 2.6 290 14:18 19.01.2020
532 Clouds 1 1034 74 10000 2.6 290 14:18 19.01.2020
533 Clouds 1 1034 74 10000 2.1 340 13:54 19.01.2020
534 Clouds 1 1034 74 10000 2.1 340 13:36 19.01.2020
535 Clouds 1 1034 74 10000 2.1 340 13:18 19.01.2020
536 Clouds 2 1034 77 10000 3.1 340 12:42 19.01.2020
537 Clouds 1 1034 77 10000 3.1 340 12:23 19.01.2020
538 Clouds 1 1034 77 10000 3.1 340 11:57 19.01.2020
539 Clouds 1 1034 77 10000 3.1 340 11:39 19.01.2020
540 Clouds 1 1034 89 10000 3.1 340 11:18 19.01.2020
541 Clouds 0 1033 86 10000 2.1 320 10:41 19.01.2020
542 Clouds 0 1032 89 10000 0.5 0 10:21 19.01.2020
543 Clouds -1 1032 89 10000 0.5 0 09:58 19.01.2020
544 Clouds -1 1032 89 10000 0.5 0 09:39 19.01.2020
545 Clouds -1 1032 86 10000 0.5 0 09:21 19.01.2020
546 Clouds -1 1031 89 10000 1 0 08:56 19.01.2020
547 Clouds -1 1030 100 10000 1 150 08:38 19.01.2020
548 Clouds -1 1031 97 10000 1 0 08:19 19.01.2020
549 Rain -1 1031 80 10000 1.5 0 07:30 19.01.2020
550 Rain -1 1030 97 10000 1.5 0 06:56 19.01.2020
551 Rain -1 1030 97 10000 1.5 0 06:23 19.01.2020
552 Rain 0 1029 94 10000 2.1 300 04:19 19.01.2020
553 Clouds 0 1029 94 10000 1.5 280 02:35 19.01.2020
554 Clouds 0 1028 89 10000 1 0 01:45 19.01.2020
555 Clouds 0 1028 89 10000 0.5 290 01:22 19.01.2020
556 Clouds 0 1028 94 10000 1 0 00:45 19.01.2020
557 Rain 0 1028 94 10000 1 0 00:25 19.01.2020
558 Rain 0 1028 94 10000 1 0 23:55 18.01.2020
559 Clouds 1 1028 94 10000 1 0 23:36 18.01.2020
560 Clouds 1 1028 88 10000 1 0 23:18 18.01.2020
561 Clouds 1 1028 88 10000 1.5 0 22:42 18.01.2020
562 Clouds 1 1028 93 10000 1.5 0 22:24 18.01.2020
563 Clouds 1 1028 93 10000 1.5 0 22:24 18.01.2020
564 Clouds 1 1028 100 10000 0.5 0 21:58 18.01.2020
565 Clouds 1 1028 100 10000 0.5 0 21:39 18.01.2020
566 Clouds 1 1028 93 10000 1 0 21:21 18.01.2020
567 Clouds 1 1028 93 10000 2.6 70 20:59 18.01.2020
568 Clouds 1 1028 93 10000 2.6 70 20:41 18.01.2020
569 Clouds 1 1027 91 10000 0.5 0 20:19 18.01.2020
570 Clouds 1 1027 91 10000 1.5 180 19:43 18.01.2020
571 Clouds 1 1027 91 10000 2.1 150 19:24 18.01.2020
572 Clouds 1 1027 86 10000 1 0 18:43 18.01.2020
573 Clouds 1 1027 93 10000 1 0 18:25 18.01.2020
574 Clouds 1 1027 86 10000 1 0 17:59 18.01.2020
575 Clouds 1 1027 86 10000 1 0 17:40 18.01.2020
576 Clouds 2 1027 86 10000 1.5 130 17:21 18.01.2020
577 Clouds 2 1027 86 10000 1.5 130 16:57 18.01.2020
578 Snow 2 1025 80 10000 4.1 250 16:38 18.01.2020
579 Snow 2 1025 80 10000 4.1 250 16:38 18.01.2020
580 Snow 2 1025 80 10000 4.1 250 16:38 18.01.2020
581 Rain 3 1027 93 10000 1 0 16:19 18.01.2020
582 Rain 3 1027 93 10000 1 0 15:44 18.01.2020
583 Clouds 3 1027 93 10000 2.1 130 15:26 18.01.2020
584 Clouds 4 1027 93 10000 2.6 120 14:59 18.01.2020
585 Clouds 4 1027 93 10000 2.6 120 14:40 18.01.2020
586 Rain 4 1027 75 10000 1 0 14:19 18.01.2020
587 Rain 4 1027 75 10000 1 0 13:56 18.01.2020
588 Rain 3 1028 80 10000 1.5 280 13:36 18.01.2020
589 Rain 4 1028 80 10000 1.5 280 13:18 18.01.2020
590 Rain 3 1028 80 10000 2.1 300 12:41 18.01.2020
591 Clouds 3 1028 80 10000 2.1 300 12:21 18.01.2020
592 Clouds 3 1028 80 10000 2.1 270 11:45 18.01.2020
593 Clouds 2 1028 80 10000 2.1 270 11:24 18.01.2020
594 Snow 1 1027 96 3600 4.1 280 10:58 18.01.2020
595 Snow 1 1027 96 3600 4.1 280 10:39 18.01.2020
596 Clouds 1 1022 86 6000 2.6 20 10:20 18.01.2020
597 Clouds 1 1022 86 6000 2.6 20 10:20 18.01.2020
598 Clouds 2 1026 93 10000 3.6 210 09:49 18.01.2020
599 Clouds 2 1021 92 6000 2.6 20 09:31 18.01.2020
600 Clouds 2 1027 75 10000 2.1 260 08:57 18.01.2020
601 Clouds 2 1026 93 10000 3.6 210 08:39 18.01.2020
602 Clouds 2 1027 93 10000 1 0 08:19 18.01.2020
603 Clouds 2 1027 93 10000 1 0 07:50 18.01.2020
604 Rain 2 1020 100 3000 3.1 20 07:31 18.01.2020
605 Rain 2 1025 93 6000 6.2 260 06:48 18.01.2020
606 Rain 2 1025 93 10000 4.1 220 05:59 18.01.2020
607 Rain 2 1020 92 6000 2.6 20 05:24 18.01.2020
608 Rain 3 1025 86 9000 4.6 250 02:56 18.01.2020
609 Rain 3 1024 93 8000 6.7 310 01:56 18.01.2020
610 Rain 3 1023 87 10000 3.6 240 01:35 18.01.2020
611 Rain 4 1023 81 10000 2.1 0 00:37 18.01.2020
612 Rain 4 1023 81 10000 2.1 0 00:37 18.01.2020
613 Rain 4 1023 81 10000 2.1 0 00:18 18.01.2020
614 Rain 4 1023 81 10000 2.1 0 00:18 18.01.2020
615 Rain 4 1023 81 10000 2.1 0 00:18 18.01.2020
616 Rain 4 1023 93 5000 2.6 120 23:41 17.01.2020
617 Rain 5 1023 100 6000 2.1 90 23:20 17.01.2020
618 Rain 5 1023 100 5000 1 100 22:46 17.01.2020
619 Rain 5 1023 93 9000 0.5 0 22:22 17.01.2020
620 Rain 5 1023 93 9000 0.5 0 22:22 17.01.2020
621 Drizzle 5 1022 93 10000 2.1 100 21:59 17.01.2020
622 Drizzle 5 1022 93 10000 2.1 100 21:41 17.01.2020
623 Drizzle 5 1022 93 10000 1 0 21:22 17.01.2020
624 Drizzle 5 1022 93 10000 1 0 20:58 17.01.2020
625 Drizzle 5 1022 93 10000 1 0 20:38 17.01.2020
626 Clouds 5 1022 93 10000 1 0 20:20 17.01.2020
627 Clouds 5 1022 93 10000 1 0 19:55 17.01.2020
628 Clouds 5 1022 93 10000 1 0 19:55 17.01.2020
629 Clouds 5 1022 93 10000 1 0 19:55 17.01.2020
630 Clouds 5 1021 93 10000 1 0 19:37 17.01.2020
631 Clouds 5 1021 93 10000 1 0 19:37 17.01.2020
632 Clouds 5 1021 93 10000 1 0 19:18 17.01.2020
633 Clouds 5 1021 93 10000 1 0 18:47 17.01.2020
634 Clouds 6 1020 93 10000 1 0 18:29 17.01.2020
635 Clouds 6 1020 93 10000 1 0 17:58 17.01.2020
636 Clouds 6 1020 93 10000 1 0 17:39 17.01.2020
637 Clouds 6 1020 87 10000 1 0 17:20 17.01.2020
638 Clouds 7 1020 93 10000 1 0 16:43 17.01.2020
639 Clouds 7 1020 87 10000 1 0 16:21 17.01.2020
640 Clouds 7 1020 81 10000 1 0 15:55 17.01.2020
641 Clouds 7 1020 81 10000 1 0 15:37 17.01.2020
642 Clouds 8 1020 81 10000 1 0 15:19 17.01.2020
643 Clouds 7 1021 87 10000 1 0 14:43 17.01.2020
644 Clouds 7 1021 87 10000 1 0 14:23 17.01.2020
645 Clouds 8 1022 93 10000 3.1 280 13:42 17.01.2020
646 Clouds 8 1022 93 10000 3.1 280 13:23 17.01.2020
647 Clouds 8 1022 93 10000 3.6 280 12:47 17.01.2020
648 Clouds 8 1022 86 10000 3.6 280 12:23 17.01.2020
649 Clouds 7 1022 93 10000 3.6 280 11:43 17.01.2020
650 Clouds 5 1023 86 10000 3.1 290 11:20 17.01.2020
651 Clouds 4 1022 93 10000 0.5 0 10:56 17.01.2020
652 Clouds 4 1021 80 10000 3.6 200 10:38 17.01.2020
653 Clouds 3 1022 48 10000 0.5 0 10:20 17.01.2020
654 Clouds 2 1022 48 10000 0.5 0 09:44 17.01.2020
655 Clouds 1 1023 92 10000 2.1 100 09:21 17.01.2020
656 Clouds 0 1023 92 10000 2.1 100 08:58 17.01.2020
657 Clouds 0 1023 92 10000 2.1 100 08:40 17.01.2020
658 Clear 0 1023 100 10000 0.5 0 08:21 17.01.2020
659 Clear 0 1023 100 10000 0.5 0 07:46 17.01.2020
660 Clear 0 1023 100 10000 0.5 130 07:28 17.01.2020
661 Clear 0 1023 92 10000 1 0 06:55 17.01.2020
662 Clear 0 1023 100 10000 1 0 06:35 17.01.2020
663 Clear -1 1023 100 8000 0.5 0 04:32 17.01.2020
664 Clear 0 1023 85 0 0.89 154 03:19 17.01.2020
665 Clear 0 1024 86 0 2.24 139 02:32 17.01.2020
666 Clear 0 1024 86 0 1.34 137 01:44 17.01.2020
667 Clear 0 1025 69 0 2.94 169 01:22 17.01.2020
668 Clear 0 1024 85 0 0.89 157 00:37 17.01.2020
669 Clear 0 1025 92 10000 1 220 00:00 17.01.2020
670 Clear 0 1025 92 10000 1 220 23:41 16.01.2020
671 Clear 0 1025 92 10000 1 220 23:22 16.01.2020
672 Clear 1 1025 60 10000 0.5 0 22:41 16.01.2020
673 Clear 1 1025 60 10000 0.5 0 22:21 16.01.2020
674 Clear 1 1025 60 10000 1 0 21:57 16.01.2020
675 Clear 1 1025 60 10000 2.1 60 21:38 16.01.2020
676 Clear 2 1025 60 10000 0.5 0 21:19 16.01.2020
677 Clear 2 1026 60 10000 1 0 20:56 16.01.2020
678 Clear 2 1025 80 10000 1 0 20:38 16.01.2020
679 Clouds 3 1026 93 10000 1 0 20:18 16.01.2020
680 Clouds 3 1026 93 10000 2.1 100 19:55 16.01.2020
681 Clouds 3 1026 86 10000 1.5 150 19:37 16.01.2020
682 Clouds 4 1026 86 10000 1.5 150 19:18 16.01.2020
683 Clouds 4 1026 86 10000 1.5 150 18:55 16.01.2020
684 Clouds 4 1026 93 10000 1 0 18:36 16.01.2020
685 Clouds 4 1026 93 10000 1 0 18:36 16.01.2020
686 Clouds 5 1026 93 10000 1 0 18:18 16.01.2020
687 Clouds 5 1026 93 10000 1 0 17:41 16.01.2020
688 Clouds 5 1026 93 10000 1 0 17:41 16.01.2020
689 Clouds 6 1026 81 10000 1.5 280 17:22 16.01.2020
690 Clouds 7 1026 81 10000 1.5 280 16:57 16.01.2020
691 Clouds 8 1026 81 10000 1.5 280 16:38 16.01.2020
692 Clouds 8 1026 65 10000 2.1 280 16:19 16.01.2020
693 Clouds 8 1026 65 10000 2.1 280 15:44 16.01.2020
694 Clouds 10 1026 66 10000 0.5 0 15:22 16.01.2020
695 Clouds 9 1026 66 10000 0.5 0 14:56 16.01.2020
696 Clouds 10 1026 57 10000 3.6 80 14:37 16.01.2020
697 Clouds 10 1027 61 10000 2.6 280 14:19 16.01.2020
698 Clouds 10 1027 61 10000 2.6 280 13:44 16.01.2020
699 Clouds 10 1028 70 10000 3.1 280 13:25 16.01.2020
700 Clouds 10 1028 75 10000 3.6 280 12:46 16.01.2020
701 Clouds 9 1028 75 10000 3.6 280 12:28 16.01.2020
702 Clouds 8 1029 75 10000 2.1 280 11:57 16.01.2020
703 Clouds 7 1029 75 10000 2.1 280 11:39 16.01.2020
704 Clouds 7 1029 75 10000 2.1 280 11:21 16.01.2020
705 Clouds 6 1029 93 10000 0.5 0 10:39 16.01.2020
706 Clouds 5 1029 93 10000 0.5 0 10:21 16.01.2020
707 Clouds 4 1029 86 10000 1 0 09:58 16.01.2020
708 Clouds 4 1029 86 10000 1 0 09:40 16.01.2020
709 Clouds 4 1029 86 10000 1 0 09:21 16.01.2020
710 Clouds 3 1029 93 10000 1 240 08:52 16.01.2020
711 Clouds 3 1029 93 10000 1 240 08:34 16.01.2020
712 Clouds 3 1029 86 10000 1 0 07:59 16.01.2020
713 Clouds 4 1029 86 10000 1 0 07:39 16.01.2020
714 Clouds 3 1029 86 10000 1 0 07:20 16.01.2020
715 Clouds 4 1028 86 10000 1 0 06:43 16.01.2020
716 Clouds 4 1028 93 10000 0.5 270 06:21 16.01.2020
717 Clouds 4 1029 86 10000 1 0 05:45 16.01.2020
718 Clouds 4 1028 86 10000 0.5 0 04:40 16.01.2020
719 Clouds 4 1028 93 10000 1 0 03:28 16.01.2020
720 Clouds 4 1028 86 10000 1 0 02:43 16.01.2020
721 Clouds 3 1028 80 10000 1 0 01:24 16.01.2020
722 Clouds 3 1027 57 10000 1 0 00:24 16.01.2020
723 Clouds 3 1027 86 10000 2.6 90 23:51 15.01.2020
724 Clouds 3 1026 80 10000 2.1 90 23:23 15.01.2020
725 Clouds 3 1026 69 10000 1.5 0 22:59 15.01.2020
726 Clouds 3 1026 69 10000 1.5 0 22:41 15.01.2020
727 Clouds 4 1026 57 10000 2.1 130 22:19 15.01.2020
728 Clouds 4 1026 57 10000 2.1 130 22:19 15.01.2020
729 Clouds 4 1025 65 10000 2.1 0 21:58 15.01.2020
730 Clouds 4 1025 65 10000 2.1 0 21:40 15.01.2020
731 Clouds 4 1025 60 10000 2.6 110 21:21 15.01.2020
732 Clouds 4 1025 60 10000 2.6 110 20:58 15.01.2020
733 Clouds 4 1025 60 10000 2.6 110 20:40 15.01.2020
734 Clear 4 1025 60 10000 2.6 110 20:21 15.01.2020
735 Clear 4 1024 80 10000 2.6 100 19:55 15.01.2020
736 Clear 4 1024 80 10000 2.6 100 19:55 15.01.2020
737 Clear 4 1024 80 10000 2.6 100 19:55 15.01.2020
738 Clear 4 1024 80 10000 2.6 100 19:37 15.01.2020
739 Clear 4 1024 80 10000 2.6 100 19:19 15.01.2020
740 Clear 5 1023 80 10000 1.5 0 18:57 15.01.2020
741 Clear 4 1023 80 10000 1.5 0 18:38 15.01.2020
742 Clear 5 1023 68 10000 1 0 18:20 15.01.2020
743 Clear 5 1023 68 10000 1 0 18:20 15.01.2020
744 Clear 5 1023 68 10000 1 0 18:20 15.01.2020
745 Clear 5 1023 68 10000 1 0 17:58 15.01.2020
746 Clear 5 1023 68 10000 1 0 17:40 15.01.2020
747 Clear 6 1022 75 10000 0.5 0 17:21 15.01.2020
748 Clear 7 1022 65 10000 1 0 16:42 15.01.2020
749 Clear 8 1022 70 10000 2.1 80 16:24 15.01.2020
750 Clear 8 1021 65 10000 2.1 120 15:59 15.01.2020
751 Clear 8 1021 65 10000 2.1 120 15:41 15.01.2020
752 Clear 8 1021 75 10000 0.5 0 15:20 15.01.2020
753 Clear 7 1021 81 10000 2.1 280 14:44 15.01.2020
754 Clouds 8 1021 81 10000 2.6 270 14:21 15.01.2020
755 Clouds 8 1021 80 10000 2.6 290 13:56 15.01.2020
756 Clouds 9 1019 53 10000 4.6 230 13:38 15.01.2020
757 Clouds 8 1020 80 10000 3.1 280 13:20 15.01.2020
758 Clouds 9 1020 80 10000 2.1 280 12:54 15.01.2020
759 Clouds 9 1021 80 10000 2.6 280 12:36 15.01.2020
760 Clouds 8 1021 80 10000 2.6 280 12:18 15.01.2020
761 Clouds 7 1020 56 10000 2.6 200 11:38 15.01.2020
762 Clouds 5 1021 80 10000 1 0 11:19 15.01.2020
763 Clouds 4 1021 40 10000 1 0 10:47 15.01.2020
764 Clouds 3 1021 40 10000 1 150 10:28 15.01.2020
765 Clouds 2 1021 40 10000 1 120 09:57 15.01.2020
766 Clouds 2 1021 40 10000 1 120 09:57 15.01.2020
767 Clouds 1 1021 40 10000 1 120 09:38 15.01.2020
768 Clouds 0 1021 92 10000 1 0 09:19 15.01.2020
769 Clouds 0 1021 92 10000 1 0 08:44 15.01.2020
770 Clouds -1 1020 86 10000 1 330 08:24 15.01.2020
771 Clouds -1 1020 86 10000 1 330 07:54 15.01.2020
772 Clouds -2 1020 92 10000 2.6 100 07:33 15.01.2020
773 Clouds -2 1020 92 10000 2.6 100 06:49 15.01.2020
774 Clouds -1 1020 92 10000 0.5 0 06:26 15.01.2020
775 Clouds -1 1020 92 10000 1 300 04:46 15.01.2020
776 Clouds 0 1020 86 10000 1 0 02:40 15.01.2020
777 Clouds 0 1020 33 10000 2.1 110 01:47 15.01.2020
778 Clouds 1 1020 33 10000 0.5 0 01:20 15.01.2020
779 Clouds 1 1019 86 10000 1 0 00:37 15.01.2020
780 Clouds 1 1019 86 10000 1 0 00:19 15.01.2020
781 Clouds 2 1019 86 10000 1 0 23:46 14.01.2020
782 Clouds 2 1019 93 10000 2.6 110 23:24 14.01.2020
783 Clouds 3 1019 38 10000 1 190 22:54 14.01.2020
784 Clouds 3 1019 86 10000 2.1 260 22:36 14.01.2020
785 Clouds 3 1019 86 10000 2.1 260 22:18 14.01.2020
786 Clouds 3 1019 86 10000 2.1 260 22:18 14.01.2020
787 Clouds 3 1019 86 10000 0.5 0 21:55 14.01.2020
788 Clouds 3 1020 38 10000 0.5 0 21:36 14.01.2020
789 Clouds 3 1020 38 10000 0.5 0 21:18 14.01.2020
790 Clouds 3 1020 38 10000 0.5 0 21:18 14.01.2020
791 Clouds 3 1020 38 10000 0.5 0 20:41 14.01.2020
792 Clouds 3 1020 46 10000 2.1 110 20:21 14.01.2020
793 Clouds 3 1020 46 10000 2.1 110 19:56 14.01.2020
794 Clouds 3 1020 46 10000 2.1 110 19:56 14.01.2020
795 Clouds 3 1020 46 10000 2.1 110 19:38 14.01.2020
796 Clouds 3 1020 93 7000 1.5 90 19:19 14.01.2020
797 Clouds 3 1020 93 7000 1.5 90 18:56 14.01.2020
798 Clouds 4 1019 65 10000 3.1 190 18:37 14.01.2020
799 Clouds 4 1019 65 10000 3.1 190 18:37 14.01.2020
800 Clouds 4 1019 93 7000 1.5 270 18:19 14.01.2020
801 Clouds 4 1019 93 7000 1.5 270 18:19 14.01.2020
802 Clouds 5 1019 93 7000 1.5 270 17:39 14.01.2020
803 Clouds 5 1019 86 8000 0.5 0 17:19 14.01.2020
804 Clouds 6 1019 86 8000 0.5 0 16:56 14.01.2020
805 Clouds 6 1019 86 10000 1.5 50 16:38 14.01.2020
806 Clouds 7 1019 86 10000 1.5 50 16:19 14.01.2020
807 Clouds 7 1019 93 8000 0.5 0 15:43 14.01.2020
808 Clouds 7 1019 93 8000 0.5 0 15:19 14.01.2020
809 Clouds 7 1019 86 8000 0.5 0 14:59 14.01.2020
810 Clouds 7 1019 86 8000 0.5 0 14:41 14.01.2020
811 Clouds 7 1019 93 8000 0.5 0 14:19 14.01.2020
812 Clouds 6 1019 100 8000 0.5 0 13:42 14.01.2020
813 Mist 7 1019 100 4500 1.5 0 13:20 14.01.2020
814 Mist 7 1020 100 4500 1.5 0 12:56 14.01.2020
815 Mist 7 1020 100 4500 1.5 0 12:56 14.01.2020
816 Clouds 7 1018 52 10000 5.7 220 12:38 14.01.2020
817 Mist 6 1020 100 3500 1.5 0 12:20 14.01.2020
818 Fog 6 1020 100 800 1.5 250 11:41 14.01.2020
819 Fog 4 1020 36 800 2.6 280 11:22 14.01.2020
820 Fog 3 1019 30 200 1.5 90 10:56 14.01.2020
821 Clouds 2 1018 69 10000 4.6 210 10:38 14.01.2020
822 Fog 1 1019 100 200 1.5 90 10:19 14.01.2020
823 Fog 1 1019 100 150 3.1 130 09:55 14.01.2020
824 Fog 0 1019 100 200 2.6 120 09:37 14.01.2020
825 Fog -1 1019 100 200 2.6 120 09:19 14.01.2020
826 Fog -1 1019 100 150 2.6 270 08:41 14.01.2020
827 Fog -2 1019 27 150 2.6 270 08:22 14.01.2020
828 Mist -2 1019 27 3300 2.1 260 07:51 14.01.2020
829 Mist -2 1018 100 3300 2.1 260 07:24 14.01.2020
830 Clouds -2 1017 92 8000 0.5 0 06:43 14.01.2020
831 Clouds -1 1017 100 10000 1 0 05:59 14.01.2020
832 Clouds -1 1018 100 5000 0.5 0 04:51 14.01.2020
833 Mist -2 1018 100 4900 2.6 100 03:47 14.01.2020
834 Clouds -2 1019 92 5000 0.5 130 02:39 14.01.2020
835 Clouds -2 1019 100 7000 1 110 01:21 14.01.2020
836 Clouds -1 1019 100 8000 1 0 00:48 14.01.2020
837 Clouds -1 1019 100 5000 1 0 00:22 14.01.2020
838 Clouds -1 1018 100 5000 0.5 0 23:44 13.01.2020
839 Mist -1 1018 100 3700 1 290 23:19 13.01.2020
840 Mist -1 1018 100 3900 0.5 0 22:57 13.01.2020
841 Mist -1 1018 100 3900 0.5 0 22:39 13.01.2020
842 Clouds -1 1019 100 6000 0.5 0 22:19 13.01.2020
843 Clouds -1 1019 100 6000 0.5 210 21:55 13.01.2020
844 Clouds -1 1020 100 10000 0.5 0 21:37 13.01.2020
845 Clouds 0 1020 100 10000 0.5 0 21:18 13.01.2020
846 Clouds -1 1020 100 10000 0.5 120 20:56 13.01.2020
847 Clouds 0 1020 47 10000 0.5 200 20:37 13.01.2020
848 Clouds 0 1020 47 10000 0.5 200 20:37 13.01.2020
849 Clouds 0 1020 48 10000 0.5 200 20:19 13.01.2020
850 Clouds 0 1020 48 10000 0.5 200 20:19 13.01.2020
851 Clouds 0 1020 100 10000 1 0 19:41 13.01.2020
852 Clouds 0 1020 47 10000 0.5 0 19:20 13.01.2020
853 Clouds 0 1020 47 10000 1 0 18:58 13.01.2020
854 Clouds 0 1020 47 10000 1 0 18:58 13.01.2020
855 Clouds 1 1019 47 10000 1 0 18:38 13.01.2020
856 Clouds 1 1019 47 10000 1 0 18:38 13.01.2020
857 Clouds 1 1020 86 10000 2.1 250 18:19 13.01.2020
858 Clouds 2 1020 80 10000 2.1 240 17:58 13.01.2020
859 Clouds 2 1020 80 10000 2.1 240 17:38 13.01.2020
860 Clouds 2 1020 86 10000 2.6 250 17:20 13.01.2020
861 Clouds 3 1022 57 0 0.9 173 16:42 13.01.2020
862 Clouds 4 1022 52 0 1.34 136 16:22 13.01.2020
863 Clouds 5 937 49 0 0.9 173 15:58 13.01.2020
864 Clouds 5 1020 55 0 0.45 157 15:40 13.01.2020
865 Clouds 5 1021 30 0 0.9 173 15:20 13.01.2020
866 Clouds 5 1021 51 0 0.45 292 14:43 13.01.2020
867 Clouds 5 1022 68 0 0.9 173 14:24 13.01.2020
868 Clouds 5 1022 51 0 0.89 232 13:59 13.01.2020
869 Clouds 5 1022 50 0 0.45 202 13:39 13.01.2020
870 Clouds 5 1022 50 0 0.45 202 13:39 13.01.2020
871 Clouds 5 1023 54 0 0.54 281 13:21 13.01.2020
872 Clouds 5 1023 53 0 0.54 281 12:56 13.01.2020
873 Clouds 4 1024 93 8000 1 0 12:37 13.01.2020
874 -273 0 0 0 0 0 12:19 13.01.2020
875 Clouds 4 1024 93 8000 1 0 12:19 13.01.2020
876 Clouds 3 1024 93 8000 1 0 11:39 13.01.2020
877 Clouds 2 1024 32 7000 1 0 11:20 13.01.2020
878 Clouds 1 1024 32 7000 1 0 10:57 13.01.2020
879 Clouds 2 1024 32 7000 1 0 10:57 13.01.2020
880 Clouds 1 1024 32 7000 1 0 10:39 13.01.2020
881 Clouds 1 1024 92 7000 0.5 0 10:20 13.01.2020
882 Clouds 1 1024 92 7000 0.5 0 10:20 13.01.2020
883 Clouds 0 1024 92 7000 0.5 0 09:56 13.01.2020
884 Clouds 0 1024 100 10000 1.5 100 09:38 13.01.2020
885 Clouds -1 1024 100 10000 1.5 100 09:19 13.01.2020
886 Clouds -2 1024 100 10000 1.5 100 08:39 13.01.2020
887 Clouds -2 1025 100 8000 1 0 08:20 13.01.2020
888 Clouds -2 1025 100 8000 1 0 08:20 13.01.2020
889 Clouds -2 1025 100 8000 1 0 07:46 13.01.2020
890 Clouds -2 1025 100 7000 1 210 07:27 13.01.2020
891 Clouds -2 1025 100 10000 0.5 0 06:40 13.01.2020
892 Clouds -2 1025 100 10000 0.5 0 06:19 13.01.2020
893 Clouds -2 1026 92 10000 1 120 05:20 13.01.2020
894 Clouds -2 1026 100 7000 1 0 03:52 13.01.2020
895 Clouds -2 1027 100 10000 1 120 03:22 13.01.2020
896 Clouds -1 1027 100 8000 1.5 0 02:38 13.01.2020
897 Clouds -1 1027 100 8000 0.5 0 02:18 13.01.2020
898 Clouds -1 1028 100 6000 1.5 110 00:59 13.01.2020
899 Clouds -1 1028 100 6000 1.5 110 00:39 13.01.2020
900 Clouds -1 1028 92 6000 0.5 0 00:19 13.01.2020
901 Clouds 0 1028 100 6000 0.5 0 23:41 12.01.2020
902 Clouds 0 1028 92 7000 1.5 0 23:23 12.01.2020
903 Clouds 0 1028 100 10000 1 220 22:57 12.01.2020
904 Clouds 0 1028 100 10000 1 220 22:39 12.01.2020
905 Clouds 0 1028 36 10000 0.5 0 22:20 12.01.2020
906 Clouds 0 1028 36 10000 0.5 0 21:55 12.01.2020
907 Clouds 1 1028 36 10000 0.5 0 21:37 12.01.2020
908 Clouds 0 1028 36 10000 0.5 0 21:19 12.01.2020
909 Clouds 1 1029 36 9000 1 0 20:55 12.01.2020
910 Clouds 1 1028 36 8000 1 230 20:37 12.01.2020
911 Clouds 1 1028 34 8000 1 230 20:19 12.01.2020
912 Clouds 1 1028 34 10000 1 280 19:54 12.01.2020
913 Clouds 1 1028 100 8000 1 0 19:36 12.01.2020
914 Clouds 2 1028 100 8000 1 0 19:18 12.01.2020
915 Clouds 2 1028 34 8000 2.1 270 18:54 12.01.2020
916 Clouds 2 1028 34 10000 1 0 18:36 12.01.2020
917 Clouds 2 1028 34 10000 1 0 18:18 12.01.2020
918 Clouds 2 1026 80 10000 4.6 240 17:42 12.01.2020
919 Clouds 3 1027 93 10000 1.5 110 17:21 12.01.2020
920 Clouds 3 1027 86 10000 1.5 150 16:57 12.01.2020
921 Clouds 4 1025 74 10000 5.1 230 16:38 12.01.2020
922 Clouds 4 1028 93 6000 1.5 100 16:19 12.01.2020
923 Clouds 4 1028 93 6000 1.5 120 15:43 12.01.2020
924 Clear 4 1024 37 10000 2.6 20 15:25 12.01.2020
925 Clouds 5 1026 80 10000 4.6 250 14:59 12.01.2020
926 Clouds 5 1026 80 10000 4.6 250 14:41 12.01.2020
927 Clear 5 1024 40 10000 2.6 30 14:21 12.01.2020
928 Clouds 5 1026 86 10000 5.1 250 13:55 12.01.2020
929 Clouds 4 1026 93 7000 5.1 240 13:37 12.01.2020
930 Clouds 5 1026 93 7000 5.1 240 13:18 12.01.2020
931 Clouds 5 1026 93 7000 5.1 240 13:18 12.01.2020
932 Clouds 4 1028 100 5000 2.6 310 12:43 12.01.2020
933 Clouds 3 1029 100 4000 2.1 330 12:21 12.01.2020
934 Clouds 3 1029 100 4000 2.1 330 11:59 12.01.2020
935 Clouds 3 1029 100 4000 2.1 330 11:39 12.01.2020
936 Mist 1 1029 100 3500 0.5 0 11:21 12.01.2020
937 Fog 0 1029 25 150 0.5 0 10:42 12.01.2020
938 Fog 0 1029 25 150 0.5 0 10:22 12.01.2020
939 Fog -1 1028 25 150 1 0 09:59 12.01.2020
940 Fog -1 1028 25 150 1 0 09:41 12.01.2020
941 Fog -1 1028 25 250 2.6 100 09:20 12.01.2020
942 Fog -2 1028 25 2400 2.6 100 08:45 12.01.2020
943 Mist -3 1028 29 3400 2.6 110 08:21 12.01.2020
944 Clouds -2 1028 29 6000 3.1 90 07:44 12.01.2020
945 Clouds -2 1028 29 6000 2.6 110 07:25 12.01.2020
946 Mist -3 1028 29 3100 2.1 110 06:50 12.01.2020
947 Mist -3 1028 29 3900 2.1 100 06:32 12.01.2020
948 Clouds -3 1028 29 6000 2.1 90 05:47 12.01.2020
949 Clouds -2 1029 31 9000 2.1 100 04:51 12.01.2020
950 Clouds -3 1029 31 6000 1 90 03:29 12.01.2020
951 Clouds -2 1029 31 10000 1 0 02:34 12.01.2020
952 Clouds -2 1029 37 10000 2.1 140 01:58 12.01.2020
953 Clouds -2 1029 37 10000 2.1 130 01:30 12.01.2020
954 Clouds -2 1030 100 5000 1.5 110 00:44 12.01.2020
955 Mist -2 1030 100 3700 0.5 0 00:21 12.01.2020
956 Clouds -2 1030 37 8000 1.5 0 23:55 11.01.2020
957 Clouds -1 1030 37 7000 1 130 23:37 11.01.2020
958 Clouds -2 1030 51 7000 1 130 23:18 11.01.2020
959 Clouds -1 1030 100 10000 1.5 110 22:42 11.01.2020
960 Mist -1 1030 51 4900 1 0 22:21 11.01.2020
961 Clouds 0 1030 100 6000 0.5 0 21:59 11.01.2020
962 Clouds -1 1030 100 6000 0.5 0 21:41 11.01.2020
963 Clouds 0 1030 93 9000 1 0 21:18 11.01.2020
964 Clouds 0 1031 100 10000 0.5 0 20:55 11.01.2020
965 Clouds 0 1031 100 10000 1 0 20:36 11.01.2020
966 Clouds 0 1031 100 10000 1 0 20:18 11.01.2020
967 Clouds 0 1031 93 10000 1 0 19:54 11.01.2020
968 Clouds 1 1031 93 10000 1 0 19:36 11.01.2020
969 Clouds 1 1031 93 10000 1 0 19:18 11.01.2020
970 Clouds 2 1031 86 10000 1 0 18:39 11.01.2020
971 Clouds 2 1031 93 10000 1 220 18:20 11.01.2020
972 Clouds 2 1031 93 10000 1 220 17:58 11.01.2020
973 Clouds 2 1031 93 10000 1 220 17:40 11.01.2020
974 Clouds 3 1031 93 10000 1.5 260 17:20 11.01.2020
975 Clouds 4 1031 86 10000 1.5 260 16:46 11.01.2020
976 Clouds 4 1031 86 10000 1.5 260 16:46 11.01.2020
977 Clouds 5 1031 75 10000 1 0 16:28 11.01.2020
978 Clouds 5 1031 75 10000 1 0 15:59 11.01.2020
979 Clouds 5 1031 75 10000 1 0 15:41 11.01.2020
980 Clouds 5 1031 81 10000 1 0 15:22 11.01.2020
981 Clouds 5 1031 81 10000 1 0 15:22 11.01.2020
982 Clouds 5 1032 87 10000 1.5 0 14:58 11.01.2020
983 Clouds 5 1032 87 10000 1.5 0 14:39 11.01.2020
984 Clouds 5 1032 87 10000 1 0 14:21 11.01.2020
985 Clouds 5 1032 87 10000 1 0 13:41 11.01.2020
986 Clouds 5 1032 81 10000 1 0 13:20 11.01.2020
987 Clouds 5 1032 81 10000 1 0 12:59 11.01.2020
988 Clouds 5 1032 81 10000 1 0 12:40 11.01.2020
989 Clouds 5 1032 87 10000 1 0 12:21 11.01.2020
990 Clouds 5 1033 93 10000 1.5 0 11:48 11.01.2020
991 Clouds 4 1033 93 10000 0.5 0 11:26 11.01.2020
992 Clouds 4 1033 100 10000 1 120 10:51 11.01.2020
993 Clouds 4 1033 100 10000 1 120 10:30 11.01.2020
994 Clouds 3 1033 100 10000 1 90 09:58 11.01.2020
995 Clouds 3 1033 100 5000 1.5 100 09:38 11.01.2020
996 Clouds 3 1033 100 5000 1.5 100 09:20 11.01.2020
997 Clouds 3 1033 100 10000 0.5 0 08:42 11.01.2020
998 Drizzle 3 1033 93 10000 1 230 08:21 11.01.2020
999 Drizzle 3 1033 100 10000 0.5 0 07:44 11.01.2020
1000 Drizzle 3 1033 93 10000 0.5 0 07:25 11.01.2020
1001 Drizzle 3 1032 93 10000 1.5 100 06:50 11.01.2020
1002 Clouds 3 1032 100 10000 1.5 90 05:40 11.01.2020
1003 Drizzle 3 1032 100 10000 1.5 220 04:46 11.01.2020
1004 Drizzle 3 1032 100 10000 1.5 210 04:27 11.01.2020
1005 Rain 3 1031 93 8000 2.1 230 02:49 11.01.2020
1006 Rain 4 1031 93 5000 3.1 310 02:20 11.01.2020
1007 Clouds 4 1031 93 10000 1.5 0 01:42 11.01.2020
1008 Drizzle 4 1030 93 8000 1 0 01:18 11.01.2020
1009 Rain 4 1030 87 10000 3.1 280 00:38 11.01.2020
1010 Snow 5 1029 86 10000 5.7 280 23:59 10.01.2020
1011 Drizzle 5 1030 75 10000 3.1 260 23:40 10.01.2020
1012 Drizzle 5 1030 75 10000 3.1 260 23:40 10.01.2020
1013 Clouds 5 1029 70 10000 2.1 260 23:21 10.01.2020
1014 Clouds 5 1029 81 10000 2.1 280 22:56 10.01.2020
1015 Rain 5 1029 75 10000 2.1 290 22:38 10.01.2020
1016 Rain 6 1029 75 10000 2.1 290 22:19 10.01.2020
1017 Rain 6 1028 75 10000 1 0 21:55 10.01.2020
1018 Clouds 6 1028 81 10000 1.5 240 21:36 10.01.2020
1019 Clouds 6 1028 81 10000 1.5 240 21:18 10.01.2020
1020 Clouds 6 1027 86 10000 1 0 20:42 10.01.2020
1021 Clouds 6 1027 86 10000 1 0 20:24 10.01.2020
1022 Clouds 6 1026 81 10000 1 0 19:54 10.01.2020
1023 Clouds 6 1026 81 10000 1 0 19:36 10.01.2020
1024 Clouds 6 1026 81 10000 1 0 19:18 10.01.2020
1025 Clouds 6 1025 80 10000 1 0 18:41 10.01.2020
1026 Clouds 6 1025 80 10000 1 0 18:19 10.01.2020
1027 Clouds 6 1025 80 10000 1 0 18:19 10.01.2020
1028 Clouds 6 1024 70 10000 1 0 17:57 10.01.2020
1029 Clouds 6 1024 70 10000 1 0 17:38 10.01.2020
1030 Clouds 6 1024 70 10000 1 0 17:20 10.01.2020
1031 Clouds 7 1024 61 10000 1 0 16:55 10.01.2020
1032 Clouds 7 1024 61 10000 1 0 16:37 10.01.2020
1033 Clouds 7 1024 61 10000 1 0 16:18 10.01.2020
1034 Clouds 7 1023 61 10000 1 0 15:55 10.01.2020
1035 Clouds 8 1023 57 10000 3.1 100 15:36 10.01.2020
1036 Clouds 8 1023 57 10000 3.1 100 15:18 10.01.2020
1037 Clouds 8 1023 57 10000 3.1 100 15:18 10.01.2020
1038 Clouds 8 1023 70 10000 3.1 90 14:42 10.01.2020
1039 Clouds 8 1023 70 10000 3.1 90 14:20 10.01.2020
1040 Clouds 8 1022 70 10000 2.1 110 13:58 10.01.2020
1041 Clouds 8 1022 70 10000 2.1 110 13:58 10.01.2020
1042 Clouds 8 1022 70 10000 2.1 110 13:40 10.01.2020
1043 Clouds 9 1022 66 10000 1 0 13:22 10.01.2020
1044 Clouds 9 1022 75 10000 1 0 12:57 10.01.2020
1045 Clouds 8 1022 75 10000 2.1 290 12:38 10.01.2020
1046 Clouds 8 1022 75 10000 2.1 290 12:18 10.01.2020
1047 Clouds 7 1022 75 10000 2.1 290 11:54 10.01.2020
1048 Clouds 7 1022 75 10000 2.6 280 11:36 10.01.2020
1049 Clouds 7 1022 75 10000 2.6 280 11:18 10.01.2020
1050 Clouds 5 1022 75 10000 2.6 280 10:39 10.01.2020
1051 Clouds 5 1021 86 10000 2.1 270 10:21 10.01.2020
1052 Clouds 5 1021 80 10000 2.1 270 09:56 10.01.2020
1053 Clouds 4 1020 78 10000 2.1 130 09:37 10.01.2020
1054 Clouds 4 1020 78 10000 2.1 130 09:19 10.01.2020
1055 Clouds 3 1021 86 10000 1 0 08:41 10.01.2020
1056 Clouds 3 1021 86 10000 1 0 08:22 10.01.2020
1057 Clouds 3 1020 86 10000 1 0 07:44 10.01.2020
1058 Clouds 3 1020 89 10000 1 0 07:24 10.01.2020
1059 Clouds 3 1020 89 10000 2.6 90 06:45 10.01.2020
1060 Clouds 3 1020 89 10000 1 0 06:25 10.01.2020
1061 Clouds 3 1020 86 10000 1.5 100 05:46 10.01.2020
1062 Clouds 2 1019 86 10000 1 0 03:35 10.01.2020
1063 Clouds 2 1019 80 10000 2.1 280 02:59 10.01.2020
1064 Clouds 2 1018 64 10000 5.7 210 02:38 10.01.2020
1065 Clouds 1 1017 60 10000 6.2 210 01:38 10.01.2020
1066 Clouds 2 1018 86 10000 0.5 0 01:19 10.01.2020
1067 Clouds 2 1018 86 10000 2.6 100 00:39 10.01.2020
1068 Clouds 1 1018 57 10000 1 0 23:58 09.01.2020
1069 Clouds 2 1018 57 10000 3.1 270 23:38 09.01.2020
1070 Clouds 3 1018 64 10000 3.1 270 23:20 09.01.2020
1071 Clouds 2 1018 92 10000 2.1 280 22:57 09.01.2020
1072 Clouds 3 1018 64 10000 1 0 22:37 09.01.2020
1073 Clouds 2 1018 64 10000 1 0 22:19 09.01.2020
1074 Clouds 2 1018 93 10000 1.5 0 21:56 09.01.2020
1075 Clouds 3 1018 86 10000 1.5 110 21:37 09.01.2020
1076 Clouds 3 1018 86 10000 1.5 110 21:18 09.01.2020
1077 Clouds 3 1018 86 10000 1.5 110 20:56 09.01.2020
1078 Clouds 3 1018 86 10000 1.5 110 20:38 09.01.2020
1079 Clouds 3 1019 68 10000 2.1 110 20:19 09.01.2020
1080 Clouds 3 1019 68 10000 2.1 110 20:19 09.01.2020
1081 Clouds 3 1019 68 10000 2.1 110 20:19 09.01.2020
1082 Clouds 3 1018 60 10000 3.6 210 19:55 09.01.2020
1083 Clouds 4 1019 60 10000 0.5 0 19:36 09.01.2020
1084 Clouds 4 1020 93 10000 0.5 0 19:18 09.01.2020
1085 Clouds 4 1019 60 10000 1.5 270 18:54 09.01.2020
1086 Clouds 4 1019 60 10000 1.5 270 18:54 09.01.2020
1087 Clouds 4 1020 93 10000 0.5 0 18:36 09.01.2020
1088 Clouds 4 1020 93 10000 0.5 0 18:18 09.01.2020
1089 Clouds 5 1020 93 10000 0.5 0 17:41 09.01.2020
1090 Clouds 6 1020 87 10000 1.5 0 17:18 09.01.2020
1091 Clouds 6 1020 87 10000 1.5 0 17:18 09.01.2020
1092 Clouds 7 1020 87 10000 1.5 0 16:47 09.01.2020
1093 Clouds 7 1019 56 10000 4.1 210 16:23 09.01.2020
1094 Clouds 7 1019 56 10000 4.1 210 16:23 09.01.2020
1095 Clouds 8 1019 72 10000 3.6 220 15:56 09.01.2020
1096 Clouds 8 1020 81 10000 2.1 80 15:56 09.01.2020
1097 Clouds 8 1020 81 10000 2.1 80 15:38 09.01.2020
1098 Clouds 9 1021 81 10000 1.5 300 15:18 09.01.2020
1099 Clouds 9 1021 81 10000 1.5 300 14:41 09.01.2020
1100 Clouds 9 1022 81 10000 1.5 310 14:21 09.01.2020
1101 Clouds 10 1020 43 10000 6.7 230 13:57 09.01.2020
1102 Clouds 10 1020 43 10000 5.7 230 13:39 09.01.2020
1103 Clouds 10 1022 87 10000 2.1 290 13:20 09.01.2020
1104 Clouds 10 1021 45 10000 7.2 230 12:58 09.01.2020
1105 Clouds 9 1022 87 10000 2.1 290 12:58 09.01.2020
1106 Clouds 10 1023 81 10000 2.1 290 12:38 09.01.2020
1107 Clouds 9 1023 80 10000 1.5 290 12:19 09.01.2020
1108 Clouds 8 1023 80 10000 1.5 290 11:43 09.01.2020
1109 Clouds 7 1023 80 10000 1.5 290 11:25 09.01.2020
1110 Clouds 6 1024 80 10000 2.1 290 10:59 09.01.2020
1111 Clouds 5 1024 80 10000 2.6 270 10:41 09.01.2020
1112 Clouds 4 1024 48 10000 1 270 10:22 09.01.2020
1113 Clouds 3 1024 48 10000 1 270 09:49 09.01.2020
1114 Clouds 3 1024 48 10000 1 270 09:26 09.01.2020
1115 Clouds 1 1025 100 10000 1.5 100 08:59 09.01.2020
1116 Clouds 2 1025 48 10000 0.5 0 08:40 09.01.2020
1117 Clouds 1 1023 64 10000 5.1 200 08:22 09.01.2020
1118 Clouds 1 1024 64 10000 6.2 210 07:55 09.01.2020
1119 Clouds 1 1026 43 10000 0.5 0 07:35 09.01.2020
1120 Clouds 1 1024 55 10000 4.1 200 06:54 09.01.2020
1121 Clouds 1 1026 43 10000 2.6 110 06:32 09.01.2020
1122 Clouds 1 1026 93 10000 1 110 05:52 09.01.2020
1123 Clouds 1 1025 64 10000 3.6 200 05:28 09.01.2020
1124 Clouds 2 1026 93 10000 2.1 260 04:41 09.01.2020
1125 Clouds 2 1025 64 10000 3.1 230 03:28 09.01.2020
1126 Clouds 2 1027 43 10000 2.1 100 02:47 09.01.2020
1127 Clouds 2 1027 39 4400 2.04 174 01:53 09.01.2020
1128 Clouds 2 1028 100 10000 1 110 01:33 09.01.2020
1129 Clouds 2 1029 40 10000 2.1 280 00:39 09.01.2020
1130 Clouds 2 1029 40 10000 1 0 00:19 09.01.2020
1131 Clouds 2 1029 40 10000 2.1 110 23:41 08.01.2020
1132 Clouds 2 1027 60 10000 3.6 210 23:23 08.01.2020
1133 Clouds 2 1029 40 7000 0.5 140 22:56 08.01.2020
1134 Clouds 2 1029 40 10000 1 190 22:38 08.01.2020
1135 Clouds 2 1029 100 8000 1 200 22:19 08.01.2020
1136 Clouds 2 1029 100 8000 1 200 21:55 08.01.2020
1137 Clouds 2 1029 100 9000 1 200 21:37 08.01.2020
1138 Clouds 2 1029 93 10000 0.5 230 21:18 08.01.2020
1139 Clouds 2 1028 69 10000 2.6 210 20:55 08.01.2020
1140 Clouds 3 1029 93 10000 0.5 0 20:37 08.01.2020
1141 Clouds 3 1029 93 10000 0.5 0 20:18 08.01.2020
1142 Clouds 3 1029 93 10000 1 210 19:39 08.01.2020
1143 Clouds 3 1029 93 10000 1 210 19:20 08.01.2020
1144 Clouds 3 1028 60 10000 2.6 200 18:58 08.01.2020
1145 Clouds 3 1030 93 10000 1 0 18:39 08.01.2020
1146 Clouds 3 1030 93 10000 1 0 18:39 08.01.2020
1147 Clouds 3 1029 86 10000 1 0 18:19 08.01.2020
1148 Clouds 4 1028 64 10000 2.6 200 17:57 08.01.2020
1149 Clouds 4 1030 93 10000 1 180 17:39 08.01.2020
1150 Clouds 4 1030 100 10000 2.1 300 17:20 08.01.2020
1151 Clouds 5 1028 64 10000 3.6 210 16:56 08.01.2020
1152 Clouds 5 1030 93 10000 1.5 300 16:38 08.01.2020
1153 Clouds 5 1030 100 10000 1.5 310 16:19 08.01.2020
1154 Clouds 5 1030 100 10000 1.5 310 15:45 08.01.2020
1155 Clouds 5 1028 60 10000 4.1 240 15:22 08.01.2020
1156 Clouds 5 1030 93 10000 1 0 15:22 08.01.2020
1157 Clouds 5 1030 93 10000 1 0 14:59 08.01.2020
1158 Clouds 5 1030 93 10000 1 0 14:40 08.01.2020
1159 Clouds 5 1030 93 10000 2.1 280 14:21 08.01.2020
1160 Clouds 5 1030 93 10000 2.1 280 13:42 08.01.2020
1161 Clouds 5 1028 65 10000 3.6 230 13:22 08.01.2020
1162 Clouds 6 1029 69 10000 5.1 230 12:55 08.01.2020
1163 Mist 5 1031 93 4500 1 0 12:37 08.01.2020
1164 Mist 5 1032 100 3000 1.5 290 12:18 08.01.2020
1165 Mist 4 1032 100 3000 1.5 290 11:48 08.01.2020
1166 Mist 4 1032 100 3000 1.5 290 11:48 08.01.2020
1167 Fog 3 1031 100 900 1.5 70 11:19 08.01.2020
1168 Clouds 2 1030 69 10000 3.1 200 10:59 08.01.2020
1169 Fog 2 1031 100 900 1.5 70 10:40 08.01.2020
1170 Fog 1 1031 93 700 1 0 10:21 08.01.2020
1171 Fog 1 1031 93 700 1 0 10:21 08.01.2020
1172 Fog 1 1031 93 700 1 0 10:21 08.01.2020
1173 Fog 0 1031 100 600 1.5 280 09:43 08.01.2020
1174 Fog 0 1030 100 250 1 0 09:20 08.01.2020
1175 Fog 0 1030 100 250 1 0 08:59 08.01.2020
1176 Fog 0 1030 100 250 1 0 08:40 08.01.2020
1177 Fog -1 1030 100 1000 1.5 0 08:21 08.01.2020
1178 Clear -1 1028 74 10000 5.1 210 07:52 08.01.2020
1179 Clear -1 1028 74 10000 5.1 210 07:52 08.01.2020
1180 Clear -1 1028 25 10000 4.1 220 07:34 08.01.2020
1181 Mist -2 1030 100 2500 1 210 06:58 08.01.2020
1182 Mist -2 1030 100 2500 1 0 06:40 08.01.2020
1183 Clear -2 1028 92 10000 3.1 190 05:55 08.01.2020
1184 Mist -2 1030 100 3800 1.5 220 05:25 08.01.2020
1185 Fog -2 1030 29 200 1.5 230 04:36 08.01.2020
1186 Fog -2 1030 29 150 2.1 220 02:46 08.01.2020
1187 Clear -2 1028 100 6000 1.5 180 02:28 08.01.2020
1188 Clouds -2 1029 100 5000 0.5 0 01:55 08.01.2020
1189 Mist -2 1030 92 4400 1 0 01:29 08.01.2020
1190 Clear -1 1030 37 6000 1 0 00:42 08.01.2020
1191 Clear -1 1030 100 6000 1 0 00:21 08.01.2020
1192 Clear -1 1030 37 10000 1 0 23:45 07.01.2020
1193 Clear 0 1030 57 10000 1 0 23:20 07.01.2020
1194 Clear 0 1031 93 10000 2.6 110 22:41 07.01.2020
1195 Clear 0 1031 100 10000 1.5 0 22:21 07.01.2020
1196 Clear 0 1031 100 10000 1.5 0 21:59 07.01.2020
1197 Clouds 1 1031 93 10000 1.5 150 21:41 07.01.2020
1198 Clouds 1 1030 57 10000 2.1 160 21:21 07.01.2020
1199 Clouds 1 1030 57 10000 2.1 160 20:57 07.01.2020
1200 Clouds 1 1032 100 9000 2.1 100 20:39 07.01.2020
1201 Clouds 1 1031 93 10000 0.5 200 20:21 07.01.2020
1202 Clouds 1 1031 100 10000 2.1 200 19:56 07.01.2020
1203 Clouds 2 1031 100 10000 0.5 0 19:37 07.01.2020
1204 Clouds 2 1031 100 10000 0.5 0 19:18 07.01.2020
1205 Clouds 2 1031 100 10000 0.5 0 19:18 07.01.2020
1206 Clouds 2 1030 100 10000 1.5 180 18:55 07.01.2020
1207 Clouds 2 1031 93 10000 0.5 0 18:37 07.01.2020
1208 Clouds 2 1031 93 10000 0.5 0 18:18 07.01.2020
1209 Clouds 2 1031 93 10000 0.5 0 18:18 07.01.2020
1210 -273 0 0 0 0 0 17:40 07.01.2020
1211 Clouds 3 1031 93 10000 1.5 0 17:22 07.01.2020
1212 Clouds 3 1031 93 10000 1.5 0 16:57 07.01.2020
1213 Clouds 3 1031 93 10000 1.5 0 16:38 07.01.2020
1214 Clouds 3 1031 93 10000 1.5 0 16:38 07.01.2020
1215 Clouds 3 1031 93 10000 1.5 0 16:38 07.01.2020
1216 Clouds 3 1031 93 10000 1.5 0 16:38 07.01.2020
1217 Clouds 4 1030 93 10000 1.5 90 16:19 07.01.2020
1218 Clouds 4 1030 93 10000 1.5 90 15:59 07.01.2020
1219 Clouds 4 1030 93 10000 1.5 90 15:40 07.01.2020
1220 Clouds 4 1030 93 10000 0.5 0 15:22 07.01.2020
1221 Clouds 4 1029 86 10000 3.6 220 14:55 07.01.2020
1222 Clouds 4 1030 93 10000 0.5 0 14:37 07.01.2020
1223 Clouds 4 1031 93 10000 2.1 80 14:18 07.01.2020
1224 Clouds 4 1031 93 10000 2.1 80 13:39 07.01.2020
1225 Clouds 3 1031 93 10000 1 0 13:19 07.01.2020
1226 Rain 3 1031 93 9000 1.5 100 12:41 07.01.2020
1227 Rain 3 1031 93 9000 3.1 130 12:20 07.01.2020
1228 Clouds 3 1029 93 10000 5.1 220 11:57 07.01.2020
1229 Rain 3 1031 93 9000 3.1 130 11:38 07.01.2020
1230 Clouds 2 1031 100 9000 2.1 110 11:20 07.01.2020
1231 Clouds 2 1031 100 9000 2.1 120 10:42 07.01.2020
1232 Rain 2 1029 93 10000 5.1 220 10:24 07.01.2020
1233 Rain 2 1029 93 10000 6.2 220 09:58 07.01.2020
1234 Clouds 2 1030 100 8000 1 190 09:38 07.01.2020
1235 Clouds 2 1029 96 3900 1 0 09:20 07.01.2020
1236 Mist 2 1029 96 1300 2.6 110 08:43 07.01.2020
1237 Mist 2 1029 96 1300 2.6 110 08:25 07.01.2020
1238 Clouds 2 1027 60 10000 6.2 240 07:54 07.01.2020
1239 Mist 2 1029 60 2200 1.5 0 07:28 07.01.2020
1240 Mist 1 1029 60 2200 1.5 0 07:28 07.01.2020
1241 Clouds 1 1026 74 10000 5.7 230 06:53 07.01.2020
1242 Fog 1 1028 60 600 2.1 250 06:34 07.01.2020
1243 Clouds 2 1025 69 10000 6.7 230 05:55 07.01.2020
1244 Fog 0 1027 49 100 0.5 0 04:41 07.01.2020
1245 Fog 0 1027 49 100 2.6 120 03:27 07.01.2020
1246 Fog 0 1027 44 100 1.5 290 02:22 07.01.2020
1247 Fog 0 1027 44 100 0.5 0 01:52 07.01.2020
1248 Clear 0 1025 69 10000 6.2 220 01:30 07.01.2020
1249 Fog -1 1027 45 550 1 0 00:37 07.01.2020
1250 Fog 0 1028 45 1000 2.1 250 00:18 07.01.2020
1251 Mist 0 1027 45 1400 1 0 23:39 06.01.2020
1252 Mist 0 1028 41 2400 1.5 170 23:21 06.01.2020
1253 Mist 0 1028 41 2400 1.5 170 22:58 06.01.2020
1254 Mist 0 1028 41 2100 2.1 190 22:38 06.01.2020
1255 Mist 0 1028 41 2400 1 0 22:20 06.01.2020
1256 Clear 0 1025 69 10000 4.6 230 21:56 06.01.2020
1257 Mist 0 1028 41 2700 1.5 190 21:56 06.01.2020
1258 Mist 0 1028 41 2700 1.5 190 21:37 06.01.2020
1259 Mist 0 1028 41 3500 1 240 21:19 06.01.2020
1260 Mist 0 1028 41 3500 1 240 20:56 06.01.2020
1261 Mist 0 1028 41 3300 1.5 230 20:37 06.01.2020
1262 Mist 0 1028 100 3500 1.5 220 20:19 06.01.2020
1263 Clear 0 1025 48 10000 4.1 260 19:55 06.01.2020
1264 Clear 0 1025 48 10000 3.6 250 19:37 06.01.2020
1265 Mist 0 1027 92 3600 1 210 19:18 06.01.2020
1266 Mist 0 1028 48 6000 1.5 240 18:44 06.01.2020
1267 Clouds 1 1028 48 6000 1.5 240 18:21 06.01.2020
1268 Clouds 1 1028 48 6000 1.5 240 17:40 06.01.2020
1269 Clouds 1 1028 48 6000 1.5 240 17:40 06.01.2020
1270 Clouds 2 1028 57 6000 1.5 280 17:20 06.01.2020
1271 Clouds 2 1028 57 6000 1.5 280 16:58 06.01.2020
1272 Clouds 3 1028 57 6000 1.5 280 16:40 06.01.2020
1273 Clouds 4 1028 57 4500 2.1 270 16:22 06.01.2020
1274 Clouds 4 1028 57 4500 2.1 270 15:59 06.01.2020
1275 Clouds 4 1028 57 4500 2.1 250 15:37 06.01.2020
1276 Clouds 5 1028 57 6000 2.1 270 15:18 06.01.2020
1277 Clouds 4 1028 57 6000 2.6 280 14:41 06.01.2020
1278 Clouds 5 1028 45 6000 2.1 290 14:22 06.01.2020
1279 Clear 5 1026 65 10000 2.6 230 14:22 06.01.2020
1280 Clouds 5 1028 45 6000 2.1 290 13:59 06.01.2020
1281 Mist 4 1029 45 5000 1.5 0 13:39 06.01.2020
1282 Mist 4 1029 45 5000 0.5 0 13:21 06.01.2020
1283 Clear 4 1027 69 10000 4.1 240 12:55 06.01.2020
1284 Clear 4 1028 74 10000 4.6 220 12:37 06.01.2020
1285 Clear 4 1028 74 10000 4.6 220 12:37 06.01.2020
1286 Mist 3 1030 45 2100 1 0 12:18 06.01.2020
1287 Fog 3 1030 100 1000 2.1 100 11:42 06.01.2020
1288 Clear 2 1028 80 10000 3.1 230 11:24 06.01.2020
1289 Clear 0 1029 37 10000 2.6 240 10:59 06.01.2020
1290 Clouds 0 1031 37 8000 1 0 10:40 06.01.2020
1291 Clouds 0 1031 100 8000 1.5 110 10:20 06.01.2020
1292 Clouds -2 1031 92 10000 0.5 0 09:39 06.01.2020
1293 Clouds -3 1031 92 10000 0.5 0 09:20 06.01.2020
1294 Clouds -3 1031 37 10000 0.5 0 08:52 06.01.2020
1295 Clouds -3 1031 37 10000 0.5 0 08:34 06.01.2020
1296 Clouds -3 1031 92 7000 2.1 240 07:57 06.01.2020
1297 Clouds -3 1031 100 7000 2.1 240 07:37 06.01.2020
1298 Mist -3 1030 31 3000 2.6 250 06:47 06.01.2020
1299 Mist -3 1030 31 3000 2.6 250 06:27 06.01.2020
1300 Clouds -3 1030 92 0 0.5 0 05:48 06.01.2020
1301 Clouds -3 1029 92 10000 1.5 140 04:53 06.01.2020
1302 Clouds -3 1031 100 0 1.5 110 04:20 06.01.2020
1303 Clouds -2 1031 100 0 0.5 180 02:58 06.01.2020
1304 Clear -2 1031 100 0 0.5 0 02:24 06.01.2020
1305 Clear -2 1031 100 0 1 0 01:45 06.01.2020
1306 Clear -2 1031 100 0 1 0 01:27 06.01.2020
1307 Clear -2 1032 92 0 2.1 100 00:44 06.01.2020
1308 Clear -2 1032 100 0 0.5 130 00:23 06.01.2020
1309 Clear -2 1033 92 0 1.5 0 23:43 05.01.2020
1310 Clear -2 1032 100 5000 1.5 90 23:23 05.01.2020
1311 Clear -2 1032 92 900 1.5 60 22:57 05.01.2020
1312 Clear -2 1033 86 0 2.6 90 22:38 05.01.2020
1313 Clear -1 1033 86 0 0.5 0 22:20 05.01.2020
1314 Clear -1 1033 86 0 0.5 0 21:55 05.01.2020
1315 Clear -1 1033 54 0 3.1 70 21:37 05.01.2020
1316 Clear -1 1033 54 0 3.1 70 21:37 05.01.2020
1317 Clear -1 1034 54 0 3.1 100 21:19 05.01.2020
1318 Clear -1 1034 54 0 3.1 100 21:19 05.01.2020
1319 Clear -1 1033 100 10000 1.5 70 20:55 05.01.2020
1320 Clear -1 1034 54 0 2.6 100 20:36 05.01.2020
1321 Clear -1 1034 87 10000 3.1 100 20:18 05.01.2020
1322 Clear 0 1034 75 10000 2.1 80 19:56 05.01.2020
1323 Clear 0 1034 75 0 1.5 110 19:37 05.01.2020
1324 Clear 1 1034 75 10000 1 100 19:18 05.01.2020
1325 Clear 1 1035 75 10000 1 0 18:54 05.01.2020
1326 Clear 1 1035 75 10000 1 0 18:36 05.01.2020
1327 Clear 1 1035 75 10000 1 0 18:18 05.01.2020
1328 Clear 2 1034 86 10000 1.35 143 17:55 05.01.2020
1329 Clouds 2 1034 93 10000 1.5 110 17:55 05.01.2020
1330 Clear 1 1034 86 10000 1.35 143 17:37 05.01.2020
1331 Clear 2 1034 86 10000 0.79 44 17:18 05.01.2020
1332 Clear 3 1035 86 10000 0.5 0 16:42 05.01.2020
1333 Clear 3 1035 86 10000 0.5 0 16:23 05.01.2020
1334 Clear 3 1035 86 10000 0.5 0 16:22 05.01.2020
1335 Clear 3 1035 86 10000 0.5 0 16:22 05.01.2020
1336 Clear 3 1035 86 10000 0.5 0 16:22 05.01.2020
1337 Clear 3 1035 86 10000 0.5 0 16:22 05.01.2020
1338 Clear 3 1034 80 10000 3.1 290 15:41 05.01.2020
1339 Clear 4 1034 80 10000 3.1 290 15:23 05.01.2020
1340 Clouds 4 1034 80 10000 4.1 20 14:58 05.01.2020
1341 Clear 4 1034 75 10000 1.5 0 14:40 05.01.2020
1342 Clear 4 1034 70 10000 1.5 0 14:22 05.01.2020
1343 Clear 4 1034 70 10000 0.5 0 13:59 05.01.2020
1344 Clear 4 1034 70 10000 0.5 0 13:39 05.01.2020
1345 Clear 4 1034 80 10000 1.5 100 13:21 05.01.2020
1346 Clouds 5 1034 80 10000 1.5 50 12:57 05.01.2020
1347 Clear 5 1035 75 10000 2.1 80 12:38 05.01.2020
1348 Clear 4 1035 80 10000 1.5 0 12:20 05.01.2020
1349 Clear 4 1035 80 10000 1.5 0 11:55 05.01.2020
1350 Clear 3 1035 80 10000 1 0 11:37 05.01.2020
1351 Clear 3 1035 80 10000 1 0 11:37 05.01.2020
1352 Clouds 2 1035 86 10000 0.5 0 11:19 05.01.2020
1353 Clouds 2 1035 86 10000 0.5 0 11:19 05.01.2020
1354 Clouds 2 1035 86 10000 0.5 0 11:19 05.01.2020
1355 Clouds 2 1035 86 10000 0.5 0 10:42 05.01.2020
1356 Clouds 1 1036 93 10000 1 110 10:20 05.01.2020
1357 Clouds 1 1036 93 10000 1 110 09:59 05.01.2020
1358 Clouds 1 1036 66 10000 0.5 0 09:41 05.01.2020
1359 Clouds 0 1036 66 10000 0.5 0 09:41 05.01.2020
1360 Clouds 0 1036 66 0 1.5 0 09:21 05.01.2020
1361 Clouds 0 1036 66 0 1.5 120 08:45 05.01.2020
1362 Clouds 0 1035 66 10000 2.1 200 08:25 05.01.2020
1363 Clouds 0 1036 79 0 1.5 200 07:50 05.01.2020
1364 Clouds 0 1036 79 0 1.5 200 07:29 05.01.2020
1365 Clouds 0 1034 79 10000 1.5 180 06:56 05.01.2020
1366 Clouds 1 1036 79 0 0.5 130 05:52 05.01.2020
1367 Clouds 1 1034 85 10000 4.1 230 04:57 05.01.2020
1368 Clouds 1 1035 85 0 1.5 120 04:19 05.01.2020
1369 Clouds 1 1035 85 0 1.5 120 04:19 05.01.2020
1370 Clouds 1 1035 93 0 1 0 03:45 05.01.2020
1371 Clouds 1 1035 80 0 1.5 0 02:41 05.01.2020
1372 Clouds 2 1035 91 0 1 0 02:19 05.01.2020
1373 Clouds 2 1035 91 0 1.5 0 01:36 05.01.2020
1374 Clouds 2 1035 89 0 0.5 0 01:18 05.01.2020
1375 Clouds 2 1035 89 0 1 0 00:39 05.01.2020
1376 Clouds 2 1035 80 0 1.5 0 00:20 05.01.2020
1377 Snow 2 1033 89 10000 5.1 230 23:57 04.01.2020
1378 Clouds 2 1035 80 0 1.5 0 23:38 04.01.2020
1379 Clouds 2 1035 92 0 2.6 250 23:18 04.01.2020
1380 Clouds 2 1035 75 0 3.1 260 22:39 04.01.2020
1381 Clouds 3 1035 75 0 3.6 270 22:20 04.01.2020
1382 Clouds 2 1033 80 10000 4.6 240 21:56 04.01.2020
1383 Clouds 2 1034 75 0 3.1 270 21:37 04.01.2020
1384 Clouds 2 1032 80 10000 4.6 240 21:19 04.01.2020
1385 Clouds 2 1032 80 10000 4.6 240 20:55 04.01.2020
1386 Clouds 2 1032 80 10000 3.6 270 20:36 04.01.2020
1387 Snow 2 1032 80 10000 3.6 240 20:18 04.01.2020
1388 Clouds 2 1033 100 10000 1.5 120 19:41 04.01.2020
1389 Clouds 3 1033 100 10000 1.5 120 19:23 04.01.2020
1390 Clouds 3 1033 100 10000 1 0 18:58 04.01.2020
1391 Clouds 3 1033 100 10000 1 0 18:39 04.01.2020
1392 Clouds 3 1033 100 10000 1 0 18:20 04.01.2020
1393 Clouds 3 1033 100 10000 1 0 18:20 04.01.2020
1394 Snow 3 1030 80 10000 4.6 230 17:56 04.01.2020
1395 Clouds 3 1032 100 10000 1 0 17:38 04.01.2020
1396 Clouds 3 1032 100 10000 1 0 17:20 04.01.2020
1397 Clouds 3 1032 93 0 1 0 16:41 04.01.2020
1398 Rain 3 1029 97 10000 6.2 240 16:23 04.01.2020
1399 Rain 3 1032 93 0 1 0 15:57 04.01.2020
1400 Rain 3 1032 81 10000 2.1 310 15:38 04.01.2020
1401 Rain 3 1032 81 10000 2.1 310 15:38 04.01.2020
1402 Rain 3 1032 81 10000 2.1 310 15:19 04.01.2020
1403 Rain 3 1031 93 10000 1 0 14:56 04.01.2020
1404 Clouds 3 1031 93 10000 1 0 14:37 04.01.2020
1405 Clouds 3 1031 93 10000 1 0 14:19 04.01.2020
1406 Clouds 3 1029 86 10000 4.6 260 13:55 04.01.2020
1407 Rain 3 1032 86 6000 3.6 300 13:36 04.01.2020
1408 Rain 3 1032 87 6000 4.1 270 13:18 04.01.2020
1409 Rain 4 1031 93 6000 2.6 260 12:41 04.01.2020
1410 Rain 4 1031 100 6000 2.6 260 12:19 04.01.2020
1411 Rain 4 1030 93 10000 3.6 320 11:58 04.01.2020
1412 Clouds 4 1030 93 10000 3.6 320 11:38 04.01.2020
1413 Clouds 4 1030 93 10000 4.1 300 11:19 04.01.2020
1414 Clouds 4 1030 93 10000 3.6 290 10:42 04.01.2020
1415 Drizzle 4 1029 100 7000 3.1 290 10:23 04.01.2020
1416 Drizzle 4 1029 100 7000 3.1 290 09:58 04.01.2020
1417 Rain 4 1030 93 10000 2.1 340 09:39 04.01.2020
1418 Rain 4 1030 100 10000 2.1 50 09:21 04.01.2020
1419 Rain 4 1030 100 10000 2.1 50 08:41 04.01.2020
1420 Rain 4 1029 93 10000 1 0 08:21 04.01.2020
1421 Rain 4 1029 93 10000 1 0 07:42 04.01.2020
1422 Rain 4 1029 93 0 1 0 07:20 04.01.2020
1423 Clouds 4 1029 93 0 2.6 60 06:33 04.01.2020
1424 Rain 4 1029 93 0 2.6 90 05:20 04.01.2020
1425 Rain 3 1027 100 6000 7.7 220 04:34 04.01.2020
1426 Rain 4 1027 93 10000 7.7 230 03:52 04.01.2020
1427 Rain 4 1027 86 10000 7.7 230 03:18 04.01.2020
1428 Clouds 4 1029 81 0 1 0 02:21 04.01.2020
1429 Clouds 4 1029 81 0 1 0 01:55 04.01.2020
1430 Clouds 4 1029 87 0 1 0 01:31 04.01.2020
1431 Snow 4 1027 86 10000 7.2 230 00:44 04.01.2020
1432 Snow 4 1027 86 10000 7.2 230 00:23 04.01.2020
1433 Snow 4 1027 93 10000 7.2 230 23:46 03.01.2020
1434 Clouds 4 1027 86 10000 6.7 220 23:25 03.01.2020
1435 Clouds 4 1029 87 10000 2.1 0 22:41 03.01.2020
1436 Rain 4 1029 100 10000 1 0 22:20 03.01.2020
1437 Rain 4 1029 100 10000 1 0 21:59 03.01.2020
1438 Rain 4 1029 100 6000 2.1 110 21:39 03.01.2020
1439 Rain 4 1029 100 7000 3.6 120 21:19 03.01.2020
1440 Rain 4 1029 100 7000 3.6 120 21:19 03.01.2020
1441 Rain 4 1029 100 7000 3.6 120 20:58 03.01.2020
1442 Rain 4 1029 100 3100 2.6 110 20:40 03.01.2020
1443 Rain 4 1029 93 2500 2.1 90 20:18 03.01.2020
1444 Rain 4 1028 93 6000 1 0 19:56 03.01.2020
1445 Rain 4 1028 93 6000 1 0 19:37 03.01.2020
1446 Clouds 4 1027 93 10000 1 0 19:19 03.01.2020
1447 Clouds 5 1027 86 10000 1 0 18:43 03.01.2020
1448 Clouds 4 1025 75 10000 6.7 230 18:24 03.01.2020
1449 Clouds 5 1027 86 10000 2.31 218 17:55 03.01.2020
1450 Clouds 5 1027 86 10000 2.31 218 17:37 03.01.2020
1451 Clouds 5 1026 80 10000 2.6 50 17:18 03.01.2020
1452 Clouds 5 1026 80 10000 2.6 50 17:18 03.01.2020
1453 Clouds 5 1026 75 10000 2.6 50 16:42 03.01.2020
1454 Clouds 5 1026 93 10000 3.6 120 16:23 03.01.2020
1455 Clouds 5 1026 100 10000 2.6 60 15:44 03.01.2020
1456 Clouds 5 1026 100 10000 3.1 90 15:19 03.01.2020
1457 Clouds 5 1026 100 10000 3.1 90 14:59 03.01.2020
1458 Clouds 5 1024 70 10000 8.7 230 14:38 03.01.2020
1459 Clouds 5 1026 93 10000 0.5 0 14:19 03.01.2020
1460 Clouds 5 1026 93 10000 0.5 0 13:44 03.01.2020
1461 Fog 5 1026 100 6000 1.5 270 13:24 03.01.2020
1462 Fog 5 1026 100 6000 1.5 270 12:58 03.01.2020
1463 Fog 5 1026 100 6000 1.5 270 12:39 03.01.2020
1464 Mist 5 1026 100 2000 1.5 0 12:21 03.01.2020
1465 Mist 4 1027 100 1200 1.5 280 11:44 03.01.2020
1466 Mist 1 1027 100 1200 1.5 280 11:21 03.01.2020
1467 Mist 1 1027 43 2000 1.5 270 10:44 03.01.2020
1468 Mist 1 1027 43 2000 1.5 270 10:25 03.01.2020
1469 Mist 1 1027 43 2000 1.5 270 10:25 03.01.2020
1470 Clouds 1 1024 43 10000 4.1 210 09:58 03.01.2020
1471 Fog 0 1027 100 200 1.5 80 09:39 03.01.2020
1472 Fog 0 1027 100 200 1.5 90 09:21 03.01.2020
1473 Fog 0 1027 100 200 1.5 90 08:56 03.01.2020
1474 Fog 0 1027 100 200 1.5 90 08:37 03.01.2020
1475 Mist -1 1027 100 2000 1.5 100 08:19 03.01.2020
1476 Mist -1 1027 100 3000 1.5 0 07:39 03.01.2020
1477 Mist -1 1027 100 3000 1 0 07:18 03.01.2020
1478 Mist -1 1027 100 3000 1 0 06:47 03.01.2020
1479 Mist -1 1027 100 3000 1 0 06:28 03.01.2020
1480 Mist -2 1027 100 2700 2.1 100 05:30 03.01.2020
1481 Clouds -1 1028 100 7000 1.5 90 04:18 03.01.2020
1482 Clouds -2 1026 92 10000 1.5 270 02:55 03.01.2020
1483 Fog -2 1028 100 750 2.1 100 02:26 03.01.2020
1484 Fog -3 1029 100 600 2.1 100 01:38 03.01.2020
1485 Fog -2 1029 100 400 2.1 100 00:49 03.01.2020
1486 Fog -2 1029 100 400 2.1 100 00:29 03.01.2020
1487 Clear -2 1027 92 10000 1.5 240 23:55 02.01.2020
1488 Fog -2 1030 100 350 2.1 100 23:37 02.01.2020
1489 Fog -2 1029 100 250 2.6 80 23:18 02.01.2020
1490 Fog -2 1029 100 250 2.1 80 22:44 02.01.2020
1491 Fog -2 1030 100 250 2.1 90 22:20 02.01.2020
1492 Fog -2 1030 100 250 2.1 90 21:57 02.01.2020
1493 Fog -2 1030 100 250 2.1 90 21:57 02.01.2020
1494 Fog -2 1029 100 400 2.1 90 21:38 02.01.2020
1495 Fog -2 1029 100 400 2.1 90 21:38 02.01.2020
1496 Fog -2 1029 100 450 2.6 90 21:20 02.01.2020
1497 Fog -2 1027 100 300 2.1 210 20:57 02.01.2020
1498 Fog -2 1029 100 1100 2.1 100 20:38 02.01.2020
1499 Fog -1 1029 53 1300 0.5 0 20:20 02.01.2020
1500 Fog -2 1029 100 2000 0.5 0 19:55 02.01.2020
1501 Fog -1 1029 100 2000 0.5 0 19:36 02.01.2020
1502 Mist -1 1029 100 2000 1.5 300 19:18 02.01.2020
1503 Fog -1 1027 100 400 0.5 0 18:54 02.01.2020
1504 Mist -1 1029 100 2000 1.5 300 18:36 02.01.2020
1505 Mist 0 1029 100 1800 2.1 10 18:18 02.01.2020
1506 Mist 0 1029 100 3000 1.5 140 17:55 02.01.2020
1507 Mist 0 1029 100 1800 2.1 10 17:36 02.01.2020
1508 Mist 0 1029 100 2000 1.5 50 17:18 02.01.2020
1509 Mist 1 1029 55 2400 1.5 100 16:41 02.01.2020
1510 Mist 1 1029 55 3600 2.1 70 16:20 02.01.2020
1511 Fog 1 1027 100 250 1.5 210 15:58 02.01.2020
1512 Mist 1 1029 55 3700 1.5 0 15:40 02.01.2020
1513 Mist 2 1029 55 3300 0.5 0 15:22 02.01.2020
1514 Fog 2 1027 100 300 2.1 230 14:57 02.01.2020
1515 Mist 2 1029 55 3300 1.5 0 14:36 02.01.2020
1516 Mist 2 1030 42 2400 1 0 14:18 02.01.2020
1517 Mist 2 1030 42 2600 1 0 13:50 02.01.2020
1518 Mist 3 1030 42 2600 1 0 13:31 02.01.2020
1519 Mist 4 1030 100 2800 2.1 70 12:46 02.01.2020
1520 Mist 4 1030 100 2800 2.1 70 12:28 02.01.2020
1521 Mist 3 1031 42 2700 1 0 11:59 02.01.2020
1522 Mist 3 1031 42 2700 1 0 11:40 02.01.2020
1523 Mist 0 1031 100 2600 1 0 11:20 02.01.2020
1524 Mist -1 1031 100 2600 1 0 10:44 02.01.2020
1525 Mist -2 1031 100 2600 1 0 10:26 02.01.2020
1526 Mist -2 1031 92 3200 2.1 110 09:51 02.01.2020
1527 Mist -2 1031 92 3200 2.1 110 09:33 02.01.2020
1528 Mist -2 1031 100 2500 2.1 110 08:47 02.01.2020
1529 Mist -3 1031 100 2500 2.1 110 08:27 02.01.2020
1530 Clouds -4 1029 100 10000 2.1 220 07:54 02.01.2020
1531 Mist -4 1031 100 3600 1 0 07:30 02.01.2020
1532 Mist -3 1031 100 4000 1 0 06:46 02.01.2020
1533 Mist -3 1028 100 5000 3.1 220 06:27 02.01.2020
1534 Mist -3 1030 100 4000 2.1 170 05:29 02.01.2020
1535 Mist -3 1031 100 2300 0.5 0 04:32 02.01.2020
1536 Mist -3 1031 34 2500 1 0 02:48 02.01.2020
1537 Mist -3 1031 34 2800 0.5 0 01:59 02.01.2020
1538 Mist -2 1031 100 1400 1.5 100 01:38 02.01.2020
1539 Clouds -2 1029 100 300 1 0 00:58 02.01.2020
1540 Mist -2 1031 100 2300 1.5 90 00:33 02.01.2020
1541 Clouds -2 1029 92 300 2.1 230 23:53 01.01.2020
1542 Clouds -2 1030 92 300 1.5 230 23:28 01.01.2020
1543 Mist -2 1031 100 3500 2.1 80 22:59 01.01.2020
1544 Mist -2 1031 100 3200 1.5 100 22:38 01.01.2020
1545 Mist -2 1032 37 3400 1 0 22:19 01.01.2020
1546 Mist -2 1032 100 3300 0.5 80 21:56 01.01.2020
1547 Mist -2 1032 100 3300 0.5 80 21:37 01.01.2020
1548 Mist -2 1032 37 3800 0.5 0 21:19 01.01.2020
1549 Mist -2 1032 100 4100 1 0 20:54 01.01.2020
1550 Mist -2 1032 100 4100 1 0 20:36 01.01.2020
1551 Mist -1 1032 100 3500 1 0 20:18 01.01.2020
1552 Mist -1 1030 92 5000 1.5 230 19:54 01.01.2020
1553 Mist -1 1032 100 3700 1.5 0 19:54 01.01.2020
1554 Mist -1 1032 100 3700 1.5 0 19:36 01.01.2020
1555 Mist -1 1032 100 3300 1 0 19:18 01.01.2020
1556 Clear -1 1030 92 7000 1.5 230 18:54 01.01.2020
1557 Mist -1 1032 100 3600 2.1 120 18:36 01.01.2020
1558 Mist -1 1032 41 4900 2.1 130 18:18 01.01.2020
1559 Clear 0 1030 41 7000 1 0 17:55 01.01.2020
1560 Clouds 0 1032 41 5000 1.5 160 17:36 01.01.2020
1561 Clouds 0 1032 53 5000 1 0 17:18 01.01.2020
1562 Clouds 1 1032 53 5000 1 0 16:39 01.01.2020
1563 Clouds 1 1032 53 5000 1.5 0 16:20 01.01.2020
1564 Clear 1 1030 53 10000 3.1 40 15:57 01.01.2020
1565 Clouds 2 1031 53 5000 2.6 290 15:38 01.01.2020
1566 Clouds 2 1032 53 5000 3.1 270 15:20 01.01.2020
1567 Clouds 3 1031 53 5000 3.6 280 14:56 01.01.2020
1568 Clouds 3 1031 53 5000 3.6 280 14:38 01.01.2020
1569 Mist 3 1032 54 4900 4.1 290 14:19 01.01.2020
1570 Mist 3 1032 54 5000 3.1 290 13:55 01.01.2020
1571 Mist 3 1032 54 5000 3.1 290 13:37 01.01.2020
1572 Mist 3 1032 54 4300 2.1 330 13:18 01.01.2020
1573 Clear 3 1031 80 10000 3.1 30 12:54 01.01.2020
1574 Clear 3 1031 80 10000 3.1 30 12:54 01.01.2020
1575 Mist 3 1032 53 3700 1 0 12:54 01.01.2020
1576 Mist 3 1032 53 3700 1 0 12:36 01.01.2020
1577 Mist 3 1032 53 2700 1.5 0 12:18 01.01.2020
1578 Mist 3 1032 53 2700 1.5 0 12:18 01.01.2020
1579 Mist 2 1033 53 3300 1 0 11:42 01.01.2020
1580 Mist 0 1033 49 4400 0.5 0 11:21 01.01.2020
1581 Mist 0 1033 49 4400 0.5 0 11:21 01.01.2020
1582 Fog -1 1033 100 900 1.5 80 10:56 01.01.2020
1583 Fog -1 1033 100 900 1.5 80 10:38 01.01.2020
1584 Fog -1 1033 100 450 1 130 10:19 01.01.2020
1585 Fog -2 1033 100 250 1.5 110 09:42 01.01.2020
1586 Fog -3 1033 100 200 2.1 70 09:22 01.01.2020
1587 Clear -3 1031 92 10000 2.6 40 08:57 01.01.2020
1588 Fog -3 1032 100 200 1.5 100 08:38 01.01.2020
1589 Fog -3 1032 100 200 2.1 100 08:20 01.01.2020
1590 Clear -3 1031 92 9000 2.1 60 07:58 01.01.2020
1591 Fog -4 1032 53 150 2.1 110 07:39 01.01.2020
1592 Fog -3 1032 53 100 1.5 100 07:19 01.01.2020
1593 Fog -3 1032 53 100 1.5 90 06:36 01.01.2020
1594 Fog -3 1032 53 150 1.5 110 05:51 01.01.2020
1595 Clear -3 1031 86 7000 1 0 04:28 01.01.2020
1596 Fog -3 1033 100 100 2.6 90 03:39 01.01.2020
1597 Fog -3 1033 53 100 1.5 70 03:21 01.01.2020
1598 Fog -2 1033 53 150 0.5 0 02:42 01.01.2020
1599 Clear -2 1032 92 5000 0.5 0 02:23 01.01.2020
1600 Fog -2 1033 50 100 1 0 01:42 01.01.2020
1601 Clear -2 1032 100 9000 2.44 170 01:23 01.01.2020
1602 Fog -2 1034 100 100 2.6 80 00:45 01.01.2020
1603 Fog -2 1034 100 100 2.6 80 00:26 01.01.2020
1604 Fog -2 1034 49 200 1.5 110 23:56 31.12.2019
1605 Fog -1 1034 49 300 1.5 90 23:36 31.12.2019
1606 Fog -1 1034 55 400 1 0 23:18 31.12.2019
1607 Clear -2 1033 86 10000 1.5 120 22:55 31.12.2019
1608 Fog -1 1034 55 200 1 80 22:36 31.12.2019
1609 Fog -1 1034 55 2300 1.5 110 22:18 31.12.2019
1610 Fog -1 1034 55 200 1 0 21:43 31.12.2019
1611 Fog -1 1034 55 200 0.5 0 21:25 31.12.2019
1612 Fog -1 1034 55 250 1 0 20:57 31.12.2019
1613 Fog -1 1034 55 250 1 0 20:39 31.12.2019
1614 Fog -1 1034 61 200 0.5 0 20:20 31.12.2019
1615 Clouds -1 1032 92 10000 2.1 150 19:57 31.12.2019
1616 Fog -1 1034 66 350 1 0 19:39 31.12.2019
1617 Fog 0 1034 66 400 1 0 19:20 31.12.2019
1618 Clouds 0 1033 100 10000 1 0 18:56 31.12.2019
1619 Fog 0 1033 66 800 0.5 0 18:38 31.12.2019
1620 Fog 0 1033 66 2100 1.5 0 18:19 31.12.2019
1621 Mist 1 1033 100 2200 1 0 17:55 31.12.2019
1622 Mist 1 1033 100 2200 1 0 17:36 31.12.2019
1623 Mist 1 1033 100 4000 1 0 17:18 31.12.2019
1624 Clouds 2 1032 86 10000 0.5 0 16:56 31.12.2019
1625 Mist 2 1033 100 4000 1 0 16:37 31.12.2019
1626 Mist 2 1033 100 4000 1 0 16:37 31.12.2019
1627 Mist 3 1033 100 4500 1.5 310 16:18 31.12.2019
1628 Clouds 3 1031 66 10000 1.5 250 15:56 31.12.2019
1629 Mist 3 1033 100 4500 1.5 310 15:37 31.12.2019
1630 Mist 3 1033 100 3600 1.5 310 15:19 31.12.2019
1631 Mist 4 1033 100 3600 1.5 310 14:55 31.12.2019
1632 Mist 4 1033 100 3600 1.5 310 14:37 31.12.2019
1633 Mist 5 1033 100 3500 0.5 0 14:18 31.12.2019
1634 Mist 5 1033 100 3500 0.5 0 13:56 31.12.2019
1635 Mist 5 1033 100 3500 0.5 0 13:37 31.12.2019
1636 Mist 5 1034 100 4200 1 0 13:19 31.12.2019
1637 Clouds 6 1032 59 10000 3.6 240 12:55 31.12.2019
1638 Mist 6 1034 100 4200 1.5 0 12:37 31.12.2019
1639 Mist 6 1034 100 4200 1.5 0 12:37 31.12.2019
1640 Mist 5 1034 100 4200 1 0 12:18 31.12.2019
1641 Mist 5 1034 100 4200 1 0 12:18 31.12.2019
1642 Clouds 5 1032 59 10000 2.6 230 11:54 31.12.2019
1643 Mist 4 1034 59 2100 0.5 0 11:36 31.12.2019
1644 Mist 3 1034 50 2100 0.5 0 11:18 31.12.2019
1645 Mist 3 1034 50 2700 1 0 10:55 31.12.2019
1646 Mist 2 1034 50 2700 1 0 10:37 31.12.2019
1647 Mist 1 1034 50 3200 0.5 0 10:19 31.12.2019
1648 Mist 0 1033 50 2600 0.5 0 09:55 31.12.2019
1649 Mist 1 1033 50 2600 0.5 0 09:37 31.12.2019
1650 Mist 0 1033 50 2600 0.5 0 09:37 31.12.2019
1651 Mist 0 1033 50 2600 0.5 0 09:18 31.12.2019
1652 Mist 0 1033 50 3600 1 0 08:42 31.12.2019
1653 Mist -1 1033 54 3600 1 0 08:22 31.12.2019
1654 Mist -1 1033 54 3600 2.1 210 07:45 31.12.2019
1655 Mist -1 1033 54 3600 2.1 210 07:22 31.12.2019
1656 Mist -1 1033 54 3600 1.5 0 06:51 31.12.2019
1657 Mist -1 1033 54 4500 0.5 0 06:27 31.12.2019
1658 Mist -1 1033 57 4400 0.5 150 04:54 31.12.2019
1659 Clouds -1 1030 57 10000 4.6 210 04:24 31.12.2019
1660 Clouds -1 1033 57 5000 1.5 290 02:57 31.12.2019
1661 Mist -1 1033 100 4800 1 270 02:20 31.12.2019
1662 Mist -1 1033 92 4800 1 210 01:49 31.12.2019
1663 Clear -1 1030 92 10000 3.1 220 01:31 31.12.2019
1664 Mist -1 1033 100 3900 0.5 180 00:48 31.12.2019
1665 Clear -1 1030 92 10000 2.6 230 00:24 31.12.2019
1666 Clear -2 1030 86 10000 3.1 210 23:58 30.12.2019
1667 Mist -2 1033 92 4900 0.5 0 23:39 30.12.2019
1668 Mist -2 1033 92 4500 1 210 23:21 30.12.2019
1669 Mist -2 1033 92 4500 1 210 22:59 30.12.2019
1670 Mist -2 1032 100 4500 1 210 22:41 30.12.2019
1671 Mist -1 1032 100 3900 0.5 0 22:21 30.12.2019
1672 Mist -1 1032 100 3900 0.5 0 21:57 30.12.2019
1673 Mist -1 1032 100 3900 0.5 0 21:57 30.12.2019
1674 Mist -1 1032 92 4500 1 210 21:39 30.12.2019
1675 Clear -1 1032 100 5000 0.5 0 21:20 30.12.2019
1676 Clear -1 1030 92 10000 3.1 220 20:58 30.12.2019
1677 Mist -1 1032 92 4100 0.5 0 20:40 30.12.2019
1678 Clear -1 1032 92 5000 0.5 0 20:20 30.12.2019
1679 Clear -1 1032 92 5000 0.5 0 19:58 30.12.2019
1680 Clear -1 1032 92 6000 0.5 210 19:39 30.12.2019
1681 Clear -1 1032 92 6000 0.5 0 19:19 30.12.2019
1682 Clear 0 1032 92 6000 0.5 0 18:58 30.12.2019
1683 Clear 0 1032 92 10000 0.5 0 18:40 30.12.2019
1684 Clear 0 1033 58 10000 1 190 18:20 30.12.2019
1685 Clear 0 1031 58 10000 1.5 170 17:56 30.12.2019
1686 Clear 0 1031 58 10000 1.5 170 17:56 30.12.2019
1687 Clear 1 1033 58 10000 1 190 17:38 30.12.2019
1688 Clear 2 1033 66 10000 1 0 17:19 30.12.2019
1689 Clear 2 1033 66 10000 1 0 16:58 30.12.2019
1690 Clear 3 1033 86 10000 1 0 16:37 30.12.2019
1691 Clear 3 1032 80 10000 2.1 270 16:18 30.12.2019
1692 Clear 3 1032 80 10000 2.1 270 15:55 30.12.2019
1693 Clear 3 1032 80 10000 2.1 270 15:37 30.12.2019
1694 Clear 4 1033 80 10000 1.5 0 15:18 30.12.2019
1695 Clear 4 1033 80 10000 1.5 0 14:43 30.12.2019
1696 Clouds 4 1033 86 7000 0.5 0 14:20 30.12.2019
1697 Clear 4 1032 74 10000 1.16 140 13:57 30.12.2019
1698 Clouds 4 1033 86 7000 0.5 0 13:39 30.12.2019
1699 Clouds 4 1034 60 7000 1.5 0 13:21 30.12.2019
1700 Clear 4 1032 80 10000 1 0 12:56 30.12.2019
1701 Clouds 4 1034 60 7000 1.5 0 12:36 30.12.2019
1702 Clouds 3 1035 60 6000 0.84 135 12:18 30.12.2019
1703 Clouds 2 1035 60 6000 0.84 135 11:40 30.12.2019
1704 Clouds 1 1035 100 6000 1 90 11:19 30.12.2019
1705 Clear 0 1035 52 10000 2.6 30 10:57 30.12.2019
1706 Clouds 0 1035 100 6000 1 90 10:38 30.12.2019
1707 Clouds -1 1035 100 6000 1 0 10:18 30.12.2019
1708 Clouds -2 1035 100 6000 1 0 09:41 30.12.2019
1709 Clouds -3 1035 100 8000 0.5 0 09:20 30.12.2019
1710 Clear -4 1033 92 10000 1 0 08:55 30.12.2019
1711 Clouds -4 1034 100 9000 0.5 0 08:36 30.12.2019
1712 Clouds -4 1034 100 9000 0.5 0 08:18 30.12.2019
1713 Clouds -4 1034 100 9000 0.5 0 08:18 30.12.2019
1714 Clouds -4 1034 100 6000 1.5 100 07:40 30.12.2019
1715 Clouds -4 1034 100 5000 1 80 06:55 30.12.2019
1716 Clear -4 1033 92 10000 1 30 06:23 30.12.2019
1717 Clear -4 1033 92 10000 1 30 06:23 30.12.2019
1718 Clear -4 1034 92 10000 0.5 220 03:58 30.12.2019
1719 Clouds -4 1036 100 8000 1 140 03:32 30.12.2019
1720 Clear -4 1036 100 5000 1 0 02:40 30.12.2019
1721 Clear -4 1035 100 5000 1 60 01:56 30.12.2019
1722 Mist -4 1036 100 4500 1 110 01:25 30.12.2019
1723 Clouds -3 1036 100 6000 0.5 0 00:45 30.12.2019
1724 Clear -3 1035 100 7000 1.5 110 00:23 30.12.2019
1725 Clouds -3 1036 92 6000 0.5 0 23:40 29.12.2019
1726 Mist -3 1036 100 4500 1 100 23:21 29.12.2019
1727 Clear -3 1036 100 7000 0.5 0 22:56 29.12.2019
1728 Clear -3 1036 100 7000 0.5 0 22:37 29.12.2019
1729 Clear -3 1036 100 8000 0.5 0 22:18 29.12.2019
1730 Clear -2 1036 100 8000 1 90 21:43 29.12.2019
1731 Clear -3 1036 100 10000 0.5 0 21:21 29.12.2019
1732 Clear -3 1036 100 10000 0.5 0 21:21 29.12.2019
1733 Clear -2 1036 100 10000 0.5 0 20:58 29.12.2019
1734 Clear -2 1036 92 10000 0.5 0 20:39 29.12.2019
1735 Clouds -2 1036 100 10000 0.5 0 20:21 29.12.2019
1736 Clouds -2 1036 100 10000 0.5 0 19:59 29.12.2019
1737 Clouds -2 1036 92 10000 1 0 19:40 29.12.2019
1738 Clouds -2 1036 92 10000 1 0 19:40 29.12.2019
1739 Clouds -2 1036 92 10000 0.5 0 19:21 29.12.2019
1740 Clouds -2 1036 92 10000 0.5 0 18:58 29.12.2019
1741 Clouds -1 1036 100 10000 1 210 18:39 29.12.2019
1742 Clouds -1 1036 92 10000 0.5 0 18:20 29.12.2019
1743 Clouds -1 1036 86 10000 3.6 40 17:58 29.12.2019
1744 Clouds -1 1036 92 10000 0.5 270 17:39 29.12.2019
1745 Clear -1 1036 92 10000 1 220 17:20 29.12.2019
1746 Clear 0 1036 53 10000 0.5 220 16:57 29.12.2019
1747 Clear 0 1036 53 10000 0.5 220 16:38 29.12.2019
1748 Clouds 1 1036 86 10000 2.1 280 16:20 29.12.2019
1749 Clear 1 1035 53 10000 3.6 50 15:58 29.12.2019
1750 Clear 1 1035 53 10000 3.6 50 15:58 29.12.2019
1751 Clouds 1 1036 86 10000 2.6 290 15:39 29.12.2019
1752 Clear 2 1036 86 10000 2.1 260 15:20 29.12.2019
1753 Clear 2 1036 86 10000 2.1 260 14:58 29.12.2019
1754 Clouds 2 1036 86 9000 0.5 0 14:39 29.12.2019
1755 Clouds 2 1036 86 9000 0.5 0 14:18 29.12.2019
1756 Clouds 1 1036 40 9000 1.05 73 13:57 29.12.2019
1757 Clouds 2 1036 40 9000 1.05 73 13:39 29.12.2019
1758 Clouds 1 1036 42 9000 1.21 77 13:20 29.12.2019
1759 Clouds 1 1037 42 8000 0.5 0 12:45 29.12.2019
1760 Clear 1 1036 92 10000 3.1 30 12:27 29.12.2019
1761 Clear 1 1036 92 10000 3.1 30 12:27 29.12.2019
1762 Clear 1 1036 92 10000 3.6 40 11:58 29.12.2019
1763 Clouds 0 1038 92 8000 2.1 340 11:40 29.12.2019
1764 Clouds -1 1038 92 8000 2.1 340 11:20 29.12.2019
1765 Clouds -1 1038 92 8000 2.1 340 11:20 29.12.2019
1766 Clear -1 1037 92 10000 2.6 360 10:55 29.12.2019
1767 Clouds -1 1037 86 9000 2.1 50 10:37 29.12.2019
1768 Clouds -2 1037 86 9000 2.1 50 10:18 29.12.2019
1769 Clouds -3 1037 92 10000 1 130 09:41 29.12.2019
1770 Clouds -4 1038 92 10000 2.1 110 09:22 29.12.2019
1771 Clouds -5 1038 92 10000 2.1 110 08:48 29.12.2019
1772 Clear -4 1036 92 7000 1.5 90 08:28 29.12.2019
1773 Clouds -5 1038 92 10000 2.6 130 07:57 29.12.2019
1774 Clouds -5 1037 100 10000 2.1 100 07:28 29.12.2019
1775 Clouds -5 1036 100 6000 2.6 40 07:28 29.12.2019
1776 Clouds -5 1036 100 8000 1.5 30 06:56 29.12.2019
1777 Clouds -5 1037 100 10000 1 230 06:26 29.12.2019
1778 Clouds -5 1036 100 8000 3.1 30 05:53 29.12.2019
1779 Clouds -4 1037 100 10000 1 250 04:36 29.12.2019
1780 Clouds -4 1036 92 10000 2.6 80 03:59 29.12.2019
1781 Clouds -4 1037 100 9000 0.5 0 03:21 29.12.2019
1782 Clouds -3 1037 100 9000 1 100 02:21 29.12.2019
1783 Clouds -3 1038 100 10000 1 190 01:38 29.12.2019
1784 Clear -3 1038 100 10000 1 0 01:19 29.12.2019
1785 Clear -3 1038 92 10000 1 0 00:40 29.12.2019
1786 Clouds -3 1038 100 7000 1 0 00:22 29.12.2019
1787 Clear -3 1038 35 8000 1.5 70 23:44 28.12.2019
1788 Clouds -2 1038 44 10000 0.5 0 23:18 28.12.2019
1789 Clouds -2 1038 44 10000 1 190 22:39 28.12.2019
1790 Clouds -2 1038 44 10000 0.5 0 22:21 28.12.2019
1791 Clouds -2 1038 44 10000 0.5 0 21:58 28.12.2019
1792 Clouds -2 1038 44 10000 0.5 0 21:39 28.12.2019
1793 Clouds -2 1038 44 9000 0.5 0 21:21 28.12.2019
1794 Clouds -2 1038 44 9000 1 210 20:57 28.12.2019
1795 Clouds -2 1038 44 9000 1 210 20:38 28.12.2019
1796 Clear -1 1038 87 9000 0.5 0 20:19 28.12.2019
1797 Clouds -1 1038 86 10000 3.1 40 19:57 28.12.2019
1798 Clear -1 1038 78 10000 0.5 0 19:57 28.12.2019
1799 Clear -1 1038 78 10000 0.5 0 19:39 28.12.2019
1800 Clear -1 1038 78 10000 1.5 220 19:20 28.12.2019
1801 Clouds 0 1038 86 10000 3.1 80 18:57 28.12.2019
1802 Clear 0 1038 78 10000 1 0 18:39 28.12.2019
1803 Clouds 0 1038 78 10000 3.1 70 18:18 28.12.2019
1804 Clouds 0 1038 78 10000 3.1 70 17:54 28.12.2019
1805 Clouds 0 1038 78 10000 2.6 0 17:36 28.12.2019
1806 Clouds 1 1038 87 10000 2.6 0 17:18 28.12.2019
1807 Clouds 1 1037 86 9000 2.6 270 16:46 28.12.2019
1808 Clouds 1 1037 86 9000 2.6 270 16:25 28.12.2019
1809 Clouds 2 1036 86 9000 2.6 280 15:44 28.12.2019
1810 Clouds 2 1036 86 9000 2.6 280 15:24 28.12.2019
1811 Clouds 2 1036 86 10000 2.1 260 14:58 28.12.2019
1812 Clouds 2 1036 86 10000 2.1 260 14:38 28.12.2019
1813 Clouds 3 1036 86 10000 2.1 300 14:20 28.12.2019
1814 Clouds 2 1037 86 8000 2.1 270 13:43 28.12.2019
1815 Clouds 2 1036 86 10000 3.1 70 13:23 28.12.2019
1816 Clouds 2 1037 93 8000 1.5 280 12:59 28.12.2019
1817 Clouds 2 1037 93 8000 1.5 260 12:41 28.12.2019
1818 Clouds 2 1037 93 8000 1.5 260 12:22 28.12.2019
1819 Clouds 2 1038 93 9000 2.1 320 11:54 28.12.2019
1820 Clouds 1 1038 93 9000 2.1 320 11:36 28.12.2019
1821 Clouds 1 1038 93 8000 2.1 310 11:18 28.12.2019
1822 Clouds 1 1037 93 6000 2.1 320 10:41 28.12.2019
1823 Clouds 1 1037 93 9000 2.6 360 10:20 28.12.2019
1824 Clouds 1 1037 93 9000 2.6 360 09:55 28.12.2019
1825 Clouds 1 1037 93 9000 1.5 10 09:37 28.12.2019
1826 Clouds 0 1036 93 9000 1 260 09:18 28.12.2019
1827 Mist 0 1036 100 2900 1.5 20 08:43 28.12.2019
1828 Mist 0 1036 100 2900 1.5 20 08:24 28.12.2019
1829 Clouds 0 1036 86 10000 1 310 07:48 28.12.2019
1830 Clouds 0 1036 86 10000 1 310 07:25 28.12.2019
1831 Clouds 1 1035 93 10000 1.5 310 05:52 28.12.2019
1832 Clouds 1 1034 93 10000 1.5 290 03:49 28.12.2019
1833 Clouds 2 1034 86 10000 2.1 140 02:52 28.12.2019
1834 Clouds 2 1034 86 10000 2.1 140 02:31 28.12.2019
1835 Clouds 2 1034 93 10000 1.5 30 01:56 28.12.2019
1836 Snow 2 1033 93 7000 2.6 70 01:56 28.12.2019
1837 Rain 2 1034 100 6000 1.5 40 01:24 28.12.2019
1838 Drizzle 2 1033 100 4500 1.5 0 00:50 28.12.2019
1839 Snow 2 1033 93 7000 1.5 50 00:30 28.12.2019
1840 Snow 2 1033 93 6000 2.1 50 23:58 27.12.2019
1841 Rain 2 1033 100 2700 2.1 90 23:58 27.12.2019
1842 Drizzle 3 1033 100 5000 1 0 23:39 27.12.2019
1843 Drizzle 3 1032 100 3400 0.5 0 23:19 27.12.2019
1844 Rain 3 1032 100 4100 2.6 70 22:56 27.12.2019
1845 Rain 3 1032 93 1500 0.5 0 22:37 27.12.2019
1846 Mist 3 1032 100 2000 1.5 90 22:19 27.12.2019
1847 Mist 3 1031 100 2000 1 130 21:43 27.12.2019
1848 Mist 3 1031 100 3200 1 0 21:25 27.12.2019
1849 Rain 3 1031 93 2200 0.5 150 20:57 27.12.2019
1850 Rain 3 1031 93 2200 0.5 150 20:38 27.12.2019
1851 Drizzle 3 1031 100 1400 1 90 20:20 27.12.2019
1852 Rain 3 1030 100 3100 0.5 0 19:41 27.12.2019
1853 Mist 3 1030 100 3100 0.5 0 19:20 27.12.2019
1854 Mist 3 1030 100 3100 0.5 0 19:20 27.12.2019
1855 Clouds 3 1029 100 5000 1 0 18:57 27.12.2019
1856 Clouds 3 1029 100 5000 1 0 18:37 27.12.2019
1857 Clouds 4 1029 100 5000 1 0 18:19 27.12.2019
1858 Drizzle 4 1028 100 4000 3.6 50 17:55 27.12.2019
1859 Drizzle 4 1028 100 4000 3.6 50 17:55 27.12.2019
1860 Drizzle 4 1028 100 2300 1.5 100 17:37 27.12.2019
1861 Drizzle 4 1028 100 2300 1.5 100 17:18 27.12.2019
1862 Drizzle 4 1027 100 2000 2.6 100 16:43 27.12.2019
1863 Clouds 4 1027 100 7000 1.5 80 16:23 27.12.2019
1864 Clouds 4 1027 100 7000 1.5 80 15:58 27.12.2019
1865 Clouds 4 1027 100 7000 1.5 80 15:37 27.12.2019
1866 Clouds 4 1027 100 7000 1.5 80 15:37 27.12.2019
1867 Rain 4 1026 93 2500 0.5 0 15:19 27.12.2019
1868 Rain 4 1026 93 2500 0.5 0 14:56 27.12.2019
1869 Rain 4 1026 93 2500 0.5 0 14:38 27.12.2019
1870 Rain 4 1025 93 2400 1 0 14:19 27.12.2019
1871 Rain 4 1025 93 6000 1 0 13:47 27.12.2019
1872 Rain 4 1024 93 10000 3.6 240 13:24 27.12.2019
1873 Rain 4 1024 100 4100 3.6 240 12:53 27.12.2019
1874 Rain 4 1025 93 9000 1 0 12:32 27.12.2019
1875 Clouds 4 1023 93 10000 4.1 230 11:59 27.12.2019
1876 Clouds 4 1024 93 10000 1.5 70 11:41 27.12.2019
1877 Rain 4 1024 93 10000 1 100 11:20 27.12.2019
1878 Rain 4 1024 100 10000 1.5 70 10:47 27.12.2019
1879 Clouds 4 1023 93 10000 5.1 230 10:24 27.12.2019
1880 Rain 4 1024 100 10000 1 100 09:58 27.12.2019
1881 Rain 3 1023 93 10000 1.5 0 09:39 27.12.2019
1882 Rain 3 1023 100 10000 1.5 0 09:21 27.12.2019
1883 Rain 3 1022 93 10000 1.5 100 08:49 27.12.2019
1884 Rain 3 1022 93 10000 1.5 100 08:30 27.12.2019
1885 Rain 3 1022 100 10000 1.5 80 07:48 27.12.2019
1886 Rain 3 1022 100 10000 1.5 80 07:25 27.12.2019
1887 Drizzle 3 1022 93 10000 1.5 90 06:33 27.12.2019
1888 Rain 3 1023 81 10000 1 0 04:48 27.12.2019
1889 Rain 3 1024 93 10000 2.1 120 02:35 27.12.2019
1890 Drizzle 3 1024 93 10000 0.5 0 01:48 27.12.2019
1891 Snow 3 1022 93 9000 6.2 230 01:23 27.12.2019
1892 Snow 3 1023 93 10000 5.1 230 00:52 27.12.2019
1893 Drizzle 3 1025 93 10000 0.5 0 00:34 27.12.2019
1894 Rain 3 1025 86 10000 1.5 0 23:57 26.12.2019
1895 Clouds 3 1025 86 10000 1.5 0 23:38 26.12.2019
1896 Clouds 2 1025 93 10000 1 0 23:20 26.12.2019
1897 Clouds 2 1025 86 10000 2.1 270 22:42 26.12.2019
1898 Clouds 2 1024 93 10000 4.6 210 22:21 26.12.2019
1899 Clouds 2 1024 93 10000 4.6 210 21:55 26.12.2019
1900 Clouds 2 1025 86 10000 1.5 180 21:37 26.12.2019
1901 Clouds 2 1026 86 10000 2.1 150 21:19 26.12.2019
1902 Clouds 2 1026 86 10000 2.1 40 20:44 26.12.2019
1903 Clouds 2 1026 86 10000 2.1 40 20:44 26.12.2019
1904 Clouds 2 1026 86 10000 4.1 110 20:22 26.12.2019
1905 Clouds 2 1026 86 10000 4.1 110 19:58 26.12.2019
1906 Rain 2 1026 80 9000 2.1 0 19:38 26.12.2019
1907 Clouds 2 1026 93 10000 1 0 19:20 26.12.2019
1908 Clouds 1 1023 93 10000 3.1 230 18:57 26.12.2019
1909 Clouds 2 1024 93 10000 1 250 18:37 26.12.2019
1910 Clouds 1 1024 93 10000 1 250 18:19 26.12.2019
1911 Clouds 2 1023 93 10000 3.1 90 17:42 26.12.2019
1912 Clouds 2 1023 93 10000 3.1 90 17:42 26.12.2019
1913 Clouds 2 1023 93 10000 3.1 90 17:22 26.12.2019
1914 Clouds 2 1024 86 10000 1.5 330 16:51 26.12.2019
1915 Clouds 2 1024 86 10000 1.5 330 16:29 26.12.2019
1916 Clouds 2 1024 86 10000 1.5 330 15:59 26.12.2019
1917 Clouds 3 1024 86 10000 3.6 290 15:40 26.12.2019
1918 Clouds 3 1024 86 10000 3.6 300 15:19 26.12.2019
1919 Clouds 3 1024 86 10000 4.1 290 14:43 26.12.2019
1920 Clouds 3 1022 80 10000 2.1 120 14:24 26.12.2019
1921 Clouds 3 1022 80 10000 2.1 120 14:24 26.12.2019
1922 Clouds 3 1024 86 10000 4.1 290 13:58 26.12.2019
1923 Clouds 3 1024 86 10000 4.1 290 13:40 26.12.2019
1924 Clouds 3 1024 86 10000 3.1 280 13:18 26.12.2019
1925 Clouds 3 1023 86 10000 1.5 80 12:56 26.12.2019
1926 Clouds 3 1024 86 10000 4.1 310 12:36 26.12.2019
1927 Clouds 3 1024 93 10000 3.6 310 12:18 26.12.2019
1928 Clouds 2 1024 93 10000 1 0 11:42 26.12.2019
1929 Clouds 1 1023 100 10000 1.5 60 11:23 26.12.2019
1930 Clouds 1 1024 61 10000 1 0 10:54 26.12.2019
1931 Clouds 0 1024 61 10000 1 0 10:36 26.12.2019
1932 Clouds 0 1024 61 10000 1 0 10:18 26.12.2019
1933 Fog -1 1024 61 10000 1 0 09:42 26.12.2019
1934 Fog -2 1024 100 600 2.1 100 09:24 26.12.2019
1935 Clouds -2 1025 100 600 2.6 90 08:40 26.12.2019
1936 Clouds -2 1025 100 600 1 0 08:21 26.12.2019
1937 Clouds -2 1025 100 10000 0.5 0 07:44 26.12.2019
1938 Clouds -2 1024 100 800 1.5 70 07:24 26.12.2019
1939 Fog -2 1025 100 900 2.1 110 06:39 26.12.2019
1940 Fog -1 1025 78 2500 1.5 110 06:20 26.12.2019
1941 Clear -1 1025 100 5000 1 0 05:43 26.12.2019
1942 Fog 0 1025 82 6000 1.5 90 04:36 26.12.2019
1943 Clear 0 1025 100 7000 0.5 0 03:32 26.12.2019
1944 Mist 1 1025 93 2300 1.5 100 02:46 26.12.2019
1945 Mist 1 1025 93 2300 1.5 100 02:27 26.12.2019
1946 Clouds 1 1025 100 7000 1 0 01:44 26.12.2019
1947 Clouds 2 1025 100 7000 1 0 01:25 26.12.2019
1948 Clouds 2 1026 100 10000 0.5 0 00:44 26.12.2019
1949 Clouds 2 1025 93 10000 2.6 210 00:23 26.12.2019
1950 Clouds 2 1025 93 10000 3.1 220 23:57 25.12.2019
1951 Clouds 2 1026 100 10000 1 0 23:37 25.12.2019
1952 Clouds 2 1026 93 10000 1 0 23:19 25.12.2019
1953 Snow 2 1025 93 10000 2.6 210 22:56 25.12.2019
1954 Clouds 2 1026 100 10000 1 0 22:37 25.12.2019
1955 Clouds 2 1026 93 10000 1.5 110 22:18 25.12.2019
1956 Clouds 2 1024 93 10000 3.6 220 21:55 25.12.2019
1957 Clouds 2 1026 93 10000 1 0 21:37 25.12.2019
1958 Clouds 2 1026 93 10000 1 0 21:18 25.12.2019
1959 Clouds 3 1026 93 10000 1 0 20:40 25.12.2019
1960 Clouds 2 1026 93 10000 1.5 0 20:21 25.12.2019
1961 Clouds 2 1026 93 10000 1.5 0 19:59 25.12.2019
1962 Clouds 3 1025 93 10000 1.5 120 19:40 25.12.2019
1963 Clouds 3 1025 93 10000 1.5 90 19:21 25.12.2019
1964 Snow 3 1025 86 10000 1 0 18:40 25.12.2019
1965 Clouds 2 1023 93 10000 3.1 230 18:20 25.12.2019
1966 Clouds 2 1022 93 10000 3.1 260 17:57 25.12.2019
1967 Rain 2 1022 93 10000 3.1 260 17:39 25.12.2019
1968 Rain 3 1022 93 10000 6.2 290 17:18 25.12.2019
1969 Rain 3 1024 93 10000 6.2 280 16:39 25.12.2019
1970 Rain 4 1023 93 8000 5.1 290 16:20 25.12.2019
1971 Rain 4 1021 86 10000 6.2 310 15:58 25.12.2019
1972 Rain 4 1022 81 10000 8.7 310 15:40 25.12.2019
1973 Clouds 4 1021 70 10000 7.2 260 15:21 25.12.2019
1974 Clouds 5 1021 70 10000 7.2 260 14:59 25.12.2019
1975 Rain 5 1021 70 10000 7.2 250 14:40 25.12.2019
1976 Rain 5 1021 70 10000 7.2 250 14:40 25.12.2019
1977 Rain 6 1021 66 10000 5.7 260 14:21 25.12.2019
1978 Rain 6 1021 66 10000 5.7 260 14:21 25.12.2019
1979 Rain 6 1021 66 10000 5.7 260 14:21 25.12.2019
1980 Rain 6 1020 75 10000 8.7 250 13:57 25.12.2019
1981 Rain 5 1020 66 10000 6.7 260 13:38 25.12.2019
1982 Rain 6 1020 66 10000 6.2 260 13:19 25.12.2019
1983 Clouds 6 1020 66 10000 6.2 250 12:40 25.12.2019
1984 Clouds 6 1020 66 10000 5.7 260 12:20 25.12.2019
1985 Clouds 6 1020 66 10000 5.7 260 11:56 25.12.2019
1986 Rain 6 1017 87 10000 9.8 240 11:56 25.12.2019
1987 Rain 6 1020 66 10000 4.6 250 11:38 25.12.2019
1988 Rain 6 1020 66 10000 5.1 260 11:18 25.12.2019
1989 Rain 5 1020 70 10000 6.2 250 10:38 25.12.2019
1990 Clouds 6 1019 66 10000 6.7 250 10:20 25.12.2019
1991 Rain 5 1019 66 10000 6.2 250 09:51 25.12.2019
1992 Rain 5 1019 66 10000 6.2 250 09:32 25.12.2019
1993 Clouds 5 1019 66 10000 6.2 250 08:51 25.12.2019
1994 Clouds 5 1019 66 10000 6.2 250 08:51 25.12.2019
1995 Rain 5 1016 93 10000 9.3 240 08:31 25.12.2019
1996 Clouds 5 1018 66 10000 4.1 250 07:52 25.12.2019
1997 Rain 5 1018 66 10000 4.1 250 07:34 25.12.2019
1998 Rain 5 1018 70 10000 5.7 250 06:52 25.12.2019
1999 Rain 5 1018 70 10000 4.6 250 06:23 25.12.2019
2000 Clouds 5 1018 70 10000 3.6 260 05:18 25.12.2019
2001 Rain 5 1018 70 10000 3.6 260 04:39 25.12.2019
2002 Rain 5 1018 75 10000 5.1 260 04:20 25.12.2019
2003 Rain 5 1018 75 10000 3.1 250 03:41 25.12.2019
2004 Rain 5 1018 87 10000 5.1 330 02:53 25.12.2019
2005 Rain 5 1018 87 10000 2.1 230 02:20 25.12.2019
2006 Rain 4 1018 93 10000 3.1 250 01:25 25.12.2019
2007 Snow 4 1016 86 10000 7.7 220 00:54 25.12.2019
2008 Rain 4 1018 87 10000 4.1 300 00:32 25.12.2019
2009 Snow 5 1016 93 10000 6.2 230 23:57 24.12.2019
2010 Clouds 5 1018 75 10000 5.1 250 23:38 24.12.2019
2011 Clouds 5 1018 75 10000 5.7 260 23:20 24.12.2019
2012 Rain 5 1018 75 10000 6.7 250 22:41 24.12.2019
2013 Snow 5 1017 70 10000 5.1 250 22:21 24.12.2019
2014 Snow 5 1017 70 10000 6.2 250 21:44 24.12.2019
2015 Snow 5 1017 66 10000 4.6 250 21:23 24.12.2019
2016 Rain 6 1015 93 10000 6.7 240 20:57 24.12.2019
2017 Rain 6 1017 71 10000 5.1 260 20:39 24.12.2019
2018 Rain 6 1017 71 10000 6.2 250 20:18 24.12.2019
2019 Rain 6 1017 71 10000 3.1 260 19:44 24.12.2019
2020 Clouds 6 1017 71 10000 2.1 250 19:20 24.12.2019
2021 Clouds 6 1017 71 10000 4.6 260 18:43 24.12.2019
2022 Rain 6 1015 93 10000 4.1 230 18:24 24.12.2019
2023 Clouds 6 1015 93 10000 7.2 230 17:58 24.12.2019
2024 Clouds 5 1016 76 10000 6.2 250 17:38 24.12.2019
2025 Clouds 6 1016 81 10000 4.6 250 17:20 24.12.2019
2026 Clouds 5 1014 93 10000 7.7 230 16:55 24.12.2019
2027 Rain 5 1016 100 10000 2.6 60 16:37 24.12.2019
2028 Rain 5 1016 100 6000 1 0 16:19 24.12.2019
2029 Rain 5 1013 93 9000 7.7 250 15:54 24.12.2019
2030 Rain 4 1015 100 3900 2.1 300 15:36 24.12.2019
2031 Rain 4 1015 93 6000 2.1 290 15:18 24.12.2019
2032 Rain 4 1014 87 10000 3.1 310 14:54 24.12.2019
2033 Clouds 4 1014 87 10000 3.1 310 14:36 24.12.2019
2034 Clouds 4 1014 87 10000 3.1 310 14:18 24.12.2019
2035 Rain 4 1012 93 10000 8.2 220 13:54 24.12.2019
2036 Rain 4 1015 87 10000 3.6 200 13:36 24.12.2019
2037 Rain 4 1015 87 10000 3.6 200 13:18 24.12.2019
2038 Rain 3 1013 86 10000 7.7 220 12:54 24.12.2019
2039 Rain 3 1015 81 10000 2.1 150 12:36 24.12.2019
2040 Rain 3 1015 81 10000 2.1 150 12:18 24.12.2019
2041 Rain 3 1014 80 10000 8.7 220 11:54 24.12.2019
2042 Rain 3 1017 86 10000 2.1 330 11:36 24.12.2019
2043 Rain 3 1017 86 10000 2.1 330 11:18 24.12.2019
2044 Clouds 3 1015 80 10000 5.7 210 10:54 24.12.2019
2045 Clouds 3 1015 80 10000 5.7 210 10:54 24.12.2019
2046 Clouds 3 1018 80 10000 2.1 110 10:36 24.12.2019
2047 Clouds 3 1018 86 10000 2.6 120 10:18 24.12.2019
2048 Clouds 2 1016 86 10000 5.1 220 09:54 24.12.2019
2049 Clouds 2 1019 93 10000 1 0 09:36 24.12.2019
2050 Clouds 2 1018 86 10000 2.1 100 09:18 24.12.2019
2051 Clouds 1 1018 86 10000 2.1 100 08:42 24.12.2019
2052 Clouds 1 1019 80 10000 2.6 140 08:19 24.12.2019
2053 Clouds 2 1019 80 10000 2.6 140 07:44 24.12.2019
2054 Clouds 2 1018 76 10000 3.6 200 07:22 24.12.2019
2055 Clouds 2 1020 75 10000 3.6 190 06:41 24.12.2019
2056 Clouds 2 1020 80 10000 3.1 180 06:22 24.12.2019
2057 Clouds 2 1021 76 10000 1.5 90 05:56 24.12.2019
2058 Snow 2 1021 80 10000 1 0 05:20 24.12.2019
2059 Snow 3 1022 80 10000 1 0 04:22 24.12.2019
2060 Clouds 3 1021 75 10000 1.5 0 03:50 24.12.2019
2061 Rain 3 1021 75 10000 1 0 02:37 24.12.2019
2062 Rain 3 1021 81 10000 1 0 02:18 24.12.2019
2063 Clouds 3 1021 81 10000 1.5 0 01:42 24.12.2019
2064 Rain 4 1021 86 10000 2.1 230 01:19 24.12.2019
2065 Clouds 4 1021 75 10000 2.6 260 00:40 24.12.2019
2066 Clouds 4 1021 70 10000 4.6 250 00:20 24.12.2019
2067 Clouds 4 1020 70 10000 4.6 250 23:43 23.12.2019
2068 Rain 4 1018 93 10000 6.7 230 23:24 23.12.2019
2069 Rain 4 1018 93 10000 6.7 230 22:57 23.12.2019
2070 Clouds 4 1020 75 10000 5.1 260 22:38 23.12.2019
2071 Clouds 4 1020 75 10000 5.1 260 22:38 23.12.2019
2072 Clouds 4 1019 70 10000 5.1 260 22:20 23.12.2019
2073 Rain 4 1017 93 10000 6.2 230 21:57 23.12.2019
2074 Rain 4 1019 75 10000 5.1 270 21:37 23.12.2019
2075 Rain 4 1018 75 10000 4.6 270 21:19 23.12.2019
2076 Rain 4 1018 75 10000 4.6 270 20:59 23.12.2019
2077 Rain 4 1018 75 10000 5.1 270 20:41 23.12.2019
2078 Rain 4 1018 75 10000 5.1 270 20:19 23.12.2019
2079 Rain 4 1018 75 10000 5.1 270 20:19 23.12.2019
2080 Rain 4 1018 75 10000 5.1 270 19:59 23.12.2019
2081 Rain 4 1017 75 10000 4.6 260 19:40 23.12.2019
2082 Rain 4 1017 75 10000 4.6 260 19:40 23.12.2019
2083 Rain 4 1017 75 10000 5.1 270 19:21 23.12.2019
2084 Rain 4 1017 75 10000 5.1 270 18:58 23.12.2019
2085 Rain 4 1016 75 10000 5.1 260 18:39 23.12.2019
2086 Rain 4 1016 75 10000 5.1 260 18:21 23.12.2019
2087 Rain 4 1015 75 10000 5.1 260 17:59 23.12.2019
2088 Rain 4 1015 75 10000 5.1 260 17:40 23.12.2019
2089 Rain 4 1015 75 10000 5.1 260 17:19 23.12.2019
2090 Rain 4 1015 75 10000 5.1 260 17:19 23.12.2019
2091 Rain 4 1013 86 10000 5.7 230 16:58 23.12.2019
2092 Rain 4 1015 75 10000 5.1 270 16:40 23.12.2019
2093 Rain 5 1015 75 10000 5.1 270 16:19 23.12.2019
2094 Rain 5 1015 75 10000 5.1 270 15:58 23.12.2019
2095 Rain 4 1013 70 10000 6.7 260 15:37 23.12.2019
2096 Rain 4 1013 70 10000 6.7 260 15:19 23.12.2019
2097 Rain 5 1013 70 10000 6.7 260 14:56 23.12.2019
2098 Rain 4 1012 75 10000 5.7 270 14:38 23.12.2019
2099 Rain 4 1012 75 10000 6.7 270 14:19 23.12.2019
2100 Rain 4 1010 86 10000 6.7 240 13:56 23.12.2019
2101 Rain 4 1012 70 10000 7.2 260 13:38 23.12.2019
2102 Rain 4 1011 70 10000 6.7 250 13:20 23.12.2019
2103 Rain 4 1010 93 10000 7.2 240 12:55 23.12.2019
2104 Rain 4 1011 70 10000 7.2 260 12:36 23.12.2019
2105 Rain 4 1011 65 10000 5.7 260 12:18 23.12.2019
2106 Rain 4 1011 65 10000 5.7 260 12:18 23.12.2019
2107 Rain 4 1011 70 10000 5.7 260 11:42 23.12.2019
2108 Rain 4 1011 70 10000 5.7 260 11:42 23.12.2019
2109 Clouds 4 1009 86 10000 8.2 240 11:24 23.12.2019
2110 Rain 4 1011 70 10000 5.7 260 10:56 23.12.2019
2111 Rain 4 1010 70 10000 5.1 270 10:38 23.12.2019
2112 Rain 4 1010 70 10000 7.2 260 10:20 23.12.2019
2113 Rain 4 1010 81 10000 6.7 240 09:57 23.12.2019
2114 Rain 4 1009 70 10000 7.2 260 09:39 23.12.2019
2115 Rain 4 1009 70 10000 7.2 260 09:19 23.12.2019
2116 Rain 4 1009 70 10000 7.2 260 08:42 23.12.2019
2117 Clouds 4 1006 86 10000 8.2 240 08:23 23.12.2019
2118 Clouds 3 1006 86 10000 7.7 230 07:57 23.12.2019
2119 Clouds 3 1008 70 10000 4.6 270 07:38 23.12.2019
2120 Clouds 3 1007 75 10000 4.6 260 07:19 23.12.2019
2121 Rain 3 1007 75 10000 4.6 260 06:39 23.12.2019
2122 Rain 3 1007 70 10000 5.7 260 06:21 23.12.2019
2123 Rain 4 1006 70 10000 6.7 260 05:45 23.12.2019
2124 Clouds 3 1005 75 10000 6.2 260 04:44 23.12.2019
2125 Rain 3 1002 86 10000 8.7 240 03:58 23.12.2019
2126 Rain 3 1003 81 10000 4.1 260 02:47 23.12.2019
2127 Rain 3 1003 81 10000 6.2 270 02:20 23.12.2019
2128 Drizzle 4 1002 75 10000 5.7 270 01:50 23.12.2019
2129 Drizzle 4 1002 75 10000 5.7 270 01:31 23.12.2019
2130 Clouds 4 1001 61 10000 5.7 250 00:48 23.12.2019
2131 Rain 4 1001 61 10000 5.7 250 00:27 23.12.2019
2132 Rain 4 1001 61 10000 5.1 250 23:56 22.12.2019
2133 Clouds 4 1000 65 10000 4.6 250 23:37 22.12.2019
2134 Clouds 4 1000 70 10000 2.1 250 23:19 22.12.2019
2135 Clouds 4 1000 70 10000 3.6 280 22:42 22.12.2019
2136 Clouds 4 1000 70 10000 3.6 280 22:42 22.12.2019
2137 Clouds 4 999 70 10000 4.1 270 22:23 22.12.2019
2138 Clouds 4 999 65 10000 4.6 240 21:59 22.12.2019
2139 Rain 4 999 65 10000 4.6 240 21:41 22.12.2019
2140 Rain 4 999 61 10000 5.7 240 21:22 22.12.2019
2141 Rain 4 996 86 10000 8.2 240 20:59 22.12.2019
2142 Rain 4 998 70 10000 5.7 250 20:40 22.12.2019
2143 Rain 4 997 70 10000 4.6 270 20:19 22.12.2019
2144 Rain 5 996 86 10000 9.8 240 19:57 22.12.2019
2145 Rain 5 997 81 10000 4.6 270 19:39 22.12.2019
2146 Rain 5 997 81 10000 4.6 270 19:20 22.12.2019
2147 Rain 5 996 81 10000 6.2 260 18:44 22.12.2019
2148 Rain 5 996 75 10000 6.2 260 18:25 22.12.2019
2149 Clouds 5 994 87 10000 8.2 230 17:58 22.12.2019
2150 Rain 5 995 66 10000 4.6 250 17:39 22.12.2019
2151 Rain 5 995 66 10000 4.6 250 17:19 22.12.2019
2152 Rain 6 993 87 10000 9.3 240 16:59 22.12.2019
2153 Rain 5 994 66 10000 7.2 250 16:41 22.12.2019
2154 Rain 6 994 81 10000 6.2 260 16:22 22.12.2019
2155 Rain 6 994 81 10000 6.2 260 15:57 22.12.2019
2156 Rain 5 993 76 10000 7.2 250 15:39 22.12.2019
2157 Rain 6 993 70 10000 7.2 250 15:21 22.12.2019
2158 Rain 6 991 87 10000 10.3 240 14:56 22.12.2019
2159 Rain 6 992 76 10000 1.5 260 14:38 22.12.2019
2160 Rain 6 992 81 10000 1.5 260 14:19 22.12.2019
2161 Rain 6 992 81 10000 1.5 260 14:19 22.12.2019
2162 Rain 6 990 81 10000 8.7 230 13:56 22.12.2019
2163 Rain 6 991 76 10000 4.6 270 13:38 22.12.2019
2164 Rain 7 991 76 10000 2.6 70 13:19 22.12.2019
2165 Rain 7 991 76 10000 2.6 70 13:19 22.12.2019
2166 Clouds 6 989 81 10000 7.2 210 12:56 22.12.2019
2167 Clouds 6 991 93 10000 2.6 70 12:38 22.12.2019
2168 Rain 6 991 93 10000 1.5 300 12:19 22.12.2019
2169 Rain 6 991 93 10000 2.1 120 11:56 22.12.2019
2170 Rain 5 991 87 10000 1.5 300 11:38 22.12.2019
2171 Clouds 5 991 87 10000 1.5 120 11:19 22.12.2019
2172 Clouds 5 990 86 10000 2.6 190 10:56 22.12.2019
2173 Rain 4 991 93 10000 2.1 280 10:38 22.12.2019
2174 Rain 4 991 93 10000 2.1 280 10:19 22.12.2019
2175 Rain 3 991 93 10000 2.1 280 09:57 22.12.2019
2176 Clouds 3 990 87 10000 3.1 270 09:39 22.12.2019
2177 Clouds 3 989 86 10000 2.1 160 09:20 22.12.2019
2178 Clouds 3 989 81 10000 2.6 290 08:42 22.12.2019
2179 Snow 2 988 86 10000 4.1 210 08:22 22.12.2019
2180 Snow 3 988 93 10000 4.1 210 07:43 22.12.2019
2181 Snow 3 988 93 10000 3.1 200 07:21 22.12.2019
2182 -273 0 0 0 0 0 06:52 22.12.2019
2183 Rain 3 989 86 10000 3.1 200 06:25 22.12.2019
2184 Clouds 3 989 93 10000 2.6 120 05:32 22.12.2019
2185 Clouds 2 989 93 10000 3.1 80 04:46 22.12.2019
2186 Clouds 2 989 93 10000 3.1 80 04:46 22.12.2019
2187 Snow 2 988 93 10000 1.5 180 04:24 22.12.2019
2188 Clouds 2 990 86 10000 1.5 0 02:43 22.12.2019
2189 Clouds 2 990 86 10000 1.5 0 02:43 22.12.2019
2190 Clouds 2 990 93 10000 3.6 100 01:59 22.12.2019
2191 Clouds 2 991 86 10000 2.6 130 01:31 22.12.2019
2192 Drizzle 2 991 81 10000 6.2 280 00:48 22.12.2019
2193 Drizzle 1 991 81 10000 6.2 280 00:29 22.12.2019
2194 Clouds 1 991 86 10000 6.7 280 23:59 21.12.2019
2195 Clouds 1 989 86 10000 1 0 23:40 21.12.2019
2196 Clouds 1 989 93 10000 1.5 120 23:20 21.12.2019
2197 Clouds 1 989 93 10000 1.5 0 22:47 21.12.2019
2198 Clouds 1 989 93 10000 1 0 22:20 21.12.2019
2199 Clouds 1 989 93 10000 1 0 21:58 21.12.2019
2200 Clouds 1 989 93 10000 1.5 0 21:40 21.12.2019
2201 Clouds 1 991 100 10000 0.5 0 21:21 21.12.2019
2202 Clouds 1 991 100 10000 0.5 0 20:59 21.12.2019
2203 Clouds 1 991 93 10000 1.5 0 20:41 21.12.2019
2204 Clouds 1 992 100 10000 1.5 130 20:22 21.12.2019
2205 Clouds 1 992 100 10000 1.5 130 19:58 21.12.2019
2206 Clouds 2 992 100 10000 1.5 130 19:58 21.12.2019
2207 Clouds 2 992 93 10000 1 0 19:40 21.12.2019
2208 Clouds 2 994 93 10000 3.1 170 19:20 21.12.2019
2209 Clouds 2 993 93 10000 2.6 200 18:56 21.12.2019
2210 Clouds 2 993 93 10000 3.1 200 18:38 21.12.2019
2211 Clouds 3 995 81 10000 2.1 200 18:20 21.12.2019
2212 Clouds 3 994 100 10000 2.6 220 17:55 21.12.2019
2213 Clouds 3 994 100 10000 2.6 220 17:55 21.12.2019
2214 Clouds 3 994 100 10000 2.6 220 17:55 21.12.2019
2215 Clouds 3 995 81 10000 2.1 200 17:37 21.12.2019
2216 Snow 4 994 81 10000 3.6 170 17:18 21.12.2019
2217 Clouds 4 995 93 10000 1.5 90 16:41 21.12.2019
2218 Clouds 5 995 93 10000 1.5 90 16:19 21.12.2019
2219 Clouds 6 995 93 10000 1.5 90 15:58 21.12.2019
2220 Clouds 6 996 93 10000 2.1 110 15:39 21.12.2019
2221 Clouds 6 996 87 10000 2.1 110 15:20 21.12.2019
2222 Clouds 6 995 87 10000 5.7 230 14:59 21.12.2019
2223 Clouds 5 996 93 10000 2.1 90 14:40 21.12.2019
2224 Rain 5 996 93 10000 2.6 100 14:22 21.12.2019
2225 Clouds 5 995 87 10000 4.1 220 13:57 21.12.2019
2226 Rain 5 997 93 10000 3.1 100 13:38 21.12.2019
2227 Rain 5 996 93 10000 2.1 260 13:18 21.12.2019
2228 Rain 5 995 93 10000 2.6 200 12:56 21.12.2019
2229 Clouds 4 997 87 10000 3.1 280 12:37 21.12.2019
2230 Rain 4 997 93 10000 2.1 280 12:19 21.12.2019
2231 Rain 4 997 93 10000 2.1 280 11:45 21.12.2019
2232 Rain 4 997 93 10000 2.1 280 11:26 21.12.2019
2233 Rain 4 996 86 10000 3.1 180 10:57 21.12.2019
2234 Rain 4 996 93 10000 2.1 130 10:39 21.12.2019
2235 Rain 4 996 93 10000 2.1 120 10:21 21.12.2019
2236 Rain 3 995 86 10000 4.1 160 09:56 21.12.2019
2237 Rain 3 995 93 10000 3.6 150 09:37 21.12.2019
2238 Rain 3 996 93 10000 2.6 120 09:18 21.12.2019
2239 Rain 3 996 100 10000 3.1 120 08:44 21.12.2019
2240 Rain 3 996 100 10000 3.1 120 08:25 21.12.2019
2241 Rain 3 996 93 10000 1.5 0 07:46 21.12.2019
2242 Rain 3 996 100 10000 2.1 110 07:22 21.12.2019
2243 Drizzle 3 996 93 10000 1.5 100 06:46 21.12.2019
2244 Snow 3 995 100 10000 1 0 06:26 21.12.2019
2245 Snow 3 995 100 10000 1.04 117 05:55 21.12.2019
2246 Snow 2 997 93 10000 2.1 120 04:58 21.12.2019
2247 Rain 2 997 93 10000 1.5 100 03:59 21.12.2019
2248 Rain 3 998 87 10000 2.1 80 03:37 21.12.2019
2249 Snow 3 998 86 10000 3.1 180 02:19 21.12.2019
2250 Rain 3 997 93 10000 5.7 180 01:41 21.12.2019
2251 Rain 3 998 87 10000 4.6 150 01:22 21.12.2019
2252 Rain 3 998 81 10000 5.1 170 00:37 21.12.2019
2253 Rain 3 999 87 10000 4.6 180 00:18 21.12.2019
2254 Rain 4 998 81 10000 5.1 190 23:38 20.12.2019
2255 Rain 4 998 87 10000 4.1 190 23:19 20.12.2019
2256 Rain 4 998 81 10000 3.1 170 22:43 20.12.2019
2257 Rain 5 998 87 10000 5.1 280 22:22 20.12.2019
2258 Rain 5 998 87 10000 5.1 280 21:59 20.12.2019
2259 Rain 6 997 87 10000 5.7 280 21:40 20.12.2019
2260 Rain 6 997 93 10000 6.7 270 21:20 20.12.2019
2261 Rain 6 997 93 10000 6.7 270 21:20 20.12.2019
2262 Clouds 7 995 81 10000 6.7 220 20:55 20.12.2019
2263 Rain 7 996 87 10000 9.3 280 20:36 20.12.2019
2264 Clouds 8 995 66 10000 8.7 270 20:18 20.12.2019
2265 Clouds 9 995 66 10000 8.7 270 19:42 20.12.2019
2266 Clouds 9 994 62 10000 9.8 270 19:20 20.12.2019
2267 Clouds 9 993 61 10000 7.7 240 18:58 20.12.2019
2268 Clouds 8 994 62 10000 9.3 270 18:39 20.12.2019
2269 Clouds 10 993 50 10000 8.2 270 18:21 20.12.2019
2270 Clouds 11 992 41 10000 4.6 270 17:54 20.12.2019
2271 Clouds 10 992 41 10000 4.6 270 17:36 20.12.2019
2272 Clouds 10 992 41 10000 4.6 270 17:18 20.12.2019
2273 Clouds 10 992 41 10000 4.6 270 17:18 20.12.2019
2274 Clouds 11 991 31 10000 8.2 180 16:40 20.12.2019
2275 Clouds 11 990 76 10000 7.2 180 16:20 20.12.2019
2276 Clouds 10 990 76 10000 7.2 180 15:57 20.12.2019
2277 Clouds 10 990 76 10000 7.7 210 15:39 20.12.2019
2278 Clouds 10 990 76 10000 7.7 210 15:20 20.12.2019
2279 Clouds 10 990 76 10000 10.8 170 14:59 20.12.2019
2280 Clouds 10 990 76 10000 10.8 170 14:40 20.12.2019
2281 Clouds 12 991 68 10000 9.8 200 14:22 20.12.2019
2282 Clouds 13 991 68 10000 11.3 190 13:55 20.12.2019
2283 Clouds 13 992 68 10000 11.8 180 13:36 20.12.2019
2284 Clouds 13 992 66 10000 11.8 180 13:18 20.12.2019
2285 Clouds 13 992 66 10000 10.3 170 12:42 20.12.2019
2286 Clouds 12 993 66 10000 11.8 180 12:19 20.12.2019
2287 Clouds 12 993 31 10000 11.8 180 11:59 20.12.2019
2288 Clouds 12 993 31 10000 11.8 180 11:40 20.12.2019
2289 Clouds 8 993 64 10000 15.4 170 11:21 20.12.2019
2290 Clouds 8 993 31 10000 13.9 180 10:59 20.12.2019
2291 Clouds 8 993 31 10000 13.9 180 10:41 20.12.2019
2292 Clouds 9 993 64 10000 12.9 180 10:21 20.12.2019
2293 Clouds 10 994 64 10000 15.4 180 09:56 20.12.2019
2294 Clouds 9 993 64 10000 15.4 180 09:38 20.12.2019
2295 Clouds 8 993 64 10000 15.4 180 09:19 20.12.2019
2296 Clouds 8 993 64 10000 13.9 180 08:43 20.12.2019
2297 Clouds 6 995 64 10000 10.8 0 08:25 20.12.2019
2298 Clouds 3 997 86 10000 0.5 0 07:59 20.12.2019
2299 Mist 4 1009 67 1000 4.1 150 07:40 20.12.2019
2300 Mist 5 1009 67 1000 4.1 150 07:19 20.12.2019
2301 Clouds 6 996 67 10000 11.3 170 06:52 20.12.2019
2302 Clouds 6 996 67 10000 10.8 170 06:32 20.12.2019
2303 Clouds 6 999 67 10000 1 140 05:53 20.12.2019
2304 Mist 5 1011 100 1000 4.1 160 05:35 20.12.2019
2305 Clouds 3 1002 100 5000 2.1 100 04:33 20.12.2019
2306 Clouds 3 1004 93 10000 3.6 310 03:30 20.12.2019
2307 Clouds 3 1004 93 10000 2.6 290 02:43 20.12.2019
2308 Clouds 4 1004 93 10000 4.6 270 01:49 20.12.2019
2309 Clouds 4 1004 93 10000 4.6 270 01:49 20.12.2019
2310 Clouds 4 1004 93 10000 2.6 0 01:30 20.12.2019
2311 Clouds 4 1004 93 10000 7.2 280 00:43 20.12.2019
2312 Clouds 4 1004 75 10000 8.2 270 00:23 20.12.2019
2313 Clouds 3 1004 100 5000 3.1 0 23:44 19.12.2019
2314 Mist 4 1005 100 1600 1 0 23:25 19.12.2019
2315 Mist 4 1006 100 3900 1.5 0 22:59 19.12.2019
2316 Mist 3 1007 100 2300 1.5 0 22:37 19.12.2019
2317 Mist 3 1007 100 2300 1.5 0 22:18 19.12.2019
2318 Mist 3 1008 100 3300 1 0 21:55 19.12.2019
2319 Clouds 3 1009 93 10000 1 0 21:37 19.12.2019
2320 Clouds 3 1009 93 10000 1 0 21:18 19.12.2019
2321 Clouds 3 1009 93 10000 1 0 20:55 19.12.2019
2322 Clouds 3 1010 100 10000 1 0 20:36 19.12.2019
2323 Clouds 4 1010 100 10000 1 0 20:18 19.12.2019
2324 Clouds 4 1010 100 10000 1 0 19:54 19.12.2019
2325 Clouds 4 1010 100 10000 1 0 19:54 19.12.2019
2326 Clouds 5 1010 100 10000 1.5 0 19:36 19.12.2019
2327 Clouds 6 1010 100 10000 1.5 0 19:18 19.12.2019
2328 Clouds 5 1010 100 10000 1.5 0 18:41 19.12.2019
2329 Clouds 5 1010 100 10000 1 0 18:21 19.12.2019
2330 Clouds 6 1010 100 10000 1 0 17:57 19.12.2019
2331 Fog 7 1010 100 7000 1.5 0 17:39 19.12.2019
2332 Fog 7 1010 100 7000 1.5 0 17:19 19.12.2019
2333 Fog 8 1010 100 7000 1.5 90 16:57 19.12.2019
2334 Clouds 8 1011 87 10000 2.1 80 16:39 19.12.2019
2335 Fog 9 1011 93 8000 1 0 16:20 19.12.2019
2336 Fog 9 1011 93 8000 1 0 15:58 19.12.2019
2337 Fog 9 1011 93 8000 1 0 15:39 19.12.2019
2338 Clouds 9 1011 100 10000 1 0 15:19 19.12.2019
2339 Clouds 10 1012 93 10000 1 0 14:58 19.12.2019
2340 Clouds 9 1012 93 10000 1 0 14:40 19.12.2019
2341 Clouds 10 1012 93 10000 1 0 14:18 19.12.2019
2342 Clouds 10 1013 100 10000 2.1 320 13:56 19.12.2019
2343 Clouds 10 1013 93 10000 1 0 13:37 19.12.2019
2344 Clouds 10 1013 93 10000 1 0 13:18 19.12.2019
2345 Clouds 10 1014 100 10000 1 0 12:54 19.12.2019
2346 Clouds 10 1014 100 10000 3.1 290 12:36 19.12.2019
2347 Clouds 9 1014 100 10000 3.1 290 12:18 19.12.2019
2348 Clouds 9 1014 100 10000 3.1 290 12:18 19.12.2019
2349 Clouds 9 1014 100 10000 3.1 290 12:18 19.12.2019
2350 Clouds 9 1014 100 10000 3.1 290 12:18 19.12.2019
2351 Clouds 8 1015 93 6000 1.5 260 11:42 19.12.2019
2352 Fog 5 1015 100 4000 2.1 290 11:20 19.12.2019
2353 Fog 5 1015 100 4000 2.1 290 11:20 19.12.2019
2354 Fog 5 1015 93 350 2.6 280 10:59 19.12.2019
2355 Fog 5 1015 100 800 2.6 280 10:39 19.12.2019
2356 Fog 4 1015 100 800 2.6 280 10:20 19.12.2019
2357 Clouds 4 1015 100 300 1.5 0 09:59 19.12.2019
2358 Clouds 3 1016 93 150 1.5 0 09:38 19.12.2019
2359 Clouds 3 1016 93 150 1.5 0 09:20 19.12.2019
2360 Clouds 3 1016 93 150 1.5 0 08:56 19.12.2019
2361 Clouds 3 1016 100 8000 1.5 0 08:37 19.12.2019
2362 Clouds 3 1016 100 8000 1.5 0 08:18 19.12.2019
2363 Clouds 3 1016 100 8000 1.5 0 07:54 19.12.2019
2364 Clouds 2 1017 93 10000 1 0 07:36 19.12.2019
2365 Clouds 2 1017 93 10000 1 0 07:18 19.12.2019
2366 Clouds 2 1017 100 7000 0.5 0 06:42 19.12.2019
2367 Clouds 2 1017 100 7000 0.5 0 06:24 19.12.2019
2368 Mist 2 1017 100 4800 1 0 05:47 19.12.2019
2369 Clouds 2 1017 93 8000 1.5 0 05:27 19.12.2019
2370 Clouds 2 1017 71 10000 1.5 280 03:58 19.12.2019
2371 Clouds 4 1017 93 10000 2.1 0 02:30 19.12.2019
2372 Clouds 4 1017 93 10000 3.1 280 01:27 19.12.2019
2373 Clouds 5 1017 93 10000 3.6 290 00:59 19.12.2019
2374 Clouds 5 1017 93 10000 2.6 120 00:39 19.12.2019
2375 Clouds 5 1017 93 10000 2.6 120 00:39 19.12.2019
2376 Clouds 4 1017 93 10000 2.6 120 00:19 19.12.2019
2377 Clouds 4 1017 93 10000 2.6 120 00:19 19.12.2019
2378 Clouds 5 1018 93 10000 1 0 23:45 18.12.2019
2379 Clouds 5 1018 100 10000 1 0 23:19 18.12.2019
2380 Clouds 5 1018 100 10000 1 0 23:19 18.12.2019
2381 Clouds 5 1018 100 10000 1 0 23:19 18.12.2019
2382 Clouds 5 1018 93 10000 2.1 70 22:58 18.12.2019
2383 Clouds 5 1019 86 10000 3.1 90 22:40 18.12.2019
2384 Clouds 5 1019 86 10000 3.1 90 22:40 18.12.2019
2385 Mist 5 1019 100 3300 1 0 22:22 18.12.2019
2386 Clouds 5 1019 100 8000 1 0 21:59 18.12.2019
2387 Clouds 5 1019 100 8000 1 0 21:40 18.12.2019
2388 Clouds 5 1019 100 10000 1.5 100 21:20 18.12.2019
2389 Clouds 5 1019 100 10000 1.5 100 21:20 18.12.2019
2390 Clouds 5 1019 100 10000 1 0 20:57 18.12.2019
2391 Clouds 6 1019 100 10000 2.1 230 20:39 18.12.2019
2392 Clouds 6 1019 100 10000 2.1 230 20:20 18.12.2019
2393 Clouds 6 1019 100 10000 1.5 0 19:57 18.12.2019
2394 Clouds 6 1019 93 10000 1 0 19:39 18.12.2019
2395 Clouds 7 1019 93 10000 1 0 19:19 18.12.2019
2396 Clouds 7 1019 93 10000 1 0 18:56 18.12.2019
2397 Clouds 7 1019 93 10000 1.5 110 18:37 18.12.2019
2398 Clouds 7 1019 93 10000 1.5 110 18:18 18.12.2019
2399 Clouds 8 1019 93 10000 0.5 0 17:55 18.12.2019
2400 Clouds 8 1019 87 10000 0.5 0 17:37 18.12.2019
2401 Clouds 8 1019 87 10000 0.5 0 17:37 18.12.2019
2402 Clouds 9 1019 87 10000 0.5 0 17:18 18.12.2019
2403 Clouds 9 1019 87 10000 1.5 260 16:42 18.12.2019
2404 Clouds 10 1018 93 10000 1 0 16:24 18.12.2019
2405 Clouds 10 1018 76 10000 1 0 15:57 18.12.2019
2406 Clouds 11 1019 71 10000 1.5 80 15:39 18.12.2019
2407 Clouds 11 1019 93 10000 2.1 280 15:21 18.12.2019
2408 Clouds 11 1019 66 10000 0.5 0 14:56 18.12.2019
2409 Clouds 11 1019 93 10000 2.1 280 14:56 18.12.2019
2410 Clouds 11 1019 93 10000 2.1 280 14:38 18.12.2019
2411 Clouds 12 1019 93 10000 2.6 290 14:19 18.12.2019
2412 Clouds 12 1019 76 10000 1 0 13:55 18.12.2019
2413 Clouds 12 1019 93 10000 2.6 290 13:36 18.12.2019
2414 Clouds 11 1019 93 10000 2.1 300 13:18 18.12.2019
2415 Clouds 11 1019 93 10000 2.1 300 13:18 18.12.2019
2416 Clouds 11 1019 93 10000 2.1 300 13:18 18.12.2019
2417 Clouds 11 1019 93 10000 2.1 300 12:40 18.12.2019
2418 Clouds 11 1019 87 10000 1.5 70 12:21 18.12.2019
2419 Clouds 10 1019 93 10000 2.6 80 11:57 18.12.2019
2420 Clouds 10 1019 93 10000 2.6 80 11:39 18.12.2019
2421 Clouds 9 1020 93 10000 1 0 11:20 18.12.2019
2422 Clouds 8 1020 93 10000 1 0 10:58 18.12.2019
2423 Clouds 8 1020 93 10000 1 0 10:39 18.12.2019
2424 Clouds 7 1019 100 10000 1 90 10:20 18.12.2019
2425 Clouds 7 1019 87 10000 2.6 150 09:58 18.12.2019
2426 Clouds 7 1018 100 10000 1.5 0 09:20 18.12.2019
2427 Clouds 7 1018 93 10000 1 0 08:43 18.12.2019
2428 Clouds 6 1018 70 10000 2.1 180 08:25 18.12.2019
2429 Clouds 6 1018 70 10000 2.1 180 08:25 18.12.2019
2430 Clouds 6 1017 75 10000 1.5 160 07:57 18.12.2019
2431 Clouds 6 1017 93 10000 1.5 0 07:57 18.12.2019
2432 Clouds 6 1017 93 10000 1.5 0 07:39 18.12.2019
2433 Clouds 6 1017 93 10000 0.5 0 07:20 18.12.2019
2434 Clouds 6 1017 93 10000 0.5 0 06:52 18.12.2019
2435 Clouds 6 1016 100 10000 1 0 06:25 18.12.2019
2436 Clouds 6 1016 100 10000 1 0 05:36 18.12.2019
2437 Clouds 6 1016 100 10000 1 310 04:31 18.12.2019
2438 Clouds 6 1014 93 10000 0.5 0 02:47 18.12.2019
2439 Clouds 6 1014 93 10000 0.5 0 02:28 18.12.2019
2440 Clouds 5 1013 93 10000 1 0 01:45 18.12.2019
2441 Clouds 6 1012 70 10000 3.6 190 01:27 18.12.2019
2442 Clouds 6 1013 86 10000 1 0 00:55 18.12.2019
2443 Clouds 5 1013 86 10000 1 0 00:36 18.12.2019
2444 Clouds 5 1012 87 10000 2.6 280 00:18 18.12.2019
2445 Clouds 5 1012 87 10000 3.1 260 23:43 17.12.2019
2446 Clouds 6 1011 87 10000 3.6 270 23:23 17.12.2019
2447 Clouds 6 1010 66 10000 5.7 280 22:57 17.12.2019
2448 Clouds 7 1010 66 10000 5.7 280 22:39 17.12.2019
2449 Clouds 7 1010 87 10000 6.2 290 22:19 17.12.2019
2450 Clouds 6 1010 87 10000 6.2 280 21:57 17.12.2019
2451 Clouds 7 1010 87 10000 6.2 280 21:39 17.12.2019
2452 Clouds 6 1009 87 10000 4.1 280 21:20 17.12.2019
2453 Clouds 7 1009 93 10000 1 0 20:59 17.12.2019
2454 Clouds 7 1009 93 10000 1 0 20:39 17.12.2019
2455 Clouds 7 1009 81 10000 4.1 290 20:19 17.12.2019
2456 Clouds 7 1010 93 10000 1.5 0 19:57 17.12.2019
2457 Clouds 7 1009 81 10000 2.6 240 19:39 17.12.2019
2458 Clouds 7 1009 81 10000 1.5 0 19:19 17.12.2019
2459 Clouds 6 1009 76 10000 4.6 280 18:57 17.12.2019
2460 Clouds 6 1009 76 10000 4.6 280 18:57 17.12.2019
2461 Clouds 6 1009 76 10000 4.6 280 18:57 17.12.2019
2462 Clouds 6 1009 76 10000 4.6 280 18:38 17.12.2019
2463 Clouds 6 1009 86 10000 3.71 166 18:20 17.12.2019
2464 Clouds 6 1009 86 10000 1 0 17:54 17.12.2019
2465 Clouds 7 1009 86 10000 1 0 17:36 17.12.2019
2466 Clouds 8 1009 93 10000 1 0 17:18 17.12.2019
2467 Clouds 8 1009 87 10000 1 0 16:54 17.12.2019
2468 Clouds 8 1009 87 10000 1 0 16:36 17.12.2019
2469 Clouds 8 1009 81 10000 1 0 16:18 17.12.2019
2470 Clouds 10 1009 81 10000 1.5 20 15:38 17.12.2019
2471 Clouds 10 1009 81 10000 1.5 350 15:20 17.12.2019
2472 Clouds 10 1009 81 10000 1.5 350 14:56 17.12.2019
2473 Clouds 10 1008 81 10000 1 0 14:38 17.12.2019
2474 Clouds 10 1008 81 10000 1.5 20 14:19 17.12.2019
2475 Clouds 10 1008 81 10000 1.5 20 14:19 17.12.2019
2476 Clouds 11 1007 50 10000 7.2 180 13:56 17.12.2019
2477 Clouds 11 1007 50 10000 7.2 180 13:38 17.12.2019
2478 Clouds 11 1007 32 10000 7.2 180 13:19 17.12.2019
2479 Clouds 11 1007 32 10000 7.2 180 13:19 17.12.2019
2480 Clouds 11 1007 32 10000 7.2 180 12:58 17.12.2019
2481 Clouds 11 1008 76 10000 5.1 270 12:38 17.12.2019
2482 Clouds 11 1008 76 10000 5.1 270 12:38 17.12.2019
2483 Clouds 11 1008 76 10000 5.1 270 12:18 17.12.2019
2484 Clouds 11 1008 62 10000 5.1 0 11:56 17.12.2019
2485 Clouds 11 1008 62 10000 5.1 0 11:36 17.12.2019
2486 Clouds 11 1008 62 10000 5.1 0 11:36 17.12.2019
2487 Clouds 6 1008 75 10000 7.2 280 11:18 17.12.2019
2488 Clouds 6 1009 86 10000 1 0 10:56 17.12.2019
2489 Clouds 6 1009 86 10000 1 0 10:37 17.12.2019
2490 Clouds 6 1008 86 10000 0.5 0 10:19 17.12.2019
2491 Clouds 6 1008 93 10000 4.77 165 09:42 17.12.2019
2492 Clouds 5 1008 86 10000 1.5 130 09:22 17.12.2019
2493 Clouds 5 1008 86 10000 1.5 130 08:58 17.12.2019
2494 Clouds 6 1008 86 10000 1 0 08:40 17.12.2019
2495 Clouds 5 1007 86 10000 1 0 08:21 17.12.2019
2496 Clouds 5 1007 86 10000 1 0 07:58 17.12.2019
2497 Clouds 5 1007 86 10000 2.1 160 07:39 17.12.2019
2498 Clouds 4 1007 86 10000 3.1 140 07:21 17.12.2019
2499 Clouds 4 1006 93 10000 2.1 160 06:42 17.12.2019
2500 Clouds 4 1006 71 10000 1 180 06:24 17.12.2019
2501 Clouds 4 1006 71 10000 1 180 06:24 17.12.2019
2502 Clouds 4 1006 86 10000 0.5 0 05:41 17.12.2019
2503 Clouds 5 1006 68 10000 2.1 40 04:51 17.12.2019
2504 Clouds 4 1006 68 10000 0.5 0 03:40 17.12.2019
2505 Clouds 4 1006 69 10000 1 0 02:22 17.12.2019
2506 Clouds 3 1006 93 10000 5.7 290 01:21 17.12.2019
2507 Clouds 3 1006 93 10000 5.1 270 00:45 17.12.2019
2508 Clouds 3 1006 93 10000 7.2 300 00:21 17.12.2019
2509 Clouds 3 1006 93 10000 6.2 290 23:44 16.12.2019
2510 Mist 3 1006 93 4000 9.3 300 23:20 16.12.2019
2511 Mist 3 1006 93 4000 9.3 300 22:59 16.12.2019
2512 Clouds 3 1007 68 10000 1.5 150 22:39 16.12.2019
2513 Clouds 2 1007 68 10000 1.5 170 22:21 16.12.2019
2514 Clouds 2 1007 68 10000 1.5 170 21:57 16.12.2019
2515 Clouds 2 1007 68 10000 1.5 170 21:57 16.12.2019
2516 Clouds 2 1007 93 10000 4.6 40 21:39 16.12.2019
2517 Clouds 3 1007 93 10000 4.6 260 21:20 16.12.2019
2518 Clouds 4 1007 93 10000 4.6 260 20:58 16.12.2019
2519 Clouds 5 1007 93 10000 4.6 260 20:39 16.12.2019
2520 Clouds 5 1008 93 10000 3.1 250 20:19 16.12.2019
2521 Clouds 5 1008 100 10000 1.5 150 19:57 16.12.2019
2522 Clouds 4 1008 93 10000 3.1 250 19:37 16.12.2019
2523 Clouds 4 1009 93 8000 1.5 250 19:19 16.12.2019
2524 Clouds 4 1009 93 8000 1.5 250 18:59 16.12.2019
2525 Clouds 4 1009 93 8000 1.5 250 18:41 16.12.2019
2526 Mist 4 1009 100 7000 1.5 0 18:20 16.12.2019
2527 Clouds 4 1009 100 7000 1.5 0 17:58 16.12.2019
2528 Clouds 5 1009 100 7000 1.5 0 17:40 16.12.2019
2529 Mist 6 1009 93 7000 1 0 17:21 16.12.2019
2530 Clouds 6 1009 93 7000 1 0 16:57 16.12.2019
2531 Clouds 6 1009 93 7000 1 0 16:39 16.12.2019
2532 Clouds 6 1009 93 7000 1 0 16:39 16.12.2019
2533 Clouds 7 1009 100 10000 2.6 340 16:20 16.12.2019
2534 Clouds 7 1009 87 10000 1 0 15:59 16.12.2019
2535 Clouds 7 1009 100 10000 2.6 340 15:59 16.12.2019
2536 Clouds 7 1009 93 10000 2.6 320 15:39 16.12.2019
2537 Clouds 8 1009 93 10000 4.6 290 15:20 16.12.2019
2538 Clouds 8 1009 93 10000 4.6 290 14:57 16.12.2019
2539 Clouds 8 1009 100 10000 5.1 290 14:37 16.12.2019
2540 Clouds 8 1009 100 10000 5.1 290 14:37 16.12.2019
2541 Clouds 8 1009 93 10000 4.1 300 14:19 16.12.2019
2542 Clouds 8 1009 93 10000 4.1 300 14:19 16.12.2019
2543 Clouds 8 1009 93 10000 4.1 300 14:19 16.12.2019
2544 Clouds 8 1009 93 10000 4.1 300 14:19 16.12.2019
2545 Clouds 9 1009 75 10000 1.5 350 13:56 16.12.2019
2546 Clouds 9 1009 93 10000 4.6 300 13:37 16.12.2019
2547 Clouds 9 1009 87 10000 4.6 300 13:19 16.12.2019
2548 Clouds 9 1010 87 10000 4.1 310 12:57 16.12.2019
2549 Clouds 9 1010 87 10000 4.1 310 12:39 16.12.2019
2550 Clouds 8 1010 87 10000 2.6 310 12:19 16.12.2019
2551 Clouds 7 1010 86 10000 0.5 0 11:58 16.12.2019
2552 Clouds 7 1010 93 10000 1 0 11:40 16.12.2019
2553 Clouds 5 1011 93 10000 0.5 0 11:20 16.12.2019
2554 Clouds 4 1011 93 10000 0.5 0 10:56 16.12.2019
2555 Clouds 4 1011 93 10000 0.5 0 10:37 16.12.2019
2556 Clouds 3 1012 93 10000 1.5 0 10:19 16.12.2019
2557 Clouds 2 1012 93 10000 1 0 09:45 16.12.2019
2558 Clouds 2 1012 93 10000 1 0 09:26 16.12.2019
2559 Clouds 2 1011 100 10000 0.5 0 08:41 16.12.2019
2560 Clouds 1 1011 86 10000 2.6 240 08:21 16.12.2019
2561 Clouds 1 1011 86 10000 1.5 170 07:57 16.12.2019
2562 Clouds 1 1011 100 10000 1 0 07:38 16.12.2019
2563 Clouds 1 1011 100 10000 1 0 07:19 16.12.2019
2564 Clouds 1 1011 74 10000 1 0 06:40 16.12.2019
2565 Clouds 1 1011 74 10000 1 0 06:22 16.12.2019
2566 Clouds 1 1011 74 10000 1 0 06:22 16.12.2019
2567 Clouds 1 1011 100 10000 1 0 05:44 16.12.2019
2568 Clouds 1 1011 93 10000 1 0 05:26 16.12.2019
2569 Clouds 2 1011 93 10000 2.6 300 03:33 16.12.2019
2570 Clouds 3 1011 86 10000 1.5 0 01:52 16.12.2019
2571 Clouds 3 1011 86 10000 1.5 0 01:33 16.12.2019
2572 Clouds 3 1011 70 10000 3.1 180 00:41 16.12.2019
2573 Clouds 4 1011 70 10000 3.1 130 00:21 16.12.2019
2574 Clouds 4 1011 75 10000 5.1 110 23:57 15.12.2019
2575 Clouds 4 1011 75 10000 5.1 110 23:37 15.12.2019
2576 Clouds 4 1011 75 10000 5.1 110 23:37 15.12.2019
2577 Clouds 4 1011 93 10000 2.6 110 23:19 15.12.2019
2578 Clouds 4 1012 93 10000 1.5 0 22:54 15.12.2019
2579 Clouds 4 1012 93 10000 1.5 0 22:36 15.12.2019
2580 Clouds 5 1012 86 10000 2.6 100 22:18 15.12.2019
2581 Clouds 5 1012 86 10000 2.6 100 22:18 15.12.2019
2582 Clouds 5 1012 93 10000 1 110 21:54 15.12.2019
2583 Clouds 4 1012 93 10000 1 110 21:36 15.12.2019
2584 Clouds 5 1012 86 10000 2.1 90 21:18 15.12.2019
2585 Clouds 5 1012 87 10000 1 0 20:54 15.12.2019
2586 Clouds 5 1012 86 10000 2.1 120 20:36 15.12.2019
2587 Clouds 6 1011 81 10000 2.6 230 20:18 15.12.2019
2588 Clouds 6 1011 81 10000 3.1 240 19:54 15.12.2019
2589 Clouds 6 1011 81 10000 3.1 240 19:36 15.12.2019
2590 Clouds 7 1011 81 10000 1 0 19:18 15.12.2019
2591 Clouds 7 1010 81 10000 2.6 100 18:54 15.12.2019
2592 Clouds 8 1010 81 10000 2.6 100 18:36 15.12.2019
2593 Clouds 8 1010 81 10000 2.6 100 18:18 15.12.2019
2594 Clouds 8 1010 71 10000 2.6 80 17:54 15.12.2019
2595 Clouds 8 1010 71 10000 2.6 80 17:36 15.12.2019
2596 Clouds 9 1010 71 10000 2.6 80 17:18 15.12.2019
2597 Clouds 10 1010 71 10000 2.6 80 16:42 15.12.2019
2598 Clouds 10 1009 71 10000 1 120 16:22 15.12.2019
2599 Clouds 11 1009 71 10000 1 120 15:57 15.12.2019
2600 Clouds 11 1009 71 10000 1 120 15:38 15.12.2019
2601 Clouds 11 1009 66 10000 1.5 80 15:19 15.12.2019
2602 Clouds 11 1009 66 10000 1.5 80 15:19 15.12.2019
2603 Clear 11 1008 71 10000 5.7 220 14:56 15.12.2019
2604 Clouds 11 1009 66 10000 1.5 80 14:37 15.12.2019
2605 Clouds 11 1008 76 10000 2.1 100 14:19 15.12.2019
2606 Clouds 11 1008 76 10000 1 0 13:58 15.12.2019
2607 Clouds 11 1008 76 10000 1 0 13:38 15.12.2019
2608 Clouds 11 1008 76 10000 1 0 13:19 15.12.2019
2609 Clouds 11 1008 71 10000 2.1 10 12:57 15.12.2019
2610 Clouds 11 1008 71 10000 2.1 10 12:39 15.12.2019
2611 Clouds 11 1008 71 10000 2.1 10 12:20 15.12.2019
2612 Clouds 11 1008 71 10000 2.1 10 12:20 15.12.2019
2613 Clouds 10 1008 71 10000 1 0 11:56 15.12.2019
2614 Clouds 10 1008 71 10000 1 0 11:37 15.12.2019
2615 Clouds 9 1008 71 10000 1 0 11:18 15.12.2019
2616 Clouds 9 1008 75 10000 1 0 10:55 15.12.2019
2617 Clouds 8 1008 75 10000 1 0 10:37 15.12.2019
2618 Clouds 8 1008 75 10000 1 0 10:18 15.12.2019
2619 Clouds 7 1007 80 10000 1 0 09:41 15.12.2019
2620 Clouds 6 1007 86 10000 1.5 130 09:20 15.12.2019
2621 Clear 6 1006 70 10000 9.8 220 08:58 15.12.2019
2622 Clouds 6 1007 86 10000 1.5 150 08:39 15.12.2019
2623 Clouds 5 1007 93 10000 1 0 08:21 15.12.2019
2624 Clouds 5 1007 80 10000 2.1 90 07:56 15.12.2019
2625 Clouds 5 1007 80 10000 2.1 90 07:34 15.12.2019
2626 Clouds 5 1006 93 10000 1.5 90 06:51 15.12.2019
2627 Clouds 5 1006 93 10000 1.5 0 06:20 15.12.2019
2628 Clouds 5 1006 93 10000 1.5 0 05:26 15.12.2019
2629 Clouds 5 1006 81 10000 2.1 260 04:47 15.12.2019
2630 Clouds 5 1006 86 10000 1 0 03:31 15.12.2019
2631 Clouds 5 1006 93 10000 1 160 02:34 15.12.2019
2632 Clouds 5 1006 81 10000 1.5 300 01:47 15.12.2019
2633 Clouds 4 1006 81 10000 1.5 300 01:28 15.12.2019
2634 Clouds 5 1006 93 10000 4.1 210 00:58 15.12.2019
2635 Clouds 5 1006 80 10000 1 0 00:40 15.12.2019
2636 Clouds 5 1007 80 10000 2.1 110 00:21 15.12.2019
2637 Clouds 5 1007 70 10000 2.6 100 23:40 14.12.2019
2638 Clouds 6 1007 66 10000 3.6 120 23:21 14.12.2019
2639 Clouds 6 1007 81 10000 3.6 90 22:58 14.12.2019
2640 Clouds 6 1007 81 10000 3.6 90 22:40 14.12.2019
2641 Clouds 6 1008 81 10000 1.5 120 22:20 14.12.2019
2642 Clouds 6 1006 75 10000 8.7 250 21:56 14.12.2019
2643 Clouds 6 1006 75 10000 8.7 250 21:56 14.12.2019
2644 Clouds 6 1007 75 10000 2.1 120 21:37 14.12.2019
2645 Clouds 7 1007 70 10000 2.6 0 21:18 14.12.2019
2646 Clouds 7 1007 70 10000 0.5 0 20:56 14.12.2019
2647 Clouds 6 1007 70 10000 0.5 0 20:37 14.12.2019
2648 Clouds 6 1007 61 10000 3.1 260 20:19 14.12.2019
2649 Clouds 6 1007 61 10000 3.1 260 20:19 14.12.2019
2650 Clouds 6 1005 65 10000 9.3 230 19:54 14.12.2019
2651 Clouds 6 1007 61 10000 3.1 260 19:36 14.12.2019
2652 Clouds 6 1005 88 10000 8.2 210 19:18 14.12.2019
2653 Clouds 6 1007 88 10000 2.1 220 18:55 14.12.2019
2654 Clouds 5 1007 88 10000 2.1 220 18:36 14.12.2019
2655 Clouds 6 1007 57 10000 2.1 220 18:18 14.12.2019
2656 Clouds 5 1007 80 10000 1 0 17:42 14.12.2019
2657 Clouds 5 1007 80 10000 1 0 17:22 14.12.2019
2658 Clouds 5 1007 61 10000 0.5 0 16:42 14.12.2019
2659 Clouds 6 1007 61 10000 1 0 16:20 14.12.2019
2660 Clouds 5 1006 61 10000 2.6 260 15:58 14.12.2019
2661 Clouds 6 1006 61 10000 2.6 260 15:39 14.12.2019
2662 Clouds 6 1006 66 10000 2.6 260 15:20 14.12.2019
2663 Clouds 5 1005 61 10000 7.2 260 14:57 14.12.2019
2664 Rain 6 1005 61 10000 7.2 260 14:38 14.12.2019
2665 Rain 6 1005 61 10000 7.2 260 14:38 14.12.2019
2666 Rain 6 1005 61 10000 7.2 260 14:19 14.12.2019
2667 Rain 6 1004 66 10000 6.7 260 13:44 14.12.2019
2668 Rain 6 1002 61 10000 5.7 250 13:20 14.12.2019
2669 Rain 6 1002 61 10000 5.7 250 12:58 14.12.2019
2670 Rain 6 1002 61 10000 5.7 250 12:40 14.12.2019
2671 Rain 6 1002 61 10000 5.7 250 12:40 14.12.2019
2672 Rain 6 1001 70 10000 6.7 250 12:20 14.12.2019
2673 Rain 5 1001 70 10000 6.7 250 11:58 14.12.2019
2674 Rain 6 1001 70 10000 6.7 250 11:58 14.12.2019
2675 Rain 5 1001 70 10000 6.7 250 11:39 14.12.2019
2676 Rain 5 1000 66 10000 7.2 260 11:19 14.12.2019
2677 Rain 5 1000 66 10000 7.2 260 11:19 14.12.2019
2678 Rain 5 1000 66 10000 7.2 260 10:57 14.12.2019
2679 Clouds 6 1000 66 10000 7.2 260 10:39 14.12.2019
2680 Clouds 6 998 71 10000 10.3 260 10:20 14.12.2019
2681 Rain 6 998 71 10000 10.3 260 09:55 14.12.2019
2682 Rain 6 998 71 10000 10.3 260 09:36 14.12.2019
2683 Clouds 6 996 62 10000 8.2 250 09:18 14.12.2019
2684 Clouds 6 995 57 10000 8.2 250 08:41 14.12.2019
2685 Clouds 4 991 86 10000 11.3 230 08:19 14.12.2019
2686 Rain 4 991 86 10000 9.8 220 07:41 14.12.2019
2687 Rain 3 990 86 10000 10.3 220 07:22 14.12.2019
2688 Rain 3 990 86 10000 10.3 220 06:55 14.12.2019
2689 Snow 3 991 92 10000 10.3 210 06:36 14.12.2019
2690 Clouds 3 993 60 10000 5.1 170 05:52 14.12.2019
2691 Clouds 2 994 52 10000 3.1 160 04:29 14.12.2019
2692 Snow 2 994 48 10000 2.6 180 02:24 14.12.2019
2693 Snow 2 996 64 10000 2.6 140 01:44 14.12.2019
2694 Clouds 2 997 60 10000 1.5 190 01:22 14.12.2019
2695 Clouds 2 997 56 10000 4.1 230 00:43 14.12.2019
2696 Clouds 2 997 56 10000 4.6 230 00:24 14.12.2019
2697 Clouds 2 997 52 10000 3.6 230 23:42 13.12.2019
2698 Rain 3 997 52 10000 5.1 230 23:20 13.12.2019
2699 Rain 3 996 56 10000 4.6 240 22:59 13.12.2019
2700 Rain 2 996 56 10000 4.6 240 22:40 13.12.2019
2701 Rain 3 995 60 10000 6.7 240 22:19 13.12.2019
2702 Rain 2 993 95 10000 11.3 230 21:55 13.12.2019
2703 Rain 2 995 60 10000 6.7 240 21:36 13.12.2019
2704 Rain 2 994 95 10000 7.7 240 21:18 13.12.2019
2705 Drizzle 3 993 60 10000 7.7 240 20:40 13.12.2019
2706 Rain 3 992 96 10000 5.1 240 20:21 13.12.2019
2707 Rain 3 992 96 10000 5.1 240 19:57 13.12.2019
2708 Rain 3 990 93 10000 11.8 230 19:39 13.12.2019
2709 Clouds 3 989 80 10000 13.4 260 19:20 13.12.2019
2710 Clouds 3 991 96 10000 7.7 240 18:56 13.12.2019
2711 Clouds 3 991 96 10000 7.7 240 18:38 13.12.2019
2712 Clouds 3 991 96 10000 7.7 240 18:38 13.12.2019
2713 Clouds 3 991 96 10000 7.7 240 18:18 13.12.2019
2714 Clouds 3 991 96 10000 7.7 240 18:18 13.12.2019
2715 Clouds 3 990 96 10000 5.1 250 17:41 13.12.2019
2716 Clouds 3 990 94 10000 5.1 250 17:19 13.12.2019
2717 Clouds 3 989 94 10000 4.6 260 16:58 13.12.2019
2718 Clouds 3 988 94 10000 5.1 250 16:39 13.12.2019
2719 Clouds 3 988 94 10000 5.1 250 16:39 13.12.2019
2720 Clouds 3 988 94 10000 5.1 250 16:20 13.12.2019
2721 Clouds 3 987 70 10000 5.7 250 15:43 13.12.2019
2722 Clouds 3 987 94 10000 6.2 250 15:23 13.12.2019
2723 Clouds 3 984 94 8000 11.3 260 14:58 13.12.2019
2724 Clouds 3 984 86 10000 11.3 240 14:39 13.12.2019
2725 Snow 3 984 92 8000 11.3 280 14:20 13.12.2019
2726 Snow 3 984 92 8000 11.3 280 14:20 13.12.2019
2727 Snow 3 984 92 8000 11.3 280 14:20 13.12.2019
2728 Rain 3 983 74 5000 11.3 270 13:56 13.12.2019
2729 Rain 3 985 65 10000 6.2 240 13:37 13.12.2019
2730 Rain 3 985 65 10000 6.2 240 13:37 13.12.2019
2731 Rain 3 985 65 10000 6.2 240 13:18 13.12.2019
2732 Clouds 3 985 70 10000 5.7 240 12:42 13.12.2019
2733 Rain 3 985 70 10000 6.2 240 12:19 13.12.2019
2734 Rain 2 982 93 8000 8.2 270 11:57 13.12.2019
2735 Rain 2 981 80 10000 7.2 280 11:39 13.12.2019
2736 Rain 2 981 80 10000 7.2 280 11:19 13.12.2019
2737 Rain 1 983 53 5000 5.1 240 10:41 13.12.2019
2738 Clouds 1 983 53 5000 5.1 240 10:21 13.12.2019
2739 Clouds 0 980 53 10000 4.1 280 09:43 13.12.2019
2740 Clouds 0 980 53 10000 4.1 280 09:22 13.12.2019
2741 Rain 0 981 53 10000 4.1 260 08:59 13.12.2019
2742 Clouds 0 980 86 10000 1.5 360 08:40 13.12.2019
2743 Rain 0 981 56 10000 4.1 260 08:22 13.12.2019
2744 Clouds -1 982 86 10000 7.2 300 07:43 13.12.2019
2745 Clouds -1 982 80 10000 7.2 300 07:20 13.12.2019
2746 Clouds -1 983 80 10000 2.1 200 06:50 13.12.2019
2747 Clouds -1 984 56 10000 7.2 280 06:28 13.12.2019
2748 Clouds -1 985 69 10000 6.2 20 05:43 13.12.2019
2749 Clouds -2 987 80 10000 3.1 100 05:20 13.12.2019
2750 Clouds -2 989 86 10000 2.6 280 04:35 13.12.2019
2751 Clouds -2 990 80 10000 1 0 03:30 13.12.2019
2752 Clouds -3 991 86 10000 3.1 270 02:32 13.12.2019
2753 Clouds -3 991 86 10000 3.1 270 02:32 13.12.2019
2754 Clouds -4 990 92 10000 2.1 160 01:40 13.12.2019
2755 Clouds -4 992 58 10000 2.1 0 00:51 13.12.2019
2756 Clouds -4 993 58 10000 1 0 00:32 13.12.2019
2757 Clouds -3 994 80 10000 0.5 0 23:47 12.12.2019
2758 Clouds -4 994 80 10000 2.1 280 23:27 12.12.2019
2759 Clear -4 995 86 10000 1 0 22:59 12.12.2019
2760 Clear -3 998 79 10000 1.5 10 22:41 12.12.2019
2761 Clear -3 998 79 10000 1.5 10 22:22 12.12.2019
2762 Clear -3 997 92 10000 3.1 140 21:56 12.12.2019
2763 Clear -3 997 86 10000 3.1 140 21:38 12.12.2019
2764 Clear -3 997 86 10000 3.1 140 21:20 12.12.2019
2765 Clear -3 997 86 10000 3.1 140 21:20 12.12.2019
2766 Clear -3 999 72 10000 2.6 100 20:59 12.12.2019
2767 Clear -3 999 72 10000 2.6 100 20:40 12.12.2019
2768 Clouds -3 999 80 10000 2.6 100 20:22 12.12.2019
2769 Clouds -2 1001 80 10000 1.5 90 19:56 12.12.2019
2770 Clouds -2 1001 80 10000 1.5 90 19:38 12.12.2019
2771 Clouds -2 1001 80 10000 1.5 90 19:20 12.12.2019
2772 Clouds -2 1002 74 10000 3.1 190 18:56 12.12.2019
2773 Clouds -1 1002 74 10000 3.1 190 18:56 12.12.2019
2774 Clouds -1 1002 74 10000 3.1 190 18:38 12.12.2019
2775 Clouds -1 1002 74 10000 3.1 190 18:19 12.12.2019
2776 Clouds -1 1003 74 10000 2.6 180 17:57 12.12.2019
2777 Clouds 0 1003 74 10000 2.6 180 17:38 12.12.2019
2778 Clouds 0 1003 74 10000 2.6 180 17:19 12.12.2019
2779 Clouds 0 1004 74 10000 0.5 0 16:55 12.12.2019
2780 Clouds 1 1004 64 10000 1 0 16:37 12.12.2019
2781 Clouds 1 1004 64 10000 1 0 16:18 12.12.2019
2782 Clouds 1 1002 80 10000 4.6 270 15:54 12.12.2019
2783 Clouds 2 1005 60 10000 3.1 240 15:36 12.12.2019
2784 Clouds 2 1005 60 10000 3.1 240 15:18 12.12.2019
2785 Clouds 2 1006 85 10000 2.6 250 14:38 12.12.2019
2786 Clouds 2 1006 80 10000 2.6 250 14:19 12.12.2019
2787 Snow 2 1003 86 8000 6.7 270 13:57 12.12.2019
2788 Snow 2 1004 86 4000 6.7 270 13:38 12.12.2019
2789 Snow 2 1004 86 4000 6.7 270 13:20 12.12.2019
2790 Clouds 2 1007 75 10000 3.1 270 12:57 12.12.2019
2791 Clouds 1 1007 75 10000 1 0 12:38 12.12.2019
2792 Clouds 1 1002 86 7000 4.1 30 12:19 12.12.2019
2793 Clouds 1 1002 86 7000 4.1 30 12:19 12.12.2019
2794 Clouds 1 1007 93 10000 1 0 11:54 12.12.2019
2795 Rain 1 1005 80 8000 3.1 220 11:36 12.12.2019
2796 Rain 1 1005 92 8000 3.1 220 11:18 12.12.2019
2797 Drizzle 1 1008 93 10000 1.5 110 10:41 12.12.2019
2798 Rain 1 1005 92 5000 4.1 250 10:23 12.12.2019
2799 Rain 1 1005 92 5000 4.1 250 10:23 12.12.2019
2800 Rain 0 1008 100 10000 2.1 90 09:59 12.12.2019
2801 Rain 1 1008 100 10000 2.1 90 09:59 12.12.2019
2802 Rain 0 1008 100 10000 2.1 90 09:41 12.12.2019
2803 Clouds 1 1007 93 10000 1 0 09:23 12.12.2019
2804 Clouds 1 1007 93 10000 1 0 09:23 12.12.2019
2805 Clouds 1 1007 86 10000 2.1 130 08:55 12.12.2019
2806 Rain 1 1007 86 10000 2.1 100 08:37 12.12.2019
2807 Rain 1 1007 86 10000 2.1 100 08:18 12.12.2019
2808 Rain 1 1007 86 10000 2.1 170 07:41 12.12.2019
2809 -273 0 0 0 0 0 07:23 12.12.2019
2810 Drizzle 1 1007 93 10000 2.6 190 06:44 12.12.2019
2811 Drizzle 1 1007 86 10000 3.1 170 06:24 12.12.2019
2812 Clouds 1 1007 93 10000 0.5 0 05:36 12.12.2019
2813 Clouds 1 1007 100 10000 0.5 0 04:51 12.12.2019
2814 Rain 1 1008 93 10000 2.6 120 03:20 12.12.2019
2815 Rain 1 1008 100 7000 1.5 120 02:37 12.12.2019
2816 Rain 1 1008 100 7000 1.5 120 02:19 12.12.2019
2817 Rain 1 1008 100 7000 1 0 01:37 12.12.2019
2818 Rain 1 1008 100 7000 1 0 01:18 12.12.2019
2819 Snow 1 1007 100 10000 6.7 230 00:40 12.12.2019
2820 Clouds 1 1009 93 10000 1 0 00:18 12.12.2019
2821 Clouds 2 1009 86 10000 2.1 150 23:42 11.12.2019
2822 Rain 2 1010 93 10000 2.1 120 23:20 11.12.2019
2823 Rain 1 1010 93 10000 2.6 130 22:57 11.12.2019
2824 Rain 1 1010 93 10000 1.5 120 22:38 11.12.2019
2825 Rain 2 1010 93 10000 1.5 120 22:19 11.12.2019
2826 Clouds 2 1011 93 10000 2.1 130 21:57 11.12.2019
2827 Rain 2 1011 93 10000 2.6 120 21:37 11.12.2019
2828 Rain 2 1011 93 10000 2.6 120 21:37 11.12.2019
2829 Rain 2 1011 93 10000 2.6 120 21:19 11.12.2019
2830 Rain 2 1011 93 10000 2.6 120 21:19 11.12.2019
2831 Rain 1 1011 86 10000 1 0 20:55 11.12.2019
2832 Drizzle 2 1011 86 10000 1 160 20:37 11.12.2019
2833 Drizzle 2 1011 86 10000 1 160 20:18 11.12.2019
2834 Clouds 2 1010 86 10000 1.5 120 19:55 11.12.2019
2835 Clouds 1 1010 86 10000 1 0 19:36 11.12.2019
2836 Clouds 1 1010 86 10000 1 0 19:18 11.12.2019
2837 Clouds 1 1010 93 10000 1 0 18:40 11.12.2019
2838 Clouds 1 1010 42 10000 0.5 0 18:21 11.12.2019
2839 Clouds 1 1009 42 10000 1 0 17:57 11.12.2019
2840 Clouds 1 1009 42 10000 1 260 17:38 11.12.2019
2841 Clouds 1 1009 38 10000 1 260 17:18 11.12.2019
2842 Clouds 1 1010 38 10000 1 0 16:56 11.12.2019
2843 Clouds 1 1010 38 10000 1 0 16:37 11.12.2019
2844 Clouds 1 1010 38 10000 1 0 16:37 11.12.2019
2845 Clouds 2 1010 38 10000 1 0 16:19 11.12.2019
2846 Clouds 2 1010 38 10000 1 0 15:57 11.12.2019
2847 Clouds 2 1010 38 10000 1 0 15:37 11.12.2019
2848 Clouds 2 1010 38 10000 1 0 15:19 11.12.2019
2849 Clouds 2 1011 38 10000 1 0 14:55 11.12.2019
2850 Clouds 2 1011 38 10000 1 0 14:37 11.12.2019
2851 Clouds 2 1011 32 10000 1 0 14:18 11.12.2019
2852 Clouds 3 1012 32 10000 2.1 290 13:43 11.12.2019
2853 Clouds 2 1012 32 10000 2.1 290 13:23 11.12.2019
2854 Clouds 2 1014 32 10000 0.81 154 12:58 11.12.2019
2855 Clouds 2 1014 80 10000 0.81 154 12:39 11.12.2019
2856 Clouds 1 1014 80 10000 0.81 154 12:21 11.12.2019
2857 Clouds 1 1014 86 10000 1 90 11:58 11.12.2019
2858 Clouds 0 1015 32 10000 0.5 0 11:39 11.12.2019
2859 Clouds 0 1015 25 10000 0.5 0 11:19 11.12.2019
2860 Clouds 0 1015 92 10000 1 90 10:59 11.12.2019
2861 Clouds -1 1015 86 10000 1.5 90 10:39 11.12.2019
2862 Clouds -1 1015 86 10000 1.5 90 10:21 11.12.2019
2863 Clouds -1 1016 86 10000 1.5 90 09:56 11.12.2019
2864 Clouds -2 1016 92 10000 1.5 130 09:38 11.12.2019
2865 Clouds -2 1016 92 10000 1 0 09:19 11.12.2019
2866 Clouds -3 1016 92 10000 1 0 08:55 11.12.2019
2867 Clouds -3 1017 92 10000 1 0 08:36 11.12.2019
2868 Clouds -4 1017 92 10000 1 0 08:18 11.12.2019
2869 Clouds -4 1017 100 10000 1.5 100 07:42 11.12.2019
2870 Clouds -4 1017 100 10000 1.5 100 07:22 11.12.2019
2871 Clouds -4 1017 92 10000 1 0 06:46 11.12.2019
2872 Clouds -4 1017 92 10000 1 190 06:24 11.12.2019
2873 Clouds -5 1018 92 10000 1 210 05:53 11.12.2019
2874 Clouds -4 1018 100 10000 0.5 0 05:28 11.12.2019
2875 Clear -4 1018 86 10000 1 0 04:48 11.12.2019
2876 Clear -4 1020 92 10000 1 180 03:18 11.12.2019
2877 Clear -4 1021 92 10000 0.5 0 02:31 11.12.2019
2878 Clear -4 1022 92 10000 1.5 0 01:21 11.12.2019
2879 Clear -4 1023 86 10000 1 0 00:37 11.12.2019
2880 Clear -4 1023 86 10000 1 0 00:18 11.12.2019
2881 Clear -4 1023 74 10000 1 140 23:43 10.12.2019
2882 Clear -4 1023 79 10000 2.1 110 23:22 10.12.2019
2883 Clear -3 1023 86 10000 1 130 22:42 10.12.2019
2884 Clear -3 1023 86 10000 1 0 22:24 10.12.2019
2885 Clear -3 1023 86 10000 0.5 0 21:59 10.12.2019
2886 Clear -3 1023 86 10000 0.5 0 21:41 10.12.2019
2887 Clear -3 1021 79 10000 2.1 20 21:22 10.12.2019
2888 Clear -3 1023 86 10000 1 180 20:59 10.12.2019
2889 Clear -3 1021 73 10000 5.7 20 20:38 10.12.2019
2890 Clear -3 1021 73 10000 5.7 20 20:38 10.12.2019
2891 Clear -3 1021 73 10000 5.7 20 20:38 10.12.2019
2892 Clear -3 1021 73 10000 5.7 20 20:38 10.12.2019
2893 Clear -3 1021 73 10000 5.7 20 20:38 10.12.2019
2894 Clear -3 1021 73 10000 5.7 20 20:20 10.12.2019
2895 Clear -3 1024 92 10000 2.6 150 19:58 10.12.2019
2896 Clear -2 1024 55 10000 1.5 0 19:40 10.12.2019
2897 Clear -2 1024 64 10000 4.6 40 19:22 10.12.2019
2898 Clear -2 1024 64 10000 4.6 40 18:56 10.12.2019
2899 Clear -1 1026 69 10000 1.5 110 18:38 10.12.2019
2900 Clear -1 1026 69 10000 1.5 110 18:18 10.12.2019
2901 Clear -1 1026 69 10000 1.5 110 17:54 10.12.2019
2902 Clouds -1 1026 69 10000 1.5 0 17:36 10.12.2019
2903 Clouds -1 1026 69 10000 1.5 0 17:18 10.12.2019
2904 Clear 0 1026 69 10000 1.5 190 16:41 10.12.2019
2905 Clouds 1 1027 69 10000 1.5 100 16:19 10.12.2019
2906 Clouds 1 1027 56 10000 2.1 130 15:40 10.12.2019
2907 Clouds 2 1027 60 10000 2.1 120 15:19 10.12.2019
2908 Clouds 2 1027 56 10000 1.5 0 14:57 10.12.2019
2909 Clouds 2 1028 60 10000 1.5 0 14:38 10.12.2019
2910 Clouds 3 1028 60 10000 1.5 0 14:20 10.12.2019
2911 Clouds 3 1028 64 10000 1 0 13:58 10.12.2019
2912 Clouds 2 1028 64 10000 1 0 13:40 10.12.2019
2913 Clouds 2 1028 64 10000 0.5 0 13:20 10.12.2019
2914 Clouds 2 1028 65 10000 0.5 0 12:49 10.12.2019
2915 Clouds 2 1028 60 10000 1 0 12:28 10.12.2019
2916 Clouds 2 1028 65 10000 1.5 0 11:59 10.12.2019
2917 Clouds 2 1029 64 10000 2.1 230 11:40 10.12.2019
2918 Clouds 2 1029 64 10000 2.1 230 11:21 10.12.2019
2919 Clouds 1 1028 69 10000 2.6 260 10:43 10.12.2019
2920 Clouds 1 1028 74 10000 2.1 260 10:24 10.12.2019
2921 Rain 1 1028 69 10000 2.6 260 09:57 10.12.2019
2922 Rain 1 1026 86 10000 4.1 290 09:39 10.12.2019
2923 Rain 1 1025 95 10000 6.7 320 09:20 10.12.2019
2924 Rain 1 1027 95 10000 2.6 250 08:58 10.12.2019
2925 Rain 1 1027 69 10000 3.6 320 08:39 10.12.2019
2926 Rain 1 1027 69 10000 3.6 320 08:20 10.12.2019
2927 Rain 1 1026 69 10000 4.6 310 07:45 10.12.2019
2928 Rain 1 1026 69 10000 5.1 310 07:27 10.12.2019
2929 Rain 1 1025 98 10000 5.7 290 06:55 10.12.2019
2930 Clouds 1 1025 69 10000 4.6 290 06:37 10.12.2019
2931 Clouds 1 1025 69 10000 4.6 290 06:19 10.12.2019
2932 Clouds 1 1024 69 10000 6.2 310 05:47 10.12.2019
2933 Rain 2 1022 80 10000 7.2 300 04:23 10.12.2019
2934 Rain 2 1020 86 10000 5.7 260 03:24 10.12.2019
2935 Rain 2 1018 93 10000 6.2 260 01:56 10.12.2019
2936 Rain 2 1017 86 10000 6.7 260 01:28 10.12.2019
2937 Rain 2 1017 86 10000 5.7 260 00:58 10.12.2019
2938 Rain 2 1016 81 10000 5.1 260 00:26 10.12.2019
2939 Rain 3 1015 81 10000 4.6 260 23:58 09.12.2019
2940 Rain 3 1015 81 10000 4.6 260 23:39 09.12.2019
2941 Rain 3 1015 81 10000 4.6 260 23:39 09.12.2019
2942 Rain 3 1015 81 10000 4.6 260 23:20 09.12.2019
2943 Drizzle 3 1014 81 10000 5.1 270 22:56 09.12.2019
2944 Rain 3 1014 81 10000 5.1 260 22:38 09.12.2019
2945 Rain 3 1014 81 10000 5.1 260 22:18 09.12.2019
2946 Rain 3 1013 81 10000 4.1 260 21:55 09.12.2019
2947 Rain 3 1013 87 10000 4.6 260 21:37 09.12.2019
2948 Rain 3 1013 87 10000 4.6 260 21:18 09.12.2019
2949 Rain 3 1011 81 10000 6.7 250 20:55 09.12.2019
2950 Rain 3 1011 81 10000 6.2 250 20:37 09.12.2019
2951 Rain 3 1011 81 10000 6.2 250 20:37 09.12.2019
2952 Rain 3 1011 81 10000 6.2 250 20:37 09.12.2019
2953 Rain 3 1011 81 10000 6.2 250 20:18 09.12.2019
2954 Rain 3 1009 81 10000 5.7 260 19:54 09.12.2019
2955 Rain 3 1009 81 10000 6.2 270 19:36 09.12.2019
2956 Rain 3 1009 81 10000 6.2 270 19:18 09.12.2019
2957 Rain 3 1008 75 10000 3.6 260 18:54 09.12.2019
2958 Rain 3 1008 75 10000 3.6 260 18:54 09.12.2019
2959 Rain 4 1008 81 10000 2.6 0 18:36 09.12.2019
2960 Rain 4 1008 81 10000 2.6 0 18:18 09.12.2019
2961 Rain 4 1006 80 10000 7.7 230 17:54 09.12.2019
2962 Rain 4 1007 65 10000 2.6 0 17:36 09.12.2019
2963 Rain 4 1007 65 10000 2.6 0 17:18 09.12.2019
2964 Rain 5 1007 65 10000 3.1 240 16:54 09.12.2019
2965 Rain 5 1007 75 10000 4.6 220 16:36 09.12.2019
2966 Rain 5 1007 75 10000 4.6 220 16:18 09.12.2019
2967 Rain 5 1007 75 10000 4.6 220 15:54 09.12.2019
2968 Rain 5 1004 60 10000 14.4 280 15:36 09.12.2019
2969 Rain 5 1004 60 10000 14.4 280 15:18 09.12.2019
2970 Rain 6 1007 81 10000 3.6 230 14:41 09.12.2019
2971 Rain 7 1006 57 10000 4.6 250 14:18 09.12.2019
2972 Rain 7 1006 57 10000 4.6 250 13:56 09.12.2019
2973 Rain 8 1006 53 10000 4.1 300 13:37 09.12.2019
2974 Rain 8 1006 53 10000 4.1 300 13:19 09.12.2019
2975 Clouds 8 1007 61 10000 3.1 230 12:55 09.12.2019
2976 Clouds 8 1007 61 10000 3.1 230 12:55 09.12.2019
2977 Clouds 8 1007 50 10000 3.1 230 12:37 09.12.2019
2978 Clouds 8 1007 50 10000 3.1 230 12:18 09.12.2019
2979 Clouds 7 1007 50 10000 3.1 230 11:40 09.12.2019
2980 Clouds 7 1007 53 10000 5.1 250 11:22 09.12.2019
2981 Clouds 6 1007 53 10000 5.1 250 10:59 09.12.2019
2982 Snow 6 1005 75 10000 9.8 230 10:39 09.12.2019
2983 Clouds 6 1007 57 10000 4.6 240 10:19 09.12.2019
2984 Clouds 6 1007 57 10000 4.6 240 10:19 09.12.2019
2985 Clouds 5 1007 57 10000 4.6 240 09:46 09.12.2019
2986 Clouds 5 1008 65 10000 4.6 250 09:25 09.12.2019
2987 Clouds 5 1008 65 10000 4.6 250 08:57 09.12.2019
2988 Clouds 5 1008 65 10000 4.6 250 08:39 09.12.2019
2989 Rain 5 1008 65 10000 3.1 250 08:21 09.12.2019
2990 Clouds 5 1008 75 10000 3.1 250 07:52 09.12.2019
2991 Clouds 5 1009 65 10000 5.7 260 07:33 09.12.2019
2992 Clouds 5 1009 65 10000 5.7 260 07:33 09.12.2019
2993 Clouds 5 1009 61 10000 5.7 260 06:58 09.12.2019
2994 Snow 5 1008 65 10000 5.1 270 06:31 09.12.2019
2995 Snow 5 1009 70 10000 2.6 290 05:48 09.12.2019
2996 Snow 5 1009 70 10000 2.6 290 05:48 09.12.2019
2997 Rain 5 1009 75 10000 2.1 250 05:23 09.12.2019
2998 Rain 6 1009 87 10000 1.5 0 04:28 09.12.2019
2999 Clouds 7 1009 58 10000 4.6 250 02:29 09.12.2019
3000 Snow 7 1008 71 10000 7.2 250 01:47 09.12.2019
3001 Clouds 7 1009 87 10000 1 0 00:58 09.12.2019
3002 Clouds 7 1009 87 10000 2.1 120 00:33 09.12.2019
3003 Rain 7 1009 75 10000 1.5 110 23:55 08.12.2019
3004 Clouds 7 1009 81 10000 0.5 0 23:37 08.12.2019
3005 Clouds 7 1009 81 10000 0.5 0 23:19 08.12.2019
3006 Clouds 7 1009 70 10000 0.5 0 22:56 08.12.2019
3007 Clouds 7 1009 81 10000 1.5 0 22:38 08.12.2019
3008 Clouds 7 1009 81 10000 1.5 0 22:18 08.12.2019
3009 Clouds 7 1009 81 10000 1.5 0 22:18 08.12.2019
3010 Clouds 7 1009 66 10000 1 0 21:55 08.12.2019
3011 Clouds 7 1009 61 10000 1.5 0 21:37 08.12.2019
3012 Clouds 7 1009 61 10000 1.5 0 21:19 08.12.2019
3013 Clouds 7 1009 65 10000 3.1 100 20:55 08.12.2019
3014 Clouds 7 1009 65 10000 3.1 100 20:37 08.12.2019
3015 Clouds 7 1009 65 10000 3.1 100 20:18 08.12.2019
3016 Clouds 7 1010 80 10000 1 0 19:55 08.12.2019
3017 Clouds 6 1010 80 10000 1 0 19:36 08.12.2019
3018 Clouds 6 1010 80 10000 1 0 19:18 08.12.2019
3019 Clouds 6 1011 80 10000 1.5 90 18:54 08.12.2019
3020 Clouds 6 1011 80 10000 1 0 18:36 08.12.2019
3021 Clouds 6 1011 80 10000 1 0 18:18 08.12.2019
3022 Clouds 6 1012 65 10000 1 0 17:54 08.12.2019
3023 Clouds 6 1012 65 10000 1 0 17:36 08.12.2019
3024 Clouds 6 1012 65 10000 1 0 17:18 08.12.2019
3025 Clouds 7 1012 61 10000 1.5 130 16:42 08.12.2019
3026 Clouds 7 1012 61 10000 1.5 130 16:23 08.12.2019
3027 Clouds 8 1013 53 10000 2.6 120 15:58 08.12.2019
3028 Clouds 8 1013 66 10000 0.5 0 15:37 08.12.2019
3029 Clouds 8 1013 66 10000 0.5 0 15:18 08.12.2019
3030 Clouds 8 1014 62 10000 2.6 100 14:46 08.12.2019
3031 Clouds 8 1014 62 10000 2.6 100 14:25 08.12.2019
3032 Clouds 8 1015 66 10000 2.6 100 13:59 08.12.2019
3033 Clouds 8 1015 66 10000 2.6 100 13:40 08.12.2019
3034 Clouds 8 1015 66 10000 2.6 100 13:22 08.12.2019
3035 Clouds 8 1015 66 10000 2.1 90 12:59 08.12.2019
3036 Clouds 8 1013 70 10000 9.8 230 12:39 08.12.2019
3037 Clouds 8 1016 70 10000 2.1 90 12:19 08.12.2019
3038 Clouds 8 1017 70 10000 2.1 90 11:57 08.12.2019
3039 Clouds 7 1017 75 10000 2.1 90 11:37 08.12.2019
3040 Clouds 6 1017 75 10000 2.1 90 11:19 08.12.2019
3041 Clouds 6 1017 75 10000 2.1 90 10:55 08.12.2019
3042 Clouds 5 1017 86 10000 2.1 90 10:36 08.12.2019
3043 Clouds 5 1017 86 10000 2.1 90 10:36 08.12.2019
3044 Clouds 4 1017 86 10000 2.1 90 10:18 08.12.2019
3045 Clouds 4 1017 93 10000 1.5 120 09:54 08.12.2019
3046 Clouds 3 1017 100 10000 1.5 0 09:36 08.12.2019
3047 Clouds 3 1017 100 10000 1.5 0 09:18 08.12.2019
3048 Clouds 2 1017 55 10000 1 0 08:41 08.12.2019
3049 Clear 2 1017 100 10000 0.5 0 08:22 08.12.2019
3050 Clear 2 1017 52 10000 1.5 130 07:49 08.12.2019
3051 Clear 2 1017 93 10000 1 120 07:21 08.12.2019
3052 Clear 2 1017 52 10000 1 0 06:58 08.12.2019
3053 Clear 2 1016 86 10000 5.7 210 06:38 08.12.2019
3054 Clear 2 1017 100 10000 2.1 80 06:18 08.12.2019
3055 Clouds 2 1018 93 10000 1 0 05:22 08.12.2019
3056 Clouds 3 1018 93 10000 1.5 0 04:20 08.12.2019
3057 Clouds 3 1020 74 10000 3.1 20 03:38 08.12.2019
3058 Clouds 3 1019 100 10000 1.5 0 02:41 08.12.2019
3059 Clouds 3 1019 93 10000 0.5 0 02:19 08.12.2019
3060 Clouds 4 1020 87 10000 1.5 0 01:34 08.12.2019
3061 Clouds 4 1020 93 10000 1 120 00:52 08.12.2019
3062 Clouds 4 1020 93 10000 1 0 00:21 08.12.2019
3063 Clouds 4 1020 93 10000 1.5 120 23:57 07.12.2019
3064 Clouds 5 1021 93 10000 1 0 23:36 07.12.2019
3065 Clouds 5 1021 93 10000 1 0 23:18 07.12.2019
3066 Clouds 5 1021 93 10000 1.5 0 22:54 07.12.2019
3067 Clouds 5 1021 93 10000 1 140 22:36 07.12.2019
3068 Clouds 6 1021 93 10000 1 140 22:18 07.12.2019
3069 Clouds 5 1021 93 10000 0.5 0 21:55 07.12.2019
3070 Clouds 5 1021 93 10000 0.5 0 21:36 07.12.2019
3071 Clouds 5 1021 93 10000 0.5 0 21:18 07.12.2019
3072 Clouds 5 1021 93 10000 0.5 0 20:38 07.12.2019
3073 Clouds 5 1021 93 10000 0.5 0 20:20 07.12.2019
3074 Clouds 5 1020 87 10000 0.5 0 19:57 07.12.2019
3075 Clouds 5 1019 86 10000 4.6 220 19:39 07.12.2019
3076 Clouds 5 1020 93 10000 1 0 19:21 07.12.2019
3077 Clouds 5 1020 93 10000 1.5 0 18:58 07.12.2019
3078 Clouds 5 1020 93 10000 1.5 0 18:39 07.12.2019
3079 Clouds 6 1020 93 10000 1.5 0 18:18 07.12.2019
3080 Clouds 6 1020 93 10000 1 0 17:55 07.12.2019
3081 Drizzle 6 1020 87 10000 0.5 0 17:37 07.12.2019
3082 Drizzle 6 1020 87 10000 0.5 0 17:18 07.12.2019
3083 Clouds 6 1019 87 10000 0.5 0 16:55 07.12.2019
3084 Clouds 6 1019 93 10000 0.5 0 16:36 07.12.2019
3085 Clouds 6 1019 93 10000 0.5 0 16:18 07.12.2019
3086 Rain 6 1019 87 10000 2.1 130 15:40 07.12.2019
3087 Rain 7 1019 87 10000 3.1 130 15:22 07.12.2019
3088 Rain 7 1019 93 10000 2.6 120 14:43 07.12.2019
3089 Clouds 7 1019 93 10000 2.1 100 14:20 07.12.2019
3090 Rain 7 1019 87 10000 1.5 0 13:59 07.12.2019
3091 Clouds 7 1017 81 10000 7.7 240 13:39 07.12.2019
3092 Rain 7 1019 93 10000 0.5 0 13:19 07.12.2019
3093 Rain 7 1020 93 10000 2.1 120 12:55 07.12.2019
3094 Rain 7 1019 81 10000 1 0 12:36 07.12.2019
3095 Rain 7 1019 81 10000 1 0 12:18 07.12.2019
3096 Clouds 7 1019 75 10000 2.1 100 11:41 07.12.2019
3097 Rain 6 1019 81 10000 1.5 110 11:23 07.12.2019
3098 Rain 6 1019 81 10000 1 0 10:54 07.12.2019
3099 Clouds 6 1019 70 10000 1 0 10:36 07.12.2019
3100 Clouds 6 1019 70 10000 1 0 10:18 07.12.2019
3101 Rain 6 1017 81 10000 6.7 240 09:39 07.12.2019
3102 Rain 6 1017 81 10000 6.7 240 09:21 07.12.2019
3103 Rain 6 1018 61 10000 3.1 250 08:45 07.12.2019
3104 Rain 5 1017 70 10000 2.6 250 08:24 07.12.2019
3105 Rain 5 1017 70 10000 2.6 250 08:24 07.12.2019
3106 Rain 5 1017 70 10000 2.1 100 07:49 07.12.2019
3107 Rain 5 1017 65 10000 2.1 100 07:28 07.12.2019
3108 Rain 5 1015 75 10000 6.2 240 06:52 07.12.2019
3109 Rain 5 1015 75 10000 7.7 230 06:26 07.12.2019
3110 Snow 5 1015 70 10000 9.3 220 05:47 07.12.2019
3111 Clouds 5 1015 75 10000 8.2 220 04:43 07.12.2019
3112 Clouds 4 1017 70 10000 1.5 0 03:50 07.12.2019
3113 Clouds 4 1017 93 10000 1 0 02:22 07.12.2019
3114 Rain 4 1017 86 10000 0.5 0 01:41 07.12.2019
3115 Clouds 4 1017 93 10000 2.1 250 01:22 07.12.2019
3116 Clouds 4 1017 100 10000 1 0 00:21 07.12.2019
3117 Clouds 3 1017 56 10000 0.5 0 23:57 06.12.2019
3118 Clouds 3 1017 56 10000 0.5 0 23:57 06.12.2019
3119 Clouds 3 1017 56 10000 0.5 0 23:39 06.12.2019
3120 Clouds 3 1017 56 10000 0.5 0 23:39 06.12.2019
3121 Clouds 3 1017 45 10000 0.5 0 23:19 06.12.2019
3122 Clouds 2 1017 92 10000 1 0 22:39 06.12.2019
3123 Clouds 2 1017 45 9000 1 0 22:21 06.12.2019
3124 Clouds 2 1017 100 10000 1 130 21:58 06.12.2019
3125 Clouds 2 1018 100 8000 1 290 21:40 06.12.2019
3126 Clouds 2 1018 100 8000 1 290 21:40 06.12.2019
3127 Clouds 2 1018 100 8000 1 290 21:20 06.12.2019
3128 Clouds 2 1017 100 8000 1.5 100 20:46 06.12.2019
3129 Clear 2 1017 100 8000 0.5 0 20:26 06.12.2019
3130 Clear 2 1017 92 8000 2.1 110 19:59 06.12.2019
3131 Clear 2 1018 100 8000 0.5 0 19:40 06.12.2019
3132 Clear 2 1018 100 8000 0.5 0 19:22 06.12.2019
3133 Clear 2 1018 49 8000 0.5 0 18:58 06.12.2019
3134 Clear 1 1018 49 8000 0.5 0 18:40 06.12.2019
3135 Clear 2 1018 49 8000 3.1 100 18:20 06.12.2019
3136 Clear 2 1018 49 6000 3.6 110 17:57 06.12.2019
3137 Fog 2 1018 49 1000 2.6 110 17:39 06.12.2019
3138 Fog 3 1018 55 1000 2.6 110 17:20 06.12.2019
3139 Fog 3 1019 55 150 1 0 16:55 06.12.2019
3140 Fog 4 1019 55 150 1 0 16:37 06.12.2019
3141 Clear 4 1021 59 10000 2.35 190 16:18 06.12.2019
3142 Clear 5 1017 60 10000 6.2 220 15:41 06.12.2019
3143 Mist 5 1019 55 1300 1 0 15:19 06.12.2019
3144 Mist 5 1019 55 1300 1 0 14:57 06.12.2019
3145 Clear 5 1021 51 10000 1 200 14:39 06.12.2019
3146 Clear 5 1021 51 10000 1 200 14:19 06.12.2019
3147 Mist 5 1020 54 1700 1 0 13:44 06.12.2019
3148 Mist 5 1021 54 1500 1 0 13:26 06.12.2019
3149 Mist 4 1021 54 3100 1 0 12:44 06.12.2019
3150 Clouds 5 1018 36 10000 3.1 250 12:23 06.12.2019
3151 Fog 4 1022 54 1400 1.5 70 11:58 06.12.2019
3152 Fog 3 1022 54 1400 1.5 70 11:40 06.12.2019
3153 Fog 2 1022 44 550 1 0 11:22 06.12.2019
3154 Fog 1 1022 100 350 2.1 100 10:44 06.12.2019
3155 Fog 1 1022 100 350 2.1 100 10:22 06.12.2019
3156 Fog 1 1022 100 350 2.1 100 09:59 06.12.2019
3157 Clear 1 1020 74 10000 7.2 230 09:38 06.12.2019
3158 Fog 1 1022 92 250 1.5 80 09:20 06.12.2019
3159 Fog 0 1022 100 300 2.1 80 08:55 06.12.2019
3160 Fog 0 1022 92 500 3.1 100 08:36 06.12.2019
3161 Fog -1 1022 92 500 3.1 100 08:18 06.12.2019
3162 Fog -1 1022 100 500 2.6 100 07:36 06.12.2019
3163 Fog -1 1022 100 500 2.6 100 07:18 06.12.2019
3164 Fog -1 1022 100 400 2.1 130 06:30 06.12.2019
3165 Fog -1 1022 100 300 2.1 100 05:54 06.12.2019
3166 Fog -1 1022 40 400 1.5 100 05:34 06.12.2019
3167 Fog -1 1023 100 700 1.5 100 02:19 06.12.2019
3168 Fog -1 1023 100 700 1.5 100 02:19 06.12.2019
3169 Mist -1 1023 100 3100 2.6 80 01:34 06.12.2019
3170 Mist -1 1023 42 3000 1.5 0 00:46 06.12.2019
3171 Mist -1 1023 42 2400 2.1 90 00:21 06.12.2019
3172 Mist -1 1023 42 1600 2.1 110 23:47 05.12.2019
3173 Fog -1 1023 45 700 1 110 23:19 05.12.2019
3174 Fog 0 1024 45 750 1 0 22:57 05.12.2019
3175 Fog -1 1024 100 800 1.5 70 22:38 05.12.2019
3176 Fog -1 1024 100 800 1.5 70 22:18 05.12.2019
3177 Fog -1 1024 100 1000 3.1 90 21:44 05.12.2019
3178 Mist 0 1024 45 4500 2.6 100 21:25 05.12.2019
3179 Mist -1 1024 45 4500 2.6 100 20:59 05.12.2019
3180 Mist 0 1024 45 4500 2.6 100 20:40 05.12.2019
3181 Mist 0 1024 51 4500 1.5 120 20:21 05.12.2019
3182 Mist 0 1022 100 2500 4.6 250 19:58 05.12.2019
3183 Mist 0 1022 100 2500 4.6 250 19:58 05.12.2019
3184 Mist 0 1022 100 2500 4.6 250 19:58 05.12.2019
3185 Mist 0 1024 93 4500 1.5 120 19:40 05.12.2019
3186 Mist 0 1023 51 4500 1.5 0 19:20 05.12.2019
3187 Mist 0 1023 93 4500 1.5 0 18:57 05.12.2019
3188 Mist 0 1023 93 4500 1.5 0 18:37 05.12.2019
3189 Clouds 0 1023 93 6000 2.1 110 18:19 05.12.2019
3190 Clouds 0 1023 100 6000 2.1 110 17:39 05.12.2019
3191 Mist 1 1022 100 4500 1.5 200 17:20 05.12.2019
3192 Mist 2 1022 100 4500 1.5 200 16:57 05.12.2019
3193 Mist 2 1022 100 4500 1.5 200 16:39 05.12.2019
3194 Mist 2 1022 100 4500 1.5 200 16:21 05.12.2019
3195 Mist 2 1022 100 4500 1.5 200 16:21 05.12.2019
3196 Clear 2 1021 62 9000 1.5 310 15:56 05.12.2019
3197 Mist 2 1022 62 4500 0.5 0 15:38 05.12.2019
3198 Mist 3 1022 62 4500 0.5 0 15:19 05.12.2019
3199 Clear 3 1020 62 10000 1.5 290 14:55 05.12.2019
3200 Mist 3 1022 93 4500 2.1 60 14:37 05.12.2019
3201 Mist 3 1022 93 4500 2.1 60 14:37 05.12.2019
3202 Mist 4 1022 93 4500 2.1 60 14:18 05.12.2019
3203 Mist 4 1023 93 4500 1 0 13:56 05.12.2019
3204 Mist 4 1023 93 4500 1 0 13:38 05.12.2019
3205 Mist 4 1023 54 4500 1 0 13:19 05.12.2019
3206 Mist 4 1023 54 4500 1 0 13:19 05.12.2019
3207 Mist 5 1023 54 4500 1 0 12:55 05.12.2019
3208 Mist 5 1023 54 4500 1 0 12:37 05.12.2019
3209 Mist 4 1023 54 4500 2.6 80 12:19 05.12.2019
3210 Mist 3 1023 54 4500 2.6 80 11:39 05.12.2019
3211 Mist 0 1023 41 4600 3.1 80 11:20 05.12.2019
3212 Clear 0 1021 92 10000 2.1 280 10:57 05.12.2019
3213 Mist 0 1023 41 4600 3.1 80 10:38 05.12.2019
3214 Mist -1 1023 41 4600 3.1 90 10:18 05.12.2019
3215 Mist 1 1023 41 4600 3.1 90 09:46 05.12.2019
3216 Clouds 0 1023 41 5000 1.5 110 09:24 05.12.2019
3217 Clouds 0 1023 41 5000 1.5 110 08:59 05.12.2019
3218 Clouds 0 1023 41 5000 1.5 0 08:39 05.12.2019
3219 Clouds -2 1022 38 6000 1 0 08:20 05.12.2019
3220 Clouds -2 1022 38 6000 1.5 0 07:50 05.12.2019
3221 Clouds -2 1022 38 6000 1.5 0 07:32 05.12.2019
3222 Clouds -2 1022 38 6000 1 0 06:58 05.12.2019
3223 Clouds -2 1022 38 6000 1 0 06:40 05.12.2019
3224 Clouds -2 1022 38 6000 1.5 130 06:19 05.12.2019
3225 Clouds -2 1022 38 6000 1 0 05:47 05.12.2019
3226 Clouds -2 1022 39 6000 0.5 0 05:23 05.12.2019
3227 Clouds -2 1022 39 7000 2.1 200 04:20 05.12.2019
3228 Clouds -2 1022 39 7000 2.1 200 04:20 05.12.2019
3229 Clouds -2 1022 39 7000 1 0 02:43 05.12.2019
3230 Clear -2 1020 92 3400 4.1 220 02:24 05.12.2019
3231 Clouds -2 1021 86 7000 1 190 01:52 05.12.2019
3232 Clouds -2 1021 86 7000 1.5 0 01:24 05.12.2019
3233 Clouds -2 1021 39 8000 1 0 00:51 05.12.2019
3234 Clouds -2 1021 39 8000 1 0 00:32 05.12.2019
3235 Clear -2 1019 92 4100 4.6 230 23:57 04.12.2019
3236 Clouds -2 1021 39 8000 3.1 110 23:39 04.12.2019
3237 Clear -2 1019 92 3300 3.6 230 23:21 04.12.2019
3238 Clear -2 1019 92 3300 3.6 230 22:55 04.12.2019
3239 Clouds -2 1021 86 7000 1 0 22:36 04.12.2019
3240 Clouds -2 1021 86 9000 0.5 0 22:18 04.12.2019
3241 Clouds -2 1021 86 9000 0.5 0 22:18 04.12.2019
3242 Clouds -2 1021 86 8000 0.5 0 21:54 04.12.2019
3243 Clouds -2 1021 86 8000 0.5 0 21:36 04.12.2019
3244 Clouds -2 1021 86 8000 2.1 290 21:18 04.12.2019
3245 Clouds -2 1021 86 8000 1 0 20:54 04.12.2019
3246 Clouds -2 1021 86 8000 1 0 20:36 04.12.2019
3247 Clouds -2 1021 86 8000 1 0 20:18 04.12.2019
3248 Clouds -2 1021 86 8000 1 0 20:18 04.12.2019
3249 Clouds -2 1021 86 8000 1 0 20:18 04.12.2019
3250 Clouds -2 1021 86 8000 2.1 310 19:39 04.12.2019
3251 Clouds -2 1021 86 8000 2.1 310 19:39 04.12.2019
3252 Clouds -2 1020 86 8000 1 0 19:21 04.12.2019
3253 Clear -2 1019 100 9000 1 0 18:57 04.12.2019
3254 Clouds -2 1020 86 8000 1 0 18:39 04.12.2019
3255 Clouds -2 1020 86 9000 1.5 330 18:20 04.12.2019
3256 Clouds -1 1020 86 9000 1.5 330 17:40 04.12.2019
3257 Clouds -1 1019 86 7000 1 230 17:22 04.12.2019
3258 Clear 0 1018 86 10000 3.6 40 16:59 04.12.2019
3259 Clouds 0 1019 86 7000 1 230 16:40 04.12.2019
3260 Clouds 0 1019 86 7000 1 230 16:40 04.12.2019
3261 Clouds 0 1019 86 10000 1 0 16:20 04.12.2019
3262 Clear 0 1018 61 10000 3.6 40 15:56 04.12.2019
3263 Clouds 1 1019 80 10000 1 0 15:38 04.12.2019
3264 Clouds 1 1019 80 10000 1 0 15:19 04.12.2019
3265 Clouds 1 1019 86 10000 1 0 14:44 04.12.2019
3266 Clear 1 1019 51 10000 0.5 0 14:24 04.12.2019
3267 Clouds 1 1020 86 10000 1 0 13:59 04.12.2019
3268 Clouds 1 1020 86 10000 1 0 13:38 04.12.2019
3269 Clouds 1 1020 86 10000 1.5 0 13:20 04.12.2019
3270 Clouds 1 1020 86 10000 1.5 0 13:20 04.12.2019
3271 Clouds 1 1021 86 10000 1.5 0 12:45 04.12.2019
3272 Clouds 1 1022 86 10000 1.5 110 12:25 04.12.2019
3273 Mist 1 1020 100 2100 1 0 12:25 04.12.2019
3274 Mist 1 1020 100 2500 1 0 11:58 04.12.2019
3275 Clouds 0 1022 51 10000 1.5 110 11:39 04.12.2019
3276 Clouds -1 1022 40 10000 1.5 0 11:21 04.12.2019
3277 Clouds -2 1022 40 10000 1.5 0 10:44 04.12.2019
3278 Clouds -2 1021 92 9000 1 0 10:24 04.12.2019
3279 Clouds -2 1022 40 10000 1 0 10:24 04.12.2019
3280 Clouds -2 1022 40 10000 1 0 09:57 04.12.2019
3281 Clouds -2 1022 40 10000 1 0 09:39 04.12.2019
3282 Clouds -2 1022 40 10000 1 0 09:39 04.12.2019
3283 Mist -1 1020 92 5000 0.5 280 09:20 04.12.2019
3284 Mist -2 1020 92 3000 1.5 280 08:42 04.12.2019
3285 Mist -5 1021 100 5000 2.1 50 08:23 04.12.2019
3286 Clouds -5 1021 92 7000 1 0 07:51 04.12.2019
3287 Clouds -5 1021 92 7000 1 0 07:30 04.12.2019
3288 Clouds -5 1020 100 6000 2.6 60 06:51 04.12.2019
3289 Clouds -5 1020 100 6000 2.6 60 06:31 04.12.2019
3290 Clear -5 1020 92 7000 2.6 60 05:43 04.12.2019
3291 Clouds -4 1022 92 9000 1 0 04:31 04.12.2019
3292 Clear -4 1022 100 10000 0.5 0 03:20 04.12.2019
3293 Clear -4 1023 100 10000 1 190 01:21 04.12.2019
3294 Clear -4 1024 92 10000 0.5 0 00:40 04.12.2019
3295 -273 0 0 0 0 0 00:18 04.12.2019
3296 Clear -3 1024 92 10000 1 0 23:41 03.12.2019
3297 Clear -3 1024 92 10000 1 0 23:19 03.12.2019
3298 Clear -3 1024 92 10000 0.5 0 22:54 03.12.2019
3299 Clear -3 1024 92 10000 0.5 0 22:36 03.12.2019
3300 Clear -3 1024 92 10000 0.5 0 22:18 03.12.2019
3301 Clear -3 1025 92 10000 1 0 21:39 03.12.2019
3302 Clear -3 1025 92 10000 1 0 21:39 03.12.2019
3303 Clear -3 1025 92 10000 1 0 21:19 03.12.2019
3304 Clear -3 1024 86 10000 3.6 50 20:58 03.12.2019
3305 Clear -3 1025 92 10000 1 0 20:40 03.12.2019
3306 Clear -2 1025 86 10000 1.5 80 20:19 03.12.2019
3307 Clear -2 1025 79 10000 3.1 60 19:55 03.12.2019
3308 Clear -2 1025 79 10000 3.1 60 19:55 03.12.2019
3309 Clear -2 1025 86 10000 1.5 80 19:37 03.12.2019
3310 Clear -1 1025 80 10000 1 140 19:19 03.12.2019
3311 Clear -2 1025 80 10000 1 140 18:57 03.12.2019
3312 Clear -1 1025 80 10000 1 140 18:39 03.12.2019
3313 Clear -1 1025 80 10000 1.5 210 18:20 03.12.2019
3314 Clear -1 1025 80 10000 1.5 210 17:56 03.12.2019
3315 Clear -1 1025 80 10000 1.5 210 17:38 03.12.2019
3316 Clear 0 1025 69 10000 1 180 17:18 03.12.2019
3317 Clear 0 1025 60 10000 2.6 50 16:56 03.12.2019
3318 Clear 0 1025 69 10000 1 180 16:38 03.12.2019
3319 Clear 0 1025 64 10000 0.5 0 16:19 03.12.2019
3320 Clear 0 1025 64 10000 1.5 0 15:54 03.12.2019
3321 Clear 0 1025 64 10000 1.5 0 15:36 03.12.2019
3322 Clear 1 1025 64 10000 1.5 0 15:18 03.12.2019
3323 Clear 1 1026 64 10000 1.5 130 14:41 03.12.2019
3324 Clear 2 1026 64 10000 1.5 0 14:20 03.12.2019
3325 Clear 2 1026 69 10000 1.5 80 13:54 03.12.2019
3326 Clear 2 1026 69 10000 1.5 80 13:36 03.12.2019
3327 Clear 2 1026 74 10000 2.1 110 13:18 03.12.2019
3328 Clear 2 1028 69 10000 1.5 60 12:38 03.12.2019
3329 Clear 2 1028 74 10000 1.5 0 12:18 03.12.2019
3330 Clear 1 1027 80 10000 3.1 60 11:58 03.12.2019
3331 Clear 1 1028 80 10000 1.5 0 11:38 03.12.2019
3332 Clouds 0 1028 86 10000 1.5 90 11:20 03.12.2019
3333 Clear -1 1027 50 10000 1 0 10:57 03.12.2019
3334 Clouds -1 1028 86 10000 1.5 90 10:38 03.12.2019
3335 Clouds -1 1028 50 10000 1.5 90 10:19 03.12.2019
3336 Clouds -2 1028 50 10000 2.1 130 09:45 03.12.2019
3337 Clear -2 1028 92 8000 2.1 20 09:25 03.12.2019
3338 Clear -3 1027 92 8000 1 40 08:59 03.12.2019
3339 Clear -3 1028 92 7000 1 0 08:39 03.12.2019
3340 Clear -4 1028 92 10000 1 0 08:21 03.12.2019
3341 Clear -4 1028 92 10000 1.83 147 07:52 03.12.2019
3342 Clear -4 1028 92 10000 1.83 147 07:29 03.12.2019
3343 Clear -4 1028 92 10000 1.83 147 07:29 03.12.2019
3344 Clear -4 1027 92 10000 1.5 70 06:56 03.12.2019
3345 Clouds -4 1026 85 10000 0.5 0 06:20 03.12.2019
3346 Clear -4 1027 92 8000 1 0 05:54 03.12.2019
3347 Clouds -3 1027 81 10000 1.5 110 03:44 03.12.2019
3348 Clouds -3 1027 86 10000 1.5 110 03:22 03.12.2019
3349 Clouds -2 1027 80 10000 1.5 110 02:53 03.12.2019
3350 Clear -3 1026 92 10000 0.5 0 02:32 03.12.2019
3351 Clouds -2 1027 80 10000 1.5 100 01:59 03.12.2019
3352 Clouds -2 1027 86 10000 1 0 01:39 03.12.2019
3353 Clouds -2 1027 86 10000 1 0 01:19 03.12.2019
3354 Clouds -2 1028 80 10000 1.5 210 00:42 03.12.2019
3355 Clouds -2 1027 100 10000 1 0 00:23 03.12.2019
3356 Clouds -2 1027 100 10000 1 0 00:23 03.12.2019
3357 Clouds -2 1028 74 10000 2.1 50 23:44 02.12.2019
3358 Clouds -1 1027 74 10000 3.1 30 23:22 02.12.2019
3359 Clouds -2 1027 92 8000 1.5 40 22:57 02.12.2019
3360 Clouds -1 1027 74 10000 2.6 20 22:38 02.12.2019
3361 Clouds -1 1027 74 10000 2.1 10 22:20 02.12.2019
3362 Clouds -2 1027 74 10000 1 0 21:39 02.12.2019
3363 Clouds -1 1027 74 10000 2.6 20 21:20 02.12.2019
3364 Clouds -1 1027 74 10000 2.6 20 20:58 02.12.2019
3365 Clouds -1 1027 74 10000 2.6 20 20:39 02.12.2019
3366 Clouds -1 1026 74 10000 1 0 20:20 02.12.2019
3367 Clouds -1 1026 92 10000 1 120 19:59 02.12.2019
3368 Clouds -1 1026 74 10000 1 0 19:41 02.12.2019
3369 Clouds -1 1026 74 10000 2.1 30 19:21 02.12.2019
3370 Clouds 0 1026 74 10000 2.1 30 18:48 02.12.2019
3371 Clouds 0 1025 86 10000 1.5 120 18:25 02.12.2019
3372 Clouds 0 1026 74 10000 2.6 360 17:59 02.12.2019
3373 Clouds 0 1026 74 10000 2.6 360 17:41 02.12.2019
3374 Clouds 0 1025 80 10000 3.1 30 17:21 02.12.2019
3375 Clouds 0 1025 80 10000 3.1 30 17:21 02.12.2019
3376 Clouds 0 1025 80 10000 3.1 30 16:57 02.12.2019
3377 Clouds 0 1025 80 10000 3.1 30 16:39 02.12.2019
3378 Clouds 0 1025 74 10000 3.6 30 16:18 02.12.2019
3379 Clouds 0 1024 96 10000 2.6 20 15:56 02.12.2019
3380 Clouds 1 1025 74 10000 3.6 30 15:38 02.12.2019
3381 Clouds 1 1025 96 10000 2.6 30 15:20 02.12.2019
3382 Clouds 1 1025 96 10000 2.6 30 15:20 02.12.2019
3383 Clouds 1 1025 69 10000 4.1 10 14:55 02.12.2019
3384 Clouds 1 1024 96 10000 3.1 20 14:37 02.12.2019
3385 Clouds 1 1024 89 10000 3.1 360 14:19 02.12.2019
3386 Clouds 1 1024 69 10000 4.1 360 13:54 02.12.2019
3387 Clouds 1 1024 89 10000 3.1 360 13:36 02.12.2019
3388 Clouds 1 1024 86 10000 2.6 340 13:18 02.12.2019
3389 Clouds 1 1022 92 8000 3.1 10 12:41 02.12.2019
3390 Clouds 1 1024 86 10000 2.6 360 12:20 02.12.2019
3391 Clouds 1 1023 91 10000 3.1 20 11:57 02.12.2019
3392 Clouds 1 1023 86 10000 1.5 330 11:37 02.12.2019
3393 Clouds 1 1023 86 10000 1.5 330 11:19 02.12.2019
3394 Clouds 1 1023 86 9000 2.1 340 10:56 02.12.2019
3395 Clouds 1 1023 86 9000 2.1 340 10:38 02.12.2019
3396 Snow 1 1021 92 4000 1.5 350 10:20 02.12.2019
3397 Snow 1 1021 92 3000 1.5 360 09:42 02.12.2019
3398 Rain 1 1022 86 10000 1 0 09:19 02.12.2019
3399 Rain 1 1022 86 10000 1 0 08:58 02.12.2019
3400 Rain 0 1022 86 10000 1 0 08:40 02.12.2019
3401 Clouds 1 1021 93 8000 1 0 08:21 02.12.2019
3402 Clouds 1 1021 93 8000 1 0 07:44 02.12.2019
3403 Clouds 1 1019 98 9000 2.1 350 07:23 02.12.2019
3404 Clouds 1 1019 98 9000 2.1 350 06:57 02.12.2019
3405 Clouds 1 1019 98 9000 2.1 350 06:57 02.12.2019
3406 Rain 1 1020 86 10000 1.5 0 06:38 02.12.2019
3407 Rain 1 1019 93 3800 0.5 0 05:36 02.12.2019
3408 Rain 1 1018 100 3100 1 110 04:40 02.12.2019
3409 Snow 1 1017 99 3400 1 210 02:55 02.12.2019
3410 Rain 1 1018 93 3600 0.5 0 02:31 02.12.2019
3411 Rain 1 1017 93 4300 1.5 280 01:27 02.12.2019
3412 Snow 1 1016 98 4500 1 290 00:58 02.12.2019
3413 Rain 1 1017 93 7000 1 0 00:25 02.12.2019
3414 Rain 2 1017 93 6000 1 270 23:56 01.12.2019
3415 Rain 2 1016 93 9000 1 0 23:37 01.12.2019
3416 Rain 2 1016 93 10000 0.5 0 23:19 01.12.2019
3417 Snow 2 1015 98 8000 1.5 270 22:55 01.12.2019
3418 Drizzle 2 1016 93 10000 0.5 0 22:37 01.12.2019
3419 Clouds 2 1016 93 10000 0.5 0 22:18 01.12.2019
3420 Snow 2 1015 98 10000 0.65 267 21:54 01.12.2019
3421 Clouds 2 1016 93 10000 0.5 130 21:36 01.12.2019
3422 Clouds 2 1016 93 10000 0.5 180 21:18 01.12.2019
3423 Snow 2 1015 98 10000 0.5 0 20:55 01.12.2019
3424 Clouds 2 1016 86 10000 0.5 0 20:37 01.12.2019
3425 Clouds 2 1016 93 10000 1 0 20:19 01.12.2019
3426 Clouds 2 1015 86 10000 1 0 19:54 01.12.2019
3427 Clouds 2 1015 86 10000 1 0 19:36 01.12.2019
3428 Clouds 2 1015 86 10000 1 0 19:18 01.12.2019
3429 Clouds 2 1014 84 10000 1 0 18:54 01.12.2019
3430 Clouds 2 1015 86 10000 2.1 120 18:36 01.12.2019
3431 Clouds 2 1015 86 10000 2.1 120 18:18 01.12.2019
3432 Clouds 2 1015 86 10000 1.5 80 17:42 01.12.2019
3433 Clouds 2 1015 93 10000 1.5 80 17:23 01.12.2019
3434 Clouds 2 1014 82 10000 1.5 360 16:59 01.12.2019
3435 Clouds 2 1015 80 10000 2.6 300 16:41 01.12.2019
3436 Clouds 2 1015 80 10000 2.6 300 16:22 01.12.2019
3437 Clouds 2 1015 86 10000 1 0 15:51 01.12.2019
3438 Clouds 2 1015 86 10000 1 0 15:32 01.12.2019
3439 Clouds 2 1015 86 10000 1 0 15:32 01.12.2019
3440 Clouds 2 1014 82 10000 1.5 40 14:54 01.12.2019
3441 Clouds 2 1015 86 10000 1 0 14:36 01.12.2019
3442 Clouds 2 1015 86 10000 1 0 14:18 01.12.2019
3443 Clouds 2 1015 80 10000 1 0 13:40 01.12.2019
3444 Clouds 2 1015 86 10000 1 0 13:20 01.12.2019
3445 Clouds 2 1015 86 10000 5.1 310 12:44 01.12.2019
3446 Clouds 2 1015 65 10000 5.1 310 11:59 01.12.2019
3447 Clouds 2 1015 86 10000 4.6 300 11:40 01.12.2019
3448 Clouds 1 1015 86 10000 4.6 300 11:22 01.12.2019
3449 Clouds 1 1014 86 10000 2.1 260 10:44 01.12.2019
3450 Clouds 1 1014 93 10000 2.1 260 10:22 01.12.2019
3451 Clouds 0 1013 93 10000 1 0 09:58 01.12.2019
3452 Clouds 0 1013 93 10000 1 0 09:39 01.12.2019
3453 Clouds 0 1013 93 10000 1 0 09:20 01.12.2019
3454 Clouds 0 1013 93 10000 1.5 110 08:47 01.12.2019
3455 Clouds 0 1014 100 10000 1 0 08:20 01.12.2019
3456 Clouds 0 1014 100 10000 3.1 80 07:51 01.12.2019
3457 Clouds -1 1014 100 10000 3.1 80 07:31 01.12.2019
3458 Clouds -1 1014 92 10000 3.6 50 06:57 01.12.2019
3459 Clouds -1 1015 93 10000 1.5 300 06:35 01.12.2019
3460 Clouds -1 1016 100 10000 0.5 0 05:49 01.12.2019
3461 Clouds -1 1016 100 10000 0.5 0 04:51 01.12.2019
3462 Clouds -1 1017 92 10000 2.6 30 03:23 01.12.2019
3463 Clouds -1 1017 93 10000 1.5 0 02:36 01.12.2019
3464 Clouds -1 1018 68 10000 0.5 0 02:18 01.12.2019
3465 Clouds -1 1018 68 10000 0.5 0 01:51 01.12.2019
3466 Clouds -1 1017 92 10000 4.1 50 01:24 01.12.2019
3467 Clouds -1 1018 68 10000 1 0 00:41 01.12.2019
3468 Clouds -1 1018 68 10000 0.5 0 00:23 01.12.2019
3469 Clouds -1 1018 68 10000 1 0 23:42 30.11.2019
3470 Clouds -1 1018 92 10000 4.1 60 23:23 30.11.2019
3471 Clear 0 1018 75 10000 2.6 110 22:50 30.11.2019
3472 Clear -1 1018 75 10000 2.6 110 22:30 30.11.2019
3473 Clear -1 1019 80 10000 3.6 20 21:59 30.11.2019
3474 Clear -1 1019 75 10000 4.1 90 21:41 30.11.2019
3475 Clear -1 1019 75 10000 4.1 90 21:41 30.11.2019
3476 Clear -1 1019 92 10000 3.6 60 21:23 30.11.2019
3477 Clear -1 1019 92 10000 3.1 70 20:55 30.11.2019
3478 Clear 0 1019 75 6000 1.5 100 20:37 30.11.2019
3479 Clouds 0 1020 88 9000 1 100 20:19 30.11.2019
3480 Clouds 0 1020 92 10000 3.6 60 19:55 30.11.2019
3481 Clouds 0 1020 88 10000 0.5 0 19:37 30.11.2019
3482 Clouds 0 1020 100 10000 0.5 0 19:18 30.11.2019
3483 Clouds 0 1020 100 10000 0.5 0 19:18 30.11.2019
3484 Clouds 0 1020 88 10000 3.6 70 18:56 30.11.2019
3485 Clouds 1 1020 93 10000 2.1 90 18:37 30.11.2019
3486 Clouds 1 1020 93 10000 2.1 90 18:37 30.11.2019
3487 Clouds 1 1020 88 10000 0.5 0 18:18 30.11.2019
3488 Clouds 1 1021 80 10000 2.6 70 17:56 30.11.2019
3489 Clouds 1 1020 88 10000 1.5 140 17:37 30.11.2019
3490 Clouds 2 1020 86 10000 1.5 180 17:19 30.11.2019
3491 Clouds 2 1020 69 10000 2.6 30 16:55 30.11.2019
3492 Clouds 3 1021 80 10000 1.5 180 16:37 30.11.2019
3493 Clouds 3 1021 75 10000 1.5 150 16:18 30.11.2019
3494 Clouds 4 1021 80 10000 1.5 140 15:41 30.11.2019
3495 Clouds 4 1021 70 10000 2.6 120 15:19 30.11.2019
3496 Clouds 4 1021 69 10000 2.6 70 14:56 30.11.2019
3497 Clouds 4 1021 75 10000 2.6 140 14:38 30.11.2019
3498 Clouds 4 1022 70 10000 3.1 80 14:18 30.11.2019
3499 Clouds 4 1021 64 10000 2.6 60 13:56 30.11.2019
3500 Clouds 4 1022 75 10000 3.1 80 13:36 30.11.2019
3501 Clouds 4 1022 75 10000 2.6 80 13:18 30.11.2019
3502 Clouds 4 1022 75 10000 2.6 80 12:45 30.11.2019
3503 Clouds 4 1022 75 10000 2.6 80 12:27 30.11.2019
3504 Clouds 3 1023 80 10000 1.5 0 11:45 30.11.2019
3505 Clouds 3 1023 80 10000 1.5 130 11:20 30.11.2019
3506 Clouds 2 1023 80 10000 1.5 130 10:58 30.11.2019
3507 Clouds 2 1023 80 10000 1.5 130 10:39 30.11.2019
3508 Clouds 2 1023 86 10000 0.5 0 10:20 30.11.2019
3509 Clouds 2 1023 86 10000 0.5 0 09:47 30.11.2019
3510 Snow 1 1022 94 10000 2.1 170 09:29 30.11.2019
3511 Clouds 1 1023 93 10000 1 0 08:45 30.11.2019
3512 Clouds 1 1023 100 10000 0.19 301 08:24 30.11.2019
3513 Clouds 1 1023 100 10000 0.19 301 07:59 30.11.2019
3514 Clouds 1 1023 86 10000 0.19 301 07:41 30.11.2019
3515 Clouds 1 1022 93 10000 0.5 0 07:21 30.11.2019
3516 Clouds 1 1021 98 9000 2.1 190 06:30 30.11.2019
3517 Clouds 1 1021 98 9000 2.1 190 06:30 30.11.2019
3518 Clouds 1 1021 98 7000 0.19 301 05:55 30.11.2019
3519 Snow 1 1021 100 10000 2.1 230 03:54 30.11.2019
3520 Snow 1 1021 100 10000 2.1 230 03:54 30.11.2019
3521 Snow 1 1021 100 10000 2.1 230 03:54 30.11.2019
3522 Snow 1 1020 93 10000 2.1 230 02:53 30.11.2019
3523 Clouds 1 1021 93 10000 2.6 90 02:22 30.11.2019
3524 Clouds 1 1021 86 10000 1.5 200 01:46 30.11.2019
3525 Rain 1 1019 93 10000 2.1 200 01:24 30.11.2019
3526 Rain 1 1021 86 10000 2.6 180 00:38 30.11.2019
3527 Rain 1 1020 93 10000 2.1 0 00:18 30.11.2019
3528 Rain 2 1020 86 9000 1.5 0 23:43 29.11.2019
3529 Rain 2 1020 86 10000 3.6 360 23:23 29.11.2019
3530 Rain 2 1019 93 9000 2.6 320 22:47 29.11.2019
3531 Rain 2 1019 93 9000 2.6 320 22:26 29.11.2019
3532 Rain 2 1018 93 10000 3.1 350 21:45 29.11.2019
3533 Rain 2 1017 93 10000 2.1 330 21:26 29.11.2019
3534 Rain 3 1017 93 7000 2.1 320 20:59 29.11.2019
3535 Rain 3 1016 93 9000 4.6 260 20:40 29.11.2019
3536 Rain 4 1015 87 9000 4.6 260 20:21 29.11.2019
3537 Rain 4 1015 93 9000 3.6 10 19:58 29.11.2019
3538 Rain 4 1015 81 10000 4.1 250 19:40 29.11.2019
3539 Rain 4 1015 81 10000 4.1 250 19:20 29.11.2019
3540 Rain 4 1014 100 10000 3.1 340 18:58 29.11.2019
3541 Rain 4 1014 81 10000 4.1 250 18:40 29.11.2019
3542 Drizzle 5 1014 81 10000 4.6 260 18:21 29.11.2019
3543 Drizzle 5 1014 75 10000 4.6 260 17:45 29.11.2019
3544 Rain 5 1013 100 8000 4.6 310 17:27 29.11.2019
3545 Rain 5 1013 81 10000 4.1 260 16:59 29.11.2019
3546 Drizzle 5 1013 81 10000 3.6 250 16:40 29.11.2019
3547 Rain 5 1012 81 10000 4.1 260 16:19 29.11.2019
3548 Rain 5 1012 81 10000 4.1 260 16:19 29.11.2019
3549 Rain 5 1012 81 10000 4.1 260 15:41 29.11.2019
3550 Rain 5 1011 93 10000 6.2 240 15:23 29.11.2019
3551 Rain 5 1010 93 10000 7.7 230 14:58 29.11.2019
3552 Rain 5 1012 81 10000 5.1 260 14:39 29.11.2019
3553 Rain 5 1012 76 10000 4.6 240 14:20 29.11.2019
3554 Rain 5 1010 93 10000 7.7 240 13:55 29.11.2019
3555 Rain 5 1012 75 10000 4.6 240 13:36 29.11.2019
3556 Rain 5 1012 81 10000 3.1 260 13:18 29.11.2019
3557 Rain 5 1011 87 10000 2.1 250 12:39 29.11.2019
3558 Rain 5 1011 87 10000 2.1 290 12:21 29.11.2019
3559 Rain 5 1009 93 10000 7.7 230 11:55 29.11.2019
3560 Rain 5 1011 87 10000 2.1 290 11:36 29.11.2019
3561 Rain 5 1010 81 10000 3.6 260 11:18 29.11.2019
3562 Rain 5 1008 93 10000 7.7 240 10:56 29.11.2019
3563 Rain 6 1010 81 10000 3.6 260 10:37 29.11.2019
3564 Rain 6 1009 75 10000 4.6 260 10:19 29.11.2019
3565 Drizzle 6 1007 93 10000 8.2 240 09:55 29.11.2019
3566 Rain 6 1009 70 10000 3.6 280 09:37 29.11.2019
3567 Rain 6 1008 70 10000 3.1 280 09:18 29.11.2019
3568 Clouds 6 1007 66 10000 1.5 0 08:40 29.11.2019
3569 Clouds 6 1007 66 10000 1.5 0 08:22 29.11.2019
3570 Clouds 6 1007 66 10000 1.5 0 07:58 29.11.2019
3571 Clouds 6 1006 87 10000 6.2 240 07:58 29.11.2019
3572 Clouds 6 1007 87 10000 1 0 07:40 29.11.2019
3573 Clouds 6 1007 87 10000 1 0 07:21 29.11.2019
3574 Clouds 6 1007 87 10000 0.5 0 06:43 29.11.2019
3575 Clouds 6 1006 81 10000 1.5 0 05:48 29.11.2019
3576 Rain 6 1005 93 10000 8.7 230 05:25 29.11.2019
3577 Clouds 6 1007 66 10000 2.1 260 04:32 29.11.2019
3578 Rain 6 1007 70 10000 4.1 230 03:22 29.11.2019
3579 Rain 6 1005 93 10000 7.7 230 02:30 29.11.2019
3580 Rain 6 1006 76 10000 3.1 220 01:52 29.11.2019
3581 Rain 6 1006 76 10000 3.1 220 01:26 29.11.2019
3582 Rain 6 1007 76 10000 2.6 200 00:43 29.11.2019
3583 Rain 6 1007 81 10000 4.1 200 00:21 29.11.2019
3584 Rain 6 1004 81 10000 9.3 230 23:56 28.11.2019
3585 Rain 6 1006 76 10000 3.6 210 23:36 28.11.2019
3586 Rain 6 1006 76 10000 3.1 230 23:18 28.11.2019
3587 Clouds 6 1006 70 10000 3.1 220 22:38 28.11.2019
3588 Clouds 6 1006 76 10000 3.1 230 22:20 28.11.2019
3589 Clouds 6 1006 70 10000 3.1 230 21:59 28.11.2019
3590 Clouds 7 1006 70 10000 3.1 230 21:40 28.11.2019
3591 Rain 7 1006 70 10000 3.1 220 21:20 28.11.2019
3592 Rain 7 1006 70 10000 3.1 220 20:56 28.11.2019
3593 Rain 6 1006 70 10000 3.1 220 20:38 28.11.2019
3594 Rain 6 1003 70 10000 11.3 260 20:18 28.11.2019
3595 Rain 6 1003 81 10000 9.3 230 19:55 28.11.2019
3596 Rain 6 1005 70 10000 3.1 260 19:36 28.11.2019
3597 Rain 6 1005 76 10000 2.1 240 19:18 28.11.2019
3598 Clouds 6 1003 81 10000 9.3 240 18:55 28.11.2019
3599 Clouds 6 1005 75 10000 0.5 0 18:37 28.11.2019
3600 Clouds 6 1004 70 10000 2.1 250 18:18 28.11.2019
3601 Clouds 6 1004 75 10000 1 0 17:42 28.11.2019
3602 Clouds 7 1004 66 10000 1 0 17:23 28.11.2019
3603 Clouds 7 1004 66 10000 1 0 17:23 28.11.2019
3604 Clouds 7 1002 81 10000 8.7 230 16:58 28.11.2019
3605 Rain 7 1004 66 10000 1 0 16:38 28.11.2019
3606 Rain 7 1004 66 10000 5.1 250 16:19 28.11.2019
3607 Rain 8 1004 66 10000 5.1 250 15:56 28.11.2019
3608 Rain 8 1003 66 10000 2.6 240 15:37 28.11.2019
3609 Rain 8 1003 66 10000 7.2 250 15:19 28.11.2019
3610 Rain 8 1003 71 10000 2.1 260 14:41 28.11.2019
3611 Clouds 8 1003 76 10000 2.6 90 14:22 28.11.2019
3612 Clouds 8 1002 76 10000 4.1 240 13:59 28.11.2019
3613 Clouds 8 1003 81 10000 1.5 0 13:41 28.11.2019
3614 Drizzle 8 1003 76 10000 2.1 280 13:22 28.11.2019
3615 Rain 8 1003 81 10000 2.6 260 12:49 28.11.2019
3616 Rain 8 1003 81 10000 2.6 260 12:29 28.11.2019
3617 Clouds 8 1001 76 10000 10.8 230 11:59 28.11.2019
3618 Rain 9 1003 81 10000 2.6 260 11:41 28.11.2019
3619 Clouds 8 1003 66 10000 3.1 260 11:21 28.11.2019
3620 Clouds 8 1001 70 10000 10.3 240 10:59 28.11.2019
3621 Clouds 8 1003 66 10000 3.1 260 10:40 28.11.2019
3622 Clouds 8 1003 66 10000 3.1 260 10:40 28.11.2019
3623 Clouds 8 1002 87 10000 2.1 70 10:20 28.11.2019
3624 Clouds 8 1002 81 10000 2.1 70 09:42 28.11.2019
3625 Rain 7 1002 87 10000 2.6 90 09:23 28.11.2019
3626 Rain 7 1001 81 10000 6.7 220 08:59 28.11.2019
3627 Rain 7 1002 87 10000 2.6 90 08:59 28.11.2019
3628 Rain 7 1002 87 10000 2.6 90 08:59 28.11.2019
3629 Clouds 7 1002 87 10000 2.6 90 08:40 28.11.2019
3630 Rain 7 1002 81 10000 4.1 220 08:21 28.11.2019
3631 Rain 7 1000 70 10000 12.9 270 07:42 28.11.2019
3632 Clouds 7 1001 81 10000 9.3 230 07:24 28.11.2019
3633 Clouds 7 1001 81 10000 9.3 230 07:24 28.11.2019
3634 Rain 6 1002 100 10000 1 0 06:52 28.11.2019
3635 Rain 6 1002 100 10000 1 0 06:52 28.11.2019
3636 Rain 7 1002 100 10000 1 0 06:34 28.11.2019
3637 Clouds 7 1001 93 10000 1 0 05:51 28.11.2019
3638 Clouds 7 1001 93 10000 1 0 05:18 28.11.2019
3639 Clouds 7 1001 93 10000 1 0 05:18 28.11.2019
3640 Clouds 6 1001 87 10000 2.6 90 02:51 28.11.2019
3641 Clouds 6 1001 93 10000 2.1 110 01:57 28.11.2019
3642 Clouds 6 1002 93 10000 0.5 0 00:49 28.11.2019
3643 Clouds 6 1001 75 10000 7.2 220 00:25 28.11.2019
3644 Clouds 6 1002 93 10000 0.5 0 23:56 27.11.2019
3645 Clouds 6 1002 93 10000 0.5 0 23:38 27.11.2019
3646 Clouds 6 1001 100 10000 2.1 70 23:19 27.11.2019
3647 Clouds 6 1002 93 10000 3.1 80 22:39 27.11.2019
3648 Clouds 6 1002 93 10000 3.1 110 22:20 27.11.2019
3649 Clouds 6 1002 93 10000 3.1 110 21:56 27.11.2019
3650 Clouds 6 1002 100 10000 0.5 0 21:38 27.11.2019
3651 Clouds 6 1002 93 10000 1 0 21:19 27.11.2019
3652 Clouds 7 1001 87 10000 4.6 200 20:59 27.11.2019
3653 Clouds 6 1002 93 10000 1 0 20:59 27.11.2019
3654 Clouds 7 1002 93 10000 1 0 20:40 27.11.2019
3655 Clouds 7 1001 93 10000 1 0 20:21 27.11.2019
3656 Rain 7 1000 87 10000 4.6 210 19:58 27.11.2019
3657 Clouds 7 1001 93 10000 1 0 19:40 27.11.2019
3658 Clouds 7 1001 87 10000 1 0 19:21 27.11.2019
3659 Clouds 7 1001 87 10000 1 0 18:59 27.11.2019
3660 Clouds 7 1001 87 10000 1 0 18:37 27.11.2019
3661 Clouds 7 1000 93 10000 2.1 100 18:19 27.11.2019
3662 Rain 7 1000 87 10000 6.2 210 17:57 27.11.2019
3663 Clouds 8 1000 93 10000 2.1 100 17:39 27.11.2019
3664 Clouds 8 1001 87 10000 1.5 130 17:20 27.11.2019
3665 Rain 8 1000 81 10000 7.2 220 16:56 27.11.2019
3666 Clouds 9 1001 87 10000 1.5 130 16:38 27.11.2019
3667 Clouds 9 1000 81 10000 1 90 16:19 27.11.2019
3668 Rain 9 1000 76 10000 6.2 230 15:57 27.11.2019
3669 Clouds 10 1000 81 10000 1 90 15:38 27.11.2019
3670 Clouds 9 1000 71 10000 2.6 250 15:20 27.11.2019
3671 Clouds 9 1000 71 10000 2.6 250 14:57 27.11.2019
3672 Clouds 9 1000 71 10000 2.6 250 14:38 27.11.2019
3673 Clouds 9 1000 71 10000 2.6 250 14:38 27.11.2019
3674 Clouds 9 1000 71 10000 2.6 250 14:20 27.11.2019
3675 Clouds 9 1000 81 10000 2.6 0 13:56 27.11.2019
3676 Clouds 9 1000 81 10000 2.6 0 13:38 27.11.2019
3677 Clouds 9 1000 81 10000 3.6 140 13:19 27.11.2019
3678 Clouds 9 1002 81 10000 3.1 110 12:42 27.11.2019
3679 Clouds 8 1001 81 10000 1.5 0 12:22 27.11.2019
3680 Clouds 8 1002 81 10000 3.1 110 11:59 27.11.2019
3681 Rain 7 1003 93 10000 4.1 100 11:37 27.11.2019
3682 Rain 7 1003 93 10000 4.1 100 11:19 27.11.2019
3683 Rain 7 1003 93 10000 4.1 100 10:55 27.11.2019
3684 Rain 7 1002 93 9000 6.7 220 10:37 27.11.2019
3685 Rain 7 1002 100 9000 1 0 10:19 27.11.2019
3686 Rain 6 1002 100 8000 1.32 262 09:41 27.11.2019
3687 Drizzle 6 1001 100 10000 1 0 09:23 27.11.2019
3688 Drizzle 6 1001 100 10000 1 0 08:43 27.11.2019
3689 Drizzle 5 1001 100 10000 1.5 110 08:23 27.11.2019
3690 Drizzle 5 1001 100 10000 1.5 110 08:23 27.11.2019
3691 Clouds 5 1000 100 10000 1.5 0 07:57 27.11.2019
3692 Clouds 5 1000 100 10000 1.5 0 07:39 27.11.2019
3693 Clouds 4 1000 100 10000 5.1 280 07:20 27.11.2019
3694 Clouds 4 1000 100 10000 5.1 280 06:40 27.11.2019
3695 Clouds 4 998 100 6000 2.1 110 06:20 27.11.2019
3696 Clouds 4 999 100 7000 1 0 05:26 27.11.2019
3697 Clouds 4 999 100 6000 1.5 280 04:55 27.11.2019
3698 Clouds 4 999 100 6000 1.5 280 04:36 27.11.2019
3699 Mist 4 1000 100 3200 5.1 270 03:48 27.11.2019
3700 Mist 3 1000 100 2800 4.1 270 03:21 27.11.2019
3701 Mist 3 1000 100 1200 2.6 300 02:42 27.11.2019
3702 Fog 4 1001 100 700 0.5 0 01:22 27.11.2019
3703 Fog 3 1002 100 450 1 0 00:40 27.11.2019
3704 Fog 4 1002 100 450 0.5 0 00:22 27.11.2019
3705 Fog 3 1003 100 400 2.1 270 23:42 26.11.2019
3706 Fog 4 1004 100 200 1 0 23:24 26.11.2019
3707 Fog 4 1004 100 300 1 0 22:55 26.11.2019
3708 Fog 4 1004 100 300 1 0 22:36 26.11.2019
3709 Fog 4 1005 100 250 1.5 0 22:18 26.11.2019
3710 Fog 4 1005 100 150 1 0 21:39 26.11.2019
3711 Fog 4 1006 100 150 2.1 280 21:21 26.11.2019
3712 Fog 4 1006 100 150 2.1 280 21:21 26.11.2019
3713 Fog 4 1006 100 350 1.5 10 20:57 26.11.2019
3714 Fog 5 1006 100 350 1.5 10 20:38 26.11.2019
3715 Fog 5 1006 100 200 3.1 110 20:19 26.11.2019
3716 Fog 5 1006 100 400 2.1 130 19:56 26.11.2019
3717 Fog 5 1007 100 250 1 0 19:38 26.11.2019
3718 Fog 5 1007 100 250 1 0 19:19 26.11.2019
3719 Fog 5 1007 100 250 1.93 179 18:58 26.11.2019
3720 Mist 6 1007 100 2400 1 0 18:39 26.11.2019
3721 Mist 6 1007 100 2400 1 0 18:21 26.11.2019
3722 Mist 7 1007 100 2500 0.5 0 17:58 26.11.2019
3723 Mist 7 1007 100 2500 0.5 0 17:40 26.11.2019
3724 Mist 7 1008 93 4200 1.5 270 17:21 26.11.2019
3725 Mist 7 1008 93 4200 1.5 270 16:57 26.11.2019
3726 Mist 8 1008 93 4200 1.5 270 16:37 26.11.2019
3727 Mist 9 1008 93 4000 2.6 320 16:19 26.11.2019
3728 Mist 8 1008 93 4000 2.6 320 16:19 26.11.2019
3729 Clouds 9 1008 93 8000 1.5 230 15:59 26.11.2019
3730 Mist 9 1008 93 4000 2.6 320 15:38 26.11.2019
3731 Clouds 10 1008 93 5000 3.1 310 15:19 26.11.2019
3732 Mist 10 1008 100 4000 2.1 280 14:50 26.11.2019
3733 Clouds 11 1007 71 10000 1.12 170 14:26 26.11.2019
3734 Clouds 10 1008 81 10000 1 0 13:57 26.11.2019
3735 Mist 10 1009 93 4000 2.6 280 13:38 26.11.2019
3736 Mist 10 1009 93 4000 2.6 280 13:19 26.11.2019
3737 Mist 10 1009 93 4000 0.5 0 12:39 26.11.2019
3738 Mist 10 1009 93 4000 0.5 0 12:20 26.11.2019
3739 Mist 10 1010 100 4500 1.5 0 11:58 26.11.2019
3740 Mist 9 1010 100 4500 1.5 0 11:39 26.11.2019
3741 Mist 9 1010 100 4500 1.5 0 11:39 26.11.2019
3742 Mist 8 1010 100 4500 1.5 0 11:20 26.11.2019
3743 Mist 8 1010 100 4500 2.1 270 10:58 26.11.2019
3744 Mist 8 1010 100 4500 2.1 270 10:39 26.11.2019
3745 Mist 7 1010 93 4700 1.5 0 10:20 26.11.2019
3746 Clouds 7 1010 93 7000 1.07 187 09:56 26.11.2019
3747 Mist 6 1010 93 6000 1.07 187 09:37 26.11.2019
3748 Mist 6 1010 100 5000 2.1 110 09:18 26.11.2019
3749 Mist 5 1010 100 5000 2.1 110 08:43 26.11.2019
3750 Rain 5 1010 93 5000 1.5 240 08:22 26.11.2019
3751 Rain 5 1010 93 5000 1.5 240 07:44 26.11.2019
3752 Rain 5 1010 100 5000 2.6 90 07:25 26.11.2019
3753 Rain 5 1010 100 5000 2.6 90 06:55 26.11.2019
3754 Rain 5 1010 100 4900 2.6 120 06:30 26.11.2019
3755 Mist 5 1011 100 4000 1 0 05:41 26.11.2019
3756 Rain 5 1011 100 4100 0.5 0 03:59 26.11.2019
3757 Clouds 4 1010 93 5000 1.28 244 02:24 26.11.2019
3758 Clouds 5 1011 100 5000 2.1 210 01:32 26.11.2019
3759 Drizzle 5 1012 93 5000 1 120 00:50 26.11.2019
3760 Clouds 4 1012 93 6000 1.5 120 00:25 26.11.2019
3761 Clouds 4 1011 100 1300 2.6 230 23:40 25.11.2019
3762 Clouds 4 1012 93 6000 1 230 23:20 25.11.2019
3763 Clouds 4 1011 100 1400 3.1 240 22:58 25.11.2019
3764 Clouds 4 1012 93 5000 1 240 22:37 25.11.2019
3765 Clouds 4 1012 93 5000 0.5 0 22:18 25.11.2019
3766 Clouds 4 1012 93 5000 0.5 0 21:58 25.11.2019
3767 Clouds 4 1012 93 5000 1.5 90 21:39 25.11.2019
3768 Clouds 4 1012 93 5000 2.1 110 21:19 25.11.2019
3769 Mist 5 1012 93 5000 1 130 20:55 25.11.2019
3770 Mist 5 1012 93 5000 1 130 20:37 25.11.2019
3771 Clouds 4 1012 93 5000 0.5 0 20:18 25.11.2019
3772 Mist 4 1011 100 4200 1 0 19:55 25.11.2019
3773 Mist 5 1011 100 4200 1 0 19:36 25.11.2019
3774 Mist 5 1011 93 4200 1 0 19:18 25.11.2019
3775 Mist 5 1011 93 4200 1 0 18:56 25.11.2019
3776 Mist 5 1011 93 4200 1 0 18:37 25.11.2019
3777 Mist 5 1011 93 4200 1 0 18:18 25.11.2019
3778 Mist 5 1011 100 4500 1 0 17:56 25.11.2019
3779 Mist 5 1011 100 4500 1 0 17:36 25.11.2019
3780 Mist 5 1011 93 4500 1 0 17:18 25.11.2019
3781 Mist 5 1010 93 4500 1 0 16:43 25.11.2019
3782 Mist 5 1010 93 4500 1.5 320 16:25 25.11.2019
3783 Mist 6 1009 100 2600 2.1 300 15:58 25.11.2019
3784 Mist 6 1010 93 4500 1.5 320 15:39 25.11.2019
3785 Mist 6 1010 93 4500 2.1 310 15:20 25.11.2019
3786 Mist 6 1009 100 1600 1 0 14:56 25.11.2019
3787 Fog 6 1008 93 7000 3.6 80 14:38 25.11.2019
3788 Mist 6 1010 100 5000 1 0 14:20 25.11.2019
3789 Mist 7 1010 87 5000 1 0 13:40 25.11.2019
3790 Mist 7 1010 93 5000 0.5 0 13:21 25.11.2019
3791 Mist 7 1010 93 5000 0.5 0 12:59 25.11.2019
3792 Mist 7 1010 93 5000 0.5 0 12:40 25.11.2019
3793 Mist 7 1010 93 5000 1 0 12:20 25.11.2019
3794 Mist 6 1010 93 5000 1 0 11:56 25.11.2019
3795 Mist 6 1010 93 5000 1 0 11:38 25.11.2019
3796 Mist 6 1010 93 5000 1 0 11:19 25.11.2019
3797 Clouds 5 1010 93 5000 1 0 10:42 25.11.2019
3798 Clouds 5 1010 93 5000 1 0 10:23 25.11.2019
3799 Fog 5 1009 100 300 1.5 0 09:55 25.11.2019
3800 Fog 5 1009 100 3000 0.71 147 09:55 25.11.2019
3801 Fog 5 1009 100 3000 0.71 147 09:37 25.11.2019
3802 Clouds 4 1010 93 5000 0.5 0 09:18 25.11.2019
3803 Clouds 4 1010 93 5000 0.5 0 09:18 25.11.2019
3804 Clouds 4 1010 93 5000 0.5 0 08:39 25.11.2019
3805 Clouds 3 1010 100 5000 1 310 08:20 25.11.2019
3806 Fog 2 1009 92 500 1 0 07:42 25.11.2019
3807 Clouds 2 1010 100 6000 2.6 280 07:24 25.11.2019
3808 Fog 2 1009 100 500 1 230 06:48 25.11.2019
3809 Fog 2 1008 92 300 1.5 270 06:21 25.11.2019
3810 Clouds 2 1009 100 7000 2.1 280 05:38 25.11.2019
3811 Clouds 2 1009 93 9000 0.5 0 04:52 25.11.2019
3812 Clouds 2 1009 93 5000 1.5 110 02:51 25.11.2019
3813 Mist 2 1009 100 4600 0.5 170 02:19 25.11.2019
3814 Clouds 3 1009 100 7000 1 260 01:39 25.11.2019
3815 Clouds 3 1009 100 8000 1 260 01:20 25.11.2019
3816 Clouds 3 1009 100 7000 0.5 0 00:22 25.11.2019
3817 Clouds 3 1009 100 6000 0.5 100 23:57 24.11.2019
3818 Clouds 4 1009 100 6000 0.5 100 23:37 24.11.2019
3819 Clouds 4 1009 100 10000 1 0 23:18 24.11.2019
3820 Clouds 4 1009 93 9000 0.5 0 22:42 24.11.2019
3821 Clouds 4 1009 100 9000 0.5 100 22:21 24.11.2019
3822 Clouds 4 1009 100 9000 0.5 100 21:59 24.11.2019
3823 Clouds 4 1009 93 10000 1 0 21:41 24.11.2019
3824 Clouds 4 1009 100 10000 1 0 21:21 24.11.2019
3825 Clouds 5 1009 93 10000 0.5 220 20:59 24.11.2019
3826 Clouds 5 1009 93 10000 0.5 220 20:39 24.11.2019
3827 Clouds 5 1009 93 10000 1 120 20:19 24.11.2019
3828 Clouds 5 1009 93 10000 1 120 19:57 24.11.2019
3829 Clouds 5 1009 93 10000 1 120 19:57 24.11.2019
3830 Clouds 5 1009 93 10000 1 120 19:38 24.11.2019
3831 Clouds 5 1008 87 10000 1.25 171 19:20 24.11.2019
3832 Clouds 5 1008 93 10000 1.25 171 18:59 24.11.2019
3833 Clouds 6 1008 93 10000 1.25 171 18:38 24.11.2019
3834 Clouds 6 1008 93 10000 1 160 18:20 24.11.2019
3835 Clouds 6 1008 93 10000 1 160 17:57 24.11.2019
3836 Clouds 7 1008 93 10000 1 160 17:39 24.11.2019
3837 Clouds 7 1008 87 10000 1.1 153 17:20 24.11.2019
3838 Clouds 7 1008 93 10000 1.1 153 16:57 24.11.2019
3839 Clouds 8 1008 93 10000 1.1 153 16:39 24.11.2019
3840 Clouds 8 1008 93 10000 1.1 153 16:39 24.11.2019
3841 Clouds 8 1007 87 10000 1 240 16:20 24.11.2019
3842 Clouds 8 1007 87 10000 0.5 0 15:45 24.11.2019
3843 Clouds 9 1007 87 10000 0.5 0 15:26 24.11.2019
3844 Clouds 9 1006 71 10000 2.6 250 14:58 24.11.2019
3845 Clouds 9 1007 87 10000 1.5 280 14:39 24.11.2019
3846 Clouds 10 1006 81 10000 2.6 280 14:19 24.11.2019
3847 Clouds 10 1005 66 10000 1.5 220 13:55 24.11.2019
3848 Clouds 10 1006 81 10000 1 310 13:36 24.11.2019
3849 Clouds 9 1006 76 10000 0.5 0 13:18 24.11.2019
3850 Clouds 10 1006 76 10000 0.5 0 12:42 24.11.2019
3851 Clouds 10 1006 81 10000 2.1 280 12:19 24.11.2019
3852 Clouds 9 1006 81 10000 2.1 280 11:58 24.11.2019
3853 Clouds 9 1006 81 10000 2.1 280 11:37 24.11.2019
3854 Clouds 8 1006 81 10000 1 260 11:18 24.11.2019
3855 Clouds 8 1006 81 10000 1 260 10:47 24.11.2019
3856 Clouds 7 1006 81 10000 1 260 10:29 24.11.2019
3857 Mist 6 1005 100 4000 1.5 220 09:58 24.11.2019
3858 Clouds 6 1005 93 10000 0.5 0 09:38 24.11.2019
3859 Clouds 6 1005 87 10000 1 100 09:19 24.11.2019
3860 Clouds 6 1005 93 10000 1 220 08:45 24.11.2019
3861 Clouds 5 1004 87 10000 1.5 220 08:23 24.11.2019
3862 Clouds 5 1004 87 10000 1.5 220 08:23 24.11.2019
3863 Clouds 5 1004 87 10000 1.5 220 07:58 24.11.2019
3864 Clouds 6 1004 87 10000 1.5 240 07:38 24.11.2019
3865 Clouds 6 1003 81 10000 1 0 07:20 24.11.2019
3866 Clouds 6 1002 81 10000 1.5 250 06:20 24.11.2019
3867 Clouds 6 1001 76 10000 2.1 340 04:49 24.11.2019
3868 Clouds 6 1001 71 10000 4.1 260 03:41 24.11.2019
3869 Clouds 6 1000 70 10000 1 0 02:31 24.11.2019
3870 Clouds 6 999 70 10000 1 0 01:41 24.11.2019
3871 Clouds 6 999 75 10000 2.1 90 01:22 24.11.2019
3872 Clouds 6 1000 100 10000 4.83 163 00:48 24.11.2019
3873 Clouds 6 1000 100 10000 0.5 0 00:24 24.11.2019
3874 Clouds 6 999 62 10000 3.1 130 23:54 23.11.2019
3875 Clouds 6 999 62 10000 3.1 130 23:36 23.11.2019
3876 Clouds 6 1000 100 10000 0.5 0 23:18 23.11.2019
3877 Clouds 6 1000 100 10000 0.5 0 22:54 23.11.2019
3878 Clouds 6 1000 100 10000 0.5 0 22:36 23.11.2019
3879 Clouds 5 999 93 10000 0.5 0 22:18 23.11.2019
3880 Clouds 6 999 93 10000 1 0 21:42 23.11.2019
3881 Clouds 6 999 100 10000 0.5 0 21:22 23.11.2019
3882 Clouds 6 999 100 10000 0.5 0 21:22 23.11.2019
3883 Clouds 6 999 100 10000 0.5 0 21:22 23.11.2019
3884 Clouds 6 999 93 10000 0.5 0 20:58 23.11.2019
3885 Clouds 6 999 93 10000 0.5 0 20:37 23.11.2019
3886 Clouds 7 999 93 10000 1.5 130 20:18 23.11.2019
3887 Clouds 7 997 66 10000 1.5 0 19:55 23.11.2019
3888 Clouds 7 997 66 10000 1.5 0 19:37 23.11.2019
3889 Clouds 8 997 54 10000 1.5 0 19:18 23.11.2019
3890 Clouds 7 997 58 10000 1.5 0 18:40 23.11.2019
3891 Clouds 8 997 58 10000 1 0 18:21 23.11.2019
3892 Clouds 8 997 71 10000 1 0 17:55 23.11.2019
3893 Clouds 8 997 71 10000 1 0 17:37 23.11.2019
3894 Clouds 9 996 66 10000 2.6 90 17:19 23.11.2019
3895 Clouds 9 996 66 10000 2.6 90 17:19 23.11.2019
3896 Clouds 9 996 66 10000 2.6 90 17:19 23.11.2019
3897 Clouds 9 996 58 10000 2.6 90 16:56 23.11.2019
3898 Clouds 9 996 58 10000 2.6 90 16:56 23.11.2019
3899 Clouds 9 996 58 10000 2.6 90 16:37 23.11.2019
3900 Clouds 10 996 54 10000 2.6 0 16:19 23.11.2019
3901 Clouds 10 997 71 10000 3.6 20 15:56 23.11.2019
3902 Clouds 10 995 58 10000 2.6 0 15:38 23.11.2019
3903 Clouds 11 995 47 10000 3.1 40 15:18 23.11.2019
3904 Clouds 11 995 47 10000 5.1 50 14:43 23.11.2019
3905 Clouds 11 995 47 10000 4.1 30 14:21 23.11.2019
3906 Clouds 11 996 62 10000 4.1 50 13:59 23.11.2019
3907 Clouds 11 995 47 10000 4.1 30 13:40 23.11.2019
3908 Clouds 11 997 58 10000 4.1 80 13:19 23.11.2019
3909 Clouds 12 995 61 10000 7.7 50 12:44 23.11.2019
3910 Clouds 12 995 61 10000 7.7 50 12:24 23.11.2019
3911 Clouds 11 995 61 10000 4.6 70 11:45 23.11.2019
3912 Clouds 9 995 61 10000 4.6 70 11:24 23.11.2019
3913 Clouds 8 995 61 10000 7.2 40 10:57 23.11.2019
3914 Clouds 7 995 61 10000 7.2 40 10:39 23.11.2019
3915 Clouds 6 995 61 10000 7.2 40 10:18 23.11.2019
3916 Clouds 7 996 61 10000 7.7 60 09:41 23.11.2019
3917 Clouds 5 998 100 10000 0.5 0 09:19 23.11.2019
3918 Clouds 4 998 100 10000 1 0 08:41 23.11.2019
3919 Clouds 2 998 100 10000 1.5 20 08:19 23.11.2019
3920 Clouds 3 998 100 10000 1.5 340 07:42 23.11.2019
3921 Clouds 2 998 100 10000 2.1 20 07:21 23.11.2019
3922 Clouds 2 999 100 10000 1.5 30 06:42 23.11.2019
3923 Mist 2 1007 100 1600 7.2 170 06:19 23.11.2019
3924 Clouds 2 999 100 10000 2.1 10 05:44 23.11.2019
3925 Clouds 2 1000 100 10000 2.1 30 05:26 23.11.2019
3926 Clouds 2 1000 100 10000 2.6 30 04:39 23.11.2019
3927 Clouds 2 1000 100 5000 2.6 30 04:21 23.11.2019
3928 Clouds 2 1001 69 4300 3.1 50 02:39 23.11.2019
3929 Clouds 2 1002 69 700 2.1 60 01:41 23.11.2019
3930 Clouds 1 1001 93 10000 3.1 280 00:49 23.11.2019
3931 Clouds 2 1001 100 6000 1.5 0 00:22 23.11.2019
3932 Mist 1 1002 68 3400 1 0 23:59 22.11.2019
3933 Mist 1 1002 68 3400 1 0 23:37 22.11.2019
3934 Mist 1 1002 72 3300 1 0 23:19 22.11.2019
3935 Mist 1 1003 100 3500 0.5 0 22:57 22.11.2019
3936 Mist 1 1003 100 3500 0.5 0 22:37 22.11.2019
3937 Mist 1 1003 72 3300 1 0 22:19 22.11.2019
3938 Fog 1 1004 100 900 3.1 60 21:55 22.11.2019
3939 Mist 1 1003 72 3700 1 0 21:36 22.11.2019
3940 Mist 1 1003 100 3200 0.5 0 21:18 22.11.2019
3941 Clouds 1 1004 72 7000 1 0 20:40 22.11.2019
3942 Clouds 1 1004 100 7000 1 0 20:22 22.11.2019
3943 Mist 2 1004 100 5000 3.1 60 19:54 22.11.2019
3944 Mist 2 1004 100 4500 1 0 19:36 22.11.2019
3945 Clouds 2 1004 100 7000 1 0 19:18 22.11.2019
3946 Clouds 2 1004 100 7000 0.5 0 18:39 22.11.2019
3947 Clouds 2 1004 93 7000 0.5 0 18:21 22.11.2019
3948 Clouds 2 1005 100 6000 0.5 0 17:43 22.11.2019
3949 Clouds 3 1005 93 10000 3.1 60 17:24 22.11.2019
3950 Clouds 3 1005 100 10000 3.6 60 16:58 22.11.2019
3951 Clouds 3 1005 86 7000 0.5 0 16:40 22.11.2019
3952 Clouds 4 1005 93 7000 1.5 330 16:21 22.11.2019
3953 Clouds 4 1006 86 8000 2.1 330 15:40 22.11.2019
3954 Clouds 5 1006 86 8000 2.1 60 15:22 22.11.2019
3955 Clouds 5 1006 100 6000 4.1 70 14:55 22.11.2019
3956 Clouds 5 1006 86 8000 2.1 60 14:37 22.11.2019
3957 Clouds 5 1006 86 8000 2.1 60 14:37 22.11.2019
3958 Clouds 4 1007 86 8000 2.6 100 14:18 22.11.2019
3959 Mist 4 1006 93 3400 2.1 110 13:39 22.11.2019
3960 Clouds 4 1007 86 7000 2.6 100 13:20 22.11.2019
3961 Clouds 4 1007 86 7000 2.6 100 13:20 22.11.2019
3962 Mist 5 1007 100 1100 3.1 70 12:59 22.11.2019
3963 Fog 5 1007 61 900 2.1 80 12:40 22.11.2019
3964 Fog 5 1007 61 900 2.1 80 12:40 22.11.2019
3965 Fog 5 1007 61 900 2.1 80 12:40 22.11.2019
3966 Mist 4 1008 100 1700 2.6 80 12:20 22.11.2019
3967 Mist 4 1008 100 1700 2.6 80 12:20 22.11.2019
3968 Clouds 4 1008 86 9000 3.1 100 11:58 22.11.2019
3969 Clouds 4 1008 86 9000 3.1 100 11:58 22.11.2019
3970 Clouds 4 1009 86 7000 2.1 100 11:38 22.11.2019
3971 Mist 2 1008 100 2500 2.6 80 11:19 22.11.2019
3972 Fog 2 1009 100 800 0.5 0 10:55 22.11.2019
3973 Clouds 2 1009 93 6000 2.6 100 10:37 22.11.2019
3974 Mist 2 1008 63 2000 1 20 10:19 22.11.2019
3975 Clouds 2 1010 93 6000 1 180 09:41 22.11.2019
3976 Clouds 1 1010 93 6000 1 0 09:22 22.11.2019
3977 Clouds 1 1010 93 6000 1 0 08:59 22.11.2019
3978 Clouds 1 1010 93 6000 1 0 08:40 22.11.2019
3979 Clouds 1 1010 93 6000 1 0 08:40 22.11.2019
3980 Fog 1 1009 68 650 2.1 210 08:22 22.11.2019
3981 Clouds 1 1009 93 6000 1.5 90 07:44 22.11.2019
3982 Clouds 1 1009 86 6000 1.5 130 07:21 22.11.2019
3983 Clouds 1 1008 100 650 0.5 0 06:48 22.11.2019
3984 Clouds 1 1008 100 650 0.5 0 06:28 22.11.2019
3985 Fog 0 1007 68 150 0.5 100 05:37 22.11.2019
3986 Clouds 0 1008 65 600 3.64 165 03:34 22.11.2019
3987 Clouds 0 1008 100 5000 3.1 320 02:46 22.11.2019
3988 Clouds 0 1008 100 5000 3.1 320 02:27 22.11.2019
3989 Clouds 0 1008 93 5000 0.5 0 01:43 22.11.2019
3990 Clouds 0 1008 100 6000 0.5 0 01:18 22.11.2019
3991 Clouds 1 1008 100 5000 1.5 130 00:45 22.11.2019
3992 Clouds 1 1008 93 6000 2.1 100 00:22 22.11.2019
3993 Clouds 1 1008 68 6000 1 0 23:44 21.11.2019
3994 Clouds 1 1008 100 350 0.5 0 23:25 21.11.2019
3995 Clouds 1 1009 77 6000 1 0 22:57 21.11.2019
3996 Clouds 1 1009 77 6000 1 0 22:38 21.11.2019
3997 Clouds 1 1009 77 5000 1 0 22:20 21.11.2019
3998 Clouds 1 1009 100 4700 1.5 40 21:55 21.11.2019
3999 Clouds 1 1009 77 6000 1 200 21:37 21.11.2019
4000 Clouds 1 1009 77 6000 1 200 21:37 21.11.2019
4001 Clouds 1 1009 100 10000 1 0 21:18 21.11.2019
4002 Clouds 1 1008 100 6000 2.1 130 20:57 21.11.2019
4003 Clouds 1 1009 93 10000 1 0 20:37 21.11.2019
4004 Clouds 1 1009 93 10000 1 0 20:37 21.11.2019
4005 Clouds 1 1009 86 9000 2.6 90 20:18 21.11.2019
4006 Clouds 2 1008 100 7000 1.5 170 19:57 21.11.2019
4007 Clouds 2 1009 86 9000 2.6 90 19:38 21.11.2019
4008 Clouds 2 1009 80 10000 1.5 0 19:19 21.11.2019
4009 Clouds 2 1009 80 10000 1.5 0 18:54 21.11.2019
4010 Clouds 2 1009 80 10000 1.5 0 18:36 21.11.2019
4011 Clouds 2 1009 80 10000 1.5 0 18:36 21.11.2019
4012 Clouds 3 1009 80 10000 1 0 18:18 21.11.2019
4013 Clouds 3 1009 75 10000 1 0 17:40 21.11.2019
4014 Clouds 4 1009 70 10000 0.5 0 17:22 21.11.2019
4015 Clear 4 1008 86 10000 1 0 16:58 21.11.2019
4016 Clouds 4 1009 75 10000 1 0 16:40 21.11.2019
4017 Clouds 4 1009 75 10000 2.1 240 16:20 21.11.2019
4018 Clear 4 1008 86 10000 1 0 15:55 21.11.2019
4019 Clouds 4 1009 75 10000 2.1 240 15:37 21.11.2019
4020 Clouds 5 1009 75 10000 1.5 0 15:18 21.11.2019
4021 Clouds 5 1009 75 10000 1.5 0 14:39 21.11.2019
4022 Clouds 5 1009 81 10000 1 0 14:20 21.11.2019
4023 Clouds 5 1009 81 10000 1 0 13:59 21.11.2019
4024 Clouds 5 1009 81 10000 1 0 13:37 21.11.2019
4025 Clouds 5 1009 81 9000 2.1 290 13:19 21.11.2019
4026 Clouds 5 1009 81 9000 2.1 290 12:43 21.11.2019
4027 Clouds 5 1008 86 10000 1.5 0 12:24 21.11.2019
4028 Clouds 5 1008 86 10000 0.33 37 11:56 21.11.2019
4029 Clouds 5 1009 81 9000 1 0 11:38 21.11.2019
4030 Clouds 5 1009 81 9000 1 0 11:38 21.11.2019
4031 Clouds 4 1010 87 8000 1.5 90 11:20 21.11.2019
4032 Clouds 4 1010 87 8000 1.5 90 11:20 21.11.2019
4033 Mist 3 1008 93 4500 1 0 10:43 21.11.2019
4034 Clouds 3 1009 86 10000 1 0 10:25 21.11.2019
4035 Clouds 3 1009 93 10000 1 0 09:59 21.11.2019
4036 Mist 3 1009 93 4000 1.5 0 09:41 21.11.2019
4037 Clouds 3 1010 86 8000 0.5 0 09:23 21.11.2019
4038 Clouds 3 1009 93 7000 2.1 170 08:54 21.11.2019
4039 Mist 2 1009 93 2500 0.5 320 08:36 21.11.2019
4040 Clouds 2 1010 86 7000 1 290 08:18 21.11.2019
4041 Clouds 2 1010 86 7000 1 290 07:37 21.11.2019
4042 Clouds 2 1010 86 10000 1.5 0 07:18 21.11.2019
4043 Clouds 2 1010 86 10000 1.5 0 06:42 21.11.2019
4044 Mist 2 1009 100 5000 0.5 0 06:24 21.11.2019
4045 Clouds 2 1009 93 4500 0.5 360 04:55 21.11.2019
4046 Clouds 2 1009 93 4700 2.1 20 03:25 21.11.2019
4047 Clouds 2 1010 93 5000 2.6 30 02:35 21.11.2019
4048 Clouds 3 1011 86 10000 1.5 120 01:52 21.11.2019
4049 Clouds 3 1011 86 10000 1.5 120 01:52 21.11.2019
4050 Clouds 3 1011 86 10000 2.1 120 01:21 21.11.2019
4051 Clouds 3 1011 86 10000 2.6 130 00:41 21.11.2019
4052 Clouds 2 1011 86 10000 3.1 120 00:20 21.11.2019
4053 Clouds 2 1011 93 8000 1.5 30 23:51 20.11.2019
4054 Clouds 3 1011 86 7000 1 0 23:22 20.11.2019
4055 Clouds 3 1011 86 7000 1 0 22:58 20.11.2019
4056 Clouds 3 1012 93 10000 1.5 90 22:40 20.11.2019
4057 Clouds 3 1012 86 10000 1.5 0 22:20 20.11.2019
4058 Clouds 3 1012 86 10000 1.5 0 21:58 20.11.2019
4059 Clouds 3 1012 93 10000 2.1 90 21:39 20.11.2019
4060 Clouds 3 1012 86 10000 0.5 0 21:20 20.11.2019
4061 Clouds 3 1012 86 9000 1.5 60 20:57 20.11.2019
4062 Clouds 3 1012 86 10000 1.5 80 20:39 20.11.2019
4063 Clouds 3 1012 86 10000 1.5 70 20:21 20.11.2019
4064 Clouds 3 1012 81 10000 2.1 190 19:57 20.11.2019
4065 Clouds 3 1012 81 10000 2.1 190 19:37 20.11.2019
4066 Clouds 3 1012 81 10000 2.1 180 19:19 20.11.2019
4067 Clouds 3 1012 86 10000 2.6 50 18:58 20.11.2019
4068 Clouds 3 1012 80 10000 1.62 175 18:39 20.11.2019
4069 Clouds 3 1012 81 10000 1.5 0 18:21 20.11.2019
4070 Clouds 3 1012 86 10000 2.1 50 17:56 20.11.2019
4071 Clouds 3 1013 75 8000 1.5 240 17:38 20.11.2019
4072 Clouds 3 1013 75 8000 1.5 240 17:20 20.11.2019
4073 Clouds 4 1013 81 10000 0.5 0 16:55 20.11.2019
4074 Clouds 4 1013 81 10000 0.5 0 16:36 20.11.2019
4075 Clouds 4 1013 81 10000 0.5 0 16:18 20.11.2019
4076 Clouds 4 1013 75 10000 1 300 15:41 20.11.2019
4077 Clouds 4 1013 75 10000 1 300 15:41 20.11.2019
4078 Clouds 4 1013 75 10000 1 300 15:21 20.11.2019
4079 Clouds 4 1013 75 10000 1 300 14:59 20.11.2019
4080 Clouds 4 1013 75 10000 0.5 0 14:40 20.11.2019
4081 Clouds 4 1013 75 10000 0.5 0 14:21 20.11.2019
4082 Clouds 5 1012 86 10000 3.1 50 13:57 20.11.2019
4083 Clouds 5 1013 81 10000 1 0 13:39 20.11.2019
4084 Clouds 4 1013 81 10000 1 0 13:20 20.11.2019
4085 Clouds 4 1014 81 10000 1.5 70 12:43 20.11.2019
4086 Clouds 5 1013 86 10000 4.1 60 12:25 20.11.2019
4087 Clouds 5 1014 86 10000 4.1 60 11:58 20.11.2019
4088 Clouds 4 1014 81 10000 1.5 80 11:38 20.11.2019
4089 Clouds 4 1014 81 10000 1.5 80 11:20 20.11.2019
4090 Clouds 4 1014 86 10000 3.6 60 10:55 20.11.2019
4091 Clouds 4 1014 86 10000 3.6 60 10:55 20.11.2019
4092 Clouds 4 1014 67 10000 4.1 80 10:37 20.11.2019
4093 Clouds 3 1014 86 10000 1.5 100 10:19 20.11.2019
4094 Clouds 3 1015 93 10000 0.5 0 09:43 20.11.2019
4095 Clouds 3 1015 93 9000 0.5 0 09:21 20.11.2019
4096 Clouds 2 1014 100 8000 2.6 60 08:56 20.11.2019
4097 Clouds 3 1014 100 8000 2.6 60 08:56 20.11.2019
4098 Clouds 2 1015 93 9000 0.5 0 08:37 20.11.2019
4099 Clouds 2 1015 93 7000 1 80 08:18 20.11.2019
4100 Clouds 3 1015 93 7000 1 80 07:42 20.11.2019
4101 Clouds 2 1015 86 9000 0.5 180 07:24 20.11.2019
4102 Clouds 2 1015 86 8000 0.5 180 06:47 20.11.2019
4103 Mist 2 1015 83 5000 1.5 90 06:20 20.11.2019
4104 Clouds 2 1016 93 9000 0.5 0 04:51 20.11.2019
4105 Clouds 2 1016 93 10000 1 0 03:28 20.11.2019
4106 Clouds 2 1016 93 9000 1 0 02:18 20.11.2019
4107 Clouds 2 1016 86 10000 1 110 01:21 20.11.2019
4108 Clouds 2 1017 93 10000 1 90 00:35 20.11.2019
4109 Clouds 2 1017 93 10000 0.5 0 23:52 19.11.2019
4110 Clouds 2 1017 86 10000 0.5 130 23:25 19.11.2019
4111 Clouds 2 1017 100 10000 1 90 22:57 19.11.2019
4112 Clouds 2 1017 93 10000 0.5 180 22:39 19.11.2019
4113 Clouds 2 1017 93 10000 0.5 0 22:19 19.11.2019
4114 Clouds 2 1017 93 10000 0.5 0 22:19 19.11.2019
4115 Clouds 2 1017 100 10000 1 20 21:55 19.11.2019
4116 Clouds 2 1017 100 10000 1 20 21:55 19.11.2019
4117 Clouds 2 1017 93 10000 0.5 0 21:37 19.11.2019
4118 Clouds 2 1017 93 10000 0.5 0 21:37 19.11.2019
4119 Clouds 2 1017 93 10000 1 140 21:19 19.11.2019
4120 Clouds 2 1017 93 10000 1 140 21:19 19.11.2019
4121 Clouds 2 1017 93 10000 1 140 21:19 19.11.2019
4122 Clouds 2 1016 100 10000 0.64 88 20:55 19.11.2019
4123 Clouds 2 1017 93 10000 1 0 20:36 19.11.2019
4124 Clouds 2 1017 93 10000 1 0 20:36 19.11.2019
4125 Clouds 2 1017 93 10000 1 0 20:36 19.11.2019
4126 Clouds 2 1017 93 10000 1 0 20:18 19.11.2019
4127 Clouds 2 1016 100 10000 0.32 123 19:55 19.11.2019
4128 Clouds 2 1017 93 10000 0.5 0 19:36 19.11.2019
4129 Clouds 2 1017 93 10000 0.5 0 19:18 19.11.2019
4130 Clouds 2 1017 86 10000 1 190 18:41 19.11.2019
4131 Clouds 2 1017 86 10000 1 190 18:41 19.11.2019
4132 Clouds 2 1017 86 10000 1 190 18:41 19.11.2019
4133 Clouds 3 1017 93 10000 1 200 18:21 19.11.2019
4134 Clouds 3 1016 93 10000 1.5 160 17:59 19.11.2019
4135 Clouds 3 1017 93 10000 1.5 90 17:41 19.11.2019
4136 Clouds 3 1017 93 10000 1.5 90 17:41 19.11.2019
4137 Clouds 3 1017 93 10000 1.5 90 17:21 19.11.2019
4138 Clouds 3 1017 93 10000 1.5 90 16:59 19.11.2019
4139 Clouds 3 1017 80 10000 1 0 16:40 19.11.2019
4140 Clouds 3 1017 80 10000 1 0 16:20 19.11.2019
4141 Clouds 3 1017 80 10000 1 0 15:47 19.11.2019
4142 Clouds 3 1017 80 10000 1 0 15:27 19.11.2019
4143 Clouds 3 1017 80 10000 1 0 15:27 19.11.2019
4144 Clouds 4 1015 86 10000 1.5 20 14:58 19.11.2019
4145 Clouds 3 1016 86 10000 2.1 270 14:39 19.11.2019
4146 Clouds 4 1014 68 10000 2.1 50 14:21 19.11.2019
4147 Clouds 4 1016 93 10000 2.1 270 13:42 19.11.2019
4148 Clouds 4 1016 93 10000 2.1 270 13:42 19.11.2019
4149 Clouds 4 1016 93 10000 2.1 270 13:42 19.11.2019
4150 Clouds 4 1016 86 10000 1.5 320 13:22 19.11.2019
4151 Clouds 4 1016 86 10000 1.5 320 12:58 19.11.2019
4152 Clouds 4 1017 86 10000 2.6 280 12:39 19.11.2019
4153 Clouds 4 1017 86 10000 2.6 280 12:21 19.11.2019
4154 Clouds 4 1015 69 10000 1.08 348 11:56 19.11.2019
4155 Clouds 4 1015 69 10000 1.08 348 11:56 19.11.2019
4156 Clouds 3 1017 93 10000 1 0 11:37 19.11.2019
4157 Clouds 3 1017 93 10000 1 0 11:18 19.11.2019
4158 Clouds 2 1017 86 10000 1.5 90 10:44 19.11.2019
4159 Clouds 2 1017 93 10000 1.5 90 10:21 19.11.2019
4160 Clouds 1 1016 100 9000 1.5 100 09:45 19.11.2019
4161 Clouds 1 1016 100 9000 1 0 09:21 19.11.2019
4162 Clouds 0 1015 100 10000 1.5 170 08:58 19.11.2019
4163 Clouds 0 1016 100 9000 1 0 08:40 19.11.2019
4164 Clouds 0 1016 93 9000 1 110 08:21 19.11.2019
4165 Clouds -1 1015 100 9000 2.1 160 07:56 19.11.2019
4166 Clouds -1 1016 100 10000 1 0 07:36 19.11.2019
4167 Clouds -1 1015 100 10000 1 0 07:18 19.11.2019
4168 Clouds -1 1015 100 10000 1 0 06:42 19.11.2019
4169 Clouds 0 1015 83 10000 1.5 90 06:19 19.11.2019
4170 Clouds 0 1015 84 10000 1.5 110 05:19 19.11.2019
4171 Clouds 1 1016 93 10000 1.5 100 03:40 19.11.2019
4172 Clouds 1 1016 100 10000 1.5 90 03:19 19.11.2019
4173 Clouds 1 1016 93 10000 0.5 170 02:49 19.11.2019
4174 Clouds 1 1016 93 10000 1 170 01:49 19.11.2019
4175 Clouds 1 1016 93 10000 1 0 00:49 19.11.2019
4176 Clouds 2 1016 93 10000 1 100 00:20 19.11.2019
4177 Clouds 2 1016 86 10000 1 160 23:40 18.11.2019
4178 Clouds 2 1016 86 10000 0.5 0 23:20 18.11.2019
4179 Clouds 2 1016 80 10000 1 0 22:46 18.11.2019
4180 Clouds 2 1015 86 10000 0.5 0 22:24 18.11.2019
4181 Clouds 2 1015 86 10000 0.5 0 21:59 18.11.2019
4182 Clouds 3 1015 75 10000 2.6 30 21:40 18.11.2019
4183 Clouds 3 1015 80 10000 0.5 0 21:21 18.11.2019
4184 Clouds 3 1015 80 10000 0.5 0 20:59 18.11.2019
4185 Clouds 3 1015 80 10000 0.5 0 20:59 18.11.2019
4186 Clouds 2 1015 80 10000 0.5 0 20:40 18.11.2019
4187 Clouds 3 1014 70 10000 1.5 0 20:19 18.11.2019
4188 Clouds 3 1013 93 10000 3.1 200 19:57 18.11.2019
4189 Clouds 3 1014 70 10000 1.5 0 19:38 18.11.2019
4190 Clouds 3 1013 70 10000 0.5 0 19:20 18.11.2019
4191 Clouds 3 1013 70 10000 0.5 0 18:56 18.11.2019
4192 Clouds 3 1013 70 10000 0.5 0 18:38 18.11.2019
4193 Clouds 3 1013 65 10000 1.5 250 18:19 18.11.2019
4194 Clouds 3 1013 65 10000 1.5 250 17:55 18.11.2019
4195 -273 0 0 0 0 0 17:55 18.11.2019
4196 Clouds 3 1012 98 10000 3.6 200 17:37 18.11.2019
4197 Clouds 3 1012 65 10000 3.1 270 17:18 18.11.2019
4198 Clouds 4 1012 65 10000 3.1 270 16:42 18.11.2019
4199 Clouds 4 1012 86 10000 3.6 210 16:24 18.11.2019
4200 Clouds 4 1011 98 10000 5.1 250 15:57 18.11.2019
4201 Clouds 5 1012 70 10000 5.1 280 15:39 18.11.2019
4202 Clouds 5 1011 61 10000 5.7 270 15:20 18.11.2019
4203 Clouds 5 1011 61 10000 5.7 270 14:43 18.11.2019
4204 Clouds 6 1010 75 10000 8.7 250 14:24 18.11.2019
4205 Clouds 5 1011 65 10000 6.7 280 13:57 18.11.2019
4206 Clouds 6 1011 65 10000 6.7 280 13:39 18.11.2019
4207 Clouds 6 1010 61 10000 4.6 260 13:21 18.11.2019
4208 Clouds 6 1010 61 10000 1.5 0 12:40 18.11.2019
4209 Clouds 6 1010 61 10000 1.5 0 12:20 18.11.2019
4210 Clouds 6 1009 75 10000 8.7 230 11:55 18.11.2019
4211 Clouds 5 1010 75 10000 0.5 0 11:37 18.11.2019
4212 Clouds 5 1010 75 10000 0.5 0 11:19 18.11.2019
4213 Clouds 4 1010 86 10000 0.5 0 10:42 18.11.2019
4214 Clouds 4 1008 75 10000 8.7 230 10:23 18.11.2019
4215 Clouds 4 1010 86 10000 0.5 0 09:56 18.11.2019
4216 Clouds 3 1009 86 10000 2.6 100 09:38 18.11.2019
4217 Clouds 3 1009 93 10000 2.6 90 09:19 18.11.2019
4218 Clouds 3 1009 93 10000 2.6 90 08:45 18.11.2019
4219 Clouds 2 1008 98 10000 1.5 0 08:22 18.11.2019
4220 Clouds 2 1008 98 10000 1 0 07:49 18.11.2019
4221 Clouds 2 1007 86 10000 3.1 230 07:30 18.11.2019
4222 Clouds 2 1006 86 10000 3.6 220 06:57 18.11.2019
4223 Snow 2 1007 98 10000 1.5 0 06:39 18.11.2019
4224 Snow 2 1007 98 10000 1.5 120 06:20 18.11.2019
4225 Snow 2 1005 86 10000 3.6 230 05:25 18.11.2019
4226 Snow 2 1004 93 10000 5.1 240 03:28 18.11.2019
4227 Clouds 2 1005 93 10000 1.5 100 01:33 18.11.2019
4228 Clouds 2 1005 75 10000 3.1 250 00:40 18.11.2019
4229 Clouds 2 1004 93 10000 7.2 230 23:56 17.11.2019
4230 Clouds 2 1005 93 10000 2.6 270 23:38 17.11.2019
4231 Clouds 3 1005 86 10000 1 0 23:18 17.11.2019
4232 Clouds 3 1005 93 10000 2.6 270 22:41 17.11.2019
4233 Clouds 3 1003 93 10000 4.6 230 22:23 17.11.2019
4234 Clouds 3 1005 93 10000 3.1 280 21:59 17.11.2019
4235 Clouds 3 1005 93 10000 2.1 250 21:41 17.11.2019
4236 Clouds 3 1004 93 10000 3.6 290 21:19 17.11.2019
4237 Clouds 3 1004 93 10000 3.6 290 20:57 17.11.2019
4238 Clouds 3 1004 93 10000 1.5 0 20:38 17.11.2019
4239 Clouds 3 1004 93 10000 1 0 20:20 17.11.2019
4240 Clouds 3 1004 93 10000 1 0 20:20 17.11.2019
4241 Clouds 3 1004 93 10000 1 0 20:20 17.11.2019
4242 Clouds 3 1002 100 10000 3.1 230 19:56 17.11.2019
4243 Clouds 3 1004 93 10000 1 0 19:38 17.11.2019
4244 Clouds 3 1003 93 10000 0.5 0 19:20 17.11.2019
4245 Clouds 3 1003 93 10000 0.5 0 18:56 17.11.2019
4246 Clouds 3 1003 93 10000 0.5 0 18:38 17.11.2019
4247 Clouds 3 1002 93 10000 2.6 270 18:19 17.11.2019
4248 Clouds 3 1002 93 10000 2.6 270 17:57 17.11.2019
4249 Clouds 3 1002 100 6000 2.1 240 17:57 17.11.2019
4250 Clouds 3 1002 93 10000 2.6 270 17:39 17.11.2019
4251 Clouds 3 1002 93 10000 2.1 240 17:20 17.11.2019
4252 Clouds 3 1002 93 10000 2.1 240 16:58 17.11.2019
4253 Clouds 3 1002 93 10000 2.1 240 16:40 17.11.2019
4254 Rain 3 1002 87 10000 1.5 260 16:21 17.11.2019
4255 Mist 3 1001 100 2600 1.5 290 15:55 17.11.2019
4256 Rain 3 1002 87 10000 1.5 260 15:37 17.11.2019
4257 Rain 4 1002 93 10000 2.1 270 15:18 17.11.2019
4258 Rain 4 1002 93 10000 2.1 270 15:18 17.11.2019
4259 Mist 4 1001 100 1800 0.5 0 14:55 17.11.2019
4260 Rain 3 1002 93 10000 2.1 270 14:37 17.11.2019
4261 Rain 4 1002 93 7000 2.1 270 14:19 17.11.2019
4262 Mist 3 1001 100 1400 2.6 10 13:55 17.11.2019
4263 Rain 3 1002 93 7000 2.1 270 13:55 17.11.2019
4264 Rain 3 1002 93 7000 2.1 270 13:37 17.11.2019
4265 Rain 3 1003 93 3400 1.5 0 13:18 17.11.2019
4266 Drizzle 3 1003 93 4500 1 0 12:41 17.11.2019
4267 Drizzle 3 1003 93 4500 1 0 12:22 17.11.2019
4268 Fog 3 1002 100 350 5.1 50 11:56 17.11.2019
4269 Clouds 3 1003 93 6000 0.5 0 11:38 17.11.2019
4270 Clouds 3 1003 93 6000 0.5 0 11:20 17.11.2019
4271 Clouds 3 1005 100 6000 0.5 0 10:44 17.11.2019
4272 Clouds 3 1005 100 6000 0.5 0 10:23 17.11.2019
4273 Clouds 3 1005 100 6000 0.5 0 09:57 17.11.2019
4274 Clouds 3 1005 100 6000 0.5 0 09:39 17.11.2019
4275 Rain 3 1006 100 3600 1 0 09:20 17.11.2019
4276 Rain 3 1006 100 4300 1 0 08:39 17.11.2019
4277 Rain 3 1006 93 6000 0.5 0 08:20 17.11.2019
4278 Rain 2 1006 93 6000 2.1 250 07:47 17.11.2019
4279 Mist 3 1006 100 3800 3.6 40 07:24 17.11.2019
4280 Rain 3 1006 93 4900 3.6 260 06:57 17.11.2019
4281 Rain 3 1006 93 5000 3.1 260 06:31 17.11.2019
4282 Rain 3 1007 100 6000 0.5 0 05:39 17.11.2019
4283 Clouds 3 1008 93 10000 0.5 0 04:23 17.11.2019
4284 Clouds 3 1008 93 10000 1.5 270 03:43 17.11.2019
4285 Snow 2 1008 93 7000 4.6 80 03:23 17.11.2019
4286 Snow 3 1009 93 6000 3.1 70 02:25 17.11.2019
4287 Snow 3 1010 93 7000 2.6 70 01:25 17.11.2019
4288 Snow 2 1010 93 10000 2.6 70 00:49 17.11.2019
4289 Clouds 2 1011 93 10000 1 0 00:22 17.11.2019
4290 Snow 2 1011 93 10000 2.6 80 23:43 16.11.2019
4291 Clouds 3 1011 93 7000 1 0 23:19 16.11.2019
4292 Clouds 3 1011 93 7000 1 0 22:58 16.11.2019
4293 Clouds 3 1010 93 8000 1.5 230 22:40 16.11.2019
4294 Clouds 3 1011 93 9000 2.1 250 22:18 16.11.2019
4295 Clouds 3 1011 93 8000 1.5 250 21:41 16.11.2019
4296 Clouds 3 1011 93 9000 1.5 10 21:23 16.11.2019
4297 Clouds 3 1011 93 9000 1.5 20 20:58 16.11.2019
4298 Clouds 3 1011 93 10000 1.5 240 20:39 16.11.2019
4299 Clouds 3 1011 93 6000 1.5 210 20:20 16.11.2019
4300 Clouds 3 1011 93 6000 1.5 210 19:56 16.11.2019
4301 Clouds 3 1011 93 9000 1 0 19:38 16.11.2019
4302 Clouds 3 1011 86 10000 1.5 0 19:19 16.11.2019
4303 Clouds 3 1011 93 8000 1 0 18:43 16.11.2019
4304 Clouds 3 1011 93 8000 1 0 18:43 16.11.2019
4305 Clouds 3 1010 93 10000 2.6 60 18:25 16.11.2019
4306 Clouds 4 1011 93 10000 2.6 30 17:56 16.11.2019
4307 Clouds 4 1011 86 9000 1 0 17:37 16.11.2019
4308 Clouds 4 1010 86 9000 1 0 17:18 16.11.2019
4309 Clouds 5 1011 87 10000 1 220 16:46 16.11.2019
4310 Clouds 5 1011 87 10000 1 220 16:46 16.11.2019
4311 Clouds 5 1011 87 10000 2.6 70 16:28 16.11.2019
4312 Clouds 6 1011 87 10000 1 0 15:56 16.11.2019
4313 Clouds 6 1010 81 8000 1 0 15:38 16.11.2019
4314 Clouds 6 1009 81 7000 0.5 0 15:19 16.11.2019
4315 Clouds 6 1009 81 7000 0.5 0 14:41 16.11.2019
4316 Clouds 7 1010 81 10000 1.5 330 14:22 16.11.2019
4317 Clouds 7 1010 81 10000 1.5 330 14:22 16.11.2019
4318 Clouds 6 1010 81 10000 1.5 330 13:57 16.11.2019
4319 Clouds 6 1010 81 10000 1.5 330 13:39 16.11.2019
4320 Clouds 6 1010 81 10000 1.5 100 13:19 16.11.2019
4321 Clouds 6 1009 87 10000 2.6 170 12:59 16.11.2019
4322 Clouds 6 1010 81 10000 1.5 100 12:40 16.11.2019
4323 Clouds 6 1010 87 10000 2.1 110 12:20 16.11.2019
4324 Clouds 6 1010 87 10000 2.1 110 12:20 16.11.2019
4325 Clouds 5 1010 87 10000 1 0 11:46 16.11.2019
4326 Clouds 4 1009 100 10000 1 0 11:27 16.11.2019
4327 Clouds 3 1009 100 10000 1 0 10:58 16.11.2019
4328 Clouds 3 1009 87 8000 2.1 90 10:39 16.11.2019
4329 Clouds 3 1009 93 8000 2.1 90 10:21 16.11.2019
4330 Clouds 3 1008 93 9000 1 0 09:44 16.11.2019
4331 Clouds 2 1008 100 9000 1 0 09:21 16.11.2019
4332 Clouds 2 1007 100 10000 1.14 264 08:59 16.11.2019
4333 Clouds 2 1007 93 9000 1.5 130 08:39 16.11.2019
4334 Clouds 2 1007 93 8000 2.1 90 08:19 16.11.2019
4335 Clouds 2 1006 93 8000 2.1 120 07:43 16.11.2019
4336 Mist 1 1006 100 3700 1.5 0 07:21 16.11.2019
4337 Fog 1 1005 90 500 1.5 150 06:54 16.11.2019
4338 Mist 1 1005 100 2600 0.5 0 06:33 16.11.2019
4339 Mist 1 1004 93 4500 1.5 120 05:40 16.11.2019
4340 Mist 2 1003 100 2600 0.5 0 03:50 16.11.2019
4341 Clouds 2 1003 100 500 1.5 180 03:25 16.11.2019
4342 Clouds 2 1003 100 500 1.5 180 03:25 16.11.2019
4343 Mist 2 1003 93 3400 1 0 01:52 16.11.2019
4344 Clouds 3 1003 100 7000 0.5 0 01:21 16.11.2019
4345 Clouds 3 1003 93 6000 1 210 00:46 16.11.2019
4346 Clouds 3 1003 93 6000 1 210 00:26 16.11.2019
4347 Rain 3 1003 93 6000 1 200 23:40 15.11.2019
4348 Rain 3 1003 93 8000 1 0 23:21 15.11.2019
4349 Snow 3 1002 93 6000 1 0 22:57 15.11.2019
4350 Rain 3 1003 93 8000 1 0 22:38 15.11.2019
4351 Rain 3 1003 93 8000 1.5 250 22:18 15.11.2019
4352 Rain 3 1002 93 10000 2.1 250 21:42 15.11.2019
4353 Rain 3 1002 93 10000 2.1 230 21:21 15.11.2019
4354 Rain 3 1002 93 10000 2.1 230 20:59 15.11.2019
4355 Rain 3 1002 87 10000 1.5 250 20:40 15.11.2019
4356 Rain 3 1002 87 10000 1.5 250 20:22 15.11.2019
4357 Snow 3 1002 93 10000 5.1 100 19:59 15.11.2019
4358 Rain 3 1002 86 10000 1.5 220 19:41 15.11.2019
4359 Clouds 4 1002 86 10000 1.5 220 19:21 15.11.2019
4360 Clouds 4 1002 86 10000 1.5 220 18:58 15.11.2019
4361 Snow 4 1002 93 10000 5.1 70 18:58 15.11.2019
4362 Clouds 4 1002 86 10000 1.32 41 18:40 15.11.2019
4363 Clouds 4 1002 86 10000 1.32 41 18:21 15.11.2019
4364 Clouds 4 1002 80 10000 2.6 80 17:54 15.11.2019
4365 Clouds 5 1002 86 10000 1.32 41 17:36 15.11.2019
4366 Snow 5 1001 81 10000 1 0 17:18 15.11.2019
4367 Snow 5 1001 81 10000 1 0 16:39 15.11.2019
4368 Snow 5 1001 81 10000 1 0 16:20 15.11.2019
4369 Snow 5 1001 81 10000 1 0 15:39 15.11.2019
4370 Snow 5 1001 81 10000 1 0 15:39 15.11.2019
4371 Clouds 5 1001 81 10000 1 0 15:21 15.11.2019
4372 Clouds 5 1001 81 10000 1 0 14:58 15.11.2019
4373 Snow 6 1001 75 10000 1 0 14:40 15.11.2019
4374 Clouds 6 1001 75 10000 3.1 320 14:21 15.11.2019
4375 Clouds 6 1000 86 10000 2.6 210 13:59 15.11.2019
4376 Clouds 6 1001 70 10000 3.1 320 13:40 15.11.2019
4377 Clouds 6 1001 81 10000 1.5 110 13:21 15.11.2019
4378 Snow 5 1000 86 10000 4.1 220 12:59 15.11.2019
4379 Clouds 5 1001 87 10000 1.5 110 12:41 15.11.2019
4380 Clouds 5 1001 87 10000 1.5 110 12:41 15.11.2019
4381 Clouds 5 1001 86 10000 2.6 70 12:21 15.11.2019
4382 Snow 4 1000 86 10000 5.7 220 11:59 15.11.2019
4383 Clouds 4 1001 86 10000 2.6 70 11:39 15.11.2019
4384 Rain 4 1001 93 10000 2.1 140 11:21 15.11.2019
4385 Clouds 4 1000 87 10000 5.7 210 10:57 15.11.2019
4386 Rain 4 1001 93 10000 2.1 140 10:39 15.11.2019
4387 Rain 3 1000 93 10000 2.6 130 10:19 15.11.2019
4388 Rain 3 999 86 9000 4.6 290 09:41 15.11.2019
4389 Clouds 3 998 80 10000 7.2 300 09:20 15.11.2019
4390 Clouds 3 997 75 10000 5.1 290 08:45 15.11.2019
4391 Rain 2 994 86 10000 4.6 260 08:25 15.11.2019
4392 Clouds 1 992 86 10000 4.1 270 07:54 15.11.2019
4393 Clouds 1 992 86 10000 4.1 270 07:36 15.11.2019
4394 Clouds 1 992 86 10000 4.1 270 07:18 15.11.2019
4395 Clouds 1 992 93 10000 1 0 06:34 15.11.2019
4396 Clouds 1 992 93 10000 1 0 05:50 15.11.2019
4397 Clouds 1 993 84 8000 4.6 40 05:28 15.11.2019
4398 Clouds 1 993 86 10000 1.5 260 04:40 15.11.2019
4399 Clouds 1 994 86 10000 2.6 280 03:37 15.11.2019
4400 Clouds 1 994 80 10000 2.6 250 02:27 15.11.2019
4401 Clouds 0 995 69 10000 3.1 0 01:46 15.11.2019
4402 Clouds 1 996 100 10000 2.6 20 01:24 15.11.2019
4403 Clouds 1 995 65 10000 2.6 90 00:35 15.11.2019
4404 Clouds 1 995 64 10000 4.1 110 23:58 14.11.2019
4405 Clouds 0 997 77 10000 3.1 40 23:38 14.11.2019
4406 Clouds 2 996 69 10000 2.1 130 23:19 14.11.2019
4407 Clouds 2 996 65 10000 3.6 80 22:40 14.11.2019
4408 Clouds 2 996 65 10000 4.6 100 22:22 14.11.2019
4409 Clouds 2 996 65 10000 4.6 100 21:57 14.11.2019
4410 Clouds 2 998 71 10000 4.6 50 21:39 14.11.2019
4411 Clouds 2 996 71 10000 4.1 100 21:21 14.11.2019
4412 Clouds 1 998 71 10000 4.1 50 20:42 14.11.2019
4413 Clouds 2 997 69 10000 3.1 100 20:24 14.11.2019
4414 Clouds 3 997 75 10000 5.1 110 19:59 14.11.2019
4415 Clouds 3 997 75 10000 5.1 110 19:41 14.11.2019
4416 Clouds 3 997 75 10000 5.1 110 19:18 14.11.2019
4417 Clouds 3 998 70 10000 3.6 100 18:56 14.11.2019
4418 Clouds 3 998 70 10000 3.6 100 18:56 14.11.2019
4419 Clouds 3 998 70 10000 3.6 100 18:38 14.11.2019
4420 Clouds 3 998 75 10000 4.6 120 18:20 14.11.2019
4421 Clouds 4 998 75 10000 4.6 120 17:56 14.11.2019
4422 Clouds 4 999 75 10000 4.6 110 17:37 14.11.2019
4423 Clouds 4 999 83 10000 4.6 110 17:19 14.11.2019
4424 Clouds 4 999 83 10000 4.6 110 16:57 14.11.2019
4425 Clouds 4 999 83 10000 4.6 110 16:36 14.11.2019
4426 Clouds 5 1001 83 10000 1.5 120 16:18 14.11.2019
4427 Clouds 5 1001 86 10000 3.6 60 15:56 14.11.2019
4428 Clouds 5 999 83 10000 3.6 110 15:37 14.11.2019
4429 Clouds 6 1000 56 10000 3.1 120 15:19 14.11.2019
4430 Clouds 5 1000 56 10000 3.1 120 14:44 14.11.2019
4431 Clouds 6 1001 80 10000 1 0 14:22 14.11.2019
4432 Clouds 6 1002 71 10000 3.6 60 13:57 14.11.2019
4433 Clouds 6 1001 75 10000 1 0 13:38 14.11.2019
4434 Clouds 6 1001 75 10000 2.6 270 13:19 14.11.2019
4435 Clouds 6 1002 75 10000 2.1 260 12:47 14.11.2019
4436 Clouds 6 1002 70 10000 2.1 270 12:26 14.11.2019
4437 Clouds 6 1002 70 10000 2.1 270 11:59 14.11.2019
4438 Clouds 5 1002 70 10000 2.1 270 11:39 14.11.2019
4439 Clouds 3 1002 80 10000 1 60 11:20 14.11.2019
4440 Clouds 3 1003 80 10000 2.1 40 10:58 14.11.2019
4441 Clouds 2 1003 65 10000 2.6 290 10:38 14.11.2019
4442 Clouds 1 1003 86 10000 3.1 280 10:20 14.11.2019
4443 Clouds 1 1003 86 10000 1 70 09:56 14.11.2019
4444 Clouds -3 1002 74 10000 5.7 290 09:37 14.11.2019
4445 Clouds -3 1002 74 10000 5.7 290 09:18 14.11.2019
4446 Clouds -2 1002 74 10000 5.7 290 08:46 14.11.2019
4447 Clouds -3 1002 80 10000 3.1 300 08:25 14.11.2019
4448 Clouds -3 1001 74 10000 1.5 0 07:43 14.11.2019
4449 Clouds -2 1002 92 10000 2.1 40 07:25 14.11.2019
4450 Clouds -2 1002 92 10000 1.5 60 06:55 14.11.2019
4451 Clouds -2 1001 59 10000 7.7 70 06:37 14.11.2019
4452 Clouds -3 1001 59 10000 8.7 80 06:18 14.11.2019
4453 Clear -2 1002 64 10000 3.6 110 04:40 14.11.2019
4454 Clear -1 1003 74 10000 4.6 90 03:52 14.11.2019
4455 Clear -2 1003 74 10000 1.5 90 02:41 14.11.2019
4456 Clear -2 1004 86 10000 2.1 90 01:41 14.11.2019
4457 Clear -1 1004 80 10000 3.1 110 01:20 14.11.2019
4458 Clear 0 1005 80 10000 1 0 00:43 14.11.2019
4459 Clear 0 1005 80 10000 1 0 00:43 14.11.2019
4460 Clear -1 1005 74 10000 2.6 0 00:25 14.11.2019
4461 Clear 0 1005 69 10000 2.1 0 23:40 13.11.2019
4462 Clear 0 1006 78 10000 3.1 190 23:20 13.11.2019
4463 Clear 0 1005 78 10000 2.6 190 22:55 13.11.2019
4464 Clear 0 1006 78 10000 1 0 22:37 13.11.2019
4465 Clear 0 1006 78 10000 1.5 110 22:19 13.11.2019
4466 Clouds 0 1005 86 10000 2.6 190 21:55 13.11.2019
4467 Clear 0 1006 86 10000 3.6 180 21:37 13.11.2019
4468 Clouds 0 1005 78 10000 2.1 190 21:18 13.11.2019
4469 Clouds 1 1005 78 10000 2.1 190 20:55 13.11.2019
4470 Clouds 1 1006 70 10000 1.5 0 20:37 13.11.2019
4471 Clouds 2 1006 70 10000 1.5 0 20:18 13.11.2019
4472 Clouds 2 1006 75 10000 0.5 0 19:43 13.11.2019
4473 Clouds 2 1006 75 10000 0.5 0 19:20 13.11.2019
4474 Clouds 2 1005 88 10000 3.1 210 18:56 13.11.2019
4475 Clouds 1 1006 70 10000 1.5 0 18:38 13.11.2019
4476 Clouds 1 1006 70 10000 1.5 0 18:38 13.11.2019
4477 Clouds 2 1006 70 10000 1.5 0 18:19 13.11.2019
4478 Clouds 2 1005 88 10000 3.1 210 17:57 13.11.2019
4479 Clouds 2 1006 81 10000 2.1 130 17:38 13.11.2019
4480 Clouds 3 1006 81 10000 2.1 130 17:20 13.11.2019
4481 Clouds 3 1006 75 10000 2.1 130 16:58 13.11.2019
4482 Clouds 3 1006 75 10000 2.1 130 16:39 13.11.2019
4483 Clouds 3 1006 75 10000 2.1 130 16:39 13.11.2019
4484 Clouds 3 1006 81 10000 2.1 130 16:21 13.11.2019
4485 Clouds 4 1005 70 10000 1.5 0 15:58 13.11.2019
4486 Clouds 4 1005 70 10000 1.5 0 15:39 13.11.2019
4487 Clouds 4 1005 75 10000 1.5 0 15:20 13.11.2019
4488 Clouds 4 1005 65 10000 2.6 290 14:42 13.11.2019
4489 Clouds 4 1005 70 10000 2.6 290 14:22 13.11.2019
4490 Clouds 4 1005 75 10000 3.6 280 13:57 13.11.2019
4491 Clouds 4 1005 75 10000 3.6 280 13:36 13.11.2019
4492 Clouds 4 1005 75 10000 2.6 310 13:18 13.11.2019
4493 Clouds 4 1005 75 10000 3.1 320 12:43 13.11.2019
4494 Clouds 4 1003 80 10000 4.6 240 12:25 13.11.2019
4495 Clouds 3 1005 81 10000 5.1 280 11:59 13.11.2019
4496 Clouds 4 1005 81 10000 5.1 280 11:39 13.11.2019
4497 Clouds 3 1005 81 10000 5.1 280 11:19 13.11.2019
4498 Clouds 3 1005 81 10000 5.1 280 11:19 13.11.2019
4499 Clouds 3 1004 86 10000 4.1 240 10:57 13.11.2019
4500 Clouds 3 1005 80 10000 4.6 290 10:39 13.11.2019
4501 Clouds 3 1005 86 10000 4.6 290 10:19 13.11.2019
4502 Clouds 3 1005 86 10000 4.6 290 10:19 13.11.2019
4503 Snow 2 1003 85 5000 1.5 240 09:45 13.11.2019
4504 Clouds 2 1004 93 10000 1 0 09:21 13.11.2019
4505 Clouds 1 1004 93 10000 1 0 08:55 13.11.2019
4506 Clouds 1 1004 93 10000 1 0 08:36 13.11.2019
4507 Clouds 1 1004 93 10000 1 0 08:18 13.11.2019
4508 Clouds 1 1004 93 10000 1 270 07:42 13.11.2019
4509 Snow 1 1002 94 3500 1 210 07:20 13.11.2019
4510 Clouds 1 1003 94 10000 1 0 06:43 13.11.2019
4511 Clouds 1 1003 94 10000 1 0 06:19 13.11.2019
4512 Clouds 1 1003 94 10000 1 0 06:19 13.11.2019
4513 Clouds 1 1003 94 10000 1 0 06:19 13.11.2019
4514 Clouds 1 1003 94 10000 1 0 06:19 13.11.2019
4515 Clouds 1 1003 94 10000 1 0 06:19 13.11.2019
4516 Snow 1 1003 100 10000 0.5 0 05:51 13.11.2019
4517 Snow 1 1002 93 10000 3.1 170 05:30 13.11.2019
4518 Clouds 2 1003 100 10000 1 0 04:21 13.11.2019
4519 Snow 2 1002 93 10000 1.5 120 01:58 13.11.2019
4520 Clouds 2 1003 86 10000 1.5 0 01:40 13.11.2019
4521 Clouds 2 1003 93 10000 2.1 230 00:44 13.11.2019
4522 Snow 2 1003 97 10000 0.5 0 23:59 12.11.2019
4523 Clouds 2 1004 93 10000 1.5 110 23:41 12.11.2019
4524 Clouds 2 1004 100 10000 1 0 23:21 12.11.2019
4525 Rain 2 1004 100 10000 0.5 0 22:43 12.11.2019
4526 Drizzle 2 1005 86 10000 1 0 22:20 12.11.2019
4527 Snow 2 1004 86 10000 2.1 210 21:58 12.11.2019
4528 Clouds 2 1005 86 10000 3.1 110 21:40 12.11.2019
4529 Clouds 2 1005 93 10000 3.1 100 21:22 12.11.2019
4530 Clouds 2 1005 86 10000 2.1 130 20:56 12.11.2019
4531 Clouds 2 1005 86 10000 2.1 130 20:37 12.11.2019
4532 Clouds 2 1005 86 10000 2.1 130 20:18 12.11.2019
4533 Clouds 2 1004 93 10000 3.1 140 19:57 12.11.2019
4534 Clouds 2 1005 100 10000 1.5 130 19:38 12.11.2019
4535 Clouds 2 1005 100 10000 1.5 130 19:19 12.11.2019
4536 Clouds 2 1005 95 10000 2.1 180 18:57 12.11.2019
4537 Clouds 2 1005 100 10000 1.5 130 18:39 12.11.2019
4538 Clouds 2 1005 100 10000 1.5 130 18:21 12.11.2019
4539 Clouds 2 1006 100 10000 2.1 90 17:56 12.11.2019
4540 Clouds 2 1006 100 10000 2.1 90 17:56 12.11.2019
4541 Clouds 2 1006 100 10000 2.1 90 17:37 12.11.2019
4542 Clouds 2 1006 86 10000 1 0 17:19 12.11.2019
4543 Clouds 3 1006 81 10000 2.6 120 16:44 12.11.2019
4544 Clouds 4 1006 81 10000 2.6 120 16:25 12.11.2019
4545 Clouds 4 1005 80 10000 3.6 210 15:57 12.11.2019
4546 Clouds 4 1005 80 10000 3.6 210 15:57 12.11.2019
4547 Clouds 4 1006 75 10000 2.1 70 15:39 12.11.2019
4548 Clouds 4 1006 75 10000 2.1 70 15:20 12.11.2019
4549 Clouds 5 1005 75 10000 3.6 220 14:55 12.11.2019
4550 Clouds 5 1007 75 10000 2.1 80 14:36 12.11.2019
4551 Clouds 5 1007 75 10000 2.1 80 14:18 12.11.2019
4552 Clouds 5 1006 80 10000 4.1 220 13:54 12.11.2019
4553 Clouds 5 1007 81 10000 2.6 110 13:36 12.11.2019
4554 Clouds 5 1007 81 10000 2.6 110 13:18 12.11.2019
4555 Clouds 5 1008 70 10000 2.1 140 12:39 12.11.2019
4556 Clouds 5 1008 70 10000 2.1 140 12:19 12.11.2019
4557 Clouds 4 1007 80 10000 3.6 220 11:54 12.11.2019
4558 Clouds 4 1009 87 10000 2.1 100 11:36 12.11.2019
4559 Clouds 4 1009 87 10000 2.1 100 11:18 12.11.2019
4560 Clouds 4 1009 93 10000 2.6 100 10:55 12.11.2019
4561 Clouds 3 1008 81 10000 4.6 210 10:36 12.11.2019
4562 Clouds 4 1009 93 10000 2.6 100 10:36 12.11.2019
4563 Clouds 3 1009 93 10000 2.6 100 10:18 12.11.2019
4564 Clouds 3 1010 93 10000 2.6 130 09:39 12.11.2019
4565 Clouds 3 1010 93 10000 2.6 130 09:19 12.11.2019
4566 Clouds 2 1010 100 10000 1.5 0 08:49 12.11.2019
4567 Clouds 2 1010 100 10000 1.5 0 08:29 12.11.2019
4568 Clouds 2 1010 93 9000 1.5 0 07:43 12.11.2019
4569 Clouds 2 1009 100 10000 3.6 210 07:24 12.11.2019
4570 Clouds 2 1010 93 6000 1.5 110 06:53 12.11.2019
4571 Clouds 2 1010 93 6000 1.5 110 06:26 12.11.2019
4572 Clouds 2 1010 93 10000 2.1 110 05:54 12.11.2019
4573 Snow 2 1009 93 10000 5.1 220 04:56 12.11.2019
4574 Clouds 2 1010 93 10000 1 0 04:35 12.11.2019
4575 Rain 2 1010 93 10000 1 0 02:39 12.11.2019
4576 Rain 2 1010 100 10000 0.5 0 01:27 12.11.2019
4577 Snow 2 1008 86 10000 6.7 210 00:56 12.11.2019
4578 Rain 2 1009 75 10000 2.6 190 00:37 12.11.2019
4579 Snow 2 1008 86 10000 5.7 210 23:55 11.11.2019
4580 Snow 2 1007 86 10000 5.1 200 23:37 11.11.2019
4581 Rain 2 1008 86 10000 4.1 160 23:18 11.11.2019
4582 Rain 2 1009 100 5000 1 0 22:38 11.11.2019
4583 Rain 2 1009 100 5000 3.1 120 22:20 11.11.2019
4584 Snow 2 1007 100 4500 2.1 190 21:58 11.11.2019
4585 Rain 2 1008 93 6000 1 0 21:39 11.11.2019
4586 Rain 2 1008 93 8000 2.6 100 21:20 11.11.2019
4587 Snow 2 1008 93 8000 4.1 210 20:55 11.11.2019
4588 Rain 2 1008 93 8000 2.6 100 20:37 11.11.2019
4589 Rain 2 1009 93 6000 2.1 110 20:19 11.11.2019
4590 Rain 2 1009 93 6000 2.1 110 19:42 11.11.2019
4591 Rain 2 1009 93 8000 1.5 130 19:20 11.11.2019
4592 Rain 2 1009 93 8000 1.5 130 18:58 11.11.2019
4593 Rain 2 1009 93 8000 1.5 130 18:40 11.11.2019
4594 Mist 2 1006 76 4000 1.5 250 18:20 11.11.2019
4595 Rain 2 1008 86 8000 1 0 17:45 11.11.2019
4596 Clouds 2 1008 86 10000 2.1 90 17:27 11.11.2019
4597 Clouds 2 1008 80 10000 1 0 16:56 11.11.2019
4598 Clouds 2 1008 86 10000 2.1 90 16:38 11.11.2019
4599 Clouds 2 1008 86 10000 1 0 16:20 11.11.2019
4600 -273 0 0 0 0 0 15:41 11.11.2019
4601 Clouds 2 1008 86 10000 0.5 0 15:20 11.11.2019
4602 Clouds 2 1008 86 10000 0.5 0 15:20 11.11.2019
4603 Clouds 2 1008 86 10000 0.5 0 14:55 11.11.2019
4604 Clouds 2 1009 86 10000 0.5 0 14:37 11.11.2019
4605 Clouds 2 1009 86 10000 2.1 250 14:18 11.11.2019
4606 Clouds 2 1009 86 10000 2.1 250 13:40 11.11.2019
4607 Fog 2 1008 92 650 1 0 13:21 11.11.2019
4608 Clouds 3 1010 86 10000 1.5 0 12:58 11.11.2019
4609 Clouds 3 1010 86 10000 1.5 0 12:58 11.11.2019
4610 Clouds 3 1010 86 10000 1.5 0 12:40 11.11.2019
4611 Clouds 3 1010 86 10000 1.5 0 12:40 11.11.2019
4612 Clouds 4 1011 93 10000 2.6 100 12:22 11.11.2019
4613 Clouds 3 1011 93 10000 2.6 100 11:58 11.11.2019
4614 Clouds 3 1011 93 10000 2.6 100 11:40 11.11.2019
4615 Clouds 1 1012 86 10000 3.1 80 11:21 11.11.2019
4616 Clouds 1 1012 86 10000 3.1 80 11:21 11.11.2019
4617 Clouds 0 1012 86 10000 3.1 80 10:43 11.11.2019
4618 Clouds 1 1013 86 10000 2.1 110 10:19 11.11.2019
4619 Clouds 0 1013 86 10000 2.1 110 09:58 11.11.2019
4620 Clouds 0 1013 86 10000 2.1 110 09:58 11.11.2019
4621 Clouds 0 1013 86 10000 2.1 110 09:39 11.11.2019
4622 Clouds 0 1013 86 10000 2.1 110 09:39 11.11.2019
4623 Clouds 0 1013 93 9000 2.6 110 09:19 11.11.2019
4624 Clouds 0 1013 93 9000 2.6 110 08:41 11.11.2019
4625 Fog -1 1012 100 500 1.5 150 08:22 11.11.2019
4626 Fog -1 1013 100 550 1.5 110 07:57 11.11.2019
4627 Clouds -1 1014 100 9000 2.1 120 07:37 11.11.2019
4628 Clouds -2 1014 47 7000 1.5 130 07:19 11.11.2019
4629 Clouds -2 1014 47 7000 1.5 130 07:19 11.11.2019
4630 Clouds -2 1014 47 7000 1.5 130 06:48 11.11.2019
4631 Clouds -2 1014 47 10000 2.1 130 06:23 11.11.2019
4632 Clouds -2 1014 47 10000 2.1 80 05:51 11.11.2019
4633 Clouds -1 1014 50 10000 1.5 110 04:36 11.11.2019
4634 Clouds -2 1015 100 8000 1.5 110 03:24 11.11.2019
4635 Clouds -1 1015 50 10000 3.1 120 02:26 11.11.2019
4636 Clouds -1 1014 100 750 2.1 100 01:56 11.11.2019
4637 Clouds -1 1015 100 8000 1 110 01:34 11.11.2019
4638 Clouds -1 1015 55 10000 2.1 90 00:49 11.11.2019
4639 Clouds -1 1015 55 10000 2.1 90 00:49 11.11.2019
4640 Clouds -1 1015 55 10000 2.1 90 00:26 11.11.2019
4641 Clouds -1 1015 93 10000 1.5 100 23:40 10.11.2019
4642 Clouds 0 1015 86 10000 1 0 23:20 10.11.2019
4643 Clouds 0 1015 86 10000 1 0 23:20 10.11.2019
4644 Clouds 0 1014 100 500 1 0 22:58 10.11.2019
4645 Clouds 0 1014 100 650 1.5 180 22:39 10.11.2019
4646 Fog 0 1014 100 600 0.5 0 22:20 10.11.2019
4647 Fog 0 1014 100 600 0.5 0 21:58 10.11.2019
4648 Fog 0 1014 100 600 0.5 0 21:58 10.11.2019
4649 Fog 0 1014 100 600 0.5 0 21:58 10.11.2019
4650 Fog 0 1014 100 550 1 0 21:39 10.11.2019
4651 Fog 0 1015 100 700 0.5 0 21:21 10.11.2019
4652 Fog 0 1015 100 700 0.5 0 20:56 10.11.2019
4653 Fog 0 1014 100 500 1 0 20:38 10.11.2019
4654 Clouds 0 1015 93 10000 2.6 340 20:20 10.11.2019
4655 Clouds 0 1015 93 10000 2.6 340 19:54 10.11.2019
4656 Fog 0 1014 100 650 1 0 19:36 10.11.2019
4657 Fog 0 1014 100 750 1 0 19:18 10.11.2019
4658 Fog 0 1014 100 750 1 0 18:54 10.11.2019
4659 Fog 0 1014 100 750 1 0 18:54 10.11.2019
4660 Fog 0 1014 100 750 1 0 18:54 10.11.2019
4661 Fog 0 1014 100 700 1.5 100 18:36 10.11.2019
4662 Fog 1 1014 79 650 1.5 150 18:18 10.11.2019
4663 Fog 1 1014 79 650 1.5 150 18:18 10.11.2019
4664 Fog 1 1014 79 650 1.5 150 17:55 10.11.2019
4665 Clouds 1 1014 86 10000 1.5 0 17:36 10.11.2019
4666 Clouds 2 1014 80 10000 1 0 17:18 10.11.2019
4667 Clouds 2 1013 80 10000 1.5 330 16:43 10.11.2019
4668 Clouds 3 1013 80 10000 1.5 330 16:25 10.11.2019
4669 Clouds 3 1013 80 10000 1.5 310 15:56 10.11.2019
4670 Clouds 3 1013 80 10000 1.5 310 15:37 10.11.2019
4671 Clouds 4 1012 80 10000 0.5 0 15:18 10.11.2019
4672 Clouds 4 1012 80 10000 2.6 310 14:56 10.11.2019
4673 Clouds 4 1012 80 10000 2.6 310 14:38 10.11.2019
4674 Clouds 4 1012 80 10000 2.6 310 14:20 10.11.2019
4675 Clouds 4 1012 80 10000 2.1 260 13:45 10.11.2019
4676 Clouds 4 1012 80 10000 2.1 260 13:22 10.11.2019
4677 Clouds 4 1012 80 10000 2.1 260 13:22 10.11.2019
4678 Clouds 5 1012 80 10000 2.1 260 13:00 10.11.2019
4679 Clouds 5 1012 80 10000 3.1 270 12:41 10.11.2019
4680 Clouds 5 1011 86 10000 2.6 260 12:19 10.11.2019
4681 Clouds 5 1012 93 10000 2.1 30 11:55 10.11.2019
4682 Clouds 5 1012 93 10000 2.1 30 11:55 10.11.2019
4683 Clouds 4 1011 86 10000 2.6 260 11:37 10.11.2019
4684 Clouds 2 1011 80 10000 2.1 260 11:19 10.11.2019
4685 Clouds 2 1011 80 10000 3.1 290 10:42 10.11.2019
4686 Clouds 1 1010 86 10000 2.1 300 10:21 10.11.2019
4687 Clouds 1 1010 86 10000 2.1 300 09:56 10.11.2019
4688 Clouds 0 1010 86 10000 2.6 280 09:38 10.11.2019
4689 Clouds -1 1010 93 10000 1 0 09:19 10.11.2019
4690 Clouds -1 1010 47 10000 0.5 0 08:39 10.11.2019
4691 Clouds -1 1010 47 10000 0.5 0 08:39 10.11.2019
4692 Clouds -1 1010 47 10000 0.5 0 08:39 10.11.2019
4693 Clouds -2 1009 92 8000 2.6 100 08:20 10.11.2019
4694 Clear -2 1009 92 9000 2.1 100 07:44 10.11.2019
4695 Clear -2 1009 92 9000 2.1 100 07:26 10.11.2019
4696 Clear -2 1008 100 10000 0.5 0 06:54 10.11.2019
4697 Clear -2 1008 92 10000 0.5 0 05:51 10.11.2019
4698 Clear -1 1008 80 10000 1.5 100 03:28 10.11.2019
4699 Clear -1 1008 82 10000 0.5 0 02:20 10.11.2019
4700 Clear -1 1008 82 9000 2.1 110 01:20 10.11.2019
4701 Clear -1 1008 100 10000 1 0 00:45 10.11.2019
4702 Clear -1 1008 100 1400 2.46 167 23:59 09.11.2019
4703 Clear -1 1008 100 1400 2.46 167 23:59 09.11.2019
4704 Clear 0 1008 100 10000 1 0 23:38 09.11.2019
4705 Clear 0 1008 93 10000 1.5 100 23:19 09.11.2019
4706 Clear 0 1009 100 10000 2.6 130 22:42 09.11.2019
4707 Clear 0 1008 100 900 1 100 22:21 09.11.2019
4708 Clear 0 1009 93 10000 2.1 130 21:58 09.11.2019
4709 Clear 0 1009 91 10000 2.1 100 21:38 09.11.2019
4710 Clear 0 1009 93 10000 2.6 100 21:20 09.11.2019
4711 Clear 0 1010 93 10000 2.1 90 20:44 09.11.2019
4712 Clear 1 1010 93 10000 2.1 90 20:24 09.11.2019
4713 Clouds 1 1010 86 10000 1.5 170 19:58 09.11.2019
4714 Clouds 2 1010 86 10000 1.5 210 19:40 09.11.2019
4715 Clouds 2 1010 94 10000 1 0 19:22 09.11.2019
4716 Clouds 2 1010 94 10000 1 0 19:22 09.11.2019
4717 Clouds 2 1010 86 10000 1.5 210 18:57 09.11.2019
4718 Clouds 2 1010 87 10000 0.5 0 18:38 09.11.2019
4719 Clouds 2 1010 87 10000 0.5 0 18:38 09.11.2019
4720 Clouds 2 1010 87 10000 0.5 0 18:18 09.11.2019
4721 Clouds 3 1010 87 10000 1.5 210 17:41 09.11.2019
4722 Clouds 4 1010 87 10000 1.5 210 17:22 09.11.2019
4723 Clouds 4 1010 87 10000 1.5 210 17:22 09.11.2019
4724 Clouds 5 1010 80 10000 2.1 190 16:56 09.11.2019
4725 Clouds 5 1011 81 10000 1 0 16:37 09.11.2019
4726 Clouds 6 1010 70 10000 1 0 16:18 09.11.2019
4727 Clouds 7 1011 70 10000 1.5 330 15:41 09.11.2019
4728 Clouds 7 1011 75 10000 0.5 0 15:23 09.11.2019
4729 Clouds 7 1011 75 10000 0.5 0 14:46 09.11.2019
4730 Clouds 7 1010 75 10000 1.5 230 14:23 09.11.2019
4731 Clouds 7 1011 81 10000 2.1 70 13:58 09.11.2019
4732 Clouds 7 1011 75 10000 2.1 70 13:40 09.11.2019
4733 Clouds 6 1011 75 10000 0.5 0 13:21 09.11.2019
4734 Clouds 6 1011 75 10000 0.5 0 12:58 09.11.2019
4735 Clouds 6 1012 75 10000 0.5 0 12:40 09.11.2019
4736 Clouds 6 1012 75 10000 1.5 0 12:21 09.11.2019
4737 Clouds 5 1012 87 10000 1.5 0 11:48 09.11.2019
4738 Clouds 5 1012 81 10000 2.1 40 11:22 09.11.2019
4739 Clouds 5 1011 86 10000 3.1 240 10:58 09.11.2019
4740 Clouds 4 1012 81 10000 2.1 40 10:39 09.11.2019
4741 Clouds 4 1012 87 10000 2.1 110 10:19 09.11.2019
4742 Clouds 4 1012 87 10000 2.1 110 09:45 09.11.2019
4743 Clouds 3 1010 93 7000 3.6 210 09:26 09.11.2019
4744 Clouds 3 1010 93 9000 3.1 210 08:57 09.11.2019
4745 Clouds 3 1012 93 10000 1 240 08:38 09.11.2019
4746 Drizzle 3 1011 93 10000 1 0 08:19 09.11.2019
4747 Drizzle 3 1011 93 10000 1 0 08:19 09.11.2019
4748 Drizzle 3 1011 93 10000 1 0 07:43 09.11.2019
4749 Clouds 3 1011 93 10000 0.5 0 07:22 09.11.2019
4750 Clouds 3 1010 86 10000 0.5 0 06:48 09.11.2019
4751 Clouds 3 1010 86 10000 0.5 0 06:30 09.11.2019
4752 Clouds 3 1010 86 10000 1 220 05:42 09.11.2019
4753 Clouds 3 1010 86 10000 1 0 04:51 09.11.2019
4754 Clouds 3 1009 86 10000 1.5 110 02:57 09.11.2019
4755 Clouds 3 1009 86 10000 1.5 0 02:39 09.11.2019
4756 Snow 3 1007 93 10000 5.1 260 01:43 09.11.2019
4757 Clouds 3 1009 86 10000 1 0 00:49 09.11.2019
4758 Snow 3 1007 93 10000 5.1 240 00:29 09.11.2019
4759 Snow 3 1006 93 10000 4.6 250 23:43 08.11.2019
4760 Clouds 3 1008 86 10000 4.6 280 23:23 08.11.2019
4761 Clouds 3 1006 93 10000 6.7 250 22:59 08.11.2019
4762 Clouds 3 1008 93 10000 1 0 22:41 08.11.2019
4763 Clouds 3 1008 86 10000 1.5 0 22:21 08.11.2019
4764 Clouds 3 1006 100 10000 6.2 240 21:55 08.11.2019
4765 Clouds 3 1008 86 10000 2.1 250 21:36 08.11.2019
4766 Clouds 3 1007 93 10000 1 0 21:18 08.11.2019
4767 Clouds 3 1006 93 10000 1 170 20:41 08.11.2019
4768 Clouds 3 1006 93 10000 1 170 20:20 08.11.2019
4769 Clouds 3 1005 93 10000 4.6 230 19:56 08.11.2019
4770 Drizzle 3 1006 86 10000 2.1 250 19:37 08.11.2019
4771 Drizzle 3 1006 86 10000 2.1 250 19:18 08.11.2019
4772 Drizzle 3 1006 86 10000 2.1 250 19:18 08.11.2019
4773 Clouds 3 1005 93 10000 5.1 250 18:55 08.11.2019
4774 Clouds 3 1006 86 10000 1.5 0 18:36 08.11.2019
4775 Clouds 3 1006 86 10000 1.5 0 18:18 08.11.2019
4776 Clouds 3 1004 93 10000 5.7 250 17:54 08.11.2019
4777 Clouds 3 1005 93 10000 2.1 260 17:36 08.11.2019
4778 Clouds 3 1005 93 10000 2.1 260 17:18 08.11.2019
4779 Clouds 3 1005 93 10000 2.1 260 16:57 08.11.2019
4780 Drizzle 3 1005 86 10000 3.1 290 16:38 08.11.2019
4781 Drizzle 3 1005 86 10000 3.1 290 16:18 08.11.2019
4782 Rain 3 1004 86 7000 3.6 290 15:42 08.11.2019
4783 Rain 3 1004 86 7000 3.6 290 15:23 08.11.2019
4784 Drizzle 4 1002 93 10000 6.2 230 14:58 08.11.2019
4785 Rain 4 1004 86 10000 3.6 270 14:39 08.11.2019
4786 Rain 4 1004 86 10000 3.6 270 14:39 08.11.2019
4787 Rain 4 1004 86 6000 5.1 270 14:20 08.11.2019
4788 Rain 4 1004 86 6000 5.1 270 14:20 08.11.2019
4789 Rain 4 1004 86 6000 5.1 270 13:59 08.11.2019
4790 Rain 4 1003 86 10000 4.1 270 13:41 08.11.2019
4791 Clouds 4 1003 87 10000 4.1 270 13:22 08.11.2019
4792 Rain 4 1003 87 10000 3.6 270 12:49 08.11.2019
4793 Drizzle 4 1002 100 2000 2.6 230 12:29 08.11.2019
4794 Rain 4 1003 93 10000 3.6 270 11:59 08.11.2019
4795 Mist 4 1002 100 1400 2.1 240 11:59 08.11.2019
4796 Drizzle 4 1003 93 3500 3.1 250 11:41 08.11.2019
4797 Drizzle 4 1003 100 3500 3.1 250 11:21 08.11.2019
4798 Mist 4 1002 100 1700 1.5 280 10:59 08.11.2019
4799 Rain 4 1003 100 5000 2.1 270 10:41 08.11.2019
4800 Mist 4 1001 100 1500 1 350 10:21 08.11.2019
4801 Mist 4 1002 100 2800 2.1 330 09:58 08.11.2019
4802 Fog 4 1001 100 300 1.5 30 09:38 08.11.2019
4803 Fog 4 1001 93 800 2.6 50 09:19 08.11.2019
4804 Drizzle 4 1003 100 5000 1.5 0 08:45 08.11.2019
4805 Mist 4 1001 93 4000 4.6 60 08:21 08.11.2019
4806 Clouds 4 1003 93 10000 1.5 0 07:45 08.11.2019
4807 Clouds 4 1003 87 10000 1.5 0 07:23 08.11.2019
4808 Clouds 4 1003 93 10000 2.1 10 06:57 08.11.2019
4809 Clouds 4 1003 93 10000 2.1 10 06:57 08.11.2019
4810 Clouds 4 1003 87 10000 1.5 300 06:37 08.11.2019
4811 Drizzle 4 1003 87 10000 2.1 300 06:19 08.11.2019
4812 Rain 3 1004 100 10000 1 0 05:26 08.11.2019
4813 Rain 3 1004 87 10000 1 0 04:29 08.11.2019
4814 Rain 3 1004 87 10000 1 0 04:29 08.11.2019
4815 Rain 3 1005 87 10000 2.1 350 03:42 08.11.2019
4816 Rain 3 1005 93 10000 1.5 0 03:18 08.11.2019
4817 Rain 3 1005 93 10000 0.5 0 01:54 08.11.2019
4818 Rain 3 1005 93 10000 0.5 0 01:35 08.11.2019
4819 Rain 5 1006 93 10000 0.5 0 00:45 08.11.2019
4820 Rain 5 1006 93 10000 1 170 00:21 08.11.2019
4821 Rain 5 1006 93 10000 1 0 23:48 07.11.2019
4822 Rain 5 1006 93 10000 1 0 23:27 07.11.2019
4823 Rain 5 1006 87 10000 2.6 260 22:57 07.11.2019
4824 Rain 6 1006 87 10000 3.1 260 22:38 07.11.2019
4825 Rain 5 1006 81 10000 1.5 0 22:20 07.11.2019
4826 Snow 5 1006 93 10000 1 200 21:39 07.11.2019
4827 Clouds 5 1005 100 10000 0.5 0 21:21 07.11.2019
4828 Clouds 6 1005 100 10000 0.5 0 20:59 07.11.2019
4829 Clouds 5 1005 93 10000 0.5 0 20:40 07.11.2019
4830 Clouds 5 1005 93 10000 0.5 0 20:40 07.11.2019
4831 Clouds 6 1005 93 10000 0.5 0 20:22 07.11.2019
4832 Clouds 6 1005 87 10000 0.5 0 19:58 07.11.2019
4833 Clouds 6 1005 87 10000 0.5 0 19:39 07.11.2019
4834 Clouds 6 1005 87 10000 0.5 0 19:20 07.11.2019
4835 Clouds 6 1005 87 10000 3.1 210 18:57 07.11.2019
4836 Clouds 6 1005 87 10000 1 0 18:38 07.11.2019
4837 Clouds 6 1005 87 10000 1 0 18:19 07.11.2019
4838 Clouds 6 1005 81 10000 0.5 0 17:56 07.11.2019
4839 Clouds 6 1005 81 10000 0.5 0 17:37 07.11.2019
4840 Clouds 7 1005 81 10000 0.5 0 17:19 07.11.2019
4841 Clouds 7 1005 81 10000 1 0 16:54 07.11.2019
4842 Clouds 7 1004 87 10000 1.5 330 16:36 07.11.2019
4843 Clouds 7 1004 87 10000 1.5 330 16:18 07.11.2019
4844 Clouds 8 1003 75 10000 2.1 310 15:40 07.11.2019
4845 Clouds 8 1004 87 10000 2.1 320 15:20 07.11.2019
4846 Clouds 8 1004 81 10000 2.6 320 14:56 07.11.2019
4847 Clouds 8 1004 81 10000 2.6 320 14:37 07.11.2019
4848 Clouds 8 1004 81 10000 2.6 320 14:19 07.11.2019
4849 Clouds 8 1004 81 10000 3.1 320 13:54 07.11.2019
4850 Clouds 8 1004 81 10000 4.6 290 13:36 07.11.2019
4851 Clouds 8 1004 81 10000 4.6 290 13:18 07.11.2019
4852 Clouds 9 1004 81 10000 4.6 290 12:55 07.11.2019
4853 Clouds 8 1002 66 10000 1.5 70 12:36 07.11.2019
4854 Clouds 8 1002 66 10000 1.5 70 12:36 07.11.2019
4855 Clouds 8 1002 66 10000 1.5 70 12:18 07.11.2019
4856 Clouds 8 1002 87 10000 2.1 280 11:40 07.11.2019
4857 Clouds 7 1002 87 10000 2.1 280 11:22 07.11.2019
4858 Clouds 7 1002 81 10000 1 0 10:42 07.11.2019
4859 Clouds 6 1002 75 10000 1 0 10:19 07.11.2019
4860 Clouds 5 1003 81 10000 2.6 150 09:45 07.11.2019
4861 Clouds 4 1003 86 10000 2.6 110 09:25 07.11.2019
4862 Clouds 2 1003 86 10000 2.6 110 08:59 07.11.2019
4863 -273 0 0 0 0 0 08:40 07.11.2019
4864 Clear 1 1004 93 10000 2.1 120 08:22 07.11.2019
4865 Clear 1 1004 93 10000 2.1 120 07:56 07.11.2019
4866 Clear 1 1003 93 10000 1 0 07:38 07.11.2019
4867 Clear 1 1003 93 10000 1 0 07:38 07.11.2019
4868 Clear 1 1003 93 10000 1 0 07:19 07.11.2019
4869 Clear 1 1003 93 10000 1 0 07:19 07.11.2019
4870 Clear 1 1003 85 10000 2.1 150 06:42 07.11.2019
4871 Clear 1 1003 86 10000 1.5 110 06:22 07.11.2019
4872 Clear 1 1004 93 10000 2.1 110 05:48 07.11.2019
4873 -273 0 0 0 0 0 05:30 07.11.2019
4874 Clear 1 1006 85 10000 1 30 05:30 07.11.2019
4875 Clear 2 1004 93 10000 3.1 110 04:50 07.11.2019
4876 Clear 2 1004 93 10000 2.6 110 04:28 07.11.2019
4877 Clouds 4 1006 81 10000 1 0 01:27 07.11.2019
4878 Clouds 4 1007 87 10000 1.5 0 00:27 07.11.2019
4879 Clouds 4 1007 75 10000 3.1 190 23:50 06.11.2019
4880 Clouds 4 1007 81 10000 1 0 23:23 06.11.2019
4881 Clouds 4 1007 87 10000 1.5 120 22:59 06.11.2019
4882 Clouds 4 1007 87 10000 0.5 0 22:39 06.11.2019
4883 Clouds 5 1007 87 10000 0.5 0 22:20 06.11.2019
4884 Clouds 5 1007 81 10000 1 0 21:57 06.11.2019
4885 Clouds 5 1007 87 10000 1 0 21:38 06.11.2019
4886 Clouds 5 1007 87 10000 1 0 21:19 06.11.2019
4887 Clouds 5 1007 87 10000 1 0 20:55 06.11.2019
4888 Clouds 5 1007 70 10000 0.5 0 20:37 06.11.2019
4889 Clouds 5 1007 70 10000 0.5 0 20:18 06.11.2019
4890 Clouds 5 1007 66 10000 2.1 230 19:40 06.11.2019
4891 Clouds 6 1007 66 10000 2.1 230 19:22 06.11.2019
4892 Clouds 6 1007 66 10000 2.1 230 18:59 06.11.2019
4893 Clouds 6 1007 66 10000 2.1 230 18:59 06.11.2019
4894 Clouds 6 1007 66 10000 2.1 230 18:39 06.11.2019
4895 Clouds 6 1006 66 10000 2.1 260 18:19 06.11.2019
4896 Rain 6 1005 87 10000 4.1 220 17:59 06.11.2019
4897 Clouds 6 1006 70 10000 3.1 260 17:40 06.11.2019
4898 Clouds 7 1006 66 10000 3.1 260 17:21 06.11.2019
4899 Clouds 7 1005 87 10000 4.1 250 16:56 06.11.2019
4900 Clouds 7 1006 66 10000 4.6 270 16:38 06.11.2019
4901 Clouds 7 1006 71 10000 4.6 270 16:19 06.11.2019
4902 Clouds 7 1006 71 10000 4.6 270 15:56 06.11.2019
4903 Clouds 8 1005 66 10000 3.6 270 15:37 06.11.2019
4904 Clouds 8 1005 66 10000 3.6 270 15:19 06.11.2019
4905 Clouds 8 1005 66 10000 3.6 270 14:56 06.11.2019
4906 Clouds 8 1005 66 10000 4.6 270 14:38 06.11.2019
4907 Clouds 8 1005 66 10000 4.6 270 14:20 06.11.2019
4908 Clouds 8 1005 71 10000 4.1 260 13:41 06.11.2019
4909 Clouds 8 1005 66 10000 4.1 260 13:22 06.11.2019
4910 Clouds 8 1004 93 10000 5.7 230 12:58 06.11.2019
4911 Clouds 8 1005 66 10000 2.6 260 12:40 06.11.2019
4912 Clouds 8 1005 71 10000 2.6 240 12:21 06.11.2019
4913 Clouds 8 1004 87 10000 5.7 220 11:58 06.11.2019
4914 Clouds 8 1004 87 10000 5.7 220 11:58 06.11.2019
4915 Clouds 8 1005 71 10000 2.6 240 11:38 06.11.2019
4916 Clouds 7 1005 66 10000 2.1 300 11:18 06.11.2019
4917 Drizzle 7 1004 93 10000 6.7 230 10:56 06.11.2019
4918 Clouds 7 1005 71 10000 2.1 300 10:38 06.11.2019
4919 Clouds 7 1005 81 10000 1.5 100 10:20 06.11.2019
4920 Clouds 6 1005 87 10000 1.5 100 09:56 06.11.2019
4921 Clouds 6 1005 87 10000 1.5 100 09:36 06.11.2019
4922 Rain 6 1004 81 10000 1 0 09:18 06.11.2019
4923 Drizzle 6 1004 93 10000 4.6 220 08:54 06.11.2019
4924 Rain 5 1004 81 10000 1 0 08:36 06.11.2019
4925 Rain 5 1003 87 10000 1 0 08:18 06.11.2019
4926 Rain 5 1003 87 10000 1 0 07:40 06.11.2019
4927 Rain 5 1003 93 10000 1 0 07:21 06.11.2019
4928 Rain 5 1003 93 10000 1 0 07:21 06.11.2019
4929 Rain 5 1003 93 10000 1 0 06:45 06.11.2019
4930 Clouds 5 1002 93 10000 4.6 230 06:25 06.11.2019
4931 Clouds 4 1002 93 10000 1 0 04:52 06.11.2019
4932 Clouds 4 1001 100 10000 1.5 0 02:22 06.11.2019
4933 Clouds 4 1001 93 10000 1 210 01:37 06.11.2019
4934 Clouds 4 1001 93 10000 1 0 00:39 06.11.2019
4935 Clouds 4 1001 93 10000 1.5 210 23:58 05.11.2019
4936 Clouds 4 1001 87 10000 1 0 23:38 05.11.2019
4937 Clouds 4 1001 87 10000 2.1 230 23:20 05.11.2019
4938 Clouds 4 1000 81 10000 1 0 22:45 05.11.2019
4939 Clouds 4 1000 93 10000 1.5 0 22:20 05.11.2019
4940 Clouds 4 1000 93 10000 1.5 140 21:59 05.11.2019
4941 Clouds 4 1000 93 10000 1.5 140 21:59 05.11.2019
4942 Rain 4 1000 87 10000 2.6 120 21:41 05.11.2019
4943 Rain 4 1000 87 10000 2.6 120 21:41 05.11.2019
4944 Rain 5 1000 87 10000 2.6 120 21:21 05.11.2019
4945 Clouds 5 1000 100 10000 2.1 230 20:57 05.11.2019
4946 Clouds 5 1000 81 10000 2.6 130 20:38 05.11.2019
4947 Clouds 5 1000 81 10000 1.5 330 20:20 05.11.2019
4948 Snow 5 999 100 10000 2.1 160 19:56 05.11.2019
4949 Clouds 5 1000 81 10000 3.1 270 19:38 05.11.2019
4950 Clouds 5 1000 81 10000 3.1 270 19:38 05.11.2019
4951 Snow 5 999 93 10000 2.6 150 19:20 05.11.2019
4952 Snow 5 999 93 10000 2.6 150 18:57 05.11.2019
4953 Snow 6 999 70 10000 4.6 180 18:38 05.11.2019
4954 Snow 6 999 70 10000 4.6 180 18:19 05.11.2019
4955 Snow 6 999 70 10000 4.6 180 18:19 05.11.2019
4956 Clouds 6 999 70 10000 4.1 180 17:56 05.11.2019
4957 Clouds 6 999 70 10000 4.1 180 17:37 05.11.2019
4958 Clouds 7 999 76 10000 4.1 180 17:18 05.11.2019
4959 Clouds 7 999 71 10000 2.6 160 16:42 05.11.2019
4960 Clouds 7 999 76 10000 2.6 160 16:22 05.11.2019
4961 Clouds 8 999 76 10000 3.1 160 15:59 05.11.2019
4962 Clouds 8 999 81 10000 3.1 100 15:37 05.11.2019
4963 Clouds 8 999 81 10000 3.1 100 15:18 05.11.2019
4964 Clouds 8 999 81 10000 2.6 90 14:55 05.11.2019
4965 Clouds 8 999 81 10000 2.6 90 14:37 05.11.2019
4966 Clouds 8 999 81 10000 2.6 90 14:19 05.11.2019
4967 Clouds 8 999 87 10000 2.1 100 13:43 05.11.2019
4968 Clouds 8 999 81 10000 2.1 190 13:24 05.11.2019
4969 Clouds 8 1000 87 10000 2.6 100 12:43 05.11.2019
4970 Clouds 8 1000 87 10000 2.6 100 12:23 05.11.2019
4971 Clouds 8 1000 87 10000 2.6 100 11:59 05.11.2019
4972 Clouds 7 1000 93 10000 2.6 110 11:40 05.11.2019
4973 Clouds 7 999 93 10000 2.6 90 11:21 05.11.2019
4974 Clouds 7 999 93 10000 2.6 90 10:59 05.11.2019
4975 Rain 7 1000 87 10000 1 0 10:40 05.11.2019
4976 Rain 7 1000 87 10000 1.5 130 10:22 05.11.2019
4977 Rain 7 1000 87 10000 1.5 130 09:55 05.11.2019
4978 Rain 7 1000 87 10000 1.5 130 09:37 05.11.2019
4979 Rain 7 999 87 10000 2.1 140 09:18 05.11.2019
4980 Rain 7 999 87 10000 2.1 140 08:39 05.11.2019
4981 Rain 7 999 87 10000 2.6 150 08:20 05.11.2019
4982 Clouds 6 999 87 10000 2.1 190 07:57 05.11.2019
4983 Rain 6 999 87 10000 2.6 150 07:39 05.11.2019
4984 Rain 6 999 87 10000 2.6 150 07:39 05.11.2019
4985 Rain 6 999 93 10000 2.6 140 07:20 05.11.2019
4986 Rain 6 999 93 10000 1.5 0 06:50 05.11.2019
4987 Rain 6 999 100 10000 4.1 110 05:51 05.11.2019
4988 Drizzle 6 999 93 10000 4.1 100 05:23 05.11.2019
4989 Rain 7 999 93 10000 4.1 200 04:31 05.11.2019
4990 Rain 7 998 93 10000 3.6 200 03:55 05.11.2019
4991 Rain 7 1000 81 10000 2.6 260 02:48 05.11.2019
4992 Clouds 7 1000 87 10000 1.5 0 02:22 05.11.2019
4993 Clouds 7 1000 87 10000 3.6 300 01:25 05.11.2019
4994 Rain 8 1000 93 10000 5.7 280 00:37 05.11.2019
4995 Rain 8 999 87 10000 7.7 300 23:56 04.11.2019
4996 Rain 8 999 87 10000 4.6 330 23:37 04.11.2019
4997 Clouds 8 998 87 10000 2.6 0 23:18 04.11.2019
4998 Clouds 8 998 87 10000 2.6 0 23:18 04.11.2019
4999 Rain 9 999 93 10000 1 0 22:42 04.11.2019
5000 Rain 9 998 87 10000 0.5 0 22:23 04.11.2019
5001 Clouds 9 998 81 10000 2.6 110 21:56 04.11.2019
5002 Clouds 9 998 87 10000 5.7 240 21:56 04.11.2019
5003 Clouds 9 998 81 10000 2.6 110 21:56 04.11.2019
5004 Clouds 9 998 81 10000 2.6 110 21:38 04.11.2019
5005 Clouds 9 997 87 10000 2.6 310 21:19 04.11.2019
5006 Rain 9 997 81 10000 2.6 250 20:59 04.11.2019
5007 Clouds 9 997 87 10000 2.6 310 20:39 04.11.2019
5008 Clouds 9 997 87 10000 4.6 110 20:21 04.11.2019
5009 Clouds 9 997 87 10000 4.6 110 19:59 04.11.2019
5010 Clouds 9 997 87 10000 4.6 110 19:40 04.11.2019
5011 Clouds 9 997 87 10000 2.1 210 19:21 04.11.2019
5012 Clouds 10 997 87 10000 2.1 210 18:57 04.11.2019
5013 Clouds 10 997 87 10000 2.1 210 18:38 04.11.2019
5014 Clouds 10 996 81 10000 1.5 240 18:19 04.11.2019
5015 Clouds 10 996 81 10000 1.5 240 17:40 04.11.2019
5016 Clouds 10 995 71 10000 1.5 0 17:21 04.11.2019
5017 Clouds 10 995 71 10000 1.5 0 16:57 04.11.2019
5018 Clouds 11 995 71 10000 1.5 0 16:39 04.11.2019
5019 Rain 11 995 66 10000 1 0 16:21 04.11.2019
5020 Clouds 11 995 81 10000 4.6 210 15:56 04.11.2019
5021 Clouds 11 995 71 10000 1 0 15:38 04.11.2019
5022 Clouds 11 995 76 10000 1 0 15:19 04.11.2019
5023 Clouds 11 995 81 10000 7.2 230 14:54 04.11.2019
5024 Clouds 11 995 71 10000 1 0 14:54 04.11.2019
5025 Clouds 11 995 71 10000 1 0 14:36 04.11.2019
5026 Clouds 12 995 76 10000 2.6 60 14:18 04.11.2019
5027 Clouds 12 994 71 10000 1 0 13:42 04.11.2019
5028 Clouds 12 994 71 10000 1 0 13:22 04.11.2019
5029 Clouds 12 994 71 10000 1 0 12:58 04.11.2019
5030 Clouds 12 994 76 10000 2.6 300 12:40 04.11.2019
5031 Clouds 12 994 71 10000 2.6 300 12:21 04.11.2019
5032 Clouds 12 994 71 10000 2.6 300 11:56 04.11.2019
5033 Clouds 12 995 66 10000 1.5 330 11:38 04.11.2019
5034 Clouds 11 995 71 10000 1.5 330 11:19 04.11.2019
5035 Clouds 10 996 76 10000 2.6 260 10:42 04.11.2019
5036 Clouds 10 996 76 10000 2.6 260 10:42 04.11.2019
5037 Clouds 9 995 76 10000 6.2 220 10:24 04.11.2019
5038 Clouds 9 995 81 10000 3.1 90 09:46 04.11.2019
5039 Clouds 9 995 81 10000 3.1 90 09:28 04.11.2019
5040 Clouds 9 995 81 10000 3.1 90 09:28 04.11.2019
5041 Clouds 8 996 81 10000 6.2 230 08:59 04.11.2019
5042 Clouds 8 996 81 10000 3.1 110 08:40 04.11.2019
5043 Clouds 7 997 76 10000 1 0 08:21 04.11.2019
5044 Clouds 7 997 76 10000 1 0 07:44 04.11.2019
5045 Rain 7 996 87 10000 6.2 220 07:24 04.11.2019
5046 Clouds 7 996 76 10000 1 0 06:57 04.11.2019
5047 Clouds 7 996 76 10000 1 0 06:34 04.11.2019
5048 Clouds 7 997 81 10000 2.1 120 05:49 04.11.2019
5049 Clouds 8 997 62 10000 1 0 04:44 04.11.2019
5050 Rain 8 995 81 10000 8.2 230 04:21 04.11.2019
5051 Clouds 8 997 71 10000 1 0 02:34 04.11.2019
5052 Clouds 8 997 66 10000 1.5 220 01:22 04.11.2019
5053 Clouds 8 997 66 10000 1.5 0 00:43 04.11.2019
5054 Clouds 8 996 66 10000 2.6 240 00:21 04.11.2019
5055 Clouds 8 996 71 10000 3.6 240 23:44 03.11.2019
5056 Clouds 8 995 66 10000 5.1 260 23:22 03.11.2019
5057 Rain 8 993 87 10000 8.7 230 22:59 03.11.2019
5058 Clouds 8 995 93 10000 1 0 22:41 03.11.2019
5059 Clouds 8 994 93 10000 1.5 110 22:20 03.11.2019
5060 Rain 8 993 87 10000 7.7 220 21:58 03.11.2019
5061 Clouds 8 994 93 10000 1 0 21:39 03.11.2019
5062 Drizzle 8 993 87 10000 1 0 21:20 03.11.2019
5063 Rain 8 992 93 10000 2.1 110 20:55 03.11.2019
5064 Rain 8 992 93 10000 2.1 110 20:36 03.11.2019
5065 Rain 8 992 93 10000 2.1 110 20:18 03.11.2019
5066 Rain 8 991 93 10000 6.2 220 19:55 03.11.2019
5067 Rain 8 992 93 10000 2.1 110 19:37 03.11.2019
5068 Rain 9 991 81 10000 1 0 19:19 03.11.2019
5069 Rain 9 991 81 10000 1 0 18:39 03.11.2019
5070 Rain 9 990 87 10000 5.7 280 18:19 03.11.2019
5071 Clouds 9 989 93 10000 3.1 240 17:58 03.11.2019
5072 Rain 9 990 87 10000 5.7 280 17:40 03.11.2019
5073 Rain 10 989 87 10000 5.7 270 17:19 03.11.2019
5074 Rain 10 989 87 10000 5.1 260 16:55 03.11.2019
5075 Rain 10 988 93 10000 1.5 20 16:55 03.11.2019
5076 Rain 10 988 93 10000 1.5 20 16:55 03.11.2019
5077 Rain 10 989 87 10000 5.1 260 16:37 03.11.2019
5078 Rain 10 988 87 10000 3.6 270 16:18 03.11.2019
5079 Rain 11 987 87 10000 3.6 270 15:54 03.11.2019
5080 Rain 11 987 87 10000 3.6 270 15:36 03.11.2019
5081 Rain 11 987 93 10000 3.6 280 15:18 03.11.2019
5082 Clouds 11 987 87 10000 3.6 280 14:40 03.11.2019
5083 Clouds 11 987 87 10000 2.1 280 14:18 03.11.2019
5084 Clouds 11 988 87 10000 3.1 60 13:55 03.11.2019
5085 Clouds 11 987 87 10000 2.1 280 13:36 03.11.2019
5086 Clouds 11 988 87 10000 1.5 310 13:18 03.11.2019
5087 Clouds 11 988 87 10000 3.1 100 12:38 03.11.2019
5088 Clouds 11 988 87 10000 3.1 100 12:19 03.11.2019
5089 Clouds 11 989 87 10000 4.1 90 11:55 03.11.2019
5090 Clouds 11 989 81 10000 3.6 100 11:37 03.11.2019
5091 Clouds 11 989 93 10000 3.1 100 11:19 03.11.2019
5092 Clouds 10 989 93 10000 3.1 100 10:40 03.11.2019
5093 Rain 10 990 93 10000 3.6 100 10:22 03.11.2019
5094 Rain 10 990 93 10000 3.6 100 10:22 03.11.2019
5095 Rain 10 990 93 10000 3.6 100 10:22 03.11.2019
5096 Drizzle 10 991 100 10000 2.1 90 09:58 03.11.2019
5097 Drizzle 9 990 93 10000 1.5 120 09:39 03.11.2019
5098 Drizzle 9 990 93 10000 1.5 120 09:39 03.11.2019
5099 Clouds 9 990 100 10000 1.5 60 09:21 03.11.2019
5100 Rain 9 991 100 10000 2.1 120 08:43 03.11.2019
5101 Rain 9 991 93 10000 2.1 130 08:24 03.11.2019
5102 Drizzle 9 991 93 10000 1 190 07:46 03.11.2019
5103 Rain 9 991 93 10000 1.5 180 07:28 03.11.2019
5104 Clouds 9 992 93 10000 1.5 130 06:53 03.11.2019
5105 Clouds 9 992 93 10000 1.5 130 06:34 03.11.2019
5106 Rain 9 993 93 10000 2.1 120 05:40 03.11.2019
5107 Rain 9 993 93 10000 2.1 120 05:40 03.11.2019
5108 Rain 9 993 93 10000 2.1 120 04:58 03.11.2019
5109 Rain 9 994 93 10000 2.1 120 04:38 03.11.2019
5110 Rain 10 995 93 10000 3.1 100 03:39 03.11.2019
5111 Clouds 10 996 87 10000 1 0 02:45 03.11.2019
5112 Clouds 10 996 93 10000 2.1 0 02:20 03.11.2019
5113 Clouds 10 996 93 10000 1.5 120 01:42 03.11.2019
5114 Clouds 9 996 100 10000 1 0 01:20 03.11.2019
5115 Clouds 9 996 100 10000 1.5 0 00:45 03.11.2019
5116 Clouds 9 996 100 10000 1.5 0 00:27 03.11.2019
5117 Clouds 9 996 93 10000 2.1 150 23:58 02.11.2019
5118 Clouds 9 996 100 10000 1.5 270 23:38 02.11.2019
5119 Clouds 10 996 93 10000 1 0 23:19 02.11.2019
5120 Clouds 10 996 87 10000 3.1 170 22:56 02.11.2019
5121 Clouds 10 997 87 10000 1.5 120 22:37 02.11.2019
5122 Clouds 10 997 93 10000 3.6 120 22:18 02.11.2019
5123 Clouds 10 997 93 10000 3.6 120 21:56 02.11.2019
5124 Clouds 10 997 93 10000 3.1 130 21:38 02.11.2019
5125 Clouds 10 998 93 10000 1.5 100 21:18 02.11.2019
5126 Clouds 10 998 93 10000 1.5 100 21:18 02.11.2019
5127 Clouds 10 998 87 10000 3.1 180 20:58 02.11.2019
5128 Clouds 11 998 100 10000 1 0 20:39 02.11.2019
5129 Clouds 11 998 100 10000 1 0 20:19 02.11.2019
5130 Clouds 11 999 100 10000 1 0 19:42 02.11.2019
5131 Clouds 11 998 93 10000 1 210 19:24 02.11.2019
5132 Clouds 11 998 93 10000 1 210 18:57 02.11.2019
5133 Clouds 12 998 93 10000 1 210 18:38 02.11.2019
5134 Clouds 12 999 93 10000 0.5 0 18:20 02.11.2019
5135 Clouds 12 999 93 10000 0.5 0 17:58 02.11.2019
5136 Clouds 12 999 87 10000 1 0 17:39 02.11.2019
5137 Clouds 13 999 87 10000 1 0 17:21 02.11.2019
5138 Clouds 13 999 87 10000 1 0 16:57 02.11.2019
5139 Clouds 14 999 77 10000 0.5 0 16:36 02.11.2019
5140 Clouds 14 999 77 10000 0.5 0 16:18 02.11.2019
5141 Clouds 15 999 77 10000 1 0 15:41 02.11.2019
5142 Clouds 15 999 77 10000 1 0 15:41 02.11.2019
5143 Clouds 15 999 67 10000 1 0 15:20 02.11.2019
5144 Clouds 15 999 67 10000 1 0 14:43 02.11.2019
5145 Clouds 16 999 77 10000 3.1 80 14:24 02.11.2019
5146 Clouds 16 1000 77 10000 7.2 230 13:58 02.11.2019
5147 Clouds 16 1000 77 10000 1 0 13:38 02.11.2019
5148 Clouds 15 1000 82 10000 3.6 270 13:19 02.11.2019
5149 Clouds 15 1001 87 10000 3.6 270 12:41 02.11.2019
5150 Clouds 14 1001 87 10000 2.6 270 12:23 02.11.2019
5151 Clouds 14 1001 82 10000 1.99 161 11:58 02.11.2019
5152 Clouds 14 1001 87 10000 2.6 270 11:39 02.11.2019
5153 Rain 13 1001 93 10000 3.1 80 11:21 02.11.2019
5154 Rain 12 1001 93 10000 3.1 80 10:50 02.11.2019
5155 Rain 12 1001 93 10000 3.1 80 10:28 02.11.2019
5156 Clouds 11 1002 100 10000 1 0 09:59 02.11.2019
5157 Clouds 11 1001 93 10000 0.5 0 09:40 02.11.2019
5158 Clouds 11 1002 100 10000 1 0 09:20 02.11.2019
5159 Rain 10 1002 100 10000 0.5 0 08:46 02.11.2019
5160 Rain 10 1002 100 10000 4.1 280 08:22 02.11.2019
5161 Rain 10 1002 100 10000 4.1 280 07:50 02.11.2019
5162 Rain 10 1002 100 10000 4.1 280 07:32 02.11.2019
5163 Rain 10 1002 100 6000 1 0 06:55 02.11.2019
5164 Rain 10 1002 93 10000 3.6 260 06:37 02.11.2019
5165 Rain 9 1002 100 10000 2.1 130 05:56 02.11.2019
5166 Rain 9 1003 93 10000 2.6 130 05:25 02.11.2019
5167 Rain 9 1003 93 10000 1.5 290 04:21 02.11.2019
5168 Clouds 9 1003 93 10000 2.6 260 03:50 02.11.2019
5169 Clouds 9 1003 93 10000 2.1 50 02:42 02.11.2019
5170 Rain 9 1005 100 6000 0.5 0 01:44 02.11.2019
5171 Clouds 9 1004 100 10000 4.6 200 01:23 02.11.2019
5172 Clouds 9 1005 100 6000 0.5 0 00:51 02.11.2019
5173 Clouds 9 1004 100 10000 2.6 200 00:26 02.11.2019
5174 Clouds 9 1005 100 5000 1 0 23:48 01.11.2019
5175 Clouds 9 1006 93 10000 1 0 23:22 01.11.2019
5176 Rain 10 1005 100 10000 3.1 180 22:58 01.11.2019
5177 Clouds 10 1006 100 10000 1 0 22:39 01.11.2019
5178 Clouds 10 1006 93 10000 2.6 0 22:20 01.11.2019
5179 Clouds 10 1006 93 8000 2.1 100 21:41 01.11.2019
5180 Drizzle 10 1007 93 4000 1.5 130 21:23 01.11.2019
5181 Rain 10 1007 93 9000 3.1 130 20:57 01.11.2019
5182 Drizzle 10 1007 93 4200 1 0 20:39 01.11.2019
5183 Mist 10 1008 93 4400 1.5 100 20:19 01.11.2019
5184 Rain 10 1007 100 8000 0.5 0 19:56 01.11.2019
5185 Clouds 10 1008 93 10000 1.5 120 19:37 01.11.2019
5186 Clouds 10 1008 93 10000 1.5 120 19:37 01.11.2019
5187 Rain 10 1008 93 7000 1.5 100 19:18 01.11.2019
5188 Rain 10 1008 93 7000 1.5 100 18:39 01.11.2019
5189 Rain 10 1009 100 6000 2.1 90 18:20 01.11.2019
5190 Rain 10 1009 100 6000 2.1 90 17:55 01.11.2019
5191 Rain 10 1009 100 6000 2.1 90 17:37 01.11.2019
5192 Rain 10 1010 93 6000 2.1 110 17:18 01.11.2019
5193 Drizzle 10 1010 93 8000 1 0 16:38 01.11.2019
5194 Drizzle 10 1010 93 8000 1 0 16:38 01.11.2019
5195 Drizzle 11 1010 93 8000 1 0 16:19 01.11.2019
5196 Clouds 11 1011 93 9000 0.61 40 15:41 01.11.2019
5197 Clouds 11 1011 93 8000 1 0 15:23 01.11.2019
5198 Clouds 11 1011 93 8000 1 0 14:59 01.11.2019
5199 Clouds 11 1011 93 8000 1 0 14:41 01.11.2019
5200 Clouds 11 1012 87 7000 1.5 20 14:23 01.11.2019
5201 Clouds 12 1012 87 7000 1.5 20 13:57 01.11.2019
5202 Clouds 12 1012 87 7000 1.5 20 13:37 01.11.2019
5203 Clouds 12 1014 87 7000 1 0 13:19 01.11.2019
5204 Clouds 11 1014 93 7000 1 0 12:43 01.11.2019
5205 Clouds 11 1014 87 10000 1 0 12:25 01.11.2019
5206 Clouds 11 1014 81 10000 0.5 0 11:55 01.11.2019
5207 Clouds 11 1015 93 7000 1 330 11:37 01.11.2019
5208 Clouds 11 1015 93 9000 0.5 0 11:18 01.11.2019
5209 Clouds 10 1015 93 7000 1 0 10:41 01.11.2019
5210 Clouds 10 1015 93 6000 0.12 33 10:21 01.11.2019
5211 Clouds 9 1015 93 6000 0.12 33 09:56 01.11.2019
5212 Clouds 8 1015 93 6000 0.12 33 09:37 01.11.2019
5213 Clouds 8 1016 93 6000 1.5 240 09:19 01.11.2019
5214 Clouds 7 1016 93 6000 1.5 240 08:42 01.11.2019
5215 Clouds 7 1016 93 7000 1.5 250 08:21 01.11.2019
5216 Clouds 7 1015 100 6000 1 260 07:53 01.11.2019
5217 Clouds 6 1015 100 10000 1 0 07:26 01.11.2019
5218 Clouds 6 1015 100 6000 1 260 06:57 01.11.2019
5219 Clouds 6 1016 100 6000 0.5 0 06:39 01.11.2019
5220 Clouds 6 1016 100 5000 0.5 0 06:21 01.11.2019
5221 Mist 6 1017 100 4800 1.5 140 05:43 01.11.2019
5222 Mist 6 1018 100 4200 0.5 0 03:34 01.11.2019
5223 Mist 6 1018 100 4200 0.5 0 03:34 01.11.2019
5224 Clouds 6 1018 93 6000 0.5 160 01:56 01.11.2019
5225 Clouds 6 1018 93 6000 0.5 160 01:28 01.11.2019
5226 Clouds 6 1019 93 7000 1 280 00:21 01.11.2019
5227 Clouds 6 1019 93 4600 0.5 0 23:56 31.10.2019
5228 Clouds 6 1019 100 6000 0.5 0 23:38 31.10.2019
5229 Clouds 6 1019 93 5000 1 350 23:19 31.10.2019
5230 Clouds 6 1020 93 6000 1 340 22:42 31.10.2019
5231 Mist 6 1019 93 3500 1 0 22:24 31.10.2019
5232 Clouds 6 1020 93 6000 1.5 320 21:58 31.10.2019
5233 Clouds 6 1020 93 6000 2.1 300 21:40 31.10.2019
5234 Clouds 6 1020 93 6000 1 0 21:19 31.10.2019
5235 Mist 6 1020 93 4700 1.5 0 20:41 31.10.2019
5236 Mist 6 1020 93 4700 1.5 0 20:23 31.10.2019
5237 Mist 6 1020 93 4700 1.5 0 19:59 31.10.2019
5238 Mist 6 1020 93 3600 1 260 19:38 31.10.2019
5239 Mist 6 1020 93 3600 1 260 19:38 31.10.2019
5240 Mist 6 1020 93 3600 1 260 19:20 31.10.2019
5241 Mist 6 1020 93 4000 1 0 18:44 31.10.2019
5242 Mist 6 1020 93 1100 2.1 70 18:26 31.10.2019
5243 Mist 6 1020 93 1200 3.1 60 17:59 31.10.2019
5244 Mist 6 1019 93 5000 1 0 17:40 31.10.2019
5245 Clouds 7 1019 93 10000 2.1 310 17:20 31.10.2019
5246 Fog 7 1019 93 400 3.1 50 16:55 31.10.2019
5247 Clouds 7 1019 93 10000 2.1 310 16:37 31.10.2019
5248 Clouds 7 1019 93 10000 2.6 280 16:18 31.10.2019
5249 Clouds 7 1019 93 10000 2.6 280 15:40 31.10.2019
5250 Clouds 7 1019 93 10000 2.6 280 15:40 31.10.2019
5251 Clouds 7 1019 93 10000 2.6 280 15:21 31.10.2019
5252 Clouds 7 1019 93 10000 2.6 280 15:21 31.10.2019
5253 Mist 7 1019 93 2500 3.6 50 14:58 31.10.2019
5254 Clouds 8 1019 93 10000 2.1 280 14:40 31.10.2019
5255 Clouds 8 1019 93 10000 2.1 280 14:22 31.10.2019
5256 Mist 7 1019 93 2700 4.6 50 13:59 31.10.2019
5257 Clouds 8 1020 93 10000 1.5 0 13:38 31.10.2019
5258 Clouds 7 1020 93 10000 1.5 0 13:19 31.10.2019
5259 Mist 7 1020 100 1800 2.1 90 12:55 31.10.2019
5260 Mist 7 1020 100 1800 2.1 90 12:37 31.10.2019
5261 Clouds 8 1020 93 10000 1 0 12:18 31.10.2019
5262 Clouds 7 1020 93 10000 0.5 0 11:45 31.10.2019
5263 Clouds 7 1020 87 10000 0.5 0 11:20 31.10.2019
5264 Mist 7 1021 93 5000 4.6 50 10:58 31.10.2019
5265 Mist 6 1020 100 1000 2.1 70 10:39 31.10.2019
5266 Clouds 6 1020 87 10000 1 0 10:20 31.10.2019
5267 Clouds 5 1020 93 10000 0.5 0 09:45 31.10.2019
5268 Clouds 5 1021 93 10000 1 0 09:20 31.10.2019
5269 Clouds 5 1021 93 10000 1 0 09:20 31.10.2019
5270 Mist 5 1021 93 1700 3.1 60 08:57 31.10.2019
5271 Clouds 5 1021 100 10000 1 0 08:39 31.10.2019
5272 Clouds 5 1020 100 10000 1 0 08:20 31.10.2019
5273 Clouds 5 1020 93 10000 1 0 07:45 31.10.2019
5274 Mist 5 1020 93 1800 4.1 50 07:24 31.10.2019
5275 Clouds 5 1020 93 10000 1.5 0 06:52 31.10.2019
5276 Clouds 5 1020 93 10000 1.5 0 06:30 31.10.2019
5277 Drizzle 5 1020 93 10000 0.5 0 05:19 31.10.2019
5278 Drizzle 5 1020 93 10000 0.5 0 05:19 31.10.2019
5279 Rain 5 1021 100 8000 1 0 02:49 31.10.2019
5280 Rain 5 1021 100 6000 0.5 280 02:22 31.10.2019
5281 Rain 5 1022 93 9000 1 0 00:48 31.10.2019
5282 Rain 5 1022 93 6000 0.5 0 00:24 31.10.2019
5283 Rain 5 1022 93 7000 1 0 23:40 30.10.2019
5284 Rain 5 1022 93 7000 2.1 340 23:22 30.10.2019
5285 Rain 5 1022 93 9000 2.6 340 22:41 30.10.2019
5286 Rain 5 1022 93 9000 2.6 340 22:19 30.10.2019
5287 Rain 5 1022 93 6000 5.7 30 21:54 30.10.2019
5288 Rain 5 1022 100 7000 1.5 0 21:36 30.10.2019
5289 Rain 5 1022 100 7000 1.5 0 21:36 30.10.2019
5290 Rain 5 1022 93 10000 1.5 250 21:18 30.10.2019
5291 Rain 5 1022 93 10000 1.5 250 21:18 30.10.2019
5292 Rain 5 1022 93 10000 1.5 250 21:18 30.10.2019
5293 Rain 5 1022 93 5000 2.6 340 20:56 30.10.2019
5294 Rain 5 1022 93 10000 1.5 250 20:37 30.10.2019
5295 Rain 5 1022 100 6000 1.5 0 20:18 30.10.2019
5296 Rain 5 1022 100 6000 1.5 0 20:18 30.10.2019
5297 Rain 5 1022 100 6000 1.5 0 19:40 30.10.2019
5298 Rain 5 1022 100 6000 1.5 0 19:40 30.10.2019
5299 Rain 5 1022 100 9000 1.5 0 19:22 30.10.2019
5300 Rain 5 1021 93 10000 2.6 20 18:59 30.10.2019
5301 Rain 5 1021 93 10000 2.6 20 18:38 30.10.2019
5302 Drizzle 6 1022 100 5000 4.1 90 18:18 30.10.2019
5303 Rain 6 1021 93 10000 2.6 20 17:55 30.10.2019
5304 Rain 6 1021 93 10000 2.6 20 17:36 30.10.2019
5305 Rain 6 1022 93 10000 1 220 17:18 30.10.2019
5306 Rain 6 1022 93 10000 1 220 16:42 30.10.2019
5307 Rain 6 1022 93 10000 1 220 16:23 30.10.2019
5308 Clouds 6 1022 93 9000 4.6 60 15:57 30.10.2019
5309 Rain 6 1022 93 10000 0.5 0 15:38 30.10.2019
5310 Rain 6 1022 93 10000 0.5 0 15:19 30.10.2019
5311 Clouds 6 1022 93 10000 5.1 70 14:56 30.10.2019
5312 Rain 6 1022 93 10000 0.5 0 14:38 30.10.2019
5313 Clouds 7 1022 93 9000 5.1 100 14:20 30.10.2019
5314 Clouds 7 1023 93 10000 5.1 70 13:54 30.10.2019
5315 Rain 7 1022 93 10000 0.5 0 13:36 30.10.2019
5316 Rain 7 1023 93 10000 1 0 13:18 30.10.2019
5317 Rain 7 1023 93 10000 1 0 12:42 30.10.2019
5318 Drizzle 6 1023 93 10000 1.5 30 12:23 30.10.2019
5319 Clouds 6 1023 93 10000 5.1 80 11:54 30.10.2019
5320 Clouds 6 1023 93 8000 5.7 90 11:36 30.10.2019
5321 Clouds 6 1023 93 8000 5.7 90 11:36 30.10.2019
5322 Rain 6 1023 93 9000 1 0 11:18 30.10.2019
5323 Rain 6 1023 93 9000 1 0 10:41 30.10.2019
5324 Rain 6 1023 100 9000 1 0 10:23 30.10.2019
5325 Rain 5 1023 100 9000 1 0 09:42 30.10.2019
5326 Rain 5 1023 100 9000 1 0 09:22 30.10.2019
5327 Clouds 5 1024 93 10000 4.6 80 08:57 30.10.2019
5328 Rain 5 1023 100 9000 1 0 08:39 30.10.2019
5329 Rain 5 1023 93 10000 1 0 08:19 30.10.2019
5330 Rain 5 1023 93 10000 1 0 07:43 30.10.2019
5331 Clouds 5 1023 93 10000 4.1 60 06:59 30.10.2019
5332 Rain 5 1022 93 6000 1.5 0 06:40 30.10.2019
5333 Rain 5 1022 100 8000 2.1 330 05:58 30.10.2019
5334 Rain 5 1022 100 8000 2.1 330 05:39 30.10.2019
5335 Rain 5 1022 93 3300 1.5 260 04:26 30.10.2019
5336 Clouds 5 1022 93 6000 2.1 250 03:23 30.10.2019
5337 Drizzle 5 1022 93 5000 2.1 240 02:49 30.10.2019
5338 Drizzle 6 1022 93 10000 2.1 230 01:49 30.10.2019
5339 Clouds 6 1022 100 10000 1.5 250 00:43 30.10.2019
5340 Rain 6 1022 87 10000 4.6 360 00:25 30.10.2019
5341 Rain 6 1022 93 10000 1.5 220 23:41 29.10.2019
5342 Drizzle 6 1022 93 10000 1.5 0 23:22 29.10.2019
5343 Drizzle 6 1022 93 10000 2.1 10 22:45 29.10.2019
5344 Drizzle 6 1022 93 6000 2.6 360 22:20 29.10.2019
5345 Clouds 6 1022 93 6000 3.6 50 21:55 29.10.2019
5346 Rain 6 1022 87 7000 2.1 350 21:37 29.10.2019
5347 Drizzle 6 1022 87 10000 2.1 350 21:19 29.10.2019
5348 Rain 6 1021 93 7000 2.1 330 20:42 29.10.2019
5349 Rain 6 1021 93 7000 2.1 330 20:23 29.10.2019
5350 Clouds 6 1022 93 10000 3.6 40 19:59 29.10.2019
5351 Rain 6 1021 93 5000 3.1 10 19:40 29.10.2019
5352 Rain 6 1021 100 7000 3.6 70 19:22 29.10.2019
5353 Rain 6 1021 93 5000 3.1 10 18:59 29.10.2019
5354 Rain 6 1021 93 6000 3.1 10 18:40 29.10.2019
5355 Rain 6 1021 93 6000 3.1 10 18:21 29.10.2019
5356 Rain 6 1021 93 8000 4.1 60 17:58 29.10.2019
5357 Rain 6 1020 93 4500 2.1 10 17:39 29.10.2019
5358 Drizzle 6 1021 93 6000 6.7 70 17:21 29.10.2019
5359 Drizzle 6 1021 93 6000 6.7 70 17:21 29.10.2019
5360 Rain 7 1021 93 4600 5.1 50 16:57 29.10.2019
5361 Rain 7 1020 93 3300 2.1 280 16:38 29.10.2019
5362 Drizzle 7 1021 100 3500 4.6 70 16:18 29.10.2019
5363 Clouds 7 1020 93 10000 2.1 260 15:42 29.10.2019
5364 Clouds 7 1020 93 10000 2.1 250 15:21 29.10.2019
5365 Rain 7 1020 93 10000 5.7 30 14:58 29.10.2019
5366 Clouds 7 1020 93 10000 2.1 250 14:39 29.10.2019
5367 Clouds 7 1020 93 10000 2.1 250 14:39 29.10.2019
5368 Clouds 7 1020 93 10000 2.1 250 14:39 29.10.2019
5369 Clouds 7 1020 93 10000 1 0 14:21 29.10.2019
5370 Clouds 7 1020 93 8000 4.6 50 13:57 29.10.2019
5371 Clouds 7 1020 93 10000 2.1 300 13:38 29.10.2019
5372 Rain 7 1020 93 10000 1 0 13:20 29.10.2019
5373 Rain 7 1020 100 10000 1.5 340 12:42 29.10.2019
5374 Rain 7 1020 100 8000 2.1 310 12:24 29.10.2019
5375 Clouds 7 1020 93 9000 3.1 50 11:55 29.10.2019
5376 Rain 7 1020 100 8000 2.1 310 11:36 29.10.2019
5377 Rain 7 1020 93 5000 2.1 310 11:18 29.10.2019
5378 Clouds 7 1019 93 6000 4.1 40 10:56 29.10.2019
5379 Rain 7 1019 93 4000 2.6 330 10:37 29.10.2019
5380 Rain 7 1019 100 4000 2.6 330 10:19 29.10.2019
5381 Rain 7 1019 100 4400 2.6 340 09:41 29.10.2019
5382 Rain 7 1019 100 4400 2.6 340 09:41 29.10.2019
5383 Rain 7 1018 100 4000 2.1 330 09:23 29.10.2019
5384 Rain 7 1019 100 5000 4.1 20 08:55 29.10.2019
5385 Rain 7 1018 93 3000 3.6 50 08:36 29.10.2019
5386 Rain 7 1018 100 4000 2.1 340 08:18 29.10.2019
5387 Rain 7 1017 100 800 2.6 60 07:47 29.10.2019
5388 Drizzle 7 1017 93 10000 2.1 260 07:19 29.10.2019
5389 Drizzle 7 1017 93 10000 2.1 260 06:47 29.10.2019
5390 Drizzle 7 1017 93 10000 2.1 260 06:28 29.10.2019
5391 Rain 7 1017 93 7000 2.1 260 05:52 29.10.2019
5392 Rain 7 1017 93 7000 2.1 260 05:34 29.10.2019
5393 Rain 7 1017 93 8000 2.1 260 04:33 29.10.2019
5394 Rain 7 1017 100 5000 2.6 270 02:34 29.10.2019
5395 Rain 7 1017 93 5000 3.6 40 01:54 29.10.2019
5396 Mist 7 1018 100 4900 2.6 300 01:23 29.10.2019
5397 Drizzle 7 1018 100 3800 2.1 280 00:48 29.10.2019
5398 Rain 7 1018 93 6000 3.6 70 23:58 28.10.2019
5399 Drizzle 7 1018 100 2800 1.5 310 23:36 28.10.2019
5400 Drizzle 7 1018 100 2600 2.1 320 23:18 28.10.2019
5401 Drizzle 8 1018 93 3000 2.6 330 22:39 28.10.2019
5402 Drizzle 8 1018 100 3100 2.1 330 22:18 28.10.2019
5403 Clouds 8 1019 93 7000 3.6 60 21:56 28.10.2019
5404 Drizzle 8 1018 93 3500 2.6 330 21:38 28.10.2019
5405 Rain 8 1018 93 4900 2.1 330 21:20 28.10.2019
5406 Clouds 8 1019 100 5000 4.1 60 20:54 28.10.2019
5407 Rain 8 1018 100 6000 2.1 340 20:36 28.10.2019
5408 Drizzle 8 1019 100 3000 4.1 60 20:18 28.10.2019
5409 Rain 8 1019 93 9000 2.1 330 19:40 28.10.2019
5410 Rain 8 1019 93 9000 2.1 330 19:22 28.10.2019
5411 Rain 8 1019 93 9000 2.1 330 18:59 28.10.2019
5412 Rain 8 1018 93 7000 2.1 330 18:41 28.10.2019
5413 Rain 8 1018 93 7000 2.1 330 18:22 28.10.2019
5414 Clouds 8 1019 93 10000 3.6 50 17:57 28.10.2019
5415 Rain 9 1019 100 2000 3.6 60 17:39 28.10.2019
5416 Rain 9 1018 93 10000 2.1 320 17:20 28.10.2019
5417 Drizzle 9 1018 93 7000 2.1 320 16:58 28.10.2019
5418 Drizzle 9 1018 93 7000 2.1 320 16:39 28.10.2019
5419 Drizzle 9 1019 93 6000 2.1 320 16:21 28.10.2019
5420 Clouds 9 1019 93 7000 4.1 50 15:58 28.10.2019
5421 Drizzle 9 1019 100 6000 2.1 320 15:40 28.10.2019
5422 Rain 9 1019 100 150 4.1 50 15:21 28.10.2019
5423 Drizzle 9 1019 93 7000 2.1 270 14:57 28.10.2019
5424 Drizzle 10 1019 93 7000 2.1 270 14:38 28.10.2019
5425 Rain 10 1019 100 300 3.1 50 14:19 28.10.2019
5426 Clouds 9 1020 100 10000 3.1 50 13:56 28.10.2019
5427 Clouds 9 1020 100 10000 3.1 50 13:56 28.10.2019
5428 Rain 9 1019 100 8000 2.6 280 13:38 28.10.2019
5429 Rain 10 1020 100 400 4.1 50 13:18 28.10.2019
5430 Rain 10 1020 100 10000 2.1 340 12:42 28.10.2019
5431 Clouds 10 1020 93 10000 2.6 340 12:20 28.10.2019
5432 Clouds 10 1020 93 10000 2.6 340 11:40 28.10.2019
5433 Rain 10 1020 100 10000 2.6 330 11:22 28.10.2019
5434 Clouds 10 1021 100 8000 4.6 30 10:58 28.10.2019
5435 Rain 9 1020 100 10000 2.6 330 10:39 28.10.2019
5436 Rain 10 1020 93 6000 3.1 360 10:20 28.10.2019
5437 Clouds 10 1021 100 10000 4.1 40 09:56 28.10.2019
5438 Rain 9 1020 100 10000 3.1 340 09:38 28.10.2019
5439 Rain 9 1021 100 1500 3.1 50 09:19 28.10.2019
5440 Rain 10 1020 100 6000 0.5 0 08:56 28.10.2019
5441 Rain 10 1020 100 6000 0.5 0 08:37 28.10.2019
5442 Rain 10 1020 100 6000 0.5 0 08:37 28.10.2019
5443 Rain 10 1020 100 8000 1.5 130 08:18 28.10.2019
5444 Drizzle 10 1020 100 500 4.1 50 07:54 28.10.2019
5445 Drizzle 10 1020 100 500 4.1 50 07:36 28.10.2019
5446 Rain 10 1020 93 3500 3.6 40 07:18 28.10.2019
5447 Rain 10 1020 100 8000 2.1 120 06:39 28.10.2019
5448 Rain 11 1020 100 3600 1.5 100 05:30 28.10.2019
5449 Rain 11 1020 100 6000 0.5 0 03:44 28.10.2019
5450 Drizzle 11 1020 93 7000 1.5 150 02:46 28.10.2019
5451 Drizzle 12 1021 93 10000 1.5 120 01:52 28.10.2019
5452 Drizzle 12 1021 93 10000 1.5 120 01:52 28.10.2019
5453 Rain 12 1021 93 9000 1 160 00:47 28.10.2019
5454 Clouds 12 1021 93 7000 1.5 200 00:26 28.10.2019
5455 Clouds 12 1021 93 10000 1 0 23:45 27.10.2019
5456 Clouds 12 1021 93 10000 0.5 0 23:22 27.10.2019
5457 Clouds 12 1021 93 10000 0.5 0 22:57 27.10.2019
5458 Clouds 12 1021 93 10000 0.88 259 22:38 27.10.2019
5459 Clouds 12 1021 93 10000 1 0 22:19 27.10.2019
5460 Clouds 12 1021 87 10000 1.5 240 21:57 27.10.2019
5461 Clouds 12 1020 93 10000 2.1 120 21:38 27.10.2019
5462 Clouds 12 1021 87 10000 2.6 110 21:20 27.10.2019
5463 Clouds 12 1021 93 10000 0.5 0 20:42 27.10.2019
5464 Clouds 12 1021 87 10000 2.1 210 20:24 27.10.2019
5465 Clouds 12 1021 87 10000 1.5 250 19:59 27.10.2019
5466 Clouds 13 1021 87 10000 1.5 250 19:39 27.10.2019
5467 Clouds 13 1020 87 10000 1 0 19:20 27.10.2019
5468 Clouds 13 1020 82 10000 2.1 220 18:57 27.10.2019
5469 Clouds 13 1020 87 10000 1 0 18:39 27.10.2019
5470 Clouds 13 1020 93 10000 1 0 18:21 27.10.2019
5471 Clouds 13 1020 76 10000 1.5 230 17:55 27.10.2019
5472 Clouds 14 1020 93 10000 1 0 17:37 27.10.2019
5473 Clouds 15 1020 87 10000 2.1 280 17:19 27.10.2019
5474 Clouds 16 1020 72 10000 3.6 230 16:55 27.10.2019
5475 Clouds 16 1020 87 10000 2.1 260 16:37 27.10.2019
5476 Clouds 17 1020 87 10000 1.5 290 16:19 27.10.2019
5477 Clouds 17 1020 87 10000 1.5 290 15:55 27.10.2019
5478 Clouds 16 1020 87 10000 1.5 290 15:37 27.10.2019
5479 Clouds 17 1020 87 10000 1 0 15:18 27.10.2019
5480 Clouds 17 1020 87 10000 1 0 14:41 27.10.2019
5481 Clear 18 1020 59 10000 5.7 260 14:20 27.10.2019
5482 Clear 19 1020 59 10000 5.7 230 13:55 27.10.2019
5483 Clear 19 1020 59 10000 5.7 230 13:37 27.10.2019
5484 Clouds 18 1021 93 10000 1 0 13:18 27.10.2019
5485 Clouds 19 1021 93 10000 1 0 12:42 27.10.2019
5486 Clouds 18 1022 100 10000 1 0 12:23 27.10.2019
5487 Clear 18 1021 55 10000 5.7 230 11:55 27.10.2019
5488 Clear 18 1022 63 10000 4.6 240 11:37 27.10.2019
5489 Clear 17 1022 63 10000 5.7 220 11:18 27.10.2019
5490 Clear 16 1021 63 10000 7.7 210 10:41 27.10.2019
5491 Fog 15 1023 100 400 1.5 0 10:22 27.10.2019
5492 Fog 14 1023 100 300 1 0 09:44 27.10.2019
5493 Fog 12 1023 100 150 2.6 270 09:19 27.10.2019
5494 Clear 12 1022 76 10000 4.1 210 08:57 27.10.2019
5495 Fog 11 1022 100 300 2.6 280 08:38 27.10.2019
5496 Fog 9 1022 100 300 1 0 08:19 27.10.2019
5497 Fog 8 1022 100 250 2.1 230 07:48 27.10.2019
5498 Fog 8 1022 100 250 2.1 230 07:28 27.10.2019
5499 Clear 8 1021 87 10000 4.6 200 06:55 27.10.2019
5500 Fog 8 1022 100 350 1.5 280 06:29 27.10.2019
5501 Fog 8 1022 100 250 3.1 100 05:58 27.10.2019
5502 Fog 8 1022 100 250 3.1 100 05:58 27.10.2019
5503 Fog 8 1022 100 100 2.1 120 05:36 27.10.2019
5504 Clear 8 1021 81 10000 4.1 200 04:25 27.10.2019
5505 Fog 9 1022 100 150 1.5 210 02:41 27.10.2019
5506 Fog 9 1022 93 100 1 250 01:28 27.10.2019
5507 Clear 9 1021 81 10000 5.1 210 00:55 27.10.2019
5508 Fog 10 1022 100 350 2.1 100 00:36 27.10.2019
5509 Clear 10 1022 76 10000 5.1 210 23:58 26.10.2019
5510 Fog 10 1022 100 150 1 0 23:40 26.10.2019
5511 Fog 10 1022 100 150 1.5 230 23:21 26.10.2019
5512 Fog 10 1022 100 150 1.5 230 22:57 26.10.2019
5513 Fog 10 1022 100 100 1 0 22:38 26.10.2019
5514 Fog 11 1022 100 150 1 220 22:19 26.10.2019
5515 Fog 11 1022 93 150 1 270 21:55 26.10.2019
5516 Fog 11 1022 93 150 1 270 21:37 26.10.2019
5517 Fog 11 1022 100 100 1 0 21:19 26.10.2019
5518 Fog 12 1022 100 100 1 0 20:42 26.10.2019
5519 Fog 12 1022 100 250 1.5 240 20:19 26.10.2019
5520 Fog 12 1022 100 150 2.6 90 19:44 26.10.2019
5521 Fog 13 1021 100 100 1 30 19:21 26.10.2019
5522 Fog 13 1021 100 100 1 30 18:59 26.10.2019
5523 Fog 13 1021 100 100 1 30 18:40 26.10.2019
5524 Fog 14 1021 93 400 0.5 0 18:20 26.10.2019
5525 Clear 15 1021 67 10000 3.6 230 17:59 26.10.2019
5526 Fog 16 1021 93 400 1.5 290 17:39 26.10.2019
5527 Clear 16 1021 63 10000 4.6 230 17:20 26.10.2019
5528 Clear 17 1021 63 10000 3.6 230 16:47 26.10.2019
5529 Clear 17 1021 63 10000 3.6 230 16:25 26.10.2019
5530 Clear 18 1021 63 10000 3.6 210 15:59 26.10.2019
5531 Clear 17 1021 59 10000 4.1 220 15:40 26.10.2019
5532 Clear 18 1021 63 10000 3.6 230 15:18 26.10.2019
5533 Mist 18 1022 93 4000 0.5 0 14:40 26.10.2019
5534 Clouds 17 1022 93 5000 1.5 300 14:20 26.10.2019
5535 Clear 18 1021 51 0 1.61 353 13:59 26.10.2019
5536 Clear 18 1021 51 0 1.61 353 13:39 26.10.2019
5537 Clear 18 1021 51 0 1.61 353 13:20 26.10.2019
5538 Clear 17 1022 63 0 1 0 12:45 26.10.2019
5539 Mist 14 1023 100 3000 1 0 12:21 26.10.2019
5540 Mist 13 1023 100 3000 1 0 11:48 26.10.2019
5541 Mist 12 1023 100 3000 1 0 11:26 26.10.2019
5542 Mist 12 1023 100 3000 1 0 11:26 26.10.2019
5543 Mist 9 1023 100 3000 1 0 10:47 26.10.2019
5544 Mist 8 1023 100 3000 1 0 10:27 26.10.2019
5545 Mist 7 1023 93 1400 1 0 09:50 26.10.2019
5546 Mist 7 1023 93 1400 1 0 09:30 26.10.2019
5547 Clear 7 1022 93 10000 2.1 200 08:57 26.10.2019
5548 Fog 7 1023 100 200 1 0 08:39 26.10.2019
5549 Fog 6 1023 100 150 1 110 08:20 26.10.2019
5550 Fog 6 1023 100 150 1 0 07:43 26.10.2019
5551 Fog 6 1023 100 7000 0.5 0 07:23 26.10.2019
5552 Mist 6 1023 100 4600 0.5 0 06:40 26.10.2019
5553 Clear 6 1022 100 10000 1.5 190 05:57 26.10.2019
5554 Clouds 6 1022 93 6000 1 100 05:19 26.10.2019
5555 Clear 7 1022 100 10000 1.5 180 03:56 26.10.2019
5556 Clear 7 1023 100 7000 1 0 02:35 26.10.2019
5557 Clouds 8 1023 100 10000 1 230 01:47 26.10.2019
5558 Clear 8 1023 100 10000 1 0 00:56 26.10.2019
5559 Clear 8 1023 93 10000 0.5 190 23:57 25.10.2019
5560 Clear 8 1023 100 10000 0.5 0 23:38 25.10.2019
5561 Clear 9 1023 93 10000 0.5 0 23:19 25.10.2019
5562 Clear 9 1023 93 10000 0.5 0 22:39 25.10.2019
5563 Clear 9 1024 93 10000 1.5 280 22:21 25.10.2019
5564 Clear 9 1024 93 10000 0.5 0 21:56 25.10.2019
5565 Clear 9 1023 87 10000 1.5 0 21:38 25.10.2019
5566 Clouds 10 1023 87 10000 1 130 21:19 25.10.2019
5567 Clouds 10 1023 87 10000 1 130 20:43 25.10.2019
5568 Clouds 10 1023 81 10000 1.5 210 20:20 25.10.2019
5569 Clouds 10 1023 81 10000 1.5 210 19:47 25.10.2019
5570 Clouds 11 1024 93 10000 0.5 0 19:29 25.10.2019
5571 Clouds 12 1023 87 10000 1.5 100 18:58 25.10.2019
5572 Clouds 12 1023 82 10000 1.5 280 18:40 25.10.2019
5573 Clouds 14 1023 67 10000 1.5 280 18:20 25.10.2019
5574 Clouds 15 1023 67 10000 1.5 280 17:40 25.10.2019
5575 Clouds 16 1023 67 10000 2.1 330 17:20 25.10.2019
5576 Clouds 16 1023 67 10000 2.1 330 16:47 25.10.2019
5577 Clouds 16 1023 63 10000 1 30 16:23 25.10.2019
5578 Clouds 16 1023 67 10000 2.6 200 15:57 25.10.2019
5579 Clouds 16 1023 63 10000 1 30 15:39 25.10.2019
5580 Clouds 16 1024 77 10000 1.5 90 15:20 25.10.2019
5581 Clouds 16 1024 77 10000 1.5 90 15:20 25.10.2019
5582 Clouds 16 1024 77 10000 1.5 90 15:20 25.10.2019
5583 Clouds 16 1024 72 10000 1 0 14:42 25.10.2019
5584 Clouds 15 1024 77 10000 2.1 50 14:23 25.10.2019
5585 Clouds 15 1024 77 10000 2.1 50 13:59 25.10.2019
5586 Clouds 15 1024 77 10000 2.1 50 13:39 25.10.2019
5587 Clouds 15 1025 67 10000 2.6 320 13:21 25.10.2019
5588 Clouds 15 1025 72 10000 2.1 320 12:43 25.10.2019
5589 Clouds 14 1025 72 10000 2.6 300 12:22 25.10.2019
5590 Clouds 14 1024 76 10000 3.1 200 11:59 25.10.2019
5591 Clouds 14 1024 77 10000 3.1 310 11:38 25.10.2019
5592 Clouds 14 1024 77 10000 3.1 310 11:19 25.10.2019
5593 Clouds 13 1024 93 10000 1 0 10:41 25.10.2019
5594 Clouds 13 1024 93 10000 1 0 10:23 25.10.2019
5595 Clouds 13 1024 93 10000 1 0 09:59 25.10.2019
5596 Clouds 12 1023 93 10000 1 0 09:39 25.10.2019
5597 Clouds 12 1023 93 10000 1 0 09:20 25.10.2019
5598 Clouds 12 1022 100 10000 2.1 100 08:51 25.10.2019
5599 Clouds 12 1022 100 10000 2.1 100 08:33 25.10.2019
5600 Clouds 12 1022 87 10000 4.6 240 07:57 25.10.2019
5601 Clouds 12 1022 93 10000 1.5 0 07:35 25.10.2019
5602 Clouds 12 1022 93 10000 1.5 0 07:35 25.10.2019
5603 Clouds 12 1021 87 10000 1.5 270 06:42 25.10.2019
5604 Clouds 12 1021 93 10000 3.6 220 05:59 25.10.2019
5605 Clouds 12 1020 93 10000 1 0 05:37 25.10.2019
5606 Clouds 12 1020 87 10000 0.5 0 04:53 25.10.2019
5607 Clouds 12 1020 93 10000 2.6 120 03:40 25.10.2019
5608 Rain 12 1019 93 10000 3.1 220 01:54 25.10.2019
5609 Clouds 12 1019 93 10000 1 0 01:27 25.10.2019
5610 Clouds 12 1018 93 10000 0.5 0 00:21 25.10.2019
5611 Clouds 12 1018 93 10000 2.1 100 23:41 24.10.2019
5612 Clouds 12 1017 100 10000 1 0 23:22 24.10.2019
5613 Rain 12 1017 93 10000 0.25 283 22:56 24.10.2019
5614 Clouds 12 1017 93 10000 2.6 80 22:37 24.10.2019
5615 Clouds 12 1017 93 10000 1.5 90 22:18 24.10.2019
5616 Rain 12 1016 93 10000 1 120 21:56 24.10.2019
5617 Clouds 12 1016 93 10000 1 120 21:37 24.10.2019
5618 Clouds 12 1015 93 10000 1 0 21:19 24.10.2019
5619 Clouds 13 1015 93 10000 2.1 150 20:56 24.10.2019
5620 Clouds 13 1015 87 10000 1 240 20:38 24.10.2019
5621 Clouds 13 1015 87 10000 1 240 20:19 24.10.2019
5622 Clouds 13 1015 82 10000 2.6 120 19:44 24.10.2019
5623 Rain 13 1016 93 10000 3.6 210 19:24 24.10.2019
5624 Clouds 14 1015 93 10000 1.5 150 18:59 24.10.2019
5625 Clouds 14 1015 93 10000 1.5 150 18:40 24.10.2019
5626 Clouds 14 1015 93 10000 1.5 150 18:21 24.10.2019
5627 Clouds 14 1015 82 10000 1.5 250 17:59 24.10.2019
5628 Clouds 15 1014 93 10000 1 0 17:39 24.10.2019
5629 Clouds 15 1014 93 10000 1 0 17:19 24.10.2019
5630 Clouds 15 1013 77 10000 2.1 10 16:55 24.10.2019
5631 Clouds 15 1013 93 10000 2.6 280 16:37 24.10.2019
5632 Clouds 15 1013 93 10000 2.6 280 16:18 24.10.2019
5633 Clouds 16 1013 82 10000 1.5 350 15:54 24.10.2019
5634 Clouds 16 1012 87 10000 2.1 20 15:36 24.10.2019
5635 Clouds 16 1012 87 10000 2.1 20 15:18 24.10.2019
5636 Clouds 16 1012 87 10000 2.1 20 14:44 24.10.2019
5637 Clouds 16 1012 77 10000 1.5 80 14:26 24.10.2019
5638 Clouds 16 1013 82 10000 1.5 40 13:58 24.10.2019
5639 Clouds 16 1012 72 10000 4.1 40 13:37 24.10.2019
5640 Clouds 16 1012 93 10000 5.1 290 13:18 24.10.2019
5641 Clouds 16 1012 87 10000 2.6 10 12:56 24.10.2019
5642 Clouds 16 1012 93 10000 5.1 290 12:37 24.10.2019
5643 Clouds 15 1011 93 10000 3.1 270 12:18 24.10.2019
5644 Clouds 14 1011 93 10000 3.1 270 11:54 24.10.2019
5645 Clouds 14 1011 93 10000 3.1 270 11:36 24.10.2019
5646 Clouds 14 1011 77 10000 2.6 0 11:18 24.10.2019
5647 Clouds 14 1011 77 10000 2.6 0 10:42 24.10.2019
5648 Clouds 13 1011 77 10000 5.1 110 10:23 24.10.2019
5649 Clouds 12 1011 93 10000 2.1 120 09:39 24.10.2019
5650 Clouds 11 1012 93 10000 0.5 0 09:19 24.10.2019
5651 Clouds 11 1012 93 10000 0.5 0 08:58 24.10.2019
5652 Clouds 10 1012 93 10000 0.5 0 08:38 24.10.2019
5653 Clouds 10 1012 93 10000 1.5 100 08:20 24.10.2019
5654 Clouds 10 1012 93 10000 1.5 100 07:47 24.10.2019
5655 Clouds 10 1012 93 10000 1.5 100 07:23 24.10.2019
5656 Clouds 10 1012 93 10000 1.5 100 07:23 24.10.2019
5657 Clouds 10 1012 93 10000 1.5 100 06:53 24.10.2019
5658 Clouds 10 1012 93 10000 1.5 100 06:34 24.10.2019
5659 Clouds 11 1012 100 6000 3.1 240 05:54 24.10.2019
5660 Clouds 11 1012 100 6000 3.1 240 05:54 24.10.2019
5661 Clouds 10 1012 93 10000 1 0 05:30 24.10.2019
5662 Clouds 10 1010 100 10000 5.1 290 04:22 24.10.2019
5663 Clouds 10 1010 100 10000 5.1 290 04:22 24.10.2019
5664 Clouds 10 1010 93 10000 1.5 0 03:33 24.10.2019
5665 Clouds 10 1010 93 10000 2.6 300 02:37 24.10.2019
5666 Clouds 10 1010 93 10000 2.6 260 02:18 24.10.2019
5667 Clouds 10 1010 93 10000 2.6 280 01:30 24.10.2019
5668 Clouds 11 1011 93 10000 2.6 280 00:53 24.10.2019
5669 Clouds 11 1010 87 10000 3.1 40 00:25 24.10.2019
5670 Clouds 10 1011 100 10000 1.5 0 23:44 23.10.2019
5671 Clouds 11 1011 93 10000 4.1 40 23:25 23.10.2019
5672 Clouds 12 1011 87 10000 3.1 20 22:58 23.10.2019
5673 Rain 11 1011 93 10000 3.1 270 22:39 23.10.2019
5674 Rain 11 1011 93 10000 3.1 270 22:39 23.10.2019
5675 Clouds 12 1011 93 10000 2.1 280 22:19 23.10.2019
5676 Clouds 11 1011 100 7000 1.5 0 21:58 23.10.2019
5677 Clouds 11 1011 100 7000 1.5 0 21:40 23.10.2019
5678 Clouds 11 1011 100 7000 1.5 0 21:40 23.10.2019
5679 Clouds 11 1011 100 7000 1.5 0 21:40 23.10.2019
5680 Clouds 12 1012 100 10000 1 0 21:21 23.10.2019
5681 Clouds 12 1013 100 10000 4.6 50 20:59 23.10.2019
5682 Clouds 12 1012 93 10000 1 0 20:39 23.10.2019
5683 Clouds 12 1012 93 10000 1 0 20:21 23.10.2019
5684 Clouds 12 1012 93 10000 1 0 20:21 23.10.2019
5685 Clouds 13 1012 93 10000 1 0 19:58 23.10.2019
5686 Clouds 13 1012 93 10000 1 0 19:40 23.10.2019
5687 Clouds 14 1012 93 10000 1 0 19:19 23.10.2019
5688 Clouds 14 1014 93 10000 3.6 60 18:56 23.10.2019
5689 Clouds 14 1012 93 10000 1 0 18:38 23.10.2019
5690 Clear 15 1012 87 10000 1 0 18:18 23.10.2019
5691 Clear 16 1012 87 10000 1 0 17:45 23.10.2019
5692 Clear 17 1013 82 10000 1 0 17:20 23.10.2019
5693 Clear 17 1013 82 10000 1 0 17:20 23.10.2019
5694 Clear 17 1014 82 10000 3.6 50 16:58 23.10.2019
5695 Clear 18 1013 82 10000 1 0 16:40 23.10.2019
5696 Clear 18 1013 82 10000 1 0 16:20 23.10.2019
5697 Clear 18 1014 76 10000 2.6 330 15:42 23.10.2019
5698 Clouds 18 1014 76 10000 2.6 330 15:23 23.10.2019
5699 Clouds 18 1015 82 10000 3.6 50 14:58 23.10.2019
5700 Clouds 17 1015 82 10000 2.1 310 14:39 23.10.2019
5701 Clouds 17 1015 87 10000 3.1 280 14:20 23.10.2019
5702 Clouds 17 1015 87 10000 3.1 280 13:59 23.10.2019
5703 Clouds 17 1015 87 10000 3.1 280 13:41 23.10.2019
5704 Clouds 18 1016 87 8000 3.1 320 13:23 23.10.2019
5705 Clouds 17 1016 82 10000 2.6 60 12:56 23.10.2019
5706 Clouds 16 1016 87 8000 3.1 320 12:37 23.10.2019
5707 Mist 15 1016 93 5000 2.1 310 12:18 23.10.2019
5708 Clouds 14 1017 93 8000 1 50 11:57 23.10.2019
5709 Clouds 14 1017 93 8000 1 50 11:38 23.10.2019
5710 Clouds 13 1016 93 6000 2.1 320 11:20 23.10.2019
5711 Clouds 12 1016 93 7000 1.5 0 10:45 23.10.2019
5712 Mist 11 1017 93 5000 1 0 10:26 23.10.2019
5713 Mist 11 1018 100 2800 2.6 70 09:56 23.10.2019
5714 Mist 10 1017 93 5000 1 0 09:37 23.10.2019
5715 Mist 9 1017 93 5000 1 0 09:19 23.10.2019
5716 Mist 9 1017 100 5000 1 0 08:42 23.10.2019
5717 Clouds 9 1017 100 6000 1 0 08:24 23.10.2019
5718 Clouds 9 1017 93 6000 1 0 07:46 23.10.2019
5719 Clouds 9 1018 93 6000 1 0 07:23 23.10.2019
5720 Clouds 9 1018 93 6000 1 0 06:47 23.10.2019
5721 Clouds 10 1018 93 5000 1.5 360 06:22 23.10.2019
5722 Mist 10 1018 93 4700 1 0 05:47 23.10.2019
5723 Mist 10 1018 93 4800 1.5 340 04:57 23.10.2019
5724 Clouds 10 1018 100 5000 0.5 0 03:35 23.10.2019
5725 Fog 10 1019 100 4500 0.5 0 02:41 23.10.2019
5726 Mist 11 1020 100 4900 1 0 01:33 23.10.2019
5727 Clouds 11 1021 100 5000 2.1 80 00:56 23.10.2019
5728 Clouds 11 1020 93 5000 0.5 0 00:28 23.10.2019
5729 Clouds 11 1021 100 5000 0.5 0 23:40 22.10.2019
5730 Clouds 11 1021 100 6000 1 0 23:18 22.10.2019
5731 Clouds 12 1022 100 3900 2.6 60 22:57 22.10.2019
5732 Clouds 12 1021 100 7000 1 0 22:39 22.10.2019
5733 Clouds 12 1021 93 10000 1 0 22:20 22.10.2019
5734 Clouds 12 1022 93 4400 1.5 90 21:56 22.10.2019
5735 Clouds 12 1021 87 10000 1 0 21:37 22.10.2019
5736 Clouds 12 1022 93 10000 1 0 21:18 22.10.2019
5737 Clouds 12 1022 100 4700 2.1 50 20:56 22.10.2019
5738 Clouds 12 1022 93 10000 1 0 20:38 22.10.2019
5739 Clouds 12 1022 87 10000 0.5 0 20:20 22.10.2019
5740 Clouds 13 1022 87 10000 0.5 0 19:54 22.10.2019
5741 Clouds 13 1022 87 10000 0.5 0 19:36 22.10.2019
5742 Clouds 13 1022 93 10000 0.5 0 19:18 22.10.2019
5743 Clouds 13 1022 93 8000 1.5 90 18:40 22.10.2019
5744 Clouds 14 1022 82 10000 1.5 320 18:22 22.10.2019
5745 Clouds 14 1022 82 10000 2.1 80 17:57 22.10.2019
5746 Clouds 14 1022 82 10000 1.5 320 17:38 22.10.2019
5747 Clouds 14 1022 82 10000 1.5 320 17:38 22.10.2019
5748 Clouds 14 1022 82 10000 2.1 290 17:20 22.10.2019
5749 Clouds 15 1022 82 10000 2.1 290 16:57 22.10.2019
5750 Clouds 14 1022 82 10000 2.1 290 16:38 22.10.2019
5751 Clouds 15 1023 87 7000 2.1 40 16:19 22.10.2019
5752 Clouds 15 1022 82 10000 2.6 280 15:56 22.10.2019
5753 Clouds 15 1022 82 10000 2.6 280 15:38 22.10.2019
5754 Clouds 15 1023 82 10000 2.1 280 15:18 22.10.2019
5755 Clouds 15 1023 82 10000 2.1 280 14:43 22.10.2019
5756 Clouds 15 1023 82 10000 2.1 280 14:20 22.10.2019
5757 Clouds 15 1023 82 10000 2.1 280 13:42 22.10.2019
5758 Clouds 15 1024 82 10000 2.6 280 13:22 22.10.2019
5759 Clouds 15 1024 82 10000 2.6 280 12:59 22.10.2019
5760 Clouds 15 1024 87 8000 2.6 260 12:40 22.10.2019
5761 Clouds 14 1024 87 10000 4.1 280 12:21 22.10.2019
5762 Clouds 14 1024 93 6000 2.6 30 11:56 22.10.2019
5763 Fog 14 1024 100 500 1 0 11:38 22.10.2019
5764 Clouds 14 1023 87 8000 3.1 290 11:20 22.10.2019
5765 Clouds 13 1023 87 10000 2.6 290 10:55 22.10.2019
5766 Clouds 12 1023 87 10000 2.6 290 10:37 22.10.2019
5767 Clouds 12 1023 87 10000 2.6 290 10:18 22.10.2019
5768 Clouds 12 1023 93 10000 3.1 300 09:44 22.10.2019
5769 Clouds 11 1023 93 7000 2.6 290 09:22 22.10.2019
5770 Clouds 10 1023 93 7000 2.6 290 08:59 22.10.2019
5771 Clouds 10 1023 93 6000 3.1 280 08:41 22.10.2019
5772 Mist 10 1022 100 4000 2.6 290 08:20 22.10.2019
5773 Fog 10 1022 93 1400 2.6 300 07:45 22.10.2019
5774 Clouds 10 1022 93 8000 1 0 07:26 22.10.2019
5775 Clouds 10 1022 100 7000 2.1 260 06:47 22.10.2019
5776 Clouds 10 1022 100 7000 2.1 260 06:29 22.10.2019
5777 Fog 11 1023 100 500 1 60 05:49 22.10.2019
5778 Drizzle 11 1022 100 5000 1.5 110 05:18 22.10.2019
5779 Clouds 11 1023 93 10000 2.6 270 02:32 22.10.2019
5780 Clouds 12 1023 93 7000 2.1 280 01:50 22.10.2019
5781 Clouds 12 1023 93 7000 1.2 164 01:24 22.10.2019
5782 Mist 12 1023 100 4500 2.6 280 00:56 22.10.2019
5783 Clouds 12 1023 93 9000 1 290 00:38 22.10.2019
5784 Clouds 12 1022 93 8000 0.5 0 00:19 22.10.2019
5785 Clouds 12 1022 93 8000 1.5 90 23:39 21.10.2019
5786 Clouds 12 1022 93 10000 2.1 80 23:20 21.10.2019
5787 Clouds 12 1022 93 10000 2.1 80 22:59 21.10.2019
5788 Clouds 12 1022 87 10000 2.6 110 22:40 21.10.2019
5789 Clouds 12 1022 87 10000 2.6 110 22:40 21.10.2019
5790 Clouds 12 1022 82 10000 1.5 0 22:20 21.10.2019
5791 Clouds 13 1022 82 10000 1.5 0 21:58 21.10.2019
5792 Clouds 13 1022 82 10000 3.1 280 21:39 21.10.2019
5793 Clouds 13 1022 82 10000 2.1 250 21:20 21.10.2019
5794 Clouds 13 1022 82 10000 2.1 250 20:58 21.10.2019
5795 Clouds 13 1021 87 10000 3.1 270 20:39 21.10.2019
5796 Clouds 13 1021 87 10000 3.1 270 20:20 21.10.2019
5797 Clouds 13 1021 87 10000 3.1 270 20:20 21.10.2019
5798 Clouds 13 1021 87 10000 3.1 270 19:57 21.10.2019
5799 Clouds 14 1021 87 10000 4.1 280 19:38 21.10.2019
5800 Clouds 14 1021 87 10000 4.1 280 19:20 21.10.2019
5801 Rain 14 1021 82 10000 2.6 50 18:55 21.10.2019
5802 Rain 14 1020 87 10000 2.6 300 18:36 21.10.2019
5803 Rain 15 1020 87 10000 2.6 300 18:18 21.10.2019
5804 Rain 15 1020 82 10000 3.1 60 17:55 21.10.2019
5805 Rain 16 1019 77 10000 1.5 260 17:37 21.10.2019
5806 Rain 16 1019 77 10000 1.5 260 17:18 21.10.2019
5807 Rain 16 1020 77 10000 3.1 50 16:54 21.10.2019
5808 Clouds 16 1020 77 10000 2.1 50 16:36 21.10.2019
5809 Clouds 16 1020 82 10000 2.1 50 16:18 21.10.2019
5810 Clouds 16 1020 77 10000 2.1 90 15:42 21.10.2019
5811 Clouds 16 1020 82 10000 2.1 90 15:22 21.10.2019
5812 Clouds 16 1021 82 10000 1 0 14:56 21.10.2019
5813 Clouds 16 1021 82 10000 1 0 14:37 21.10.2019
5814 Clouds 15 1020 87 10000 1.5 320 14:18 21.10.2019
5815 Clouds 15 1020 87 10000 2.1 280 13:42 21.10.2019
5816 Clouds 15 1020 87 10000 1.5 300 13:21 21.10.2019
5817 Clouds 15 1020 87 10000 1.5 300 12:59 21.10.2019
5818 Clouds 15 1019 93 10000 3.1 320 12:40 21.10.2019
5819 Clouds 15 1019 93 10000 3.1 320 12:21 21.10.2019
5820 Clear 15 1019 93 10000 1 0 11:55 21.10.2019
5821 Rain 14 1018 93 10000 3.1 290 11:37 21.10.2019
5822 Rain 14 1018 93 10000 3.1 290 11:18 21.10.2019
5823 Rain 13 1019 100 8000 1 0 10:54 21.10.2019
5824 Rain 13 1019 100 8000 1 0 10:54 21.10.2019
5825 Drizzle 13 1018 93 10000 2.6 270 10:36 21.10.2019
5826 Rain 12 1018 93 10000 2.1 70 10:18 21.10.2019
5827 Clouds 12 1018 93 10000 2.1 70 09:41 21.10.2019
5828 Clouds 12 1017 93 10000 2.6 100 09:22 21.10.2019
5829 Rain 12 1017 100 10000 1 0 08:43 21.10.2019
5830 Rain 11 1017 100 10000 1 0 08:23 21.10.2019
5831 Rain 12 1018 100 8000 5.7 220 07:56 21.10.2019
5832 Rain 12 1017 93 10000 1 0 07:37 21.10.2019
5833 Clouds 11 1017 93 10000 1 0 07:18 21.10.2019
5834 Clouds 12 1016 87 10000 2.6 30 06:44 21.10.2019
5835 Clear 12 1016 93 10000 3.1 190 06:25 21.10.2019
5836 Clouds 11 1015 82 10000 2.1 270 05:41 21.10.2019
5837 Clear 12 1013 87 10000 2.1 280 03:41 21.10.2019
5838 Clouds 12 1012 87 10000 6.2 300 02:40 21.10.2019
5839 Clear 13 1011 87 10000 6.2 290 02:20 21.10.2019
5840 Clear 13 1011 87 10000 6.2 290 02:20 21.10.2019
5841 Clear 13 1011 87 10000 4.6 280 01:48 21.10.2019
5842 Rain 13 1011 81 10000 2.6 160 01:20 21.10.2019
5843 Rain 13 1011 81 10000 2.6 160 00:40 21.10.2019
5844 Rain 13 1011 87 10000 1.5 180 00:22 21.10.2019
5845 Rain 13 1011 87 10000 2.6 160 23:40 20.10.2019
5846 Clouds 13 1011 93 10000 3.6 170 23:21 20.10.2019
5847 Clouds 13 1011 93 10000 3.6 170 22:54 20.10.2019
5848 Clear 13 1009 87 10000 1 0 22:36 20.10.2019
5849 Clear 13 1010 93 10000 1.5 120 22:18 20.10.2019
5850 Clear 13 1009 100 10000 2.1 100 21:40 20.10.2019
5851 Clear 14 1010 100 10000 1 0 21:22 20.10.2019
5852 Clear 14 1010 100 10000 1.5 40 20:57 20.10.2019
5853 Clear 14 1010 100 10000 1.5 40 20:38 20.10.2019
5854 Clouds 14 1010 93 8000 2.1 20 20:18 20.10.2019
5855 Clouds 14 1010 93 8000 2.1 20 20:18 20.10.2019
5856 Clouds 14 1010 93 8000 2.1 20 19:55 20.10.2019
5857 Clouds 14 1010 93 8000 2.1 20 19:55 20.10.2019
5858 Clear 14 1009 93 10000 1.5 70 19:37 20.10.2019
5859 Clear 15 1009 100 10000 1 120 19:19 20.10.2019
5860 Clear 16 1009 93 10000 2.1 40 18:40 20.10.2019
5861 Clear 17 1009 87 10000 2.6 70 18:22 20.10.2019
5862 Clear 17 1009 87 10000 2.6 70 17:57 20.10.2019
5863 Clear 18 1009 87 10000 2.6 30 17:39 20.10.2019
5864 Clear 18 1009 87 10000 2.6 50 17:20 20.10.2019
5865 Clear 18 1009 87 10000 2.6 50 16:55 20.10.2019
5866 Clear 18 1009 82 10000 2.6 40 16:36 20.10.2019
5867 Clear 19 1007 56 10000 1.5 70 16:18 20.10.2019
5868 Clear 19 1009 82 10000 2.1 30 15:41 20.10.2019
5869 Clear 19 1009 82 10000 2.1 40 15:23 20.10.2019
5870 Clear 19 1009 82 10000 2.1 40 14:59 20.10.2019
5871 Clear 19 1009 82 10000 1.5 40 14:38 20.10.2019
5872 Clouds 18 1008 87 10000 4.1 300 14:19 20.10.2019
5873 Clouds 19 1008 87 10000 4.1 300 13:56 20.10.2019
5874 Clouds 19 1008 87 10000 1.5 360 13:37 20.10.2019
5875 Clouds 18 1009 93 10000 2.1 360 13:19 20.10.2019
5876 Clouds 18 1009 93 10000 2.1 360 12:57 20.10.2019
5877 Clouds 18 1009 87 10000 0.5 0 12:39 20.10.2019
5878 Clouds 15 1010 87 10000 1.5 300 12:21 20.10.2019
5879 Clouds 14 1010 87 10000 1.5 300 11:57 20.10.2019
5880 Mist 14 1010 93 9000 1.5 0 11:39 20.10.2019
5881 Fog 14 1010 93 8000 2.1 300 11:21 20.10.2019
5882 Fog 14 1010 100 600 1.5 30 10:54 20.10.2019
5883 Fog 14 1010 100 600 1.5 30 10:54 20.10.2019
5884 Fog 13 1010 93 8000 2.1 300 10:36 20.10.2019
5885 Fog 12 1009 93 8000 2.1 320 10:18 20.10.2019
5886 Fog 11 1009 93 6000 2.6 300 09:42 20.10.2019
5887 Fog 8 1009 93 6000 2.6 300 09:22 20.10.2019
5888 Fog 8 1009 93 6000 2.1 320 08:49 20.10.2019
5889 Fog 8 1009 100 350 2.16 140.201 08:28 20.10.2019
5890 Fog 7 1009 93 8000 2.1 330 07:57 20.10.2019
5891 Fog 8 1009 93 10000 1.5 280 07:39 20.10.2019
5892 Fog 8 1009 93 7000 1 0 07:20 20.10.2019
5893 Fog 8 1009 93 8000 2.1 250 06:23 20.10.2019
5894 Fog 8 1009 100 7000 0.5 0 04:28 20.10.2019
5895 Fog 8 1009 100 7000 0.5 0 04:28 20.10.2019
5896 Fog 8 1009 100 7000 1 0 03:48 20.10.2019
5897 Fog 8 1009 100 10000 1 220 03:21 20.10.2019
5898 Fog 8 1009 93 10000 1 0 02:44 20.10.2019
5899 Fog 9 1010 93 10000 0.5 0 01:59 20.10.2019
5900 Fog 9 1010 93 1800 2.6 70 01:24 20.10.2019
5901 Fog 9 1010 93 10000 1 0 00:58 20.10.2019
5902 Fog 9 1010 87 10000 2.1 290 00:39 20.10.2019
5903 Fog 9 1010 100 9000 2.1 360 00:20 20.10.2019
5904 Fog 10 1010 82 10000 3.1 270 23:42 19.10.2019
5905 Fog 10 1010 87 10000 4.1 280 23:23 19.10.2019
5906 Fog 10 1010 87 10000 4.1 280 22:57 19.10.2019
5907 Fog 10 1009 87 10000 3.6 270 22:38 19.10.2019
5908 Fog 10 1009 87 10000 5.1 270 22:20 19.10.2019
5909 Clear 11 1009 87 10000 1.5 0 21:46 19.10.2019
5910 Clear 11 1008 93 10000 4.1 90 21:24 19.10.2019
5911 Clear 11 1010 87 10000 2.1 80 20:54 19.10.2019
5912 Clear 11 1008 93 10000 3.1 80 20:36 19.10.2019
5913 Clear 12 1009 87 10000 1.5 0 20:18 19.10.2019
5914 Clear 12 1009 87 10000 1.5 0 19:40 19.10.2019
5915 Clear 12 1009 87 10000 1.5 100 19:22 19.10.2019
5916 Clear 13 1009 87 10000 1.5 100 18:43 19.10.2019
5917 Clear 13 1010 87 10000 2.1 70 18:24 19.10.2019
5918 Clear 13 1009 82 10000 2.1 120 17:57 19.10.2019
5919 Clear 14 1010 77 10000 3.6 70 17:37 19.10.2019
5920 Clear 14 1010 77 10000 3.6 70 17:37 19.10.2019
5921 Clear 14 1010 77 10000 3.6 70 17:19 19.10.2019
5922 Clouds 14 1010 72 10000 3.6 70 16:39 19.10.2019
5923 Clear 14 1010 72 10000 4.1 70 16:20 19.10.2019
5924 Clear 14 1010 72 10000 3.6 60 15:56 19.10.2019
5925 Clouds 14 1011 72 10000 5.1 110 15:38 19.10.2019
5926 Clear 14 1011 72 10000 5.1 110 15:19 19.10.2019
5927 Clouds 13 1012 77 10000 5.7 110 14:38 19.10.2019
5928 Rain 13 1012 77 10000 5.7 110 14:20 19.10.2019
5929 Rain 13 1012 77 10000 5.7 110 14:19 19.10.2019
5930 Rain 13 1013 93 10000 3.6 130 13:55 19.10.2019
5931 Rain 12 1013 82 10000 3.1 120 13:36 19.10.2019
5932 Rain 12 1014 87 10000 2.1 130 13:18 19.10.2019
5933 Drizzle 12 1014 93 10000 2.6 100 12:39 19.10.2019
5934 Rain 12 1014 93 10000 1.5 290 12:21 19.10.2019
5935 Rain 12 1014 87 10000 2.1 40 11:56 19.10.2019
5936 Rain 12 1013 87 10000 3.1 30 11:37 19.10.2019
5937 Rain 12 1013 87 10000 3.6 300 11:18 19.10.2019
5938 Rain 12 1013 87 10000 3.6 300 10:41 19.10.2019
5939 Rain 12 1013 87 10000 3.6 300 10:23 19.10.2019
5940 Clouds 12 1012 87 10000 3.6 300 09:58 19.10.2019
5941 Clouds 11 1012 87 10000 4.1 300 09:39 19.10.2019
5942 Clouds 11 1012 87 10000 4.1 300 09:21 19.10.2019
5943 Clouds 11 1012 87 0 2.6 110 08:41 19.10.2019
5944 Clear 10 1010 82 10000 3.6 120 08:22 19.10.2019
5945 Clouds 10 1011 93 10000 2.6 110 07:46 19.10.2019
5946 Clear 10 1010 82 10000 3.6 120 07:27 19.10.2019
5947 Rain 10 1012 93 10000 3.1 110 06:52 19.10.2019
5948 Clouds 10 1012 93 10000 3.1 110 06:32 19.10.2019
5949 Clouds 10 1012 93 10000 1 100 05:35 19.10.2019
5950 Clouds 11 1013 87 10000 2.1 120 04:26 19.10.2019
5951 Clouds 11 1014 93 10000 1 110 02:56 19.10.2019
5952 Clouds 11 1014 93 10000 0.5 0 01:56 19.10.2019
5953 Clouds 11 1014 100 10000 1 0 01:37 19.10.2019
5954 Clouds 11 1014 93 10000 1 270 00:51 19.10.2019
5955 Clouds 10 1014 93 10000 1 270 00:28 19.10.2019
5956 Clouds 10 1014 93 10000 0.5 0 23:57 18.10.2019
5957 Clouds 10 1014 100 10000 1.5 90 23:38 18.10.2019
5958 Clouds 10 1014 93 10000 1.5 80 23:19 18.10.2019
5959 Clouds 10 1014 93 10000 1.5 170 22:54 18.10.2019
5960 Clouds 10 1014 93 10000 1 0 22:36 18.10.2019
5961 Clear 10 1014 93 10000 0.63 188.982 22:18 18.10.2019
5962 Clouds 10 1014 93 10000 2.6 180 21:54 18.10.2019
5963 Clouds 10 1014 100 10000 1 220 21:36 18.10.2019
5964 Clear 10 1014 93 10000 0.57 139.453 21:18 18.10.2019
5965 Clear 11 1014 93 10000 0.57 139.453 20:41 18.10.2019
5966 Clouds 11 1014 93 10000 1.5 130 20:22 18.10.2019
5967 Clouds 12 1014 93 10000 1.5 130 19:58 18.10.2019
5968 Clouds 12 1014 87 10000 1.5 130 19:40 18.10.2019
5969 Clouds 12 1014 87 10000 1.5 130 19:40 18.10.2019
5970 Clouds 12 1014 93 10000 1 0 19:21 18.10.2019
5971 Clouds 13 1014 93 10000 1 0 18:58 18.10.2019
5972 Clouds 13 1014 93 10000 1.5 0 18:39 18.10.2019
5973 Clear 14 1014 82 10000 1.5 240 18:21 18.10.2019
5974 Clear 15 1014 82 10000 1.5 240 17:39 18.10.2019
5975 Clouds 16 1014 87 10000 1.5 320 17:21 18.10.2019
5976 Clouds 16 1014 87 10000 1.5 320 16:59 18.10.2019
5977 Clouds 16 1014 87 10000 1.5 320 16:38 18.10.2019
5978 Clouds 16 1013 77 10000 0.9 325.92 16:19 18.10.2019
5979 Clear 16 1013 72 10000 3.1 230 15:54 18.10.2019
5980 Clouds 16 1013 82 10000 0.5 0 15:54 18.10.2019
5981 Clouds 16 1013 82 10000 0.5 0 15:36 18.10.2019
5982 Clouds 16 1014 77 10000 2.49 306.617 15:18 18.10.2019
5983 Clouds 16 1014 77 10000 2.49 306.617 15:18 18.10.2019
5984 Clear 16 1013 63 10000 4.1 210 14:54 18.10.2019
5985 Clouds 16 1014 77 10000 2.49 306.617 14:36 18.10.2019
5986 Clouds 16 1014 77 10000 2.49 306.617 14:36 18.10.2019
5987 Clouds 17 1014 77 10000 3.1 310 14:18 18.10.2019
5988 Clouds 17 1014 82 10000 2.1 260 13:41 18.10.2019
5989 Clouds 17 1014 82 10000 4.6 280 13:23 18.10.2019
5990 Clouds 17 1014 82 10000 4.6 280 12:57 18.10.2019
5991 Clouds 17 1014 82 10000 6.2 290 12:39 18.10.2019
5992 Clouds 16 1014 82 10000 6.2 290 12:20 18.10.2019
5993 Clear 16 1014 63 10000 2.6 210 11:56 18.10.2019
5994 Clouds 16 1014 82 10000 6.2 290 11:38 18.10.2019
5995 Clouds 15 1014 82 10000 3.6 290 11:19 18.10.2019
5996 Clouds 15 1014 82 10000 2.1 290 10:55 18.10.2019
5997 Clouds 15 1014 82 10000 2.1 290 10:37 18.10.2019
5998 Clouds 13 1014 82 10000 2.6 280 10:18 18.10.2019
5999 Clear 12 1015 82 10000 2.1 230 09:55 18.10.2019
6000 Clouds 12 1014 82 10000 2.6 280 09:36 18.10.2019
6001 Clouds 11 1014 87 10000 0.5 0 09:18 18.10.2019
6002 Rain 10 1015 93 10000 2.6 130 08:42 18.10.2019
6003 Drizzle 10 1015 93 10000 1 0 08:22 18.10.2019
6004 Clouds 10 1015 93 10000 1 0 07:44 18.10.2019
6005 Clear 10 1015 93 10000 1 0 07:26 18.10.2019
6006 Clouds 10 1015 87 10000 1 0 06:40 18.10.2019
6007 Clouds 10 1015 87 10000 1.5 100 06:22 18.10.2019
6008 Clouds 10 1015 87 10000 1.5 100 06:22 18.10.2019
6009 Clouds 10 1015 87 10000 1 0 05:57 18.10.2019
6010 -273 0 0 0 0 0 05:24 18.10.2019
6011 Clouds 10 1015 93 10000 2.1 170 05:24 18.10.2019
6012 Clouds 10 1015 87 10000 0.5 0 04:47 18.10.2019
6013 Clouds 11 1016 87 10000 2.6 110 03:33 18.10.2019
6014 Clouds 11 1016 93 10000 1.5 0 02:34 18.10.2019
6015 Clouds 11 1016 87 10000 0.5 0 01:47 18.10.2019
6016 Clouds 11 1016 87 10000 0.5 0 01:28 18.10.2019
6017 Clouds 11 1016 87 10000 0.5 0 01:28 18.10.2019
6018 Clouds 11 1017 87 10000 1.5 100 00:46 18.10.2019
6019 Clouds 11 1017 87 10000 2.6 110 00:21 18.10.2019
6020 Clouds 11 1017 87 10000 2.6 110 23:57 17.10.2019
6021 Clouds 11 1017 87 10000 1.5 110 23:36 17.10.2019
6022 Clouds 11 1017 87 10000 1 100 23:18 17.10.2019
6023 Clouds 11 1017 81 10000 2.1 200 22:55 17.10.2019
6024 Clouds 11 1017 81 10000 0.5 0 22:37 17.10.2019
6025 Clouds 11 1017 71 10000 1 0 22:18 17.10.2019
6026 Clear 11 1017 87 10000 2.1 180 21:55 17.10.2019
6027 Clouds 11 1016 76 10000 1.5 140 21:37 17.10.2019
6028 Clear 11 1016 71 10000 1.5 160 21:19 17.10.2019
6029 Clear 11 1016 58 10000 1 0 20:56 17.10.2019
6030 Clear 11 1016 58 10000 1 0 20:56 17.10.2019
6031 Clear 11 1016 58 10000 1 0 20:56 17.10.2019
6032 Clear 12 1016 58 10000 1 0 20:37 17.10.2019
6033 Clear 12 1016 76 10000 1 0 20:18 17.10.2019
6034 Clear 12 1016 76 10000 1 0 20:18 17.10.2019
6035 Clear 13 1015 81 10000 1 0 19:42 17.10.2019
6036 Clear 13 1015 81 10000 1 0 19:42 17.10.2019
6037 Clear 13 1015 82 10000 1 0 19:20 17.10.2019
6038 Clear 13 1015 82 10000 1 0 19:20 17.10.2019
6039 Clear 13 1015 82 10000 1 0 18:59 17.10.2019
6040 Clear 13 1015 76 10000 1 230 18:38 17.10.2019
6041 Clear 14 1015 76 10000 1 230 18:20 17.10.2019
6042 Clouds 16 1015 55 10000 1.5 0 17:43 17.10.2019
6043 Clouds 16 1015 55 10000 1.5 0 17:43 17.10.2019
6044 Clouds 17 1015 48 10000 3.6 100 17:24 17.10.2019
6045 Clouds 17 1015 48 10000 1.5 0 16:58 17.10.2019
6046 Clouds 17 1015 55 10000 2.1 300 16:40 17.10.2019
6047 Clouds 17 1015 55 10000 2.1 300 16:40 17.10.2019
6048 Clouds 18 1015 51 10000 1.5 310 16:19 17.10.2019
6049 Clouds 17 1015 51 10000 1.5 310 15:57 17.10.2019
6050 Clouds 17 1015 48 10000 1.5 40 15:38 17.10.2019
6051 Clouds 17 1015 48 10000 1.5 40 15:20 17.10.2019
6052 -273 0 0 0 0 0 14:56 17.10.2019
6053 Clouds 18 1016 51 10000 1.5 310 14:37 17.10.2019
6054 Clouds 17 1016 77 10000 2.1 280 14:19 17.10.2019
6055 Clouds 18 1016 77 10000 2.1 280 13:39 17.10.2019
6056 Clouds 18 1016 77 10000 2.1 280 13:39 17.10.2019
6057 Clouds 17 1017 76 10000 2.1 290 13:20 17.10.2019
6058 Clouds 17 1017 87 10000 2.1 290 12:57 17.10.2019
6059 Clouds 17 1017 87 10000 2.1 290 12:37 17.10.2019
6060 Clouds 17 1017 87 10000 2.1 290 12:37 17.10.2019
6061 Clouds 16 1017 87 10000 2.1 290 12:18 17.10.2019
6062 Clouds 16 1017 87 10000 2.1 290 12:18 17.10.2019
6063 Clouds 15 1017 87 10000 2.1 290 11:42 17.10.2019
6064 Clouds 15 1017 87 10000 2.1 290 11:42 17.10.2019
6065 Clouds 14 1017 93 10000 1.5 0 11:22 17.10.2019
6066 Clouds 13 1017 93 10000 1.5 0 10:59 17.10.2019
6067 Clouds 12 1017 93 10000 1.5 0 10:41 17.10.2019
6068 Clouds 11 1017 100 10000 2.1 110 10:19 17.10.2019
6069 Clouds 10 1017 81 10000 2.6 190 09:56 17.10.2019
6070 Clouds 9 1018 100 10000 2.1 110 09:37 17.10.2019
6071 Clouds 8 1017 100 10000 1.5 270 09:19 17.10.2019
6072 Clouds 7 1017 100 10000 1.5 270 08:48 17.10.2019
6073 Clouds 7 1017 100 10000 2.1 100 08:27 17.10.2019
6074 Clouds 7 1017 100 10000 2.1 100 07:59 17.10.2019
6075 Clouds 7 1017 100 10000 2.1 100 07:41 17.10.2019
6076 Clouds 7 1017 100 10000 1.5 120 07:20 17.10.2019
6077 Clouds 6 1017 100 10000 2.1 110 06:42 17.10.2019
6078 Clouds 6 1017 100 10000 2.1 110 06:42 17.10.2019
6079 Clouds 6 1017 100 10000 0.5 0 06:23 17.10.2019
6080 Clouds 6 1017 100 10000 0.5 0 05:58 17.10.2019
6081 Clouds 6 1017 100 10000 1 0 05:35 17.10.2019
6082 Clouds 6 1017 100 10000 1 240 04:57 17.10.2019
6083 Clouds 6 1017 100 10000 1 110 03:58 17.10.2019
6084 Clouds 6 1017 100 10000 1 130 03:38 17.10.2019
6085 Clouds 6 1016 100 10000 1 0 01:55 17.10.2019
6086 Clouds 7 1016 100 10000 0.5 130 00:41 17.10.2019
6087 Clear 7 1016 100 10000 1 110 00:20 17.10.2019
6088 Clear 7 1016 100 10000 1 220 23:42 16.10.2019
6089 Clear 7 1016 100 10000 0.5 0 23:21 16.10.2019
6090 Clear 7 1016 100 10000 0.5 0 22:57 16.10.2019
6091 Clear 7 1016 93 10000 1.5 100 22:38 16.10.2019
6092 Clear 7 1016 93 10000 1 130 22:20 16.10.2019
6093 Clear 8 1016 93 10000 1 130 21:58 16.10.2019
6094 Clear 8 1016 93 10000 1 130 21:58 16.10.2019
6095 Clear 8 1016 87 10000 0.5 0 21:38 16.10.2019
6096 Clear 8 1016 87 10000 0.5 0 21:38 16.10.2019
6097 Clear 8 1016 87 10000 1.5 130 21:20 16.10.2019
6098 Clear 8 1016 87 10000 1.5 130 20:58 16.10.2019
6099 Clear 9 1015 93 10000 1 0 20:40 16.10.2019
6100 Clear 9 1015 93 10000 1 0 20:21 16.10.2019
6101 Clear 9 1015 87 10000 1 0 19:59 16.10.2019
6102 Clear 9 1015 87 10000 1 0 19:39 16.10.2019
6103 Clear 9 1015 87 10000 1 0 19:39 16.10.2019
6104 Clear 10 1015 87 10000 1 0 19:21 16.10.2019
6105 -273 0 0 0 0 0 18:56 16.10.2019
6106 -273 0 0 0 0 0 18:56 16.10.2019
6107 Clear 12 1015 62 10000 0.5 0 18:37 16.10.2019
6108 Clear 13 1015 62 10000 0.5 0 18:18 16.10.2019
6109 Clear 14 1016 58 10000 1.5 240 17:54 16.10.2019
6110 Clear 14 1016 58 10000 2.1 280 17:36 16.10.2019
6111 Clear 15 1016 58 10000 2.1 280 17:18 16.10.2019
6112 Clear 15 1016 58 10000 2.6 300 16:43 16.10.2019
6113 Clear 15 1016 58 10000 2.6 300 16:21 16.10.2019
6114 Clear 15 1016 58 10000 2.6 300 15:58 16.10.2019
6115 -273 0 0 0 0 0 15:39 16.10.2019
6116 Clear 15 1017 51 10000 1.5 0 15:19 16.10.2019
6117 Clear 15 1017 51 10000 1.5 0 14:58 16.10.2019
6118 Clear 16 1017 51 10000 1.5 0 14:39 16.10.2019
6119 Clear 15 1017 51 10000 1.5 0 14:19 16.10.2019
6120 -273 0 0 0 0 0 13:57 16.10.2019
6121 Clear 14 1018 62 10000 2.6 270 13:38 16.10.2019
6122 Clear 14 1018 62 10000 2.6 270 13:38 16.10.2019
6123 Clear 14 1018 62 10000 2.6 270 13:19 16.10.2019
6124 Clear 14 1018 58 10000 3.6 160 12:42 16.10.2019
6125 Clear 13 1018 58 10000 3.6 160 12:19 16.10.2019
6126 Clear 12 1018 66 10000 1 0 11:45 16.10.2019
6127 Clear 11 1018 66 10000 1 0 11:19 16.10.2019
6128 Clear 11 1019 66 10000 2.1 270 10:41 16.10.2019
6129 Clear 10 1018 76 10000 6.7 240 10:22 16.10.2019
6130 Clear 10 1018 66 10000 3.6 170 09:58 16.10.2019
6131 Clear 10 1018 66 10000 3.6 170 09:58 16.10.2019
6132 Clear 9 1018 81 10000 2.1 140 09:39 16.10.2019
6133 Clear 9 1018 81 10000 2.1 140 09:39 16.10.2019
6134 Clouds 8 1018 87 10000 1 0 09:20 16.10.2019
6135 Clouds 7 1018 87 10000 1 0 08:44 16.10.2019
6136 Clouds 7 1017 87 10000 6.2 220 08:26 16.10.2019
6137 Clouds 7 1017 87 10000 5.1 220 07:56 16.10.2019
6138 Clouds 7 1018 93 10000 1.5 100 07:38 16.10.2019
6139 Clouds 8 1017 76 10000 1 0 07:20 16.10.2019
6140 Clouds 8 1017 76 10000 1 0 06:40 16.10.2019
6141 Clouds 8 1017 81 10000 0.5 0 06:19 16.10.2019
6142 Clouds 9 1017 71 10000 2.1 240 03:33 16.10.2019
6143 Clouds 9 1017 76 10000 1.5 250 02:50 16.10.2019
6144 Clouds 9 1016 71 10000 3.1 230 01:20 16.10.2019
6145 -273 0 0 0 0 0 00:54 16.10.2019
6146 Clouds 9 1016 71 10000 2.6 0 00:35 16.10.2019
6147 Rain 9 1015 76 10000 3.1 0 23:42 15.10.2019
6148 Rain 9 1015 76 10000 3.1 0 23:42 15.10.2019
6149 Rain 9 1013 93 10000 9.3 230 23:22 15.10.2019
6150 Rain 10 1015 76 10000 3.1 240 22:57 15.10.2019
6151 Rain 10 1015 81 10000 2.1 0 22:38 15.10.2019
6152 Rain 10 1014 81 10000 3.1 260 22:20 15.10.2019
6153 Rain 10 1014 93 10000 5.1 240 21:56 15.10.2019
6154 Rain 10 1014 93 10000 5.1 240 21:56 15.10.2019
6155 Rain 11 1013 87 10000 3.1 260 21:38 15.10.2019
6156 Rain 11 1012 93 8000 6.7 290 21:20 15.10.2019
6157 Rain 11 1012 93 8000 6.7 290 20:57 15.10.2019
6158 Rain 12 1012 93 8000 6.7 290 20:39 15.10.2019
6159 Rain 12 1012 93 8000 6.7 290 20:39 15.10.2019
6160 Rain 12 1011 93 10000 3.6 270 20:20 15.10.2019
6161 Rain 12 1011 93 10000 3.6 270 19:58 15.10.2019
6162 Rain 12 1011 93 10000 3.6 270 19:40 15.10.2019
6163 Clouds 12 1009 87 10000 5.1 240 19:20 15.10.2019
6164 Clouds 12 1008 82 10000 5.7 230 18:47 15.10.2019
6165 Rain 13 1008 67 10000 3.6 270 18:29 15.10.2019
6166 Rain 14 1008 67 10000 3.6 270 17:59 15.10.2019
6167 Rain 14 1009 82 10000 3.6 270 17:40 15.10.2019
6168 Rain 15 1008 67 10000 4.6 270 17:20 15.10.2019
6169 Clouds 15 1008 59 10000 6.2 270 16:56 15.10.2019
6170 Clouds 15 1008 59 10000 6.2 270 16:37 15.10.2019
6171 Clouds 16 1008 59 10000 6.2 270 16:19 15.10.2019
6172 Clouds 17 1008 72 10000 5.7 270 15:43 15.10.2019
6173 Clouds 18 1008 72 10000 5.7 270 15:21 15.10.2019
6174 Clouds 18 1008 72 10000 5.7 270 14:59 15.10.2019
6175 Clouds 19 1008 72 10000 7.7 270 14:38 15.10.2019
6176 Clouds 19 1008 72 10000 7.7 270 14:20 15.10.2019
6177 Clouds 19 1008 72 10000 7.7 270 14:20 15.10.2019
6178 Clouds 19 1008 72 10000 7.7 270 13:58 15.10.2019
6179 Clouds 18 1008 87 10000 7.7 290 13:40 15.10.2019
6180 Clouds 19 1008 87 10000 7.7 290 13:19 15.10.2019
6181 Clouds 19 1007 87 10000 3.1 260 12:43 15.10.2019
6182 Clouds 18 1007 87 10000 3.1 260 12:22 15.10.2019
6183 Clouds 17 1007 87 10000 3.1 260 11:57 15.10.2019
6184 Clouds 17 1006 100 10000 5.1 300 11:38 15.10.2019
6185 Clouds 16 1006 100 10000 5.1 300 11:19 15.10.2019
6186 Clouds 17 1007 100 10000 3.1 280 10:45 15.10.2019
6187 Mist 15 1007 100 10000 3.1 290 10:22 15.10.2019
6188 Mist 14 1007 71 10000 2.1 40 09:58 15.10.2019
6189 Mist 14 1007 100 10000 3.1 290 09:38 15.10.2019
6190 Fog 11 1007 100 550 3.6 280 09:20 15.10.2019
6191 Mist 10 1009 100 10000 2.1 80 08:55 15.10.2019
6192 Fog 9 1009 93 10000 2.6 30 08:36 15.10.2019
6193 Mist 9 1007 100 2000 2.6 310 08:36 15.10.2019
6194 Fog 9 1008 100 250 3.6 280 08:18 15.10.2019
6195 Fog 9 1008 100 250 3.6 280 07:41 15.10.2019
6196 Mist 8 1008 100 6000 1.5 270 07:21 15.10.2019
6197 Mist 9 1008 100 6000 2.1 230 06:45 15.10.2019
6198 Fog 8 1009 100 4000 1 0 06:27 15.10.2019
6199 Fog 8 1009 100 3500 1 0 05:44 15.10.2019
6200 -273 0 0 0 0 0 05:24 15.10.2019
6201 Mist 9 1010 100 3900 1 0 04:33 15.10.2019
6202 Clouds 9 1011 100 7000 0.5 0 03:38 15.10.2019
6203 Clear 10 1012 93 10000 2.6 0 02:42 15.10.2019
6204 Clear 10 1012 93 10000 2.1 280 01:49 15.10.2019
6205 Clear 11 1012 93 10000 2.1 310 01:22 15.10.2019
6206 Clear 11 1012 93 10000 2.1 0 00:49 15.10.2019
6207 Clear 11 1012 87 10000 2.6 260 00:22 15.10.2019
6208 Clear 12 1013 87 10000 3.1 210 23:45 14.10.2019
6209 Clear 12 1012 100 10000 1 0 23:20 14.10.2019
6210 Clear 12 1012 100 10000 1 0 22:58 14.10.2019
6211 Clear 12 1013 93 10000 2.1 150 22:38 14.10.2019
6212 Clear 12 1013 87 10000 2.1 150 22:18 14.10.2019
6213 Clear 12 1013 87 10000 2.1 150 22:18 14.10.2019
6214 Clear 13 1013 87 10000 2.1 150 21:55 14.10.2019
6215 Clear 12 1013 93 10000 0.5 0 21:36 14.10.2019
6216 Clear 13 1012 87 10000 3.6 100 21:18 14.10.2019
6217 Clear 14 1013 100 10000 1.5 0 20:55 14.10.2019
6218 Clear 13 1013 93 10000 2.1 30 20:54 14.10.2019
6219 Clear 13 1013 93 10000 2.1 30 20:54 14.10.2019
6220 Clear 14 1013 100 10000 1.5 0 20:36 14.10.2019
6221 Clear 14 1013 100 10000 1.5 0 20:18 14.10.2019
6222 Clear 15 1013 93 10000 2.1 100 19:41 14.10.2019
6223 Clear 15 1014 87 10000 1.5 170 19:23 14.10.2019
6224 Clear 15 1014 87 10000 1.5 170 19:23 14.10.2019
6225 Clear 16 1014 77 10000 0.5 110 18:58 14.10.2019
6226 Clear 17 1013 88 10000 1 0 18:39 14.10.2019
6227 Clear 19 1013 77 10000 1.5 110 18:19 14.10.2019
6228 Clear 19 1014 77 10000 2.6 80 17:56 14.10.2019
6229 Clear 20 1014 77 10000 2.6 80 17:37 14.10.2019
6230 Clear 20 1014 77 10000 1 0 17:19 14.10.2019
6231 Clear 20 1014 77 10000 1 0 16:43 14.10.2019
6232 Clear 21 1015 77 10000 1.5 0 16:21 14.10.2019
6233 Clear 20 1015 72 10000 2.1 60 15:42 14.10.2019
6234 Clear 20 1015 77 10000 1.5 330 15:23 14.10.2019
6235 Clear 20 1015 77 10000 1.5 330 14:57 14.10.2019
6236 Clear 20 1015 77 10000 1.5 330 14:57 14.10.2019
6237 Clear 19 1015 77 10000 1.5 330 14:39 14.10.2019
6238 Clear 20 1016 87 10000 2.1 290 14:19 14.10.2019
6239 Clear 19 1016 100 10000 2.1 310 13:44 14.10.2019
6240 Clouds 19 1016 100 10000 2.1 310 13:21 14.10.2019
6241 Clear 19 1016 56 10000 3.1 60 12:55 14.10.2019
6242 Clouds 19 1017 100 10000 2.6 280 12:37 14.10.2019
6243 Clouds 18 1017 100 6000 2.6 280 12:18 14.10.2019
6244 Clouds 18 1017 100 6000 2.6 280 12:18 14.10.2019
6245 Clouds 18 1017 100 6000 2.6 280 12:18 14.10.2019
6246 Fog 17 1017 100 1000 3.1 290 11:44 14.10.2019
6247 Fog 17 1017 68 10000 2.6 70 11:26 14.10.2019
6248 Clear 17 1017 77 10000 1.5 30 10:57 14.10.2019
6249 Clouds 17 1017 100 10000 1.5 300 10:57 14.10.2019
6250 Clouds 16 1017 100 10000 1.5 300 10:38 14.10.2019
6251 Clouds 14 1017 100 10000 1 0 10:19 14.10.2019
6252 Mist 11 1017 100 1200 1 0 09:42 14.10.2019
6253 Fog 10 1017 100 1500 1 0 09:21 14.10.2019
6254 Fog 10 1017 100 2600 0.5 0 08:51 14.10.2019
6255 Fog 9 1017 100 1000 1 0 08:23 14.10.2019
6256 Clouds 8 1017 100 3000 0.5 0 07:47 14.10.2019
6257 Clouds 9 1017 100 10000 0.5 0 07:26 14.10.2019
6258 Clear 9 1017 100 10000 1 0 06:59 14.10.2019
6259 Clear 9 1018 100 10000 1.64 134.381 06:28 14.10.2019
6260 Clouds 9 1017 100 9000 1 0 05:57 14.10.2019
6261 Clear 10 1018 93 10000 2.1 170 05:29 14.10.2019
6262 Clear 10 1018 93 10000 2.6 180 04:34 14.10.2019
6263 Clear 10 1018 93 10000 1.5 250 03:26 14.10.2019
6264 Clear 10 1018 93 10000 1.5 250 03:26 14.10.2019
6265 Clear 10 1018 100 10000 1 240 02:34 14.10.2019
6266 Clear 11 1018 100 10000 0.5 0 01:22 14.10.2019
6267 Clear 11 1018 100 10000 0.5 0 00:44 14.10.2019
6268 Clear 12 1018 100 10000 1 0 00:19 14.10.2019
6269 Clear 12 1018 100 10000 2.1 110 23:43 13.10.2019
6270 Clear 12 1017 100 10000 2.1 110 23:20 13.10.2019
6271 Clear 13 1017 100 10000 2.1 110 22:58 13.10.2019
6272 Clear 13 1017 100 10000 1 0 22:40 13.10.2019
6273 Clear 13 1017 100 10000 1 0 22:20 13.10.2019
6274 Clear 13 1017 100 10000 0.5 0 21:57 13.10.2019
6275 Clear 13 1017 100 10000 0.5 0 21:37 13.10.2019
6276 Clear 13 1017 100 10000 0.5 0 21:36 13.10.2019
6277 Clear 14 1017 100 10000 1 0 21:18 13.10.2019
6278 Clear 14 1017 100 10000 0.5 0 20:57 13.10.2019
6279 Clear 15 1017 100 10000 0.5 0 20:37 13.10.2019
6280 Clear 15 1017 93 10000 1 0 20:19 13.10.2019
6281 Clear 15 1017 93 10000 1 0 19:56 13.10.2019
6282 Clear 15 1017 93 10000 1 0 19:56 13.10.2019
6283 Clear 15 1017 87 10000 2.1 160 19:56 13.10.2019
6284 Clear 15 1017 87 10000 2.1 160 19:55 13.10.2019
6285 Clear 15 1017 93 10000 1 0 19:37 13.10.2019
6286 Clear 15 1017 93 10000 1 0 19:37 13.10.2019
6287 Clear 16 1017 77 10000 1 0 19:19 13.10.2019
6288 Clear 17 1017 82 10000 2.1 170 18:55 13.10.2019
6289 -273 0 0 0 0 0 18:55 13.10.2019
6290 Clear 19 1017 60 10000 1 0 18:36 13.10.2019
6291 Clear 19 1017 60 10000 1 0 18:18 13.10.2019
6292 Clear 19 1017 60 10000 1 0 18:18 13.10.2019
6293 Clear 21 1017 60 10000 1 0 17:42 13.10.2019
6294 Clear 21 1017 60 10000 1.5 190 17:24 13.10.2019
6295 Clear 21 1017 64 10000 1.5 190 16:54 13.10.2019
6296 Clear 22 1017 60 10000 2.1 90 16:36 13.10.2019
6297 Clear 22 1017 64 10000 2.1 90 16:18 13.10.2019
6298 Clear 22 1017 72 10000 2.6 90 15:40 13.10.2019
6299 Clear 22 1018 68 10000 1.5 0 15:22 13.10.2019
6300 Clear 22 1018 53 10000 3.1 260 14:59 13.10.2019
6301 Clear 22 1018 68 10000 1.5 0 14:40 13.10.2019
6302 Clear 21 1018 72 10000 3.1 280 14:22 13.10.2019
6303 Clear 21 1018 53 10000 2.1 230 13:59 13.10.2019
6304 Clear 21 1018 77 10000 3.1 280 13:38 13.10.2019
6305 Clear 21 1018 77 10000 3.1 280 13:38 13.10.2019
6306 Clear 20 1018 82 10000 2.6 270 13:20 13.10.2019
6307 Clear 20 1018 56 10000 2.1 250 12:56 13.10.2019
6308 Clear 20 1018 82 10000 2.6 270 12:38 13.10.2019
6309 Clear 19 1018 82 10000 3.1 280 12:19 13.10.2019
6310 Clear 19 1018 82 10000 3.1 280 11:55 13.10.2019
6311 Clear 18 1018 82 10000 3.1 280 11:37 13.10.2019
6312 Clear 17 1017 77 10000 2.1 280 11:18 13.10.2019
6313 Clear 16 1018 82 10000 1 0 10:41 13.10.2019
6314 Clear 15 1018 87 10000 1 0 10:23 13.10.2019
6315 Clear 13 1018 87 10000 1 0 09:41 13.10.2019
6316 Clear 11 1018 100 10000 2.6 90 09:22 13.10.2019
6317 Clear 11 1018 100 10000 2.6 90 08:59 13.10.2019
6318 Clouds 10 1018 100 10000 2.1 110 08:40 13.10.2019
6319 Clouds 10 1018 100 10000 1 0 08:21 13.10.2019
6320 Clear 9 1018 100 10000 1 120 07:46 13.10.2019
6321 Clear 10 1018 100 10000 1 0 07:21 13.10.2019
6322 Clear 9 1018 100 10000 0.5 0 06:41 13.10.2019
6323 Clear 10 1018 100 10000 0.5 0 05:46 13.10.2019
6324 Clear 10 1018 100 10000 2.1 110 04:49 13.10.2019
6325 Clear 10 1018 87 10000 3.6 210 04:29 13.10.2019
6326 Clear 11 1018 100 10000 1 0 02:42 13.10.2019
6327 Clouds 12 1018 81 10000 3.6 220 01:54 13.10.2019
6328 Clouds 12 1018 100 10000 0.5 0 01:30 13.10.2019
6329 Clear 13 1018 93 10000 0.5 0 00:47 13.10.2019
6330 Clear 13 1018 93 10000 0.5 0 00:47 13.10.2019
6331 Clear 13 1018 87 10000 0.5 110 00:21 13.10.2019
6332 Clouds 13 1018 76 10000 2.6 190 23:56 12.10.2019
6333 Clouds 13 1018 72 10000 3.1 180 23:37 12.10.2019
6334 Clear 13 1018 82 10000 0.5 0 23:19 12.10.2019
6335 Clear 13 1018 82 10000 0.5 0 22:57 12.10.2019
6336 Clear 13 1018 59 10000 2.6 0 22:38 12.10.2019
6337 Clear 13 1018 72 10000 1.5 0 22:20 12.10.2019
6338 Clear 13 1018 87 10000 1.5 0 21:54 12.10.2019
6339 Clear 13 1018 87 10000 1.5 0 21:54 12.10.2019
6340 Clear 13 1018 87 10000 1.5 0 21:36 12.10.2019
6341 Clear 14 1018 82 10000 1.5 0 21:18 12.10.2019
6342 Clear 13 1018 93 10000 2.1 120 20:40 12.10.2019
6343 Clear 13 1018 87 10000 1 0 20:22 12.10.2019
6344 Clear 14 1018 93 10000 1 0 19:38 12.10.2019
6345 Clear 14 1018 93 10000 0.5 0 19:20 12.10.2019
6346 Clear 15 1018 93 10000 1 0 18:56 12.10.2019
6347 Clear 15 1018 93 10000 1 0 18:56 12.10.2019
6348 Clear 16 1018 93 10000 1 0 18:37 12.10.2019
6349 Clear 17 1018 72 10000 1 290 18:19 12.10.2019
6350 Clear 19 1018 72 10000 1 290 17:42 12.10.2019
6351 Clear 19 1018 82 10000 2.6 290 17:19 12.10.2019
6352 Clear 19 1018 52 10000 3.1 240 16:54 12.10.2019
6353 Clear 19 1018 52 10000 3.1 240 16:54 12.10.2019
6354 Clear 20 1018 82 10000 2.6 290 16:36 12.10.2019
6355 Clear 20 1018 77 10000 1.5 290 16:18 12.10.2019
6356 Clear 20 1018 77 10000 1.5 290 15:40 12.10.2019
6357 Clear 20 1018 82 10000 2.1 300 15:22 12.10.2019
6358 Clear 20 1018 52 10000 5.1 240 14:41 12.10.2019
6359 Clear 20 1018 82 10000 2.1 290 14:22 12.10.2019
6360 Clear 20 1019 82 10000 2.1 290 13:53 12.10.2019
6361 Clear 20 1019 48 10000 1 0 13:33 12.10.2019
6362 Clear 19 1019 87 10000 1.5 0 12:59 12.10.2019
6363 Clear 19 1019 87 10000 1.5 0 12:39 12.10.2019
6364 Clear 17 1019 87 10000 2.1 290 12:20 12.10.2019
6365 Clear 17 1019 51 10000 6.2 220 11:58 12.10.2019
6366 Clear 17 1019 87 10000 2.1 290 11:38 12.10.2019
6367 Clear 15 1019 93 10000 1.5 0 11:19 12.10.2019
6368 Clear 14 1019 93 10000 1.5 0 10:41 12.10.2019
6369 Clear 13 1019 100 10000 1.5 110 10:23 12.10.2019
6370 Clear 12 1019 100 10000 1.5 110 09:58 12.10.2019
6371 Clear 12 1019 100 10000 1.5 110 09:57 12.10.2019
6372 Clear 11 1019 100 10000 1.5 110 09:39 12.10.2019
6373 Clear 9 1019 100 10000 1 0 09:20 12.10.2019
6374 Clear 8 1019 100 10000 1 0 08:56 12.10.2019
6375 Clear 8 1019 100 10000 1 0 08:55 12.10.2019
6376 Clear 7 1019 100 10000 1 0 08:36 12.10.2019
6377 Clear 6 1019 100 10000 0.5 0 08:18 12.10.2019
6378 Clear 7 1019 100 10000 1 0 07:33 12.10.2019
6379 Clear 6 1019 100 10000 1.5 0 06:44 12.10.2019
6380 Clear 6 1018 100 10000 0.5 0 05:46 12.10.2019
6381 Fog 7 1018 100 10000 0.5 0 04:47 12.10.2019
6382 Clear 7 1018 81 10000 3.6 220 03:56 12.10.2019
6383 Clouds 7 1018 76 10000 4.6 210 02:57 12.10.2019
6384 Clear 8 1019 100 10000 1.5 0 01:36 12.10.2019
6385 Clouds 8 1018 87 10000 1 0 00:58 12.10.2019
6386 Clear 8 1019 100 10000 1 0 00:39 12.10.2019
6387 Clouds 8 1018 87 10000 2.6 220 23:56 11.10.2019
6388 Clouds 9 1018 87 10000 4.1 220 23:37 11.10.2019
6389 Clear 9 1018 100 10000 1 220 23:19 11.10.2019
6390 Clear 9 1018 100 10000 0.5 0 22:39 11.10.2019
6391 Clear 9 1018 100 10000 0.5 0 22:20 11.10.2019
6392 Clear 9 1018 87 10000 2.1 200 21:55 11.10.2019
6393 Clear 9 1018 100 10000 0.5 0 21:36 11.10.2019
6394 Clear 10 1018 100 10000 1 0 21:18 11.10.2019
6395 Clear 10 1018 100 10000 1 0 20:42 11.10.2019
6396 Clear 10 1018 87 10000 2.1 200 20:24 11.10.2019
6397 Clear 11 1018 81 10000 2.6 190 19:56 11.10.2019
6398 Clear 12 1019 93 10000 1 0 19:38 11.10.2019
6399 Clear 12 1019 93 10000 0.5 0 19:18 11.10.2019
6400 Clear 13 1019 63 10000 1 80 18:56 11.10.2019
6401 Clear 13 1019 63 10000 1 80 18:56 11.10.2019
6402 Clear 14 1019 63 10000 1 80 18:37 11.10.2019
6403 Clear 15 1019 63 10000 1 80 18:18 11.10.2019
6404 Clear 16 1018 62 10000 3.1 200 17:57 11.10.2019
6405 Clear 16 1019 59 10000 1 0 17:37 11.10.2019
6406 Clear 16 1019 59 10000 0.5 0 17:18 11.10.2019
6407 Clear 17 1019 59 10000 2.1 40 16:42 11.10.2019
6408 Clear 17 1019 59 10000 2.1 40 16:21 11.10.2019
6409 Clear 17 1019 59 10000 4.1 220 15:59 11.10.2019
6410 Clear 17 1020 82 10000 2.1 280 15:39 11.10.2019
6411 Clear 16 1020 82 10000 2.1 280 15:19 11.10.2019
6412 Clear 16 1021 87 10000 4.6 270 14:47 11.10.2019
6413 Clear 16 1020 59 10000 4.6 230 14:29 11.10.2019
6414 Clear 16 1021 72 10000 1.5 30 13:57 11.10.2019
6415 Clear 16 1021 72 10000 1.5 30 13:38 11.10.2019
6416 Clear 16 1021 72 10000 1.5 30 13:19 11.10.2019
6417 Clear 15 1021 62 10000 4.6 230 12:56 11.10.2019
6418 Clear 14 1022 87 10000 2.1 60 12:38 11.10.2019
6419 Clear 14 1022 87 10000 2.1 60 12:18 11.10.2019
6420 Clear 13 1023 87 10000 0.5 0 11:41 11.10.2019
6421 Clouds 12 1023 100 10000 1.5 280 11:22 11.10.2019
6422 Clear 11 1022 76 10000 4.1 200 10:58 11.10.2019
6423 Clouds 11 1023 93 10000 3.1 280 10:40 11.10.2019
6424 Clouds 10 1023 93 10000 3.1 280 10:22 11.10.2019
6425 Clear 9 1023 87 10000 1.5 220 09:55 11.10.2019
6426 Clear 8 1022 100 10000 0.5 0 09:37 11.10.2019
6427 Clear 6 1022 100 10000 1.5 200 09:18 11.10.2019
6428 Clear 6 1022 100 10000 1.5 200 09:18 11.10.2019
6429 Clear 5 1022 100 10000 1.5 200 08:54 11.10.2019
6430 Clear 5 1022 100 10000 1.5 200 08:36 11.10.2019
6431 Clear 5 1022 100 10000 0.5 190 08:18 11.10.2019
6432 Clear 4 1022 100 10000 0.5 190 07:41 11.10.2019
6433 Clear 4 1022 100 10000 1 200 07:22 11.10.2019
6434 Clear 4 1022 100 10000 1 200 06:47 11.10.2019
6435 Clear 4 1022 93 10000 1.5 210 06:22 11.10.2019
6436 Clouds 5 1022 100 10000 1 190 05:37 11.10.2019
6437 Clouds 5 1022 93 10000 2.6 190 04:59 11.10.2019
6438 Clouds 5 1022 93 10000 2.6 190 04:24 11.10.2019
6439 Clear 6 1023 87 10000 1.5 230 02:18 11.10.2019
6440 Clear 7 1023 93 10000 3.6 210 00:43 11.10.2019
6441 Clear 7 1023 93 10000 3.6 210 00:25 11.10.2019
6442 Clear 7 1023 93 10000 0.5 0 23:42 10.10.2019
6443 Clear 8 1023 71 10000 1.5 190 23:21 10.10.2019
6444 Clouds 8 1023 87 10000 2.6 200 22:57 10.10.2019
6445 Clouds 8 1023 71 10000 1 0 22:38 10.10.2019
6446 Clear 9 1023 71 10000 0.5 0 22:20 10.10.2019
6447 Clear 9 1023 76 10000 0.5 0 21:56 10.10.2019
6448 Clouds 9 1023 93 10000 1 0 21:56 10.10.2019
6449 Clear 9 1023 76 10000 0.5 0 21:56 10.10.2019
6450 Clear 9 1022 93 10000 2.6 210 21:38 10.10.2019
6451 Clouds 9 1023 81 10000 1 190 21:20 10.10.2019
6452 Clouds 10 1022 71 10000 1 0 20:42 10.10.2019
6453 Clouds 10 1022 71 10000 1 0 20:21 10.10.2019
6454 Clear 10 1021 87 10000 4.1 220 19:58 10.10.2019
6455 Clouds 9 1022 82 10000 1.5 0 19:40 10.10.2019
6456 Clouds 10 1022 82 10000 1.5 0 19:20 10.10.2019
6457 Clouds 10 1021 81 10000 4.6 250 18:56 10.10.2019
6458 Clouds 10 1020 76 10000 7.2 250 18:38 10.10.2019
6459 Clouds 12 1021 62 10000 0.5 0 18:19 10.10.2019
6460 Clouds 12 1021 71 10000 5.7 280 17:41 10.10.2019
6461 Clouds 12 1021 71 10000 5.7 280 17:20 10.10.2019
6462 Clouds 12 1021 71 10000 5.7 280 16:58 10.10.2019
6463 Rain 12 1021 76 10000 3.6 260 16:40 10.10.2019
6464 Rain 12 1021 76 10000 3.6 260 16:21 10.10.2019
6465 Clouds 12 1020 67 10000 6.2 280 15:44 10.10.2019
6466 Clouds 12 1020 67 10000 6.7 290 15:25 10.10.2019
6467 Clouds 12 1019 87 10000 5.7 250 14:59 10.10.2019
6468 Clouds 12 1020 67 10000 6.7 290 14:38 10.10.2019
6469 Clouds 12 1020 67 10000 6.7 290 14:38 10.10.2019
6470 Rain 12 1020 62 10000 6.2 260 14:19 10.10.2019
6471 Rain 12 1020 62 10000 6.2 260 13:59 10.10.2019
6472 Rain 12 1020 62 10000 6.2 260 13:40 10.10.2019
6473 Clouds 12 1020 55 10000 7.7 260 13:18 10.10.2019
6474 Rain 11 1020 55 10000 7.7 260 12:55 10.10.2019
6475 Rain 11 1019 93 10000 7.2 280 12:37 10.10.2019
6476 Rain 11 1019 93 10000 7.7 280 12:18 10.10.2019
6477 Rain 12 1019 58 10000 5.7 260 11:42 10.10.2019
6478 Clouds 12 1017 71 10000 10.3 260 11:21 10.10.2019
6479 Clouds 11 1018 76 10000 9.3 240 10:59 10.10.2019
6480 Clouds 11 1019 67 10000 2.1 260 10:41 10.10.2019
6481 Clouds 11 1018 67 10000 3.1 230 10:22 10.10.2019
6482 Clouds 10 1018 66 10000 2.1 250 09:54 10.10.2019
6483 Clouds 10 1018 66 10000 2.1 250 09:36 10.10.2019
6484 Clouds 10 1018 66 10000 2.1 250 09:18 10.10.2019
6485 Clouds 9 1017 71 10000 1.5 0 08:41 10.10.2019
6486 Rain 9 1017 76 10000 1 0 08:21 10.10.2019
6487 Rain 9 1016 87 9000 5.1 250 07:58 10.10.2019
6488 Rain 8 1016 87 9000 5.1 250 07:37 10.10.2019
6489 Rain 8 1017 81 10000 1 0 07:19 10.10.2019
6490 Rain 9 1017 81 10000 1 0 06:40 10.10.2019
6491 Clouds 9 1015 87 10000 5.7 220 05:57 10.10.2019
6492 Rain 8 1017 93 10000 1 0 05:22 10.10.2019
6493 Rain 8 1017 93 10000 1 0 05:22 10.10.2019
6494 Rain 9 1016 81 10000 4.6 220 04:36 10.10.2019
6495 Rain 8 1017 93 10000 1.5 0 02:49 10.10.2019
6496 Clouds 9 1017 93 10000 2.6 240 01:41 10.10.2019
6497 Rain 9 1017 93 10000 3.6 260 01:22 10.10.2019
6498 Clouds 9 1017 87 10000 2.1 230 00:41 10.10.2019
6499 Rain 9 1017 87 10000 5.7 280 00:19 10.10.2019
6500 Clouds 9 1016 93 10000 2.6 100 23:38 09.10.2019
6501 Clouds 9 1016 93 10000 0.5 0 23:19 09.10.2019
6502 Clouds 9 1016 93 10000 0.5 0 23:19 09.10.2019
6503 Clouds 9 1016 76 10000 3.1 320 22:42 09.10.2019
6504 Clouds 9 1015 87 10000 7.2 220 22:23 09.10.2019
6505 Clouds 9 1015 87 10000 7.2 220 21:59 09.10.2019
6506 Clouds 9 1015 87 10000 6.7 220 21:39 09.10.2019
6507 Rain 8 1015 87 10000 5.7 230 21:19 09.10.2019
6508 Rain 9 1015 87 10000 5.7 230 20:55 09.10.2019
6509 Rain 8 1016 87 10000 2.1 230 20:37 09.10.2019
6510 Clouds 9 1016 87 10000 2.1 230 20:18 09.10.2019
6511 Clouds 9 1016 87 10000 2.1 230 20:18 09.10.2019
6512 Clouds 9 1016 87 10000 2.1 230 20:18 09.10.2019
6513 Clouds 9 1016 81 10000 1.5 0 19:45 09.10.2019
6514 Rain 9 1016 81 10000 1.5 0 19:23 09.10.2019
6515 Drizzle 9 1014 87 10000 8.7 230 18:57 09.10.2019
6516 Drizzle 9 1016 81 10000 1 0 18:37 09.10.2019
6517 Drizzle 9 1016 81 10000 1 0 18:18 09.10.2019
6518 Rain 9 1014 87 10000 8.2 220 17:54 09.10.2019
6519 Rain 9 1016 81 10000 2.1 0 17:36 09.10.2019
6520 Rain 9 1016 81 10000 2.1 0 17:18 09.10.2019
6521 Rain 9 1016 93 8000 1 0 16:40 09.10.2019
6522 Rain 9 1016 93 8000 1 0 16:21 09.10.2019
6523 Rain 9 1016 93 8000 1 0 16:21 09.10.2019
6524 Rain 9 1014 87 10000 11.8 300 15:57 09.10.2019
6525 Rain 9 1014 87 10000 11.8 300 15:57 09.10.2019
6526 Rain 9 1014 87 10000 11.8 300 15:39 09.10.2019
6527 Rain 10 1015 100 8000 6.7 280 15:19 09.10.2019
6528 Rain 10 1014 87 10000 7.2 250 14:56 09.10.2019
6529 Rain 10 1015 100 7000 1 0 14:37 09.10.2019
6530 Rain 10 1015 100 7000 1 0 14:18 09.10.2019
6531 Rain 10 1015 100 7000 1 0 14:18 09.10.2019
6532 Rain 10 1013 93 10000 4.1 200 13:39 09.10.2019
6533 Rain 10 1014 100 10000 1 0 13:20 09.10.2019
6534 Rain 10 1014 100 6000 1.5 260 12:57 09.10.2019
6535 Rain 10 1014 100 6000 1.5 260 12:38 09.10.2019
6536 Rain 10 1014 100 6000 1.5 260 12:20 09.10.2019
6537 Rain 10 1014 100 6000 1.5 260 11:55 09.10.2019
6538 Rain 10 1014 100 6000 1.5 260 11:55 09.10.2019
6539 Rain 10 1014 100 6000 1.5 260 11:36 09.10.2019
6540 Rain 10 1014 100 6000 1.5 260 11:36 09.10.2019
6541 Rain 10 1015 100 8000 1.5 0 11:18 09.10.2019
6542 Rain 10 1015 100 8000 1.5 0 10:42 09.10.2019
6543 Rain 10 1015 100 5000 1.5 0 10:20 09.10.2019
6544 Rain 10 1014 100 5000 2.6 200 09:56 09.10.2019
6545 Rain 10 1015 100 5000 1.5 0 09:38 09.10.2019
6546 Rain 10 1015 100 6000 2.1 40 09:18 09.10.2019
6547 Rain 10 1015 100 6000 2.1 40 08:39 09.10.2019
6548 Rain 10 1014 100 9000 2.1 30 08:20 09.10.2019
6549 Rain 11 1014 100 9000 2.1 30 07:47 09.10.2019
6550 Rain 11 1014 100 8000 2.1 240 07:25 09.10.2019
6551 Rain 11 1014 100 8000 2.1 240 07:25 09.10.2019
6552 Rain 11 1014 100 8000 2.1 240 07:25 09.10.2019
6553 Rain 11 1014 100 8000 2.1 240 07:25 09.10.2019
6554 Rain 11 1014 100 10000 2.1 200 06:59 09.10.2019
6555 Rain 11 1014 100 9000 1.5 0 06:41 09.10.2019
6556 Rain 12 1014 100 7000 3.6 310 05:53 09.10.2019
6557 Rain 12 1013 100 3600 1.5 110 05:18 09.10.2019
6558 Rain 13 1014 100 6000 2.6 270 03:48 09.10.2019
6559 Rain 14 1014 93 4400 4.1 280 02:34 09.10.2019
6560 Clouds 14 1012 88 10000 1.5 0 01:39 09.10.2019
6561 Clouds 14 1012 88 10000 1.5 0 01:39 09.10.2019
6562 Rain 14 1012 93 10000 2.1 0 01:18 09.10.2019
6563 Rain 14 1011 72 10000 5.7 220 00:55 09.10.2019
6564 Rain 14 1011 72 10000 5.7 220 00:55 09.10.2019
6565 Rain 14 1011 72 10000 5.1 230 00:36 09.10.2019
6566 Clouds 14 1012 100 10000 1.5 0 00:18 09.10.2019
6567 Clear 14 1012 93 10000 1.5 90 23:38 08.10.2019
6568 Clear 14 1012 100 10000 1 0 23:18 08.10.2019
6569 Clouds 14 1012 67 10000 7.2 220 22:55 08.10.2019
6570 Clear 14 1012 93 10000 1.5 0 22:36 08.10.2019
6571 Clear 14 1012 93 10000 0.5 0 22:18 08.10.2019
6572 Clear 14 1012 71 10000 5.1 230 21:55 08.10.2019
6573 Clear 14 1012 93 10000 1 0 21:36 08.10.2019
6574 Clouds 14 1013 93 10000 1 220 21:18 08.10.2019
6575 Clouds 14 1013 93 10000 1 0 20:54 08.10.2019
6576 Clouds 14 1013 93 10000 1 0 20:36 08.10.2019
6577 Clouds 14 1013 93 10000 1 0 20:18 08.10.2019
6578 Clear 14 1013 93 10000 1 210 19:41 08.10.2019
6579 Clouds 14 1013 87 10000 1 0 19:23 08.10.2019
6580 Clouds 15 1013 87 10000 1 0 18:57 08.10.2019
6581 Clear 15 1013 82 10000 1 0 18:39 08.10.2019
6582 Clear 15 1013 82 10000 1 0 18:19 08.10.2019
6583 Clear 16 1013 77 10000 1.5 20 17:56 08.10.2019
6584 Clear 16 1013 77 10000 1.5 20 17:56 08.10.2019
6585 Clear 16 1013 77 10000 1.5 20 17:38 08.10.2019
6586 Clouds 16 1013 72 10000 2.1 50 17:18 08.10.2019
6587 Clouds 16 1014 63 10000 1.5 60 16:41 08.10.2019
6588 Clouds 16 1014 63 10000 1.5 60 16:22 08.10.2019
6589 Clouds 16 1013 67 10000 6.7 220 15:57 08.10.2019
6590 Clouds 16 1015 71 10000 1 0 15:37 08.10.2019
6591 Clouds 15 1015 71 10000 1 0 15:19 08.10.2019
6592 Clouds 15 1015 71 10000 1 0 15:19 08.10.2019
6593 Clouds 15 1015 67 10000 1 0 14:42 08.10.2019
6594 Clouds 15 1015 67 10000 1 0 14:21 08.10.2019
6595 Clouds 15 1014 58 10000 7.7 230 13:58 08.10.2019
6596 Clouds 14 1016 76 10000 2.1 300 13:39 08.10.2019
6597 Clouds 14 1016 76 10000 2.1 300 13:20 08.10.2019
6598 Clouds 14 1015 62 10000 8.2 230 12:59 08.10.2019
6599 Clouds 13 1015 71 10000 9.3 220 12:38 08.10.2019
6600 Clouds 12 1017 93 10000 1 30 12:19 08.10.2019
6601 Clouds 12 1017 93 10000 1 30 11:43 08.10.2019
6602 Rain 11 1015 76 10000 8.2 220 11:24 08.10.2019
6603 Rain 11 1015 76 10000 8.2 220 11:24 08.10.2019
6604 Rain 11 1017 71 10000 3.1 230 10:59 08.10.2019
6605 Rain 10 1017 93 10000 1.5 90 10:39 08.10.2019
6606 Clouds 10 1017 93 10000 1.5 90 10:20 08.10.2019
6607 Clouds 10 1017 93 10000 1.5 90 10:20 08.10.2019
6608 Clouds 9 1016 76 10000 6.7 220 09:57 08.10.2019
6609 Clouds 9 1018 100 10000 1 0 09:39 08.10.2019
6610 Clouds 8 1018 100 10000 1 0 09:19 08.10.2019
6611 Clear 8 1017 100 10000 1 0 08:42 08.10.2019
6612 Clear 7 1017 100 10000 1 0 08:24 08.10.2019
6613 Clear 7 1017 100 10000 1.5 0 07:45 08.10.2019
6614 Clear 6 1017 100 10000 1.5 0 07:21 08.10.2019
6615 Clear 6 1018 100 10000 1.5 90 06:53 08.10.2019
6616 Clear 6 1018 100 10000 1.5 90 06:29 08.10.2019
6617 Clear 6 1018 100 10000 2.1 100 05:55 08.10.2019
6618 Clear 6 1017 87 10000 5.1 210 05:55 08.10.2019
6619 Clear 6 1018 100 10000 2.1 100 05:36 08.10.2019
6620 Clear 6 1019 100 10000 1.5 100 04:33 08.10.2019
6621 Clouds 7 1018 87 10000 4.6 210 03:29 08.10.2019
6622 Clear 6 1019 93 10000 2.1 110 02:39 08.10.2019
6623 Clear 6 1020 100 10000 1.5 0 01:47 08.10.2019
6624 Clouds 6 1019 93 10000 3.1 200 01:28 08.10.2019
6625 Clouds 6 1020 100 10000 1 0 00:48 08.10.2019
6626 Clouds 6 1020 100 10000 1 0 00:21 08.10.2019
6627 Clouds 6 1020 100 10000 1 0 23:41 07.10.2019
6628 Clouds 7 1020 100 10000 1.5 0 23:20 07.10.2019
6629 Clouds 7 1020 100 10000 1.5 0 23:20 07.10.2019
6630 Clouds 6 1019 87 10000 2.1 190 22:57 07.10.2019
6631 Clear 6 1020 100 10000 1.5 100 22:39 07.10.2019
6632 Clear 7 1020 93 10000 1 0 22:20 07.10.2019
6633 Clear 7 1019 93 10000 1.5 170 21:57 07.10.2019
6634 Clear 7 1020 93 10000 1 0 21:38 07.10.2019
6635 Clear 7 1019 87 10000 3.1 210 21:20 07.10.2019
6636 Clear 7 1019 87 10000 3.1 210 20:58 07.10.2019
6637 Clear 7 1019 87 10000 2.1 200 20:39 07.10.2019
6638 Clear 8 1019 81 10000 2.1 200 20:20 07.10.2019
6639 Clear 8 1019 87 10000 2.6 180 19:58 07.10.2019
6640 Clear 8 1019 93 10000 1.5 180 19:39 07.10.2019
6641 Clear 9 1019 81 10000 3.1 200 19:19 07.10.2019
6642 Clouds 10 1019 62 10000 1 0 18:56 07.10.2019
6643 Clear 10 1019 81 10000 3.1 200 18:56 07.10.2019
6644 Clouds 11 1019 62 10000 1 0 18:38 07.10.2019
6645 Clouds 12 1019 62 10000 1 0 18:18 07.10.2019
6646 Clouds 12 1019 67 10000 2.1 30 17:43 07.10.2019
6647 Clear 13 1019 67 10000 1 0 17:20 07.10.2019
6648 Clouds 13 1019 71 10000 2.1 30 16:56 07.10.2019
6649 Clouds 13 1019 71 10000 2.1 30 16:38 07.10.2019
6650 Clouds 14 1019 71 10000 2.6 100 16:19 07.10.2019
6651 Clouds 13 1019 71 10000 2.6 100 15:44 07.10.2019
6652 Clouds 12 1018 62 10000 5.1 230 15:25 07.10.2019
6653 -273 0 0 0 0 0 14:43 07.10.2019
6654 Clouds 12 1020 76 10000 1 0 14:24 07.10.2019
6655 Clouds 12 1020 76 10000 1 0 14:24 07.10.2019
6656 Clouds 12 1020 76 10000 1 0 13:59 07.10.2019
6657 Clouds 11 1020 76 10000 1 0 13:41 07.10.2019
6658 Rain 11 1020 81 10000 2.6 310 13:19 07.10.2019
6659 Clouds 11 1019 81 10000 3.1 300 12:55 07.10.2019
6660 Clouds 11 1020 81 10000 2.6 310 12:37 07.10.2019
6661 Clouds 10 1019 81 10000 1.5 0 12:18 07.10.2019
6662 Clouds 10 1019 81 10000 1.5 0 11:56 07.10.2019
6663 Clouds 10 1019 81 10000 1.5 0 11:37 07.10.2019
6664 Rain 10 1019 87 10000 1.5 90 11:18 07.10.2019
6665 -273 0 0 0 0 0 10:41 07.10.2019
6666 Clouds 9 1018 93 10000 2.1 110 10:20 07.10.2019
6667 Clouds 9 1018 93 10000 2.1 110 10:20 07.10.2019
6668 Clouds 8 1018 100 10000 2.1 110 09:42 07.10.2019
6669 Clouds 8 1018 93 10000 1 0 09:23 07.10.2019
6670 Clouds 8 1017 93 10000 5.1 240 08:56 07.10.2019
6671 Clouds 8 1018 93 10000 1 0 08:38 07.10.2019
6672 Clouds 7 1016 93 10000 4.6 230 08:19 07.10.2019
6673 Rain 7 1016 93 10000 4.6 230 07:41 07.10.2019
6674 Drizzle 7 1016 100 8000 5.7 270 07:21 07.10.2019
6675 Drizzle 7 1016 100 8000 5.7 270 07:21 07.10.2019
6676 Rain 7 1016 81 10000 2.6 280 06:48 07.10.2019
6677 Rain 8 1016 93 10000 1 0 06:27 07.10.2019
6678 Rain 8 1016 76 10000 3.6 260 05:42 07.10.2019
6679 Clouds 8 1015 81 10000 1.5 0 05:21 07.10.2019
6680 Mist 8 1015 93 10000 1 0 04:23 07.10.2019
6681 Mist 8 1015 93 10000 2.6 100 03:44 07.10.2019
6682 Rain 8 1015 93 10000 1 0 03:19 07.10.2019
6683 Rain 8 1015 93 10000 1 0 03:19 07.10.2019
6684 Rain 8 1015 93 10000 2.1 240 02:20 07.10.2019
6685 Rain 8 1015 93 10000 2.1 240 02:20 07.10.2019
6686 Rain 8 1014 100 10000 3.6 240 01:47 07.10.2019
6687 Rain 9 1014 100 10000 6.2 260 01:19 07.10.2019
6688 Rain 10 1012 100 3600 11.8 270 00:38 07.10.2019
6689 Rain 10 1011 100 4200 1 0 00:19 07.10.2019
6690 Rain 10 1010 100 3500 0.5 0 23:42 06.10.2019
6691 Rain 10 1010 100 3500 0.5 0 23:42 06.10.2019
6692 Rain 10 1010 100 9000 1.5 100 23:21 06.10.2019
6693 Rain 10 1010 93 10000 5.1 220 22:59 06.10.2019
6694 Rain 10 1010 100 10000 2.6 120 22:40 06.10.2019
6695 Rain 10 1011 100 5000 1 0 22:21 06.10.2019
6696 Rain 10 1011 100 5000 1 0 22:21 06.10.2019
6697 Rain 10 1010 100 10000 3.6 180 21:57 06.10.2019
6698 Rain 10 1011 93 5000 1.5 0 21:37 06.10.2019
6699 Rain 10 1011 100 10000 2.1 110 21:19 06.10.2019
6700 Rain 10 1011 100 5000 1.5 220 20:57 06.10.2019
6701 Rain 10 1011 100 10000 2.1 110 20:38 06.10.2019
6702 Rain 11 1011 100 10000 2.1 110 20:20 06.10.2019
6703 Rain 11 1012 100 8000 1 0 19:57 06.10.2019
6704 Rain 11 1012 100 8000 1 0 19:37 06.10.2019
6705 Rain 11 1012 100 8000 1 0 19:19 06.10.2019
6706 Rain 11 1012 100 10000 1.5 80 18:56 06.10.2019
6707 Rain 11 1012 100 10000 1.5 80 18:38 06.10.2019
6708 Drizzle 11 1012 100 8000 0.5 0 18:19 06.10.2019
6709 Drizzle 11 1012 100 8000 0.5 0 18:19 06.10.2019
6710 Rain 11 1013 100 10000 1.5 80 17:43 06.10.2019
6711 Rain 11 1013 100 10000 1.5 80 17:43 06.10.2019
6712 Rain 11 1013 100 10000 1.5 80 17:20 06.10.2019
6713 Drizzle 11 1014 93 10000 1.5 90 16:58 06.10.2019
6714 Drizzle 11 1014 93 10000 1.5 90 16:40 06.10.2019
6715 Clouds 11 1014 93 10000 1.5 90 16:22 06.10.2019
6716 Clouds 11 1014 93 9000 1.5 0 15:45 06.10.2019
6717 Rain 12 1015 93 9000 1.5 0 15:22 06.10.2019
6718 Rain 11 1014 93 10000 1 0 14:58 06.10.2019
6719 Rain 11 1015 93 8000 0.5 0 14:40 06.10.2019
6720 Rain 12 1015 93 8000 0.5 0 14:21 06.10.2019
6721 Rain 12 1015 87 10000 1 0 13:55 06.10.2019
6722 Clouds 11 1016 93 7000 1.5 280 13:37 06.10.2019
6723 Clouds 11 1016 93 7000 1.5 280 13:18 06.10.2019
6724 Clouds 11 1016 93 7000 1 0 12:55 06.10.2019
6725 Clouds 11 1016 93 10000 1 0 12:55 06.10.2019
6726 Clouds 11 1016 93 7000 1 0 12:37 06.10.2019
6727 Clouds 11 1016 93 10000 1 0 12:19 06.10.2019
6728 Mist 10 1016 93 7000 1 0 11:42 06.10.2019
6729 Mist 10 1016 93 5000 1 0 11:24 06.10.2019
6730 Mist 10 1016 93 5000 1 0 11:24 06.10.2019
6731 Clouds 10 1017 93 10000 0.5 0 10:56 06.10.2019
6732 Clouds 10 1017 93 10000 0.5 0 10:56 06.10.2019
6733 Clouds 9 1017 100 6000 1 0 10:38 06.10.2019
6734 Clouds 9 1017 100 6000 1 0 10:19 06.10.2019
6735 Rain 8 1017 100 10000 1 0 09:41 06.10.2019
6736 Drizzle 8 1017 100 10000 0.5 0 09:20 06.10.2019
6737 Clouds 7 1017 100 9000 0.5 0 08:49 06.10.2019
6738 Clouds 7 1017 100 5000 0.5 0 08:24 06.10.2019
6739 Clouds 7 1017 100 8000 1.5 50 07:59 06.10.2019
6740 Clouds 7 1017 100 8000 1.5 50 07:59 06.10.2019
6741 Clouds 7 1017 100 5000 0.5 0 07:40 06.10.2019
6742 Rain 7 1017 100 2500 2.1 270 06:53 06.10.2019
6743 Drizzle 7 1017 100 5000 1.5 0 05:41 06.10.2019
6744 Rain 7 1017 100 3400 1 0 04:40 06.10.2019
6745 Drizzle 7 1018 93 10000 1.5 30 02:56 06.10.2019
6746 Rain 7 1018 100 500 0.61 163.482 02:32 06.10.2019
6747 Rain 7 1018 100 9000 0.5 0 01:49 06.10.2019
6748 Drizzle 7 1018 100 5000 1 50 01:30 06.10.2019
6749 Rain 7 1018 100 9000 0.5 0 01:30 06.10.2019
6750 Drizzle 7 1018 100 10000 1.5 230 00:59 06.10.2019
6751 Rain 7 1018 100 10000 1 250 00:36 06.10.2019
6752 Rain 7 1018 100 10000 1 0 00:18 06.10.2019
6753 Rain 7 1018 100 9000 1.5 0 23:40 05.10.2019
6754 Rain 8 1018 100 10000 1 0 23:19 05.10.2019
6755 Clouds 8 1018 100 10000 1.5 230 22:54 05.10.2019
6756 Rain 8 1018 93 10000 2.1 80 22:54 05.10.2019
6757 Rain 8 1018 100 10000 2.6 90 22:36 05.10.2019
6758 Rain 8 1018 100 10000 2.6 220 22:18 05.10.2019
6759 Rain 8 1018 100 10000 2.6 220 22:18 05.10.2019
6760 Rain 8 1018 100 8000 2.1 230 21:41 05.10.2019
6761 Drizzle 8 1017 93 10000 2.1 70 21:22 05.10.2019
6762 Rain 8 1018 93 100